# Wetter Temperatur Luftdruck Luftfeuchtigkeit Sichtweite Windgeschwindigkeit Windrichtung Zeit
1 Clear 12 1019 93 10000 4.1 160 20:19 17.10.2019
2 Clear 12 1019 87 10000 4.1 160 19:57 17.10.2019
3 Clear 12 1019 87 10000 4.1 160 19:38 17.10.2019
4 Clear 13 1019 87 10000 4.1 160 19:19 17.10.2019
5 Clear 13 1020 82 10000 6.7 200 18:43 17.10.2019
6 Clear 14 1020 82 10000 6.7 200 18:21 17.10.2019
7 Clear 14 1020 82 10000 5.7 200 17:58 17.10.2019
8 Clouds 14 1020 82 10000 5.1 210 17:40 17.10.2019
9 Clouds 14 1020 82 10000 5.1 210 17:22 17.10.2019
10 Clouds 14 1020 77 10000 4.6 200 16:55 17.10.2019
11 Clouds 15 1020 77 10000 5.7 190 16:37 17.10.2019
12 Clouds 15 1020 77 10000 5.7 190 16:18 17.10.2019
13 Clouds 15 1020 77 10000 6.7 190 15:41 17.10.2019
14 Clouds 15 1020 77 10000 6.7 190 15:21 17.10.2019
15 Clouds 15 1020 72 10000 7.2 200 14:59 17.10.2019
16 Clouds 15 1020 72 10000 7.2 200 14:59 17.10.2019
17 Clouds 16 1020 72 10000 6.2 210 14:41 17.10.2019
18 Clouds 16 1020 72 10000 6.2 210 14:23 17.10.2019
19 Clouds 16 1020 63 10000 6.2 210 13:42 17.10.2019
20 Clouds 16 1020 63 10000 6.2 210 13:21 17.10.2019
21 Clouds 17 1019 63 10000 7.2 210 12:59 17.10.2019
22 Clouds 17 1019 52 10000 7.7 210 12:40 17.10.2019
23 Clouds 18 1019 52 10000 7.7 210 12:20 17.10.2019
24 Clouds 18 1019 52 10000 7.2 220 11:57 17.10.2019
25 Clouds 19 1019 49 10000 7.7 230 11:39 17.10.2019
26 Clouds 19 1019 49 10000 7.7 230 11:18 17.10.2019
27 Clouds 20 1019 46 10000 8.7 230 10:42 17.10.2019
28 Clouds 20 1019 46 10000 8.7 230 10:20 17.10.2019
29 Clouds 20 1018 43 10000 8.7 240 09:58 17.10.2019
30 Clouds 21 1018 43 10000 8.7 240 09:39 17.10.2019
31 Clouds 21 1018 43 10000 8.7 240 09:21 17.10.2019
32 Clouds 21 1019 40 10000 8.2 230 08:58 17.10.2019
33 Clouds 22 1019 38 10000 6.2 210 08:38 17.10.2019
34 Clouds 22 1019 38 10000 6.2 210 08:19 17.10.2019
35 Clouds 22 1019 38 10000 5.1 230 07:50 17.10.2019
36 Clouds 22 1019 35 10000 6.2 200 07:21 17.10.2019
37 Clouds 22 1019 35 10000 6.2 200 07:21 17.10.2019
38 Clouds 22 1020 35 10000 3.6 220 06:59 17.10.2019
39 Clouds 21 1020 33 10000 3.6 220 06:39 17.10.2019
40 Clouds 21 1020 33 10000 3.6 220 06:39 17.10.2019
41 Clouds 22 1020 33 10000 3.6 220 06:19 17.10.2019
42 Clouds 21 1021 42 10000 2.6 190 05:41 17.10.2019
43 Clouds 21 1021 42 10000 2.6 190 05:21 17.10.2019
44 Clouds 21 1022 45 10000 2.6 250 04:50 17.10.2019
45 Clouds 19 1022 52 10000 2.6 230 03:50 17.10.2019
46 Clouds 15 1022 62 10000 3.6 190 02:35 17.10.2019
47 Clouds 12 1022 81 10000 4.1 210 00:44 17.10.2019
48 Clear 10 1022 87 10000 4.1 220 00:22 17.10.2019
49 Clear 10 1022 87 10000 3.1 190 23:59 16.10.2019
50 Clear 9 1021 93 10000 3.1 210 23:41 16.10.2019
51 Clear 9 1021 93 10000 3.1 210 23:19 16.10.2019
52 Clear 9 1021 93 10000 3.1 210 23:19 16.10.2019
53 Clear 10 1021 87 10000 2.6 200 22:54 16.10.2019
54 Clear 10 1021 87 10000 3.1 200 22:36 16.10.2019
55 Clear 10 1021 87 10000 3.1 200 22:18 16.10.2019
56 Clear 10 1021 93 10000 3.6 220 21:55 16.10.2019
57 Clear 10 1021 93 10000 3.6 220 21:54 16.10.2019
58 Clear 10 1021 93 10000 3.6 220 21:54 16.10.2019
59 Clear 10 1021 93 10000 3.6 220 21:54 16.10.2019
60 Clear 10 1021 87 10000 3.6 190 21:36 16.10.2019
61 Clear 10 1021 87 10000 3.6 190 21:18 16.10.2019
62 Clear 11 1021 87 10000 3.6 190 20:54 16.10.2019
63 Clear 11 1022 87 10000 3.1 190 20:36 16.10.2019
64 Clear 11 1022 87 10000 3.1 190 20:36 16.10.2019
65 Clear 11 1022 87 10000 3.1 190 20:18 16.10.2019
66 Clear 11 1022 81 10000 3.6 190 19:40 16.10.2019
67 Clear 11 1022 81 10000 3.6 190 19:21 16.10.2019
68 Clear 11 1022 81 10000 3.6 190 19:21 16.10.2019
69 Clear 12 1022 87 10000 4.6 190 18:58 16.10.2019
70 Clear 12 1022 87 10000 3.1 220 18:37 16.10.2019
71 Clear 12 1022 87 10000 3.1 220 18:18 16.10.2019
72 Clear 12 1022 76 10000 3.6 210 17:55 16.10.2019
73 Clear 13 1023 71 10000 3.6 210 17:36 16.10.2019
74 Clear 13 1023 71 10000 3.6 210 17:18 16.10.2019
75 Clear 13 1023 71 10000 3.6 200 16:43 16.10.2019
76 Clear 14 1023 67 10000 4.6 200 16:23 16.10.2019
77 Clear 14 1023 67 10000 5.7 190 15:59 16.10.2019
78 Clear 15 1023 62 10000 6.2 210 15:39 16.10.2019
79 Clear 14 1023 62 10000 6.2 210 15:19 16.10.2019
80 Clear 15 1023 62 10000 6.2 210 14:58 16.10.2019
81 Clear 15 1023 62 10000 6.2 210 14:39 16.10.2019
82 Clear 15 1023 59 10000 5.7 210 14:20 16.10.2019
83 Clear 15 1023 55 10000 5.7 210 13:57 16.10.2019
84 Clear 16 1023 55 10000 5.7 210 13:39 16.10.2019
85 Clear 16 1023 55 10000 6.7 210 13:21 16.10.2019
86 Clear 16 1023 51 10000 7.7 210 12:42 16.10.2019
87 Clear 17 1022 45 10000 7.7 210 12:20 16.10.2019
88 Clear 17 1022 42 10000 7.7 230 11:45 16.10.2019
89 Clear 18 1022 37 10000 8.7 230 11:19 16.10.2019
90 Clear 19 1022 39 10000 8.2 230 10:56 16.10.2019
91 Clear 19 1022 39 10000 8.2 230 10:36 16.10.2019
92 Clear 19 1022 37 10000 8.2 230 10:18 16.10.2019
93 Clear 21 1022 35 10000 8.2 240 09:40 16.10.2019
94 Clear 21 1022 35 10000 8.2 240 09:40 16.10.2019
95 Clear 21 1022 35 10000 7.7 250 09:21 16.10.2019
96 Clear 21 1022 42 10000 6.2 270 08:46 16.10.2019
97 Clear 21 1023 28 10000 5.1 230 08:26 16.10.2019
98 Clear 21 1023 32 10000 4.6 220 07:59 16.10.2019
99 Clear 21 1023 32 10000 4.6 220 07:41 16.10.2019
100 Clear 21 1023 30 10000 5.1 200 07:22 16.10.2019
101 Clear 21 1023 28 10000 2.1 220 06:46 16.10.2019
102 Clear 20 1024 32 10000 5.1 230 06:27 16.10.2019
103 Clouds 19 1025 42 10000 4.6 180 04:24 16.10.2019
104 Clouds 16 1025 58 10000 4.1 150 02:50 16.10.2019
105 Clear 12 1025 81 10000 1.5 300 01:20 16.10.2019
106 Clear 10 1025 100 10000 3.1 210 00:58 16.10.2019
107 Clear 10 1025 100 10000 3.1 210 00:58 16.10.2019
108 Clear 9 1025 100 10000 3.1 210 00:39 16.10.2019
109 Clear 8 1024 93 10000 2.133 132 23:42 15.10.2019
110 Clear 8 1024 93 10000 2.133 132 23:23 15.10.2019
111 Clear 8 1024 93 10000 2.133 132 22:59 15.10.2019
112 Clear 8 1024 100 10000 2.133 132 22:40 15.10.2019
113 Clear 8 1024 93 10000 1 30 22:21 15.10.2019
114 Clear 8 1024 93 10000 2.133 132 21:57 15.10.2019
115 Clear 9 1024 93 10000 2.178 128 21:39 15.10.2019
116 Clear 9 1024 100 10000 2.545 154 21:20 15.10.2019
117 Clear 9 1024 100 10000 2.545 154 21:20 15.10.2019
118 Clear 9 1024 93 10000 2.6 170 20:58 15.10.2019
119 Clear 9 1024 93 10000 2.6 170 20:40 15.10.2019
120 Clear 10 1024 93 10000 2.6 190 20:21 15.10.2019
121 Clear 10 1024 87 10000 2.6 190 19:59 15.10.2019
122 Clear 11 1024 87 10000 2.6 190 19:41 15.10.2019
123 Clear 11 1024 87 10000 3.1 170 19:20 15.10.2019
124 Clear 11 1024 81 10000 4.1 150 18:55 15.10.2019
125 Clear 11 1024 81 10000 4.1 150 18:36 15.10.2019
126 Clear 12 1024 81 10000 4.1 150 18:18 15.10.2019
127 Clear 12 1024 71 10000 4.1 150 17:41 15.10.2019
128 Clear 12 1024 71 10000 4.6 200 17:21 15.10.2019
129 Clear 12 1024 71 10000 4.6 190 16:59 15.10.2019
130 Clear 12 1024 71 10000 4.6 190 16:59 15.10.2019
131 -273 0 0 0 0 0 16:40 15.10.2019
132 Clear 13 1024 71 10000 5.1 190 16:21 15.10.2019
133 Clear 13 1024 71 10000 5.7 190 15:55 15.10.2019
134 Clear 14 1024 71 10000 5.7 190 15:37 15.10.2019
135 Clouds 13 1024 67 10000 5.7 190 15:19 15.10.2019
136 Clouds 14 1024 67 10000 6.7 190 14:38 15.10.2019
137 Clouds 14 1024 58 10000 6.2 200 14:20 15.10.2019
138 Clouds 15 1023 58 10000 6.2 210 13:59 15.10.2019
139 Clouds 15 1023 58 10000 6.2 210 13:40 15.10.2019
140 Clouds 15 1023 58 10000 7.7 210 13:20 15.10.2019
141 Clouds 15 1023 51 10000 6.7 210 12:44 15.10.2019
142 Clouds 16 1022 51 10000 7.7 220 12:22 15.10.2019
143 Clouds 17 1022 48 10000 8.7 230 11:58 15.10.2019
144 Clouds 17 1022 48 10000 8.7 230 11:40 15.10.2019
145 Clouds 17 1022 42 10000 8.7 220 11:19 15.10.2019
146 Clouds 18 1022 45 10000 8.2 240 10:46 15.10.2019
147 Clouds 18 1022 42 10000 8.7 230 10:23 15.10.2019
148 Clouds 18 1022 39 10000 8.2 220 09:59 15.10.2019
149 Clear 18 1022 45 10000 8.7 230 09:40 15.10.2019
150 Clear 19 1022 45 10000 8.7 230 09:21 15.10.2019
151 Clear 19 1022 42 10000 7.2 220 08:57 15.10.2019
152 -273 0 0 0 0 0 08:57 15.10.2019
153 Clear 19 1022 34 10000 6.7 220 08:37 15.10.2019
154 Clear 19 1022 34 10000 6.7 220 08:18 15.10.2019
155 Clear 19 1022 34 10000 6.7 210 07:42 15.10.2019
156 Clouds 20 1023 34 10000 6.2 240 07:21 15.10.2019
157 Clouds 19 1023 32 10000 7.2 200 06:54 15.10.2019
158 Clouds 19 1023 34 10000 6.7 180 06:36 15.10.2019
159 Clouds 18 1023 36 10000 7.7 170 05:54 15.10.2019
160 Clear 18 1024 36 10000 6.7 190 05:35 15.10.2019
161 Clear 18 1024 41 10000 6.7 170 04:39 15.10.2019
162 Clouds 17 1024 44 10000 7.2 180 03:57 15.10.2019
163 Clouds 16 1024 44 10000 7.2 180 03:27 15.10.2019
164 Clear 13 1024 62 10000 4.1 190 01:51 15.10.2019
165 Clear 12 1024 76 10000 3.6 180 01:23 15.10.2019
166 Clear 10 1023 93 10000 3.6 180 00:52 15.10.2019
167 Clear 9 1023 100 10000 2.6 200 00:22 15.10.2019
168 Clear 8 1023 93 10000 2.6 200 23:46 14.10.2019
169 Clear 8 1022 87 10000 2.6 210 23:21 14.10.2019
170 Clear 8 1022 87 10000 2.6 210 22:59 14.10.2019
171 Clear 9 1022 87 10000 2.6 230 22:39 14.10.2019
172 Clear 9 1022 87 10000 2.6 230 22:19 14.10.2019
173 Clear 9 1022 87 10000 2.6 230 22:19 14.10.2019
174 Clear 9 1022 87 10000 2.6 230 22:19 14.10.2019
175 Clear 9 1022 87 10000 2.1 210 21:56 14.10.2019
176 Clear 9 1022 87 10000 2.1 210 21:56 14.10.2019
177 Clear 10 1022 81 10000 4.1 160 21:37 14.10.2019
178 Clear 10 1022 81 10000 4.1 160 21:19 14.10.2019
179 Clear 10 1022 81 10000 4.1 160 20:55 14.10.2019
180 Clear 10 1022 81 10000 4.1 160 20:55 14.10.2019
181 Clear 10 1022 81 10000 4.1 160 20:36 14.10.2019
182 Clear 11 1022 81 10000 4.1 160 20:18 14.10.2019
183 Clear 11 1022 81 10000 4.1 160 20:18 14.10.2019
184 Clear 11 1022 81 10000 4.1 160 19:42 14.10.2019
185 Clear 11 1022 81 10000 4.1 160 19:23 14.10.2019
186 Clear 11 1022 76 10000 4.6 190 18:59 14.10.2019
187 Clear 11 1022 76 10000 6.7 200 18:39 14.10.2019
188 Clear 11 1022 76 10000 6.7 200 18:39 14.10.2019
189 Clear 12 1022 76 10000 6.7 200 18:19 14.10.2019
190 Clear 12 1022 76 10000 6.7 200 18:19 14.10.2019
191 Clear 12 1022 71 10000 7.2 190 17:57 14.10.2019
192 Clear 12 1021 71 10000 4.1 160 17:38 14.10.2019
193 Clear 12 1021 71 10000 4.1 160 17:20 14.10.2019
194 Clear 13 1021 66 10000 4.1 160 16:44 14.10.2019
195 Clear 13 1021 71 10000 4.1 160 16:21 14.10.2019
196 Clear 14 1021 62 10000 4.1 160 15:43 14.10.2019
197 Clear 14 1021 62 10000 4.1 160 15:24 14.10.2019
198 Clear 14 1021 58 10000 4.1 160 14:58 14.10.2019
199 Clear 15 1021 58 10000 6.2 210 14:39 14.10.2019
200 Clear 15 1021 58 10000 6.2 210 14:20 14.10.2019
201 Clouds 15 1020 58 10000 6.7 210 13:44 14.10.2019
202 Clouds 15 1020 58 10000 6.7 220 13:21 14.10.2019
203 Clouds 15 1020 55 10000 7.7 220 12:55 14.10.2019
204 Clouds 16 1020 59 10000 7.2 210 12:37 14.10.2019
205 Clouds 16 1020 59 10000 7.2 210 12:18 14.10.2019
206 Clear 17 1019 42 10000 8.2 210 11:44 14.10.2019
207 Clear 17 1019 42 10000 8.2 210 11:26 14.10.2019
208 Clear 18 1019 39 10000 8.2 230 10:57 14.10.2019
209 Clear 19 1018 42 10000 8.7 230 10:38 14.10.2019
210 Clear 18 1018 42 10000 8.7 230 10:19 14.10.2019
211 Clear 19 1018 45 10000 7.7 220 09:42 14.10.2019
212 Clear 19 1018 45 10000 7.7 220 09:21 14.10.2019
213 Clear 20 1018 42 10000 7.7 210 08:51 14.10.2019
214 Clear 20 1018 42 10000 7.2 210 08:23 14.10.2019
215 Clear 20 1018 42 10000 7.2 210 07:47 14.10.2019
216 Clear 20 1018 42 10000 7.2 210 07:26 14.10.2019
217 Clear 20 1019 42 10000 5.1 220 06:59 14.10.2019
218 Clear 20 1019 45 10000 4.6 220 06:28 14.10.2019
219 Clouds 20 1019 48 10000 4.6 190 05:57 14.10.2019
220 Clouds 20 1019 52 10000 5.1 200 05:27 14.10.2019
221 Rain 19 1019 59 10000 3.6 160 03:51 14.10.2019
222 Rain 18 1019 59 10000 3.6 180 03:26 14.10.2019
223 Clouds 17 1019 82 10000 3.6 180 02:32 14.10.2019
224 Clouds 15 1018 87 10000 4.6 190 01:21 14.10.2019
225 Clouds 14 1017 93 10000 2.6 190 00:42 14.10.2019
226 Clouds 14 1017 93 10000 2.6 190 00:18 14.10.2019
227 Clouds 14 1017 93 10000 3.1 210 23:41 13.10.2019
228 Clouds 14 1017 93 10000 3.1 210 23:20 13.10.2019
229 Clouds 14 1016 100 10000 3.1 210 22:57 13.10.2019
230 Clouds 14 1016 93 10000 3.1 200 22:39 13.10.2019
231 Clouds 14 1016 93 10000 3.1 200 22:39 13.10.2019
232 Rain 14 1016 93 10000 3.1 200 22:20 13.10.2019
233 Rain 14 1016 93 10000 2.6 190 21:57 13.10.2019
234 Rain 14 1016 93 10000 3.1 210 21:36 13.10.2019
235 Clouds 14 1016 93 10000 3.1 210 21:18 13.10.2019
236 Rain 14 1016 93 10000 2.6 210 20:56 13.10.2019
237 Drizzle 14 1016 93 10000 7.88 179.637 20:37 13.10.2019
238 Drizzle 14 1016 93 10000 7.88 179.637 20:37 13.10.2019
239 Drizzle 14 1016 93 10000 7.88 179.637 20:19 13.10.2019
240 Rain 14 1016 100 10000 2.1 210 19:55 13.10.2019
241 Rain 14 1016 93 10000 2.6 0 19:36 13.10.2019
242 Rain 15 1016 93 10000 2.6 0 19:18 13.10.2019
243 Drizzle 15 1017 93 9000 3.6 180 18:41 13.10.2019
244 Rain 15 1017 93 9000 3.6 180 18:21 13.10.2019
245 Rain 15 1017 87 8000 2.6 300 17:59 13.10.2019
246 Rain 16 1017 100 6000 2.6 170 17:41 13.10.2019
247 Rain 16 1017 100 6000 2.6 170 17:41 13.10.2019
248 Rain 16 1017 100 6000 2.6 170 17:41 13.10.2019
249 Rain 16 1017 100 6000 2.6 170 17:23 13.10.2019
250 Rain 16 1017 77 10000 2.6 0 16:44 13.10.2019
251 Rain 16 1017 77 10000 2.6 0 16:20 13.10.2019
252 Rain 16 1017 72 10000 2.6 0 15:58 13.10.2019
253 Rain 16 1018 82 10000 2.6 280 15:39 13.10.2019
254 Rain 16 1018 82 10000 2.6 280 15:20 13.10.2019
255 Rain 16 1018 77 10000 2.6 0 14:58 13.10.2019
256 Rain 17 1017 67 10000 4.6 270 14:39 13.10.2019
257 Rain 17 1017 67 10000 4.6 270 14:20 13.10.2019
258 Rain 17 1017 63 10000 5.1 210 13:56 13.10.2019
259 Drizzle 17 1017 63 10000 5.1 210 13:37 13.10.2019
260 Drizzle 17 1017 63 10000 5.1 210 13:18 13.10.2019
261 Clouds 18 1017 55 10000 5.1 210 12:55 13.10.2019
262 Clouds 18 1017 55 10000 5.1 210 12:55 13.10.2019
263 Clouds 18 1017 55 10000 5.1 210 12:55 13.10.2019
264 Clouds 18 1017 59 10000 5.1 210 12:36 13.10.2019
265 Clouds 18 1017 59 10000 5.1 210 12:36 13.10.2019
266 Clouds 18 1017 59 10000 5.1 210 12:18 13.10.2019
267 Clouds 18 1016 59 10000 5.1 210 11:54 13.10.2019
268 Clouds 19 1016 52 10000 5.1 250 11:36 13.10.2019
269 Clouds 19 1016 52 10000 5.1 250 11:18 13.10.2019
270 Clouds 20 1016 45 10000 5.7 260 10:41 13.10.2019
271 Clouds 20 1016 45 10000 5.7 260 10:22 13.10.2019
272 Clouds 20 1016 45 10000 5.7 260 10:22 13.10.2019
273 Clouds 20 1016 45 10000 5.7 260 10:22 13.10.2019
274 Clouds 20 1016 43 10000 3.6 210 09:40 13.10.2019
275 Clouds 21 1016 43 10000 3.6 210 09:21 13.10.2019
276 Clouds 21 1016 43 10000 3.6 210 09:21 13.10.2019
277 Clouds 21 1016 46 10000 4.1 300 08:57 13.10.2019
278 Clouds 21 1017 43 10000 5.7 250 08:37 13.10.2019
279 Clouds 21 1017 43 10000 5.7 250 08:18 13.10.2019
280 Clouds 21 1017 45 10000 5.7 290 07:45 13.10.2019
281 Clouds 21 1017 45 10000 5.1 260 06:55 13.10.2019
282 Clouds 20 1018 48 10000 5.1 270 06:26 13.10.2019
283 Clouds 20 1018 49 10000 4.1 270 05:29 13.10.2019
284 Clouds 20 1019 55 10000 3.6 240 04:38 13.10.2019
285 Clouds 18 1019 59 10000 2.1 340 03:37 13.10.2019
286 Clouds 16 1018 67 10000 3.1 60 02:32 13.10.2019
287 Clouds 14 1018 67 10000 3.1 10 01:51 13.10.2019
288 Clouds 13 1018 76 10000 3.1 30 01:21 13.10.2019
289 Clouds 10 1018 87 10000 2.6 30 00:43 13.10.2019
290 Clouds 10 1018 87 10000 2.6 30 00:20 13.10.2019
291 Clouds 10 1018 93 10000 2.6 20 23:54 12.10.2019
292 Clouds 10 1018 93 10000 2.6 20 23:54 12.10.2019
293 Clouds 10 1017 93 10000 3.1 20 23:36 12.10.2019
294 Clouds 10 1017 93 10000 3.1 20 23:36 12.10.2019
295 Clouds 10 1017 93 10000 3.1 20 23:18 12.10.2019
296 Clouds 10 1017 93 10000 2.6 10 22:54 12.10.2019
297 Clouds 10 1017 100 10000 2.1 10 22:36 12.10.2019
298 Clouds 10 1017 100 10000 2.1 10 22:18 12.10.2019
299 Clouds 10 1017 100 10000 2.6 20 21:41 12.10.2019
300 Clouds 10 1017 100 10000 2.6 20 21:23 12.10.2019
301 Clouds 10 1017 100 10000 2.1 360 20:56 12.10.2019
302 Clouds 10 1017 93 10000 2.1 30 20:37 12.10.2019
303 Clouds 9 1017 93 10000 2.1 30 20:19 12.10.2019
304 Clouds 9 1018 93 10000 2.1 60 19:36 12.10.2019
305 Clouds 9 1018 93 10000 2.1 60 19:18 12.10.2019
306 Clouds 10 1018 93 10000 2.6 180 18:44 12.10.2019
307 Clouds 11 1018 93 10000 2.6 180 18:26 12.10.2019
308 Clouds 11 1019 87 10000 3.1 190 17:56 12.10.2019
309 Clouds 11 1019 87 10000 3.1 190 17:56 12.10.2019
310 Clouds 11 1019 71 10000 3.1 200 17:37 12.10.2019
311 Clouds 11 1019 71 10000 3.1 200 17:18 12.10.2019
312 Clear 12 1019 71 10000 3.1 210 16:40 12.10.2019
313 Clear 12 1019 71 10000 3.1 210 16:40 12.10.2019
314 Clear 12 1019 71 10000 3.1 210 16:21 12.10.2019
315 Clear 13 1019 62 10000 4.1 180 15:57 12.10.2019
316 Clear 13 1019 62 10000 4.1 180 15:57 12.10.2019
317 Clear 14 1019 67 10000 5.1 200 15:38 12.10.2019
318 Clear 14 1019 67 10000 5.1 200 15:18 12.10.2019
319 Clear 15 1019 58 10000 5.7 210 14:40 12.10.2019
320 Clear 15 1019 58 10000 5.7 210 14:20 12.10.2019
321 Clear 15 1018 55 10000 6.7 210 13:51 12.10.2019
322 Clouds 16 1018 51 10000 6.2 210 13:32 12.10.2019
323 Clouds 16 1017 51 10000 6.7 210 12:56 12.10.2019
324 Clear 16 1017 48 10000 6.7 230 12:38 12.10.2019
325 Clear 16 1017 48 10000 6.7 230 12:38 12.10.2019
326 Clear 17 1017 48 10000 6.7 230 12:20 12.10.2019
327 Clear 17 1017 48 10000 6.7 230 12:20 12.10.2019
328 Clear 18 1017 42 10000 7.7 240 11:45 12.10.2019
329 Clear 18 1017 42 10000 7.7 240 11:24 12.10.2019
330 Clear 19 1016 40 10000 7.2 230 10:58 12.10.2019
331 Clear 19 1016 40 10000 7.7 240 10:39 12.10.2019
332 Clear 19 1016 40 10000 7.7 240 10:20 12.10.2019
333 Clear 19 1016 40 10000 7.7 240 10:20 12.10.2019
334 Clear 20 1016 42 10000 7.2 230 09:57 12.10.2019
335 Clear 20 1016 42 10000 7.2 230 09:57 12.10.2019
336 Clear 19 1016 40 10000 6.7 240 09:37 12.10.2019
337 Clear 20 1016 40 10000 6.7 240 09:19 12.10.2019
338 Clear 21 1016 43 10000 6.2 230 08:43 12.10.2019
339 Clear 21 1016 40 10000 5.7 260 08:23 12.10.2019
340 Clear 21 1016 37 10000 5.7 210 07:49 12.10.2019
341 Clear 21 1016 40 10000 4.6 240 07:30 12.10.2019
342 Clouds 19 1017 43 10000 7.7 230 05:54 12.10.2019
343 Clouds 19 1017 45 10000 7.7 230 05:26 12.10.2019
344 Clouds 19 1018 48 10000 4.6 140 04:31 12.10.2019
345 Clouds 18 1018 55 10000 5.7 170 03:53 12.10.2019
346 Rain 16 1018 77 10000 4.6 170 02:37 12.10.2019
347 Clouds 14 1018 93 10000 3.1 180 01:32 12.10.2019
348 Clouds 14 1017 93 10000 4.1 200 00:54 12.10.2019
349 Clouds 14 1017 93 10000 3.6 170 00:35 12.10.2019
350 Clouds 13 1016 93 10000 3.6 190 23:54 11.10.2019
351 Clouds 13 1016 93 10000 4.1 210 23:36 11.10.2019
352 Clouds 13 1016 93 10000 4.1 210 23:36 11.10.2019
353 Clouds 14 1016 93 10000 4.1 200 23:18 11.10.2019
354 Clouds 14 1016 93 10000 4.1 210 23:18 11.10.2019
355 Rain 14 1016 93 10000 3.6 200 22:37 11.10.2019
356 Rain 14 1016 93 10000 3.6 200 22:18 11.10.2019
357 Clouds 14 1015 93 10000 4.1 220 21:42 11.10.2019
358 Clouds 14 1015 93 10000 4.1 220 21:21 11.10.2019
359 Rain 14 1015 93 10000 4.1 220 20:55 11.10.2019
360 Rain 14 1015 93 10000 3.6 190 20:37 11.10.2019
361 Rain 14 1015 93 10000 3.6 190 20:18 11.10.2019
362 Rain 14 1016 100 10000 2.6 180 19:55 11.10.2019
363 Rain 14 1017 100 10000 4.6 240 19:36 11.10.2019
364 Rain 14 1016 93 7000 3.1 280 19:18 11.10.2019
365 Rain 14 1016 93 7000 3.1 280 19:18 11.10.2019
366 Rain 15 1015 87 10000 4.1 180 18:39 11.10.2019
367 Rain 15 1015 87 10000 4.1 180 18:19 11.10.2019
368 Rain 15 1016 87 10000 3.6 180 17:59 11.10.2019
369 Rain 15 1016 100 10000 2.6 170 17:38 11.10.2019
370 Rain 15 1016 100 10000 2.6 170 17:19 11.10.2019
371 Rain 15 1017 100 2500 2.6 170 16:59 11.10.2019
372 Rain 15 1017 93 9000 2.6 110 16:39 11.10.2019
373 Rain 15 1017 93 9000 2.6 110 16:39 11.10.2019
374 Rain 15 1017 93 9000 2.6 110 16:19 11.10.2019
375 Rain 15 1017 100 10000 3.1 170 15:55 11.10.2019
376 Rain 15 1018 100 10000 2.1 210 15:36 11.10.2019
377 Rain 15 1018 100 10000 2.1 210 15:18 11.10.2019
378 Rain 15 1017 87 10000 2.6 260 14:41 11.10.2019
379 Rain 15 1017 87 10000 2.6 260 14:21 11.10.2019
380 Rain 16 1017 87 7000 4.1 240 13:45 11.10.2019
381 Rain 17 1017 77 9000 4.6 230 13:25 11.10.2019
382 Rain 18 1016 63 10000 4.6 200 12:57 11.10.2019
383 Clouds 18 1016 72 10000 5.1 210 12:39 11.10.2019
384 Clouds 18 1016 72 10000 5.1 210 12:39 11.10.2019
385 Clouds 18 1016 72 10000 5.1 210 12:20 11.10.2019
386 Clouds 19 1016 63 10000 4.6 190 11:58 11.10.2019
387 Clouds 19 1016 68 10000 5.1 210 11:38 11.10.2019
388 Clouds 19 1016 68 10000 5.1 210 11:20 11.10.2019
389 Clouds 19 1016 72 10000 5.1 200 10:55 11.10.2019
390 Clouds 19 1016 72 10000 5.1 200 10:55 11.10.2019
391 Clouds 19 1016 68 10000 5.1 230 10:36 11.10.2019
392 Clouds 19 1016 68 10000 5.1 230 10:18 11.10.2019
393 Rain 19 1016 82 10000 5.1 230 09:41 11.10.2019
394 Rain 19 1016 82 10000 5.1 230 09:21 11.10.2019
395 Clouds 19 1016 72 10000 7.7 240 08:56 11.10.2019
396 Clouds 19 1016 77 10000 6.2 250 08:38 11.10.2019
397 Clouds 19 1016 77 10000 6.2 250 08:20 11.10.2019
398 Rain 19 1016 88 10000 6.7 230 07:51 11.10.2019
399 Rain 20 1016 88 10000 5.7 240 07:33 11.10.2019
400 Rain 20 1016 88 10000 4.6 250 06:50 11.10.2019
401 Rain 19 1017 82 10000 6.7 250 06:25 11.10.2019
402 Rain 20 1016 73 10000 6.7 230 05:47 11.10.2019
403 Drizzle 20 1017 88 10000 4.6 350 05:28 11.10.2019
404 Drizzle 20 1017 88 6000 2.6 20 04:50 11.10.2019
405 Drizzle 18 1017 88 5000 3.1 350 03:20 11.10.2019
406 Clouds 15 1017 93 10000 2.1 350 00:54 11.10.2019
407 Clouds 15 1016 100 10000 2.6 20 00:31 11.10.2019
408 Clouds 14 1016 100 10000 2.1 10 23:57 10.10.2019
409 Clouds 14 1016 100 10000 2.1 10 23:39 10.10.2019
410 Clouds 14 1016 100 10000 2.1 10 23:18 10.10.2019
411 Clear 13 1016 100 10000 2.1 20 22:54 10.10.2019
412 Clouds 13 1016 100 10000 2.1 10 22:36 10.10.2019
413 Clouds 13 1016 100 10000 2.1 10 22:18 10.10.2019
414 Fog 13 1017 100 10000 2.6 40 21:42 10.10.2019
415 Fog 13 1017 100 10000 2.6 40 21:22 10.10.2019
416 Fog 13 1017 100 10000 2.6 40 21:22 10.10.2019
417 Fog 14 1017 93 10000 2.6 40 20:58 10.10.2019
418 Clear 14 1017 93 10000 2.1 40 20:39 10.10.2019
419 Clear 14 1017 93 10000 2.1 40 20:39 10.10.2019
420 Clear 14 1017 93 10000 2.1 40 20:19 10.10.2019
421 Fog 14 1017 93 10000 2.6 40 19:55 10.10.2019
422 Fog 14 1017 93 10000 2.6 40 19:55 10.10.2019
423 Clear 14 1018 93 10000 2.6 40 19:37 10.10.2019
424 Clear 15 1018 93 10000 2.1 20 19:19 10.10.2019
425 Clear 15 1018 87 10000 2.6 30 18:42 10.10.2019
426 Clear 15 1018 87 10000 2.6 30 18:20 10.10.2019
427 Clear 15 1018 87 10000 3.1 10 17:57 10.10.2019
428 Clouds 16 1018 87 10000 2.1 350 17:37 10.10.2019
429 Clouds 16 1018 87 10000 2.1 350 17:18 10.10.2019
430 Clouds 16 1018 82 10000 2.6 290 16:48 10.10.2019
431 Clouds 16 1019 82 10000 2.6 280 16:27 10.10.2019
432 Clouds 16 1019 77 10000 2.6 290 15:59 10.10.2019
433 Clouds 17 1018 77 10000 2.6 290 15:39 10.10.2019
434 Clouds 17 1018 77 10000 2.6 290 15:20 10.10.2019
435 Clouds 17 1018 77 10000 3.1 310 14:56 10.10.2019
436 Clouds 17 1018 77 10000 3.1 280 14:37 10.10.2019
437 Clouds 17 1018 77 10000 3.1 280 14:18 10.10.2019
438 Clouds 18 1018 68 10000 3.1 290 13:47 10.10.2019
439 Clouds 18 1017 68 10000 3.6 270 13:29 10.10.2019
440 Clouds 18 1017 63 10000 4.1 250 12:59 10.10.2019
441 Clouds 18 1017 68 10000 4.6 230 12:40 10.10.2019
442 Clouds 19 1017 68 10000 4.6 230 12:20 10.10.2019
443 Clouds 20 1017 64 10000 5.7 240 11:58 10.10.2019
444 Clouds 20 1017 64 10000 6.2 230 11:38 10.10.2019
445 Clouds 21 1017 56 10000 6.2 280 11:19 10.10.2019
446 Clouds 21 1017 56 10000 5.7 280 10:45 10.10.2019
447 Clouds 21 1017 56 10000 5.7 280 10:26 10.10.2019
448 Clouds 21 1017 53 10000 6.7 290 09:58 10.10.2019
449 Clouds 22 1016 49 10000 6.2 280 09:39 10.10.2019
450 Clouds 23 1016 49 10000 6.2 280 09:21 10.10.2019
451 Clear 23 1016 49 10000 6.7 270 08:57 10.10.2019
452 Clear 23 1016 46 10000 6.2 270 08:38 10.10.2019
453 Clear 23 1016 46 10000 6.2 270 08:18 10.10.2019
454 Clear 23 1016 46 10000 4.6 310 07:44 10.10.2019
455 Clouds 23 1016 50 10000 5.7 330 07:21 10.10.2019
456 Clouds 23 1017 49 10000 4.6 290 06:48 10.10.2019
457 Clouds 23 1017 56 10000 4.6 290 06:29 10.10.2019
458 Clouds 22 1017 56 10000 4.1 280 05:28 10.10.2019
459 Clouds 22 1017 56 10000 4.1 290 04:47 10.10.2019
460 Clouds 22 1017 60 10000 4.1 310 04:26 10.10.2019
461 Mist 16 1017 100 2000 3.6 10 01:43 10.10.2019
462 Mist 16 1017 100 2000 3.6 10 01:43 10.10.2019
463 Mist 15 1017 100 2000 3.6 10 01:24 10.10.2019
464 Mist 15 1016 93 1500 2.1 10 00:54 10.10.2019
465 Mist 14 1016 93 2000 1.5 20 00:22 10.10.2019
466 Fog 14 1015 100 800 3.1 80 23:40 09.10.2019
467 Fog 14 1015 100 800 3.1 80 23:20 09.10.2019
468 Mist 14 1015 100 5000 3.1 50 22:44 09.10.2019
469 Mist 14 1015 100 5000 3.1 50 22:24 09.10.2019
470 Mist 14 1015 100 4000 2.6 30 21:59 09.10.2019
471 Smoke 14 1015 93 4000 2.6 40 21:40 09.10.2019
472 Smoke 13 1015 93 4000 2.6 40 21:20 09.10.2019
473 Rain 14 1015 93 10000 2.6 20 20:56 09.10.2019
474 Rain 14 1015 93 10000 2.6 20 20:56 09.10.2019
475 Rain 14 1015 100 10000 2.6 70 20:37 09.10.2019
476 Rain 14 1015 100 10000 2.6 70 20:18 09.10.2019
477 Rain 14 1015 100 10000 2.6 70 20:18 09.10.2019
478 Clouds 14 1015 93 10000 3.1 30 19:45 09.10.2019
479 Fog 14 1015 93 10000 2.6 20 19:24 09.10.2019
480 Fog 14 1015 93 10000 2.6 20 18:58 09.10.2019
481 Fog 14 1015 93 10000 2.6 20 18:38 09.10.2019
482 Fog 14 1015 93 10000 2.6 20 18:18 09.10.2019
483 Fog 15 1015 93 10000 2.6 20 17:55 09.10.2019
484 Clear 15 1015 93 10000 2.1 70 17:37 09.10.2019
485 Clear 15 1015 93 10000 2.1 70 17:18 09.10.2019
486 Clear 15 1016 93 10000 2.1 250 16:41 09.10.2019
487 Clear 16 1016 93 10000 2.1 250 16:23 09.10.2019
488 Clear 16 1016 87 10000 2.6 220 15:58 09.10.2019
489 Clear 16 1016 82 10000 3.1 190 15:39 09.10.2019
490 Clear 17 1016 82 10000 3.1 190 15:20 09.10.2019
491 Clear 17 1016 77 10000 3.1 210 14:58 09.10.2019
492 Clear 18 1016 72 10000 3.1 240 14:39 09.10.2019
493 Clear 18 1016 72 10000 3.1 240 14:18 09.10.2019
494 Clouds 18 1016 88 10000 3.1 220 13:40 09.10.2019
495 Clear 19 1016 68 10000 4.1 250 13:21 09.10.2019
496 Clear 20 1015 56 10000 3.6 260 12:59 09.10.2019
497 Clear 20 1015 53 10000 3.6 230 12:40 09.10.2019
498 Clear 21 1015 53 10000 3.6 230 12:21 09.10.2019
499 Smoke 22 1014 47 10000 4.1 230 11:55 09.10.2019
500 Clear 23 1014 44 10000 4.6 250 11:36 09.10.2019
501 Clear 24 1014 44 10000 4.6 250 11:18 09.10.2019
502 Clear 24 1014 44 10000 4.6 250 11:18 09.10.2019
503 Clear 24 1013 39 10000 5.7 250 10:43 09.10.2019
504 Smoke 25 1013 39 10000 5.7 250 10:21 09.10.2019
505 Clear 26 1013 34 10000 5.7 260 09:57 09.10.2019
506 Clear 26 1013 34 10000 5.7 260 09:57 09.10.2019
507 Clear 27 1013 32 10000 5.7 260 09:38 09.10.2019
508 Clear 27 1013 32 10000 5.7 260 09:18 09.10.2019
509 Clear 28 1013 30 10000 4.6 270 08:40 09.10.2019
510 Clear 28 1013 30 10000 4.6 270 08:21 09.10.2019
511 Clear 28 1013 32 10000 3.6 260 07:48 09.10.2019
512 Clear 28 1013 32 10000 3.6 260 07:27 09.10.2019
513 Clear 28 1013 32 10000 3.6 260 07:27 09.10.2019
514 Clear 28 1013 32 10000 3.6 260 07:27 09.10.2019
515 Clear 27 1014 34 10000 4.6 290 06:59 09.10.2019
516 Clear 27 1014 39 10000 5.7 250 06:41 09.10.2019
517 Clear 27 1014 34 10000 2.6 340 05:53 09.10.2019
518 Clear 26 1014 41 10000 2.6 360 05:18 09.10.2019
519 Clear 24 1014 46 10000 1 330 03:54 09.10.2019
520 Clear 19 1014 72 10000 2.6 20 02:42 09.10.2019
521 Fog 17 1014 82 10000 3.1 20 01:39 09.10.2019
522 Fog 17 1014 82 10000 3.1 20 01:39 09.10.2019
523 Fog 16 1014 82 10000 3.1 20 01:19 09.10.2019
524 Fog 15 1014 93 10000 2.6 30 00:55 09.10.2019
525 Fog 14 1013 100 10000 3.1 30 00:37 09.10.2019
526 Fog 13 1013 100 10000 3.1 30 00:19 09.10.2019
527 Clear 13 1012 100 10000 2.1 50 23:39 08.10.2019
528 Clear 13 1012 100 10000 2.1 50 23:39 08.10.2019
529 Clear 13 1012 100 10000 2.1 50 23:18 08.10.2019
530 Clear 14 1012 93 10000 2.6 50 22:55 08.10.2019
531 Clouds 14 1012 87 10000 2.1 180 22:37 08.10.2019
532 Clouds 14 1012 87 10000 2.1 180 22:18 08.10.2019
533 Clear 15 1012 87 10000 2.1 250 21:56 08.10.2019
534 Clear 15 1012 87 10000 2.6 230 21:36 08.10.2019
535 Clear 16 1012 87 10000 2.6 230 21:18 08.10.2019
536 Clear 16 1012 87 10000 2.1 190 20:55 08.10.2019
537 Clear 16 1012 87 10000 2.1 190 20:55 08.10.2019
538 Clear 16 1013 82 10000 3.1 190 20:36 08.10.2019
539 Clear 16 1013 82 10000 3.1 190 20:18 08.10.2019
540 Clear 17 1013 77 10000 3.6 200 19:42 08.10.2019
541 Clear 17 1013 77 10000 3.6 200 19:24 08.10.2019
542 Clear 17 1013 72 10000 4.1 200 18:59 08.10.2019
543 Clear 17 1014 72 10000 5.1 200 18:41 08.10.2019
544 Clear 17 1014 72 10000 5.1 200 18:22 08.10.2019
545 Clear 18 1014 68 10000 5.1 200 17:57 08.10.2019
546 Clear 18 1014 72 10000 5.7 200 17:39 08.10.2019
547 Clear 18 1014 72 10000 5.7 200 17:18 08.10.2019
548 Clear 19 1015 64 10000 4.1 190 16:41 08.10.2019
549 Clear 19 1015 64 10000 4.1 190 16:22 08.10.2019
550 Clear 20 1015 60 10000 3.6 190 15:57 08.10.2019
551 Clear 20 1015 56 10000 5.1 200 15:38 08.10.2019
552 Clear 20 1015 56 10000 5.1 200 15:19 08.10.2019
553 Clear 22 1014 49 10000 6.2 200 14:42 08.10.2019
554 Clear 22 1014 49 10000 6.2 200 14:42 08.10.2019
555 Clear 22 1014 49 10000 6.2 200 14:21 08.10.2019
556 Clear 22 1014 44 10000 7.2 200 13:59 08.10.2019
557 Clear 23 1014 41 10000 6.2 190 13:39 08.10.2019
558 Clear 23 1014 41 10000 6.2 190 13:39 08.10.2019
559 Clear 23 1014 41 10000 6.2 190 13:20 08.10.2019
560 Clear 23 1014 39 10000 5.7 180 12:59 08.10.2019
561 Clear 24 1014 34 10000 7.2 180 12:39 08.10.2019
562 Clear 25 1014 34 10000 7.2 180 12:19 08.10.2019
563 Clear 28 1014 28 10000 6.7 210 11:43 08.10.2019
564 Clear 28 1014 28 10000 6.7 210 11:24 08.10.2019
565 Clear 28 1014 27 10000 5.7 200 10:59 08.10.2019
566 Clear 29 1014 25 10000 4.6 180 10:39 08.10.2019
567 Clear 29 1014 25 10000 4.6 180 10:20 08.10.2019
568 Clear 29 1014 25 10000 4.6 180 10:20 08.10.2019
569 Clear 29 1014 25 10000 6.2 230 09:57 08.10.2019
570 Clear 30 1014 22 10000 6.2 230 09:39 08.10.2019
571 Clear 30 1014 22 10000 6.2 230 09:20 08.10.2019
572 Clear 30 1015 25 10000 6.2 230 08:42 08.10.2019
573 Clear 30 1015 28 10000 3.1 70 08:24 08.10.2019
574 Clear 30 1015 28 10000 3.1 70 07:45 08.10.2019
575 Clear 30 1016 26 10000 4.1 70 07:22 08.10.2019
576 Clear 29 1016 30 10000 4.6 80 06:56 08.10.2019
577 Clear 28 1016 30 10000 4.6 80 06:32 08.10.2019
578 Clear 27 1017 30 10000 6.2 70 05:55 08.10.2019
579 Clear 27 1017 31 10000 6.7 70 05:36 08.10.2019
580 Clear 25 1018 33 10000 7.7 50 04:33 08.10.2019
581 Clear 22 1019 43 10000 6.2 70 03:29 08.10.2019
582 Clear 19 1019 55 10000 7.7 70 02:39 08.10.2019
583 Clear 17 1019 62 10000 5.1 70 01:47 08.10.2019
584 Clear 15 1019 67 10000 9.3 90 01:28 08.10.2019
585 Clear 14 1019 71 10000 9.3 90 00:46 08.10.2019
586 Clear 14 1019 71 10000 9.3 90 00:21 08.10.2019
587 Clear 14 1019 71 10000 10.3 90 23:40 07.10.2019
588 Clear 14 1019 71 10000 10.3 90 23:20 07.10.2019
589 Clear 14 1019 71 10000 10.3 90 23:20 07.10.2019
590 Clear 14 1019 67 10000 10.3 90 22:56 07.10.2019
591 Clear 14 1019 67 10000 10.3 90 22:56 07.10.2019
592 Clear 14 1019 67 10000 5.1 100 22:38 07.10.2019
593 Clear 14 1019 67 10000 5.1 100 22:38 07.10.2019
594 Clear 14 1019 67 10000 5.1 100 22:20 07.10.2019
595 Clear 14 1019 67 10000 10.3 90 21:56 07.10.2019
596 Clear 14 1019 67 10000 10.3 90 21:56 07.10.2019
597 Clear 15 1019 62 10000 3.6 110 21:38 07.10.2019
598 Clear 15 1019 62 10000 3.6 110 21:20 07.10.2019
599 Clear 15 1019 62 10000 8.2 90 20:57 07.10.2019
600 Clear 15 1019 62 10000 10.8 90 20:39 07.10.2019
601 Clear 16 1019 62 10000 10.8 90 20:20 07.10.2019
602 Clear 16 1019 63 10000 10.8 90 19:57 07.10.2019
603 Clear 16 1019 59 10000 10.8 100 19:39 07.10.2019
604 Clear 16 1019 59 10000 10.8 100 19:18 07.10.2019
605 Clear 17 1020 55 10000 10.3 100 18:55 07.10.2019
606 Clouds 17 1020 52 10000 8.2 80 18:37 07.10.2019
607 Clear 17 1020 52 10000 9.8 100 18:18 07.10.2019
608 Clear 18 1020 48 10000 9.8 110 17:41 07.10.2019
609 Clear 18 1020 48 10000 9.8 110 17:19 07.10.2019
610 Clear 18 1020 42 10000 8.7 110 16:55 07.10.2019
611 Clear 18 1020 42 10000 8.7 110 16:55 07.10.2019
612 Clear 18 1020 42 10000 8.7 110 16:55 07.10.2019
613 Clear 18 1020 42 10000 8.7 110 16:55 07.10.2019
614 Clear 18 1020 42 10000 8.7 110 16:55 07.10.2019
615 Clear 17 1021 45 10000 9.3 90 16:37 07.10.2019
616 Clear 17 1021 45 10000 9.3 90 16:18 07.10.2019
617 Clouds 18 1022 62 5000 2.1 140 15:41 07.10.2019
618 Clouds 18 1022 62 5000 2.1 140 15:41 07.10.2019
619 Clouds 18 1022 62 5000 2.1 140 15:41 07.10.2019
620 Clear 18 1022 39 10000 4.6 120 15:22 07.10.2019
621 Clear 18 1022 55 10000 3.6 120 14:42 07.10.2019
622 Clear 18 1022 55 10000 3.6 120 14:23 07.10.2019
623 Clear 18 1022 51 10000 4.1 140 13:45 07.10.2019
624 Clear 19 1022 48 10000 3.6 150 13:21 07.10.2019
625 Clear 19 1022 48 10000 3.6 150 13:21 07.10.2019
626 Clear 20 1021 40 10000 3.6 130 12:59 07.10.2019
627 Clear 21 1021 33 10000 3.6 110 12:41 07.10.2019
628 Clear 22 1021 33 10000 3.6 110 12:21 07.10.2019
629 Clear 23 1021 29 10000 3.6 120 11:59 07.10.2019
630 Clear 23 1021 27 10000 4.6 110 11:41 07.10.2019
631 Clear 24 1021 27 10000 4.6 110 11:22 07.10.2019
632 Clear 24 1020 27 10000 5.1 120 10:58 07.10.2019
633 Clear 24 1020 27 10000 5.1 120 10:58 07.10.2019
634 Clear 24 1020 27 10000 5.1 120 10:58 07.10.2019
635 Clear 25 1020 27 10000 3.1 90 10:39 07.10.2019
636 Clear 25 1020 27 10000 3.1 90 10:20 07.10.2019
637 Clear 25 1021 27 10000 4.6 90 09:40 07.10.2019
638 Clear 25 1021 27 10000 4.6 90 09:22 07.10.2019
639 Clear 24 1022 29 10000 5.1 90 08:44 07.10.2019
640 Clear 24 1022 29 10000 5.1 90 08:21 07.10.2019
641 Clear 24 1022 31 10000 4.6 130 07:59 07.10.2019
642 Clear 24 1022 33 10000 3.6 80 07:38 07.10.2019
643 Clear 24 1022 33 10000 3.6 80 07:19 07.10.2019
644 Clear 23 1023 40 10000 4.1 110 06:43 07.10.2019
645 Clear 22 1023 40 10000 4.1 110 06:22 07.10.2019
646 Clear 21 1024 42 10000 6.2 80 05:27 07.10.2019
647 Clouds 20 1025 45 10000 7.7 60 04:56 07.10.2019
648 Clouds 19 1025 48 10000 6.2 90 03:51 07.10.2019
649 Clouds 19 1025 48 10000 6.2 90 03:51 07.10.2019
650 Clear 18 1025 51 10000 6.2 100 03:32 07.10.2019
651 Clear 17 1025 55 10000 9.3 90 02:55 07.10.2019
652 Clear 16 1025 58 10000 9.8 90 02:19 07.10.2019
653 Clear 13 1025 62 10000 8.7 90 01:24 07.10.2019
654 Clear 12 1025 66 10000 7.7 90 00:53 07.10.2019
655 Clear 11 1024 71 10000 7.2 90 00:26 07.10.2019
656 Clear 11 1024 66 10000 8.7 100 23:59 06.10.2019
657 Clear 11 1024 66 10000 8.2 110 23:40 06.10.2019
658 Clear 11 1024 66 10000 8.2 110 23:20 06.10.2019
659 Clear 12 1024 62 10000 6.2 110 22:57 06.10.2019
660 Clear 11 1024 66 10000 3.1 130 22:39 06.10.2019
661 Clear 11 1024 66 10000 3.1 130 22:20 06.10.2019
662 Clear 11 1024 66 10000 3.1 130 22:20 06.10.2019
663 Clear 12 1024 66 10000 1.5 130 21:55 06.10.2019
664 Clear 12 1024 62 10000 4.1 170 21:37 06.10.2019
665 Clear 12 1024 62 10000 4.1 170 21:18 06.10.2019
666 Clear 11 1024 66 10000 4.1 140 20:55 06.10.2019
667 Clear 11 1024 66 10000 5.1 150 20:36 06.10.2019
668 Clear 11 1024 66 10000 5.1 150 20:18 06.10.2019
669 Clear 11 1024 71 10000 4.6 220 19:55 06.10.2019
670 Clear 11 1024 71 10000 5.1 210 19:36 06.10.2019
671 Clear 11 1024 71 10000 5.1 210 19:18 06.10.2019
672 Clear 11 1024 71 10000 5.1 210 19:18 06.10.2019
673 Clear 12 1024 66 10000 5.1 200 18:55 06.10.2019
674 Clear 12 1024 66 10000 5.1 200 18:55 06.10.2019
675 Clear 12 1024 66 10000 4.6 190 18:36 06.10.2019
676 Clear 12 1024 66 10000 4.6 190 18:18 06.10.2019
677 Clear 12 1024 66 10000 4.6 190 18:18 06.10.2019
678 Clear 12 1024 76 10000 3.6 170 17:42 06.10.2019
679 Clear 12 1024 76 10000 3.6 170 17:20 06.10.2019
680 Clear 12 1025 76 10000 4.1 180 16:55 06.10.2019
681 Clear 12 1025 76 10000 4.1 180 16:55 06.10.2019
682 Clear 13 1025 71 10000 4.6 180 16:37 06.10.2019
683 Clear 13 1025 71 10000 4.6 180 16:18 06.10.2019
684 Clear 13 1025 67 10000 6.2 190 15:42 06.10.2019
685 Clear 14 1025 67 10000 6.2 190 15:19 06.10.2019
686 Clear 14 1025 67 10000 6.2 190 15:19 06.10.2019
687 Clear 14 1025 58 10000 5.1 160 14:44 06.10.2019
688 Clear 15 1025 58 10000 5.1 160 14:25 06.10.2019
689 Clear 15 1024 55 10000 4.1 150 13:59 06.10.2019
690 Clear 15 1024 55 10000 7.7 200 13:39 06.10.2019
691 Clear 15 1024 55 10000 7.7 200 13:21 06.10.2019
692 Clear 16 1024 59 10000 4.6 190 12:57 06.10.2019
693 Clear 16 1023 51 10000 8.7 200 12:39 06.10.2019
694 Clear 17 1023 51 10000 8.7 200 12:20 06.10.2019
695 Clear 17 1023 48 10000 8.2 210 11:58 06.10.2019
696 Clear 18 1023 45 10000 8.7 220 11:38 06.10.2019
697 Clear 18 1023 45 10000 8.7 220 11:20 06.10.2019
698 Clear 19 1023 45 10000 8.2 240 10:44 06.10.2019
699 Clear 20 1023 46 10000 8.7 230 10:26 06.10.2019
700 Clear 20 1022 43 10000 7.7 240 09:58 06.10.2019
701 Clear 20 1022 40 10000 3.1 250 09:40 06.10.2019
702 Clear 21 1022 40 10000 3.1 250 09:19 06.10.2019
703 Clear 20 1023 40 10000 3.1 210 08:43 06.10.2019
704 Clouds 20 1023 42 10000 2.6 160 08:21 06.10.2019
705 Clouds 20 1023 45 10000 3.1 200 07:56 06.10.2019
706 Clouds 21 1023 49 10000 6.2 220 07:35 06.10.2019
707 Clouds 20 1024 52 10000 6.2 220 06:23 06.10.2019
708 Clouds 19 1025 52 10000 3.1 170 05:34 06.10.2019
709 Clouds 17 1025 63 10000 2.1 90 03:56 06.10.2019
710 Clear 15 1025 71 10000 2.6 160 02:44 06.10.2019
711 Clear 14 1025 76 10000 3.1 190 02:22 06.10.2019
712 Clear 13 1025 76 10000 4.1 190 01:45 06.10.2019
713 Clear 12 1025 81 10000 4.6 190 01:27 06.10.2019
714 Clouds 12 1025 87 10000 4.6 200 00:53 06.10.2019
715 Clouds 11 1024 81 10000 4.6 190 00:27 06.10.2019
716 Fog 11 1024 87 10000 3.1 190 23:45 05.10.2019
717 Clouds 11 1024 93 10000 4.6 190 23:22 05.10.2019
718 Clouds 11 1024 81 10000 4.6 190 22:58 05.10.2019
719 Clear 11 1024 87 10000 4.6 200 22:40 05.10.2019
720 Clear 11 1024 87 10000 4.6 200 22:40 05.10.2019
721 Clear 11 1024 87 10000 4.6 200 22:20 05.10.2019
722 Clear 11 1023 87 10000 4.6 200 21:56 05.10.2019
723 Clear 11 1023 87 10000 5.1 200 21:38 05.10.2019
724 Clear 11 1023 87 10000 5.1 200 21:18 05.10.2019
725 Clear 11 1023 87 10000 4.6 190 20:55 05.10.2019
726 Clouds 12 1023 81 10000 3.6 210 20:37 05.10.2019
727 Clouds 12 1023 81 10000 3.6 210 20:18 05.10.2019
728 Clear 12 1023 81 10000 4.1 210 19:37 05.10.2019
729 Clear 12 1023 81 10000 4.1 210 19:19 05.10.2019
730 Clear 12 1023 81 10000 4.1 210 19:19 05.10.2019
731 Clouds 13 1023 76 10000 3.6 210 18:55 05.10.2019
732 Clouds 13 1023 82 10000 4.6 210 18:37 05.10.2019
733 Clouds 13 1023 82 10000 4.6 210 18:19 05.10.2019
734 Clear 13 1023 82 10000 4.1 210 17:43 05.10.2019
735 Clear 13 1023 82 10000 4.1 210 17:24 05.10.2019
736 Clear 14 1023 82 10000 3.1 210 16:57 05.10.2019
737 Clouds 14 1023 82 10000 3.6 210 16:39 05.10.2019
738 Clouds 14 1023 82 10000 3.6 210 16:20 05.10.2019
739 Clouds 14 1023 77 10000 4.6 210 15:56 05.10.2019
740 Clouds 14 1023 77 10000 5.1 210 15:38 05.10.2019
741 Clouds 15 1023 77 10000 5.1 210 15:19 05.10.2019
742 Clouds 15 1023 77 10000 4.6 210 14:43 05.10.2019
743 Clouds 15 1023 72 10000 5.1 210 14:24 05.10.2019
744 Clouds 16 1023 72 10000 5.7 210 13:58 05.10.2019
745 Clouds 16 1022 72 10000 4.1 210 13:39 05.10.2019
746 Clouds 16 1022 72 10000 4.1 210 13:18 05.10.2019
747 Clouds 17 1022 67 10000 6.7 230 12:42 05.10.2019
748 Clouds 17 1022 67 10000 6.7 230 12:19 05.10.2019
749 Clouds 18 1021 59 10000 7.2 230 11:43 05.10.2019
750 Clouds 19 1021 59 10000 7.2 230 11:21 05.10.2019
751 Clouds 19 1021 59 10000 6.2 230 10:57 05.10.2019
752 Clouds 19 1021 59 10000 7.7 230 10:39 05.10.2019
753 Clouds 20 1021 59 10000 7.7 230 10:21 05.10.2019
754 Clouds 19 1020 59 10000 6.7 220 09:45 05.10.2019
755 Clouds 19 1020 59 10000 6.7 220 09:23 05.10.2019
756 Clouds 20 1020 59 10000 5.7 210 08:56 05.10.2019
757 Clouds 20 1020 59 10000 5.7 230 08:38 05.10.2019
758 Clouds 20 1020 59 10000 5.7 230 08:18 05.10.2019
759 Clouds 20 1020 56 10000 6.7 240 07:46 05.10.2019
760 Clouds 20 1020 56 10000 6.7 240 07:28 05.10.2019
761 Clouds 19 1021 59 10000 6.2 230 06:56 05.10.2019
762 Clouds 19 1021 55 10000 6.2 220 06:22 05.10.2019
763 Rain 19 1021 55 10000 5.7 180 05:20 05.10.2019
764 Clouds 17 1021 67 10000 6.2 200 03:32 05.10.2019
765 Rain 16 1020 82 10000 5.7 190 02:29 05.10.2019
766 Rain 15 1019 82 10000 4.1 190 01:26 05.10.2019
767 Clouds 14 1019 87 10000 3.6 210 00:48 05.10.2019
768 Clouds 14 1019 87 10000 3.6 210 00:48 05.10.2019
769 Clouds 14 1018 93 10000 3.1 210 00:27 05.10.2019
770 Clouds 14 1018 87 10000 2.6 210 23:56 04.10.2019
771 Clouds 14 1018 87 10000 2.6 210 23:56 04.10.2019
772 Clouds 14 1017 87 10000 2.6 210 23:37 04.10.2019
773 Clouds 14 1017 87 10000 2.6 210 23:18 04.10.2019
774 Rain 15 1017 87 10000 5.7 210 22:41 04.10.2019
775 Rain 15 1017 87 10000 5.7 210 22:23 04.10.2019
776 Clouds 15 1017 87 10000 6.2 210 21:58 04.10.2019
777 Clouds 15 1016 87 10000 6.2 210 21:40 04.10.2019
778 Clouds 15 1016 87 10000 6.2 210 21:22 04.10.2019
779 Rain 15 1016 87 10000 5.7 210 20:58 04.10.2019
780 Clouds 15 1016 82 10000 5.1 230 20:39 04.10.2019
781 Clouds 15 1016 82 10000 5.1 230 20:21 04.10.2019
782 Clouds 16 1015 82 10000 5.1 240 19:55 04.10.2019
783 Clouds 16 1015 87 10000 6.2 240 19:37 04.10.2019
784 Rain 16 1015 93 10000 2.1 290 19:18 04.10.2019
785 Rain 15 1015 82 10000 3.1 250 18:40 04.10.2019
786 Rain 15 1015 82 10000 3.1 250 18:20 04.10.2019
787 Rain 15 1015 82 10000 3.1 250 18:20 04.10.2019
788 Drizzle 15 1014 77 10000 3.1 260 17:58 04.10.2019
789 Clouds 15 1014 77 10000 3.6 270 17:39 04.10.2019
790 Clouds 16 1014 77 10000 3.6 270 17:20 04.10.2019
791 Clouds 16 1014 82 10000 3.1 250 16:55 04.10.2019
792 Clouds 16 1014 82 10000 3.1 250 16:55 04.10.2019
793 Clouds 16 1014 82 10000 3.1 250 16:55 04.10.2019
794 Clouds 16 1014 82 10000 4.6 220 16:37 04.10.2019
795 Clouds 16 1014 82 10000 4.6 220 16:18 04.10.2019
796 Clouds 16 1013 77 10000 5.7 260 15:55 04.10.2019
797 Clouds 16 1013 77 10000 5.7 260 15:55 04.10.2019
798 Rain 16 1013 72 10000 7.2 260 15:37 04.10.2019
799 Rain 16 1013 72 10000 7.2 260 15:37 04.10.2019
800 Rain 16 1013 72 10000 7.2 260 15:37 04.10.2019
801 Rain 16 1013 72 10000 7.2 260 15:18 04.10.2019
802 Drizzle 16 1011 77 10000 7.2 270 14:42 04.10.2019
803 Rain 16 1011 77 10000 7.2 270 14:22 04.10.2019
804 Rain 17 1010 77 10000 7.7 260 13:59 04.10.2019
805 Rain 16 1009 82 10000 8.7 270 13:41 04.10.2019
806 Rain 16 1009 82 10000 8.7 270 13:19 04.10.2019
807 Rain 16 1009 82 10000 8.7 270 13:19 04.10.2019
808 Rain 17 1006 77 10000 7.7 280 12:46 04.10.2019
809 Rain 17 1006 77 10000 7.7 280 12:27 04.10.2019
810 Rain 17 1005 82 10000 10.8 290 11:57 04.10.2019
811 Rain 17 1005 82 10000 10.8 290 11:57 04.10.2019
812 Rain 17 1002 88 10000 15.9 300 11:38 04.10.2019
813 Rain 17 1002 88 10000 15.9 300 11:19 04.10.2019
814 Rain 17 1000 88 6000 16.5 330 10:39 04.10.2019
815 Rain 17 1000 88 6000 16.5 330 10:20 04.10.2019
816 Rain 16 1000 93 8000 13.4 350 09:44 04.10.2019
817 Rain 16 1002 93 5000 13.4 10 09:26 04.10.2019
818 Rain 16 1002 93 5000 11.8 10 08:56 04.10.2019
819 Rain 15 1004 87 7000 10.8 360 08:37 04.10.2019
820 Rain 15 1004 87 7000 10.8 360 08:19 04.10.2019
821 Rain 16 1006 82 10000 11.3 350 07:43 04.10.2019
822 Rain 17 1006 82 10000 11.3 350 07:21 04.10.2019
823 Rain 18 1006 46 10000 17 350 06:41 04.10.2019
824 Clouds 19 1006 46 10000 17 350 06:23 04.10.2019
825 Rain 19 1007 59 10000 10.8 350 05:23 04.10.2019
826 Clouds 19 1007 43 10000 13.9 350 04:54 04.10.2019
827 Clouds 19 1009 68 10000 9.8 360 03:43 04.10.2019
828 Rain 18 1009 77 10000 12.9 360 02:53 04.10.2019
829 Rain 18 1009 77 10000 12.9 360 02:53 04.10.2019
830 Rain 16 1010 87 10000 7.2 350 01:55 04.10.2019
831 Rain 16 1010 87 10000 7.2 350 01:54 04.10.2019
832 Rain 16 1009 72 10000 7.2 20 01:28 04.10.2019
833 Rain 17 1010 77 10000 5.7 360 00:50 04.10.2019
834 Rain 18 1009 63 10000 8.7 10 23:54 03.10.2019
835 Clouds 18 1009 52 10000 4.6 30 23:36 03.10.2019
836 Clouds 18 1009 52 10000 4.6 30 23:18 03.10.2019
837 Clouds 18 1009 52 10000 5.1 40 22:54 03.10.2019
838 Clouds 18 1009 52 10000 8.2 70 22:36 03.10.2019
839 Clouds 18 1009 52 10000 8.2 70 22:18 03.10.2019
840 Clear 18 1008 52 10000 8.7 80 21:41 03.10.2019
841 Clear 18 1008 52 10000 8.7 80 21:21 03.10.2019
842 Clear 18 1009 52 10000 8.2 70 20:59 03.10.2019
843 Clouds 18 1009 52 10000 8.7 70 20:41 03.10.2019
844 Clouds 18 1009 52 10000 8.7 70 20:23 03.10.2019
845 Clear 17 1010 55 10000 7.2 70 19:59 03.10.2019
846 Clear 17 1011 72 10000 3.1 130 19:40 03.10.2019
847 Clear 17 1011 72 10000 3.1 130 19:20 03.10.2019
848 Clear 17 1012 82 10000 5.1 150 18:57 03.10.2019
849 Clear 17 1012 82 10000 5.1 150 18:57 03.10.2019
850 Clear 17 1012 77 10000 4.1 190 18:38 03.10.2019
851 Clear 17 1012 77 10000 4.1 190 18:19 03.10.2019
852 Clear 17 1012 72 10000 5.7 190 17:42 03.10.2019
853 Clear 17 1012 72 10000 5.7 190 17:23 03.10.2019
854 Clear 17 1013 72 10000 4.6 180 16:58 03.10.2019
855 Clear 18 1013 72 10000 4.6 210 16:40 03.10.2019
856 Clear 18 1013 72 10000 4.6 210 16:21 03.10.2019
857 Clear 18 1013 72 10000 4.6 210 15:54 03.10.2019
858 Clear 18 1013 68 10000 4.1 190 15:36 03.10.2019
859 Clear 18 1013 68 10000 4.1 190 15:18 03.10.2019
860 Clouds 19 1013 77 10000 4.6 220 14:39 03.10.2019
861 Clouds 19 1013 77 10000 4.6 220 14:20 03.10.2019
862 Clouds 19 1013 64 10000 5.1 230 13:45 03.10.2019
863 Clear 20 1013 60 10000 6.2 200 13:26 03.10.2019
864 Clear 20 1013 56 10000 6.7 190 12:59 03.10.2019
865 Clear 21 1013 53 10000 7.7 180 12:40 03.10.2019
866 Clear 21 1013 53 10000 7.7 180 12:40 03.10.2019
867 Clear 21 1013 53 10000 7.7 180 12:20 03.10.2019
868 Clear 22 1013 47 10000 7.7 190 11:58 03.10.2019
869 Clear 22 1013 47 10000 7.7 190 11:58 03.10.2019
870 Clear 22 1013 47 10000 7.2 210 11:40 03.10.2019
871 Clear 22 1013 47 10000 7.2 210 11:21 03.10.2019
872 Clear 24 1013 44 10000 6.7 220 10:57 03.10.2019
873 Clear 23 1013 44 10000 6.7 230 10:38 03.10.2019
874 Clear 24 1013 24 10000 4.1 180 10:18 03.10.2019
875 Clear 24 1013 39 10000 6.2 230 09:56 03.10.2019
876 Clear 24 1013 34 10000 2.6 200 09:37 03.10.2019
877 Clear 25 1013 34 10000 2.6 200 09:19 03.10.2019
878 Clear 25 1014 34 10000 4.1 360 08:42 03.10.2019
879 Clear 25 1014 34 10000 4.1 360 08:23 03.10.2019
880 Clear 25 1015 36 10000 3.1 60 07:42 03.10.2019
881 Clear 26 1015 36 10000 3.1 60 07:20 03.10.2019
882 Clear 25 1015 36 10000 6.7 40 06:52 03.10.2019
883 Clear 24 1016 39 10000 4.6 80 06:27 03.10.2019
884 Clear 24 1016 38 10000 4.1 80 05:49 03.10.2019
885 Clear 24 1017 38 10000 5.7 60 05:27 03.10.2019
886 Clear 23 1018 49 10000 4.6 70 04:44 03.10.2019
887 Clear 21 1018 52 10000 4.1 80 03:54 03.10.2019
888 Clear 20 1019 56 10000 4.6 80 03:19 03.10.2019
889 Clear 17 1019 63 10000 6.7 80 02:21 03.10.2019
890 Clear 14 1019 76 10000 2.1 40 01:37 03.10.2019
891 Clear 12 1019 82 10000 3.6 80 00:52 03.10.2019
892 Clear 11 1019 81 10000 2.6 60 00:31 03.10.2019
893 Clear 11 1018 81 10000 3.6 40 23:44 02.10.2019
894 Clear 11 1018 81 10000 3.6 40 23:24 02.10.2019
895 Clear 11 1018 93 10000 2.1 20 22:57 02.10.2019
896 Clear 11 1018 93 10000 1.5 40 22:38 02.10.2019
897 Clear 11 1018 93 10000 1.5 40 22:18 02.10.2019
898 Clear 11 1018 100 10000 3.76 35.453 21:55 02.10.2019
899 Clear 11 1018 100 10000 3.76 35.453 21:55 02.10.2019
900 Clear 11 1018 100 10000 3.76 35.453 21:54 02.10.2019
901 Clear 11 1018 100 10000 3.76 35.453 21:54 02.10.2019
902 Clear 11 1018 100 10000 3.76 35.453 21:54 02.10.2019
903 Clear 11 1018 93 10000 2.1 40 21:36 02.10.2019
904 Clear 11 1018 93 10000 2.1 40 21:18 02.10.2019
905 Clear 11 1018 93 10000 1.53 98.701 20:54 02.10.2019
906 Clear 11 1018 93 10000 1 60 20:36 02.10.2019
907 Clear 12 1018 93 10000 1 60 20:18 02.10.2019
908 Clear 12 1019 100 10000 0.5 50 19:42 02.10.2019
909 Clear 12 1019 100 10000 0.5 50 19:21 02.10.2019
910 Clear 12 1019 93 10000 2.1 50 18:57 02.10.2019
911 Clear 12 1019 93 10000 2.1 130 18:38 02.10.2019
912 Clear 13 1019 93 10000 2.1 130 18:20 02.10.2019
913 Clear 13 1020 87 10000 2.1 140 17:56 02.10.2019
914 Clear 13 1020 87 10000 2.6 200 17:37 02.10.2019
915 Clear 13 1020 87 10000 2.6 200 17:19 02.10.2019
916 Clear 14 1020 93 10000 2.6 180 16:42 02.10.2019
917 Clear 14 1020 82 10000 3.1 170 16:22 02.10.2019
918 Clear 14 1020 82 10000 3.1 170 15:59 02.10.2019
919 Clear 14 1021 76 10000 2.6 180 15:38 02.10.2019
920 Clear 15 1021 76 10000 2.6 180 15:19 02.10.2019
921 Clear 15 1021 72 10000 3.1 210 14:57 02.10.2019
922 Clear 16 1020 67 10000 3.6 210 14:39 02.10.2019
923 Clear 16 1020 67 10000 3.6 220 14:20 02.10.2019
924 Clear 17 1020 59 10000 3.6 240 13:43 02.10.2019
925 Clear 17 1020 59 10000 3.6 240 13:23 02.10.2019
926 Clear 18 1020 59 10000 4.1 220 12:57 02.10.2019
927 Clear 18 1020 55 10000 4.6 240 12:37 02.10.2019
928 Clear 19 1019 56 10000 5.7 250 12:18 02.10.2019
929 Clear 20 1019 49 10000 5.7 250 11:43 02.10.2019
930 Clear 20 1019 49 10000 5.7 250 11:22 02.10.2019
931 Clear 21 1018 43 10000 5.1 250 10:41 02.10.2019
932 Clear 21 1018 43 10000 5.1 250 10:20 02.10.2019
933 Clouds 21 1018 43 10000 5.7 260 09:56 02.10.2019
934 Clear 22 1018 38 10000 5.7 250 09:36 02.10.2019
935 Clear 23 1018 38 10000 5.7 250 09:18 02.10.2019
936 Clear 23 1018 40 10000 6.2 210 08:42 02.10.2019
937 Clear 23 1018 40 10000 6.2 210 08:22 02.10.2019
938 Clouds 23 1019 40 10000 4.1 230 07:55 02.10.2019
939 Clouds 23 1019 43 10000 4.1 270 07:37 02.10.2019
940 Clouds 23 1019 46 10000 5.1 260 07:18 02.10.2019
941 Clouds 23 1019 46 10000 5.1 260 07:18 02.10.2019
942 Clouds 22 1020 43 10000 4.6 260 06:29 02.10.2019
943 Clouds 21 1020 46 10000 4.1 270 05:51 02.10.2019
944 Clouds 21 1020 46 10000 4.1 270 05:22 02.10.2019
945 Clouds 20 1020 55 10000 1.5 20 04:18 02.10.2019
946 Clear 19 1020 55 10000 0.5 160 03:45 02.10.2019
947 Clouds 17 1020 67 10000 2.6 30 02:38 02.10.2019
948 Clouds 16 1020 67 10000 2.6 30 02:20 02.10.2019
949 Clouds 10 1020 100 10000 2.6 40 00:53 02.10.2019
950 Clouds 10 1020 100 10000 3.95 91.436 00:30 02.10.2019
951 Clear 9 1020 93 10000 2.1 30 23:56 01.10.2019
952 Clear 9 1020 100 5000 2.98 159.145 23:37 01.10.2019
953 Clear 9 1020 100 5000 2.98 159.145 23:19 01.10.2019
954 Clear 9 1019 100 10000 1.5 20 22:58 01.10.2019
955 Clear 9 1019 93 10000 1.5 310 22:37 01.10.2019
956 Clear 10 1019 93 10000 1.5 360 22:18 01.10.2019
957 Clear 10 1019 93 10000 2.1 40 21:43 01.10.2019
958 Clear 10 1019 93 10000 2.1 40 21:22 01.10.2019
959 Clear 11 1019 93 10000 1.5 30 20:58 01.10.2019
960 Clear 11 1019 87 10000 2.6 80 20:39 01.10.2019
961 Clear 11 1019 87 10000 2.6 80 20:20 01.10.2019
962 Clouds 12 1020 87 10000 2.6 150 19:57 01.10.2019
963 Clear 12 1020 76 10000 2.6 210 19:39 01.10.2019
964 Clear 12 1020 71 10000 3.1 220 19:20 01.10.2019
965 Clear 12 1020 71 10000 3.1 220 18:55 01.10.2019
966 Clear 13 1020 71 10000 3.6 200 18:37 01.10.2019
967 Clear 13 1020 71 10000 3.6 200 18:19 01.10.2019
968 Clear 14 1020 67 10000 4.1 200 17:42 01.10.2019
969 Clear 14 1020 67 10000 4.1 200 17:42 01.10.2019
970 Clear 14 1020 67 10000 4.1 200 17:20 01.10.2019
971 Clear 14 1020 67 10000 3.6 210 16:58 01.10.2019
972 Clear 14 1020 67 10000 3.6 200 16:40 01.10.2019
973 Clear 14 1020 67 10000 3.6 200 16:21 01.10.2019
974 Clear 15 1021 63 10000 4.1 210 15:47 01.10.2019
975 Clear 15 1021 63 10000 4.1 210 15:24 01.10.2019
976 Clear 15 1020 63 10000 4.1 210 14:56 01.10.2019
977 Clear 16 1020 59 10000 4.1 220 14:37 01.10.2019
978 Clear 16 1020 59 10000 4.1 220 14:19 01.10.2019
979 Clear 16 1020 67 10000 3.1 230 13:41 01.10.2019
980 Clear 16 1020 67 10000 3.1 230 13:22 01.10.2019
981 Clear 17 1020 59 10000 4.1 230 12:59 01.10.2019
982 Clear 18 1020 55 10000 4.6 240 12:41 01.10.2019
983 Clear 18 1019 49 10000 5.1 260 12:20 01.10.2019
984 Clear 19 1019 49 10000 5.1 260 11:58 01.10.2019
985 Clear 20 1019 46 10000 5.1 270 11:38 01.10.2019
986 Clear 20 1019 46 10000 5.1 270 11:19 01.10.2019
987 Clear 21 1019 46 10000 5.7 250 10:58 01.10.2019
988 Clear 21 1019 43 10000 5.1 260 10:40 01.10.2019
989 Clear 22 1019 43 10000 5.1 260 10:21 01.10.2019
990 Clear 22 1019 37 10000 4.1 250 09:40 01.10.2019
991 Clear 22 1019 37 10000 4.1 250 09:21 01.10.2019
992 Clear 22 1019 40 10000 4.1 240 08:43 01.10.2019
993 Clear 22 1019 40 10000 4.1 240 08:25 01.10.2019
994 Clear 22 1020 37 10000 3.6 260 07:49 01.10.2019
995 Clouds 22 1020 43 10000 2.6 290 07:25 01.10.2019
996 Clouds 22 1020 46 10000 2.6 320 06:48 01.10.2019
997 Clouds 20 1021 52 10000 2.6 240 06:20 01.10.2019
998 Clouds 21 1021 49 10000 3.6 200 05:46 01.10.2019
999 Clouds 20 1021 56 10000 2.6 180 05:18 01.10.2019
1000 Clouds 19 1022 55 10000 2.6 200 04:29 01.10.2019
1001 Fog 17 1021 82 10000 2.6 100 02:29 01.10.2019
1002 Clouds 16 1021 82 10000 1 80 01:59 01.10.2019
1003 Fog 13 1021 93 500 1 40 00:57 01.10.2019
1004 Fog 12 1020 93 10000 2.1 150 00:29 01.10.2019
1005 Fog 12 1020 93 10000 2.1 150 00:29 01.10.2019
1006 Fog 12 1020 93 10000 2.1 160 23:57 30.09.2019
1007 Fog 13 1020 100 10000 1.5 0 23:39 30.09.2019
1008 Fog 12 1020 93 4700 4.71 184.046 23:19 30.09.2019
1009 Clouds 13 1019 100 10000 4.71 184.046 22:43 30.09.2019
1010 Clouds 13 1019 100 10000 4.71 184.046 22:25 30.09.2019
1011 Fog 13 1019 93 10000 1.5 0 21:57 30.09.2019
1012 Fog 13 1019 100 5000 1.5 170 21:38 30.09.2019
1013 Fog 13 1019 100 5000 1.5 170 21:19 30.09.2019
1014 Fog 14 1019 93 10000 1.5 0 20:57 30.09.2019
1015 Fog 14 1019 93 10000 1.5 0 20:57 30.09.2019
1016 Clear 14 1019 87 10000 4.1 200 20:38 30.09.2019
1017 Clear 14 1019 87 10000 4.1 200 20:20 30.09.2019
1018 Clear 15 1019 87 10000 4.1 210 19:56 30.09.2019
1019 Clouds 15 1019 87 10000 3.6 220 19:38 30.09.2019
1020 Clouds 15 1019 87 10000 3.6 220 19:19 30.09.2019
1021 Clouds 16 1019 87 10000 4.1 210 18:57 30.09.2019
1022 Clouds 16 1019 82 10000 4.1 210 18:37 30.09.2019
1023 Clouds 17 1019 88 10000 5.1 220 18:19 30.09.2019
1024 Clouds 17 1019 88 10000 5.1 210 17:42 30.09.2019
1025 Clouds 17 1019 88 10000 5.1 210 17:22 30.09.2019
1026 Rain 17 1019 93 10000 5.1 230 16:56 30.09.2019
1027 Rain 17 1019 93 10000 4.1 240 16:38 30.09.2019
1028 Rain 17 1019 93 10000 4.1 240 16:19 30.09.2019
1029 Rain 17 1019 82 6000 3.6 290 15:57 30.09.2019
1030 Rain 17 1019 82 6000 3.6 290 15:57 30.09.2019
1031 Rain 17 1019 88 6000 3.6 270 15:37 30.09.2019
1032 Rain 17 1019 88 6000 3.6 270 15:19 30.09.2019
1033 Rain 18 1018 77 10000 4.1 220 14:57 30.09.2019
1034 Rain 18 1018 93 5000 5.1 310 14:37 30.09.2019
1035 Rain 19 1018 93 5000 5.1 310 14:18 30.09.2019
1036 Rain 19 1018 72 10000 4.1 220 13:55 30.09.2019
1037 Rain 19 1018 72 10000 4.1 300 13:36 30.09.2019
1038 Rain 19 1017 68 10000 4.1 300 13:18 30.09.2019
1039 Rain 19 1017 68 10000 4.1 300 12:41 30.09.2019
1040 Rain 19 1017 60 10000 4.1 280 12:21 30.09.2019
1041 Rain 20 1017 56 10000 4.1 280 11:44 30.09.2019
1042 Rain 20 1017 56 10000 4.1 280 11:23 30.09.2019
1043 Clouds 21 1016 49 10000 4.6 280 10:59 30.09.2019
1044 Clouds 21 1016 46 10000 4.6 270 10:40 30.09.2019
1045 Clouds 21 1016 46 10000 4.6 270 10:19 30.09.2019
1046 Clouds 21 1016 46 10000 4.6 270 10:19 30.09.2019
1047 Clouds 21 1016 52 10000 6.2 290 09:58 30.09.2019
1048 Clouds 22 1016 49 10000 6.7 260 09:39 30.09.2019
1049 Clouds 22 1016 49 10000 6.7 260 09:20 30.09.2019
1050 Clear 23 1016 41 10000 5.7 240 08:46 30.09.2019
1051 Clear 23 1016 41 10000 5.7 240 08:28 30.09.2019
1052 Clouds 23 1016 49 10000 4.1 220 07:44 30.09.2019
1053 Clouds 24 1016 49 10000 4.1 220 07:44 30.09.2019
1054 Clouds 23 1016 53 10000 5.1 240 07:26 30.09.2019
1055 Clouds 23 1016 53 10000 5.1 240 06:56 30.09.2019
1056 Clouds 23 1017 56 10000 5.7 260 06:33 30.09.2019
1057 Clouds 22 1016 60 10000 5.1 250 05:47 30.09.2019
1058 Clouds 22 1016 60 10000 5.1 250 05:47 30.09.2019
1059 Clouds 22 1016 60 10000 5.1 250 05:47 30.09.2019
1060 Clouds 22 1017 64 10000 1.5 270 04:32 30.09.2019
1061 Clouds 19 1017 77 9000 0.5 210 02:48 30.09.2019
1062 Clear 17 1016 79 8000 2.43 260.445 01:37 30.09.2019
1063 Clouds 16 1016 100 8000 2.1 50 00:42 30.09.2019
1064 Clouds 15 1016 100 8000 2.1 50 00:21 30.09.2019
1065 Rain 15 1016 100 10000 2.1 350 23:46 29.09.2019
1066 Rain 15 1016 100 10000 2.1 350 23:23 29.09.2019
1067 Rain 15 1015 100 10000 4.71 219.739 22:56 29.09.2019
1068 Clouds 15 1015 100 10000 4.71 219.739 22:38 29.09.2019
1069 Clouds 15 1015 100 10000 4.71 219.739 22:19 29.09.2019
1070 Fog 15 1016 100 10000 4.71 219.739 21:57 29.09.2019
1071 Clouds 15 1015 100 10000 2.1 60 21:37 29.09.2019
1072 Clouds 15 1015 100 10000 2.1 60 21:19 29.09.2019
1073 Rain 15 1016 93 10000 2.6 30 20:44 29.09.2019
1074 Rain 15 1016 93 10000 2.6 30 20:20 29.09.2019
1075 Clear 15 1016 93 10000 2.6 70 19:59 29.09.2019
1076 Clouds 15 1016 93 10000 2.6 0 19:37 29.09.2019
1077 Clouds 15 1016 93 10000 2.6 0 19:19 29.09.2019
1078 Clouds 15 1016 93 10000 2.6 0 18:56 29.09.2019
1079 Clouds 16 1016 93 10000 2.6 0 18:38 29.09.2019
1080 Clouds 16 1016 93 10000 2.6 0 18:38 29.09.2019
1081 Clouds 16 1016 93 10000 2.6 0 18:19 29.09.2019
1082 Clouds 16 1016 93 10000 2.6 0 17:57 29.09.2019
1083 Clouds 16 1016 87 10000 2.6 0 17:38 29.09.2019
1084 Clouds 16 1016 87 10000 2.6 0 17:19 29.09.2019
1085 Clouds 17 1016 87 10000 2.6 0 16:58 29.09.2019
1086 Clouds 17 1016 87 10000 2.6 0 16:58 29.09.2019
1087 Clouds 18 1016 77 10000 2.6 0 16:39 29.09.2019
1088 Clouds 18 1016 77 10000 2.6 0 16:19 29.09.2019
1089 Clouds 18 1017 77 10000 2.6 0 15:42 29.09.2019
1090 Clouds 18 1017 77 10000 2.6 0 15:20 29.09.2019
1091 Clouds 18 1017 77 10000 2.6 0 15:00 29.09.2019
1092 Clouds 19 1016 77 10000 2.6 0 14:40 29.09.2019
1093 Clouds 19 1016 77 10000 2.6 0 14:21 29.09.2019
1094 Clouds 19 1016 77 10000 2.6 0 13:58 29.09.2019
1095 Clear 19 1016 72 10000 2.6 260 13:40 29.09.2019
1096 Clouds 20 1016 77 10000 3.6 240 13:19 29.09.2019
1097 Clear 20 1015 60 10000 4.1 240 12:58 29.09.2019
1098 Clouds 20 1016 73 10000 4.6 250 12:39 29.09.2019
1099 Clear 22 1015 57 10000 4.1 250 12:21 29.09.2019
1100 Clear 23 1015 57 10000 4.6 260 11:57 29.09.2019
1101 Clear 24 1015 50 10000 5.1 260 11:37 29.09.2019
1102 Clear 24 1015 50 10000 5.1 260 11:18 29.09.2019
1103 Clear 25 1015 47 10000 4.1 270 10:56 29.09.2019
1104 Clear 25 1015 47 10000 4.1 270 10:56 29.09.2019
1105 Clear 26 1015 28 10000 2.6 150 10:36 29.09.2019
1106 Clear 26 1015 25 10000 3.1 60 10:18 29.09.2019
1107 Clear 26 1015 25 10000 4.1 60 09:44 29.09.2019
1108 Clear 26 1015 25 10000 4.1 60 09:20 29.09.2019
1109 Clear 26 1016 25 10000 6.2 10 08:57 29.09.2019
1110 Clear 27 1016 25 10000 4.6 50 08:37 29.09.2019
1111 Clear 27 1016 25 10000 4.6 50 08:18 29.09.2019
1112 Clear 27 1016 25 10000 4.6 50 08:18 29.09.2019
1113 Clear 29 1017 27 10000 4.1 40 07:41 29.09.2019
1114 Clear 29 1017 28 10000 5.7 70 07:23 29.09.2019
1115 Clear 28 1018 34 10000 5.1 30 06:42 29.09.2019
1116 Clear 26 1019 47 10000 3.6 90 04:56 29.09.2019
1117 Clear 24 1019 53 10000 3.6 80 04:25 29.09.2019
1118 Clear 22 1020 60 10000 5.1 80 03:49 29.09.2019
1119 Clear 19 1020 67 10000 7.2 70 02:28 29.09.2019
1120 Clear 18 1020 72 10000 5.7 70 01:51 29.09.2019
1121 Clear 16 1020 72 10000 5.7 60 01:29 29.09.2019
1122 Clear 15 1019 72 10000 5.7 70 00:41 29.09.2019
1123 Clear 14 1019 77 10000 4.6 80 00:19 29.09.2019
1124 Clear 14 1019 72 10000 4.1 70 23:40 28.09.2019
1125 Clear 15 1019 72 10000 4.1 70 23:21 28.09.2019
1126 Clear 15 1018 72 10000 2.1 60 22:42 28.09.2019
1127 Clear 15 1018 72 10000 2.1 60 22:23 28.09.2019
1128 Clear 14 1018 72 10000 2.6 20 21:59 28.09.2019
1129 Clear 14 1018 72 10000 3.6 80 21:40 28.09.2019
1130 Clear 14 1018 72 10000 3.6 80 21:22 28.09.2019
1131 Clear 14 1018 77 10000 2.1 350 20:59 28.09.2019
1132 Rain 14 1019 100 10000 3.1 310 20:41 28.09.2019
1133 Rain 14 1019 100 10000 3.1 310 20:21 28.09.2019
1134 Rain 14 1019 100 10000 3.1 150 19:58 28.09.2019
1135 Clouds 12 1019 93 6000 1 330 19:40 28.09.2019
1136 Clouds 12 1019 93 6000 1 330 19:22 28.09.2019
1137 Clear 12 1020 100 10000 1 170 18:58 28.09.2019
1138 Clear 13 1020 93 10000 2.6 180 18:40 28.09.2019
1139 Clear 13 1020 93 10000 2.6 180 18:21 28.09.2019
1140 Clear 13 1020 93 10000 2.6 180 18:21 28.09.2019
1141 Clear 13 1020 87 10000 3.1 200 17:57 28.09.2019
1142 Clear 13 1020 87 10000 3.1 200 17:57 28.09.2019
1143 Clear 14 1021 87 10000 3.6 210 17:38 28.09.2019
1144 Clear 14 1021 87 10000 3.6 210 17:20 28.09.2019
1145 Clear 15 1021 82 10000 4.6 200 16:45 28.09.2019
1146 Clear 15 1021 82 10000 4.6 200 16:27 28.09.2019
1147 Clear 16 1021 77 10000 3.6 210 15:42 28.09.2019
1148 Clear 16 1021 77 10000 3.6 210 15:24 28.09.2019
1149 Clear 16 1021 77 10000 3.6 210 15:24 28.09.2019
1150 Clear 16 1021 77 10000 4.1 210 14:58 28.09.2019
1151 Clear 17 1021 77 10000 3.6 210 14:40 28.09.2019
1152 Clear 17 1021 77 10000 3.6 210 14:21 28.09.2019
1153 Clouds 17 1021 82 10000 4.1 210 13:58 28.09.2019
1154 Clouds 17 1020 82 10000 3.6 210 13:40 28.09.2019
1155 Clear 17 1020 77 10000 5.1 220 13:20 28.09.2019
1156 Clear 18 1019 63 10000 5.1 240 12:46 28.09.2019
1157 Clear 18 1019 63 10000 5.1 240 12:20 28.09.2019
1158 Clear 19 1019 56 10000 5.7 240 11:59 28.09.2019
1159 Clear 20 1019 56 10000 6.2 240 11:39 28.09.2019
1160 Clear 20 1019 56 10000 6.2 240 11:19 28.09.2019
1161 Clear 21 1019 53 10000 6.7 250 10:43 28.09.2019
1162 Clear 21 1019 53 10000 6.7 250 10:21 28.09.2019
1163 Clear 21 1019 53 10000 6.7 240 09:58 28.09.2019
1164 Clouds 22 1019 49 10000 5.7 240 09:40 28.09.2019
1165 Clouds 22 1019 49 10000 5.7 240 09:40 28.09.2019
1166 Clouds 22 1019 49 10000 5.7 240 09:18 28.09.2019
1167 Clouds 22 1019 56 10000 5.1 260 08:46 28.09.2019
1168 Clouds 22 1019 53 10000 5.1 260 08:28 28.09.2019
1169 Clouds 23 1019 53 10000 4.6 270 07:46 28.09.2019
1170 Clouds 22 1019 53 10000 4.6 270 07:23 28.09.2019
1171 Clouds 22 1020 53 10000 4.6 260 06:55 28.09.2019
1172 Clouds 21 1020 53 10000 3.6 250 06:32 28.09.2019
1173 Clouds 21 1020 56 10000 3.1 230 05:55 28.09.2019
1174 Clouds 21 1021 56 10000 3.1 230 05:21 28.09.2019
1175 Clear 19 1021 68 10000 3.1 230 04:40 28.09.2019
1176 Clear 18 1021 72 10000 3.6 210 03:58 28.09.2019
1177 Clear 16 1021 72 10000 4.6 200 03:24 28.09.2019
1178 Clouds 15 1021 77 10000 5.1 190 02:57 28.09.2019
1179 Clear 15 1021 82 10000 5.1 190 02:34 28.09.2019
1180 Rain 13 1021 87 10000 4.1 190 01:50 28.09.2019
1181 Rain 12 1021 93 10000 2.6 230 01:27 28.09.2019
1182 Fog 11 1020 100 1000 5.06 148.997 00:58 28.09.2019
1183 Fog 11 1020 100 200 5.06 148.997 00:38 28.09.2019
1184 Smoke 10 1020 100 200 2.1 140 00:18 28.09.2019
1185 Smoke 10 1020 100 5000 2.1 160 23:37 27.09.2019
1186 Smoke 11 1020 100 5000 2.1 160 23:19 27.09.2019
1187 Clear 11 1019 93 10000 4.6 190 22:45 27.09.2019
1188 Clear 11 1019 93 10000 4.6 190 22:45 27.09.2019
1189 Clear 11 1019 93 10000 4.6 190 22:19 27.09.2019
1190 Clouds 11 1019 93 10000 2.6 180 21:57 27.09.2019
1191 Clear 12 1019 93 10000 5.7 200 21:37 27.09.2019
1192 Clear 12 1019 93 10000 5.1 200 21:19 27.09.2019
1193 Clear 12 1019 93 10000 5.1 200 20:56 27.09.2019
1194 Clear 12 1019 93 10000 5.1 200 20:56 27.09.2019
1195 Clear 12 1019 87 10000 5.7 190 20:38 27.09.2019
1196 Clear 12 1019 87 10000 5.7 190 20:19 27.09.2019
1197 Clouds 13 1020 93 10000 4.1 190 19:44 27.09.2019
1198 Clouds 13 1020 93 10000 4.1 190 19:24 27.09.2019
1199 Clouds 13 1020 93 10000 4.1 190 19:24 27.09.2019
1200 Clear 13 1020 93 10000 4.1 200 18:59 27.09.2019
1201 Clear 13 1020 87 10000 3.6 210 18:40 27.09.2019
1202 Clear 13 1020 87 10000 3.6 210 18:21 27.09.2019
1203 Clear 14 1020 87 10000 4.6 210 17:55 27.09.2019
1204 Clear 14 1020 87 10000 4.6 210 17:36 27.09.2019
1205 Clear 14 1020 87 10000 5.1 200 17:18 27.09.2019
1206 Clear 14 1020 87 10000 5.1 200 16:54 27.09.2019
1207 Clear 14 1020 87 10000 5.1 200 16:54 27.09.2019
1208 Clear 15 1020 82 10000 5.7 190 16:36 27.09.2019
1209 Clear 15 1020 82 10000 5.7 190 16:18 27.09.2019
1210 Clear 15 1020 82 10000 7.2 190 15:42 27.09.2019
1211 Clear 15 1020 82 10000 7.2 190 15:20 27.09.2019
1212 Clear 15 1020 77 10000 7.2 190 14:56 27.09.2019
1213 Clear 16 1020 67 10000 5.7 210 14:38 27.09.2019
1214 Clear 16 1020 67 10000 5.7 210 14:38 27.09.2019
1215 Clear 16 1020 67 10000 5.7 210 14:18 27.09.2019
1216 Clear 16 1019 72 10000 5.7 210 13:56 27.09.2019
1217 Clear 16 1019 67 10000 6.2 220 13:38 27.09.2019
1218 Clear 16 1019 67 10000 6.2 220 13:18 27.09.2019
1219 Clear 17 1019 68 10000 5.7 220 12:43 27.09.2019
1220 Clear 18 1018 56 10000 6.2 230 12:21 27.09.2019
1221 Clear 18 1018 56 10000 6.2 230 12:21 27.09.2019
1222 Clear 19 1018 56 10000 7.2 240 11:40 27.09.2019
1223 Clear 20 1018 56 10000 7.2 240 11:22 27.09.2019
1224 Clear 20 1018 49 10000 7.7 230 10:58 27.09.2019
1225 Clear 20 1018 49 10000 7.7 230 10:58 27.09.2019
1226 Clear 20 1017 52 10000 7.2 240 10:40 27.09.2019
1227 -273 0 0 0 0 0 10:20 27.09.2019
1228 Clouds 21 1018 52 10000 7.7 240 09:43 27.09.2019
1229 Clouds 21 1018 52 10000 7.7 240 09:22 27.09.2019
1230 Clouds 21 1018 53 10000 6.7 230 08:58 27.09.2019
1231 Clouds 21 1018 53 10000 6.7 230 08:58 27.09.2019
1232 Clouds 21 1018 53 10000 6.7 240 08:39 27.09.2019
1233 Clouds 21 1018 53 10000 6.7 240 08:20 27.09.2019
1234 Clouds 22 1018 49 10000 6.7 230 07:46 27.09.2019
1235 Clouds 21 1018 53 10000 5.7 220 07:23 27.09.2019
1236 Clouds 21 1019 46 10000 2.1 320 06:43 27.09.2019
1237 Clouds 21 1019 46 10000 3.1 170 06:24 27.09.2019
1238 Clear 21 1019 49 10000 2.1 40 05:51 27.09.2019
1239 Clouds 21 1019 49 10000 2.6 80 05:32 27.09.2019
1240 Clouds 19 1020 55 10000 5.7 80 03:56 27.09.2019
1241 Clouds 17 1020 63 10000 4.1 100 02:59 27.09.2019
1242 Clear 15 1020 72 10000 7.2 110 01:47 27.09.2019
1243 Clear 14 1020 72 10000 7.2 110 01:27 27.09.2019
1244 Clouds 13 1019 71 10000 8.7 100 00:22 27.09.2019
1245 Clouds 13 1019 71 10000 9.8 110 23:56 26.09.2019
1246 Clear 13 1019 71 10000 9.8 110 23:38 26.09.2019
1247 Clear 13 1019 71 10000 9.8 110 23:18 26.09.2019
1248 Clear 12 1019 82 10000 10.8 110 22:56 26.09.2019
1249 Clear 12 1019 76 10000 10.3 110 22:38 26.09.2019
1250 Clear 12 1019 76 10000 10.3 110 22:18 26.09.2019
1251 Clear 12 1019 76 10000 10.3 110 21:55 26.09.2019
1252 Clear 12 1019 76 10000 7.7 110 21:36 26.09.2019
1253 Clear 12 1019 76 10000 7.7 110 21:18 26.09.2019
1254 Clear 12 1019 76 10000 2.6 100 20:56 26.09.2019
1255 Clear 11 1019 93 10000 2.1 150 20:37 26.09.2019
1256 Clear 11 1019 93 10000 2.1 150 20:19 26.09.2019
1257 Clear 11 1019 93 10000 2.1 150 20:19 26.09.2019
1258 Clear 11 1020 93 10000 2.1 190 19:40 26.09.2019
1259 Clear 11 1020 100 10000 2.6 150 19:19 26.09.2019
1260 Clear 11 1020 100 10000 2.6 150 18:58 26.09.2019
1261 Clear 11 1020 100 4700 2.6 170 18:39 26.09.2019
1262 Clear 11 1020 100 4700 2.6 170 18:21 26.09.2019
1263 Clear 12 1021 93 10000 2.6 190 17:39 26.09.2019
1264 Clear 12 1021 93 10000 2.6 190 17:19 26.09.2019
1265 Clear 13 1021 82 10000 3.1 210 16:59 26.09.2019
1266 Clear 13 1021 82 10000 4.1 200 16:39 26.09.2019
1267 Clear 13 1021 82 10000 4.1 200 16:20 26.09.2019
1268 Clear 14 1021 77 10000 5.1 210 15:57 26.09.2019
1269 Clear 14 1021 77 10000 5.1 200 15:37 26.09.2019
1270 Clear 15 1021 72 10000 4.1 210 15:18 26.09.2019
1271 Clear 15 1021 72 10000 4.1 210 14:55 26.09.2019
1272 Clear 15 1021 72 10000 4.1 210 14:55 26.09.2019
1273 Clear 15 1021 72 10000 4.1 210 14:55 26.09.2019
1274 Clear 15 1021 72 10000 4.1 210 14:55 26.09.2019
1275 -273 0 0 0 0 0 14:55 26.09.2019
1276 Clear 15 1021 67 10000 4.1 200 14:37 26.09.2019
1277 Clear 15 1021 67 10000 4.1 200 14:37 26.09.2019
1278 Clear 15 1021 67 10000 4.1 200 14:18 26.09.2019
1279 Clear 16 1021 55 10000 4.6 230 13:40 26.09.2019
1280 Clear 16 1020 51 10000 4.1 230 13:20 26.09.2019
1281 Clear 16 1020 51 10000 4.1 230 12:56 26.09.2019
1282 Clear 17 1020 45 10000 4.6 240 12:38 26.09.2019
1283 Clear 18 1020 42 10000 5.1 240 12:19 26.09.2019
1284 Clear 19 1020 40 10000 4.6 230 11:42 26.09.2019
1285 Clear 20 1020 40 10000 4.6 230 11:21 26.09.2019
1286 Clear 20 1020 40 10000 6.2 240 10:55 26.09.2019
1287 Clear 20 1020 37 10000 5.7 250 10:37 26.09.2019
1288 Clear 20 1019 37 10000 4.1 260 10:19 26.09.2019
1289 Clear 20 1020 37 10000 5.7 250 10:19 26.09.2019
1290 Clear 20 1020 40 10000 6.7 210 09:43 26.09.2019
1291 Clear 20 1020 40 10000 6.7 210 09:43 26.09.2019
1292 Clear 20 1020 40 10000 6.7 210 09:25 26.09.2019
1293 Clear 21 1020 40 10000 5.1 210 08:54 26.09.2019
1294 Clear 21 1020 37 10000 5.7 240 08:33 26.09.2019
1295 Clear 21 1020 40 10000 4.6 210 07:59 26.09.2019
1296 Clear 21 1020 43 10000 3.6 210 07:41 26.09.2019
1297 Clear 21 1020 43 10000 3.6 210 07:20 26.09.2019
1298 Clear 20 1021 45 10000 3.6 220 06:43 26.09.2019
1299 Clear 20 1021 45 10000 3.6 220 06:43 26.09.2019
1300 Clear 20 1021 45 10000 3.6 220 06:24 26.09.2019
1301 Clouds 20 1021 45 10000 3.6 160 05:44 26.09.2019
1302 Clouds 20 1021 45 10000 3.6 160 05:21 26.09.2019
1303 Clouds 17 1021 72 10000 1.5 200 02:47 26.09.2019
1304 Clouds 15 1021 87 10000 2.1 150 01:53 26.09.2019
1305 Clouds 13 1021 100 10000 1.5 80 01:28 26.09.2019
1306 Fog 12 1021 100 10000 1.5 130 00:55 26.09.2019
1307 Fog 11 1020 100 9000 2.1 80 00:37 26.09.2019
1308 Clouds 12 1020 100 10000 5.24 214.306 23:47 25.09.2019
1309 Clouds 12 1020 100 10000 5.24 214.306 23:28 25.09.2019
1310 Clouds 13 1020 100 10000 5.24 214.306 22:57 25.09.2019
1311 Clouds 13 1019 100 10000 2.1 110 22:39 25.09.2019
1312 Clouds 13 1019 100 10000 2.1 110 22:20 25.09.2019
1313 Clear 13 1019 100 10000 2.6 170 21:56 25.09.2019
1314 Clouds 13 1019 93 10000 2.6 180 21:38 25.09.2019
1315 Clouds 13 1019 93 10000 2.6 180 21:19 25.09.2019
1316 Clear 13 1019 93 10000 1.5 210 20:56 25.09.2019
1317 Clear 13 1019 93 10000 2.1 220 20:38 25.09.2019
1318 Clear 13 1019 93 10000 2.1 220 20:19 25.09.2019
1319 Clear 13 1019 87 10000 5.26 226.888 19:41 25.09.2019
1320 Clear 13 1019 93 10000 1 350 19:21 25.09.2019
1321 Clear 14 1019 93 10000 1 350 18:57 25.09.2019
1322 Clear 14 1019 93 10000 2.1 50 18:39 25.09.2019
1323 Clear 14 1019 93 10000 2.1 50 18:21 25.09.2019
1324 Clouds 14 1019 93 10000 3.1 50 17:58 25.09.2019
1325 Clear 14 1020 87 10000 3.1 40 17:37 25.09.2019
1326 Clear 14 1020 87 10000 3.1 40 17:18 25.09.2019
1327 Clouds 15 1020 87 10000 3.1 230 16:44 25.09.2019
1328 Clouds 15 1020 87 10000 3.1 230 16:26 25.09.2019
1329 Clouds 16 1020 82 10000 2.6 210 15:58 25.09.2019
1330 Clouds 15 1020 82 10000 2.1 260 15:39 25.09.2019
1331 Clouds 15 1020 82 10000 2.1 260 15:20 25.09.2019
1332 Clouds 16 1020 77 10000 3.1 230 14:44 25.09.2019
1333 Clouds 16 1020 77 10000 3.1 230 14:25 25.09.2019
1334 Clear 16 1020 77 10000 3.1 230 13:59 25.09.2019
1335 Clear 17 1019 72 10000 3.6 240 13:40 25.09.2019
1336 Clear 17 1019 72 10000 3.6 240 13:20 25.09.2019
1337 Clear 17 1019 72 10000 3.6 240 13:20 25.09.2019
1338 Clear 17 1019 68 10000 3.6 240 12:58 25.09.2019
1339 Clouds 18 1019 68 10000 3.6 240 12:38 25.09.2019
1340 Clouds 18 1019 72 10000 3.1 240 12:20 25.09.2019
1341 Clouds 19 1019 63 10000 5.1 240 11:41 25.09.2019
1342 Clouds 19 1019 63 10000 5.1 240 11:21 25.09.2019
1343 Clouds 19 1018 63 10000 5.7 240 10:56 25.09.2019
1344 Clouds 19 1018 64 10000 5.7 270 10:38 25.09.2019
1345 Clouds 20 1018 64 10000 5.7 270 10:19 25.09.2019
1346 Clouds 21 1018 64 10000 5.7 260 09:43 25.09.2019
1347 Clouds 21 1018 64 10000 5.7 260 09:23 25.09.2019
1348 Rain 21 1018 56 10000 4.6 300 08:59 25.09.2019
1349 Clouds 21 1018 64 10000 5.7 270 08:40 25.09.2019
1350 Clouds 21 1018 64 10000 5.7 270 08:20 25.09.2019
1351 Clouds 21 1018 56 10000 5.7 270 07:41 25.09.2019
1352 Clouds 22 1018 56 10000 6.2 280 07:23 25.09.2019
1353 Clouds 21 1019 82 10000 4.6 260 06:56 25.09.2019
1354 Clouds 21 1019 56 10000 5.7 280 06:36 25.09.2019
1355 Clouds 21 1019 64 10000 3.6 340 05:47 25.09.2019
1356 Clouds 21 1019 64 10000 3.6 340 05:20 25.09.2019
1357 Mist 16 1020 93 3500 4.6 20 03:21 25.09.2019
1358 Fog 13 1020 100 50 3.6 30 01:36 25.09.2019
1359 Fog 12 1019 100 100 2.6 30 00:41 25.09.2019
1360 Fog 12 1019 100 100 2.6 30 00:22 25.09.2019
1361 Fog 11 1019 93 100 3.1 20 23:43 24.09.2019
1362 Fog 11 1019 93 100 3.1 20 23:22 24.09.2019
1363 Fog 11 1018 100 400 3.1 20 22:58 24.09.2019
1364 Clouds 11 1019 93 10000 2.1 350 22:38 24.09.2019
1365 Clouds 11 1019 93 10000 2.1 350 22:18 24.09.2019
1366 Fog 11 1018 93 800 2.6 10 21:55 24.09.2019
1367 Fog 11 1018 93 800 2.6 10 21:55 24.09.2019
1368 Mist 11 1018 93 5000 2.6 20 21:37 24.09.2019
1369 Mist 11 1018 93 5000 2.6 20 21:37 24.09.2019
1370 Mist 12 1018 93 5000 2.6 20 21:18 24.09.2019
1371 Mist 12 1018 93 5000 2.6 20 21:18 24.09.2019
1372 Rain 11 1018 93 10000 2.6 30 20:56 24.09.2019
1373 Rain 11 1018 93 10000 2.6 30 20:56 24.09.2019
1374 Clouds 11 1018 93 10000 2.1 20 20:38 24.09.2019
1375 Clouds 11 1018 100 10000 3.67 276.101 20:19 24.09.2019
1376 Clear 11 1018 93 10000 2.6 30 19:42 24.09.2019
1377 Clouds 11 1018 93 10000 2.6 30 19:20 24.09.2019
1378 Clouds 11 1018 93 10000 2.6 30 19:20 24.09.2019
1379 Clouds 11 1018 93 10000 2.6 30 18:57 24.09.2019
1380 Clear 11 1018 93 10000 2.6 30 18:39 24.09.2019
1381 Clear 11 1018 100 4200 3.29 253.72 18:20 24.09.2019
1382 Clear 11 1018 100 4200 3.29 253.72 17:56 24.09.2019
1383 Clear 12 1018 100 5000 3.29 253.72 17:37 24.09.2019
1384 Clear 12 1018 100 5000 3.29 253.72 17:37 24.09.2019
1385 Clear 12 1018 100 5000 3.29 253.72 17:19 24.09.2019
1386 Clouds 13 1019 87 10000 1.5 0 16:42 24.09.2019
1387 Clouds 13 1019 87 10000 1.5 0 16:21 24.09.2019
1388 Clear 14 1019 100 3600 3.29 253.72 15:58 24.09.2019
1389 Clouds 14 1019 87 10000 1.5 0 15:39 24.09.2019
1390 Clouds 14 1019 87 10000 1.5 0 15:21 24.09.2019
1391 Clear 15 1019 72 10000 2.6 240 14:39 24.09.2019
1392 Clear 16 1019 72 10000 2.6 240 14:18 24.09.2019
1393 Clear 17 1019 77 10000 2.1 230 13:45 24.09.2019
1394 Clear 18 1019 72 10000 3.1 230 13:22 24.09.2019
1395 Clear 19 1018 55 10000 3.1 270 12:56 24.09.2019
1396 Clear 19 1018 64 10000 3.6 220 12:36 24.09.2019
1397 Clear 20 1018 52 10000 3.6 240 12:18 24.09.2019
1398 Clear 21 1018 25 10000 5.1 240 11:41 24.09.2019
1399 Clear 22 1018 25 10000 5.1 240 11:21 24.09.2019
1400 Clear 23 1017 27 10000 6.7 250 10:42 24.09.2019
1401 Clear 23 1017 27 10000 6.7 250 10:22 24.09.2019
1402 Clear 24 1017 20 10000 7.2 250 09:59 24.09.2019
1403 Clear 24 1017 23 10000 6.7 250 09:41 24.09.2019
1404 Clear 25 1017 23 10000 6.7 250 09:20 24.09.2019
1405 Clear 26 1017 27 10000 7.2 250 08:56 24.09.2019
1406 Clear 26 1017 19 10000 6.7 280 08:38 24.09.2019
1407 Clear 26 1017 19 10000 6.7 280 08:38 24.09.2019
1408 Clear 26 1017 19 10000 6.7 280 08:19 24.09.2019
1409 Clear 26 1017 69 10000 7.7 300 07:46 24.09.2019
1410 Clear 26 1017 18 10000 7.7 310 07:24 24.09.2019
1411 Clear 27 1018 22 10000 6.7 280 06:48 24.09.2019
1412 Clear 27 1018 22 10000 6.7 280 06:28 24.09.2019
1413 Clear 27 1018 20 10000 7.2 300 05:51 24.09.2019
1414 Clear 25 1018 20 10000 7.2 300 05:18 24.09.2019
1415 Clear 25 1018 20 10000 7.2 300 05:18 24.09.2019
1416 Clear 24 1019 25 10000 6.7 20 03:43 24.09.2019
1417 Clear 21 1019 24 10000 6.7 30 02:46 24.09.2019
1418 Clear 18 1019 36 10000 4.6 60 01:45 24.09.2019
1419 Clear 15 1019 38 10000 4.6 60 00:43 24.09.2019
1420 Clear 15 1019 38 10000 4.6 60 00:23 24.09.2019
1421 Clear 14 1019 41 10000 4.6 60 23:44 23.09.2019
1422 Clear 14 1019 41 10000 4.6 60 23:24 23.09.2019
1423 Clear 13 1019 44 10000 4.6 60 22:59 23.09.2019
1424 Clear 13 1019 44 10000 3.1 50 22:39 23.09.2019
1425 Clear 14 1019 41 10000 4.1 70 22:20 23.09.2019
1426 Clear 14 1019 41 10000 4.1 70 21:56 23.09.2019
1427 Clear 15 1019 44 10000 5.7 70 21:37 23.09.2019
1428 Clear 15 1019 44 10000 5.7 70 21:19 23.09.2019
1429 Clear 16 1020 39 10000 4.6 60 20:41 23.09.2019
1430 Clear 16 1020 39 10000 4.6 50 20:20 23.09.2019
1431 Clear 17 1020 39 10000 4.6 50 19:56 23.09.2019
1432 Clear 16 1021 42 10000 3.6 50 19:38 23.09.2019
1433 Clear 17 1021 45 10000 5.7 70 19:20 23.09.2019
1434 Clear 16 1021 42 10000 4.6 70 18:42 23.09.2019
1435 Clear 16 1021 48 10000 3.1 60 18:21 23.09.2019
1436 Clear 16 1021 48 10000 3.1 60 17:59 23.09.2019
1437 Clear 16 1022 58 10000 1.5 30 17:39 23.09.2019
1438 Clear 16 1022 58 10000 1.5 30 17:20 23.09.2019
1439 Clear 16 1022 58 10000 4.4 102.17 16:58 23.09.2019
1440 Clear 16 1022 58 10000 1.5 50 16:37 23.09.2019
1441 Clear 16 1023 58 10000 2.6 90 16:18 23.09.2019
1442 Clear 17 1023 58 10000 2.6 90 15:56 23.09.2019
1443 Clear 17 1023 51 10000 3.6 170 15:38 23.09.2019
1444 Clear 17 1024 48 10000 4.6 180 15:18 23.09.2019
1445 Clear 18 1023 37 10000 4.6 180 14:40 23.09.2019
1446 Clear 18 1023 37 10000 4.6 180 14:21 23.09.2019
1447 Clear 18 1023 42 10000 4.6 180 13:59 23.09.2019
1448 Clear 19 1023 37 10000 5.1 180 13:39 23.09.2019
1449 Clear 20 1023 32 10000 4.6 200 13:18 23.09.2019
1450 Clear 20 1023 33 10000 2.6 200 12:55 23.09.2019
1451 Clear 21 1023 33 10000 2.6 200 12:36 23.09.2019
1452 Clear 22 1023 27 10000 2.6 200 12:18 23.09.2019
1453 Clear 23 1023 25 10000 2.1 190 11:43 23.09.2019
1454 Clear 23 1023 25 10000 2.1 190 11:25 23.09.2019
1455 Clear 25 1023 24 10000 2.6 60 10:49 23.09.2019
1456 Clear 24 1023 24 10000 2.6 60 10:22 23.09.2019
1457 Clear 25 1023 24 10000 2.1 160 09:59 23.09.2019
1458 Clear 25 1023 25 10000 4.1 10 09:38 23.09.2019
1459 Clear 25 1023 25 10000 4.1 10 09:20 23.09.2019
1460 Clear 24 1024 23 10000 3.6 10 08:48 23.09.2019
1461 Clear 25 1024 23 10000 3.6 10 08:29 23.09.2019
1462 Clear 25 1024 25 10000 3.6 50 07:58 23.09.2019
1463 Clear 25 1024 25 10000 3.6 50 07:58 23.09.2019
1464 Clear 25 1024 25 10000 3.6 50 07:58 23.09.2019
1465 Clear 25 1025 29 10000 5.7 30 07:30 23.09.2019
1466 Clear 24 1026 33 10000 4.6 10 06:40 23.09.2019
1467 Clear 23 1026 31 10000 4.6 20 05:54 23.09.2019
1468 Clear 22 1027 33 10000 4.6 20 05:21 23.09.2019
1469 Clear 21 1027 35 10000 5.7 40 04:54 23.09.2019
1470 Clear 17 1028 48 10000 4.6 70 03:33 23.09.2019
1471 Clear 12 1028 66 10000 5.1 60 01:18 23.09.2019
1472 Clear 10 1028 66 10000 6.7 70 00:23 23.09.2019
1473 Clear 11 1028 66 10000 6.7 70 23:56 22.09.2019
1474 Clouds 11 1028 62 10000 7.2 60 23:33 22.09.2019
1475 Clear 11 1028 62 10000 5.7 60 22:58 22.09.2019
1476 Clear 11 1028 62 10000 4.6 50 22:40 22.09.2019
1477 Clear 11 1028 62 10000 4.6 50 22:22 22.09.2019
1478 Clear 11 1028 62 10000 4.6 60 21:43 22.09.2019
1479 Clear 11 1028 62 10000 4.6 60 21:43 22.09.2019
1480 Clear 10 1028 62 10000 4.6 60 21:22 22.09.2019
1481 Clear 10 1028 66 10000 3.1 30 20:58 22.09.2019
1482 Clouds 10 1028 76 10000 5.7 110 20:40 22.09.2019
1483 Clouds 10 1028 76 10000 5.7 110 20:22 22.09.2019
1484 Clouds 10 1029 81 10000 4.1 130 19:42 22.09.2019
1485 Clouds 10 1029 81 10000 4.1 130 19:42 22.09.2019
1486 Clear 10 1029 93 10000 2.1 10 19:23 22.09.2019
1487 Clear 10 1029 93 10000 2.1 10 18:59 22.09.2019
1488 Clouds 10 1030 93 10000 1.5 170 18:39 22.09.2019
1489 Clear 10 1030 87 10000 2.1 170 18:20 22.09.2019
1490 Clear 11 1030 87 10000 2.1 170 17:58 22.09.2019
1491 Clear 11 1030 87 10000 3.6 200 17:40 22.09.2019
1492 Clear 11 1030 81 10000 3.6 210 17:19 22.09.2019
1493 Clouds 12 1030 81 10000 4.1 180 16:44 22.09.2019
1494 Clear 12 1030 81 10000 3.6 200 16:26 22.09.2019
1495 Clear 13 1030 71 10000 4.6 200 15:56 22.09.2019
1496 Clear 13 1030 71 10000 4.6 200 15:38 22.09.2019
1497 Clear 13 1030 71 10000 4.6 200 15:19 22.09.2019
1498 Clear 14 1030 67 10000 6.7 190 14:43 22.09.2019
1499 Clear 14 1030 67 10000 6.7 190 14:25 22.09.2019
1500 Clear 14 1030 67 10000 6.7 190 14:25 22.09.2019
1501 Clear 14 1030 62 10000 6.2 190 13:55 22.09.2019
1502 Clear 15 1030 62 10000 6.7 190 13:37 22.09.2019
1503 Clear 15 1029 59 10000 5.7 210 13:19 22.09.2019
1504 Clear 16 1029 55 10000 6.7 230 12:43 22.09.2019
1505 Clear 17 1029 40 10000 3.1 140 12:24 22.09.2019
1506 Clear 18 1029 40 10000 3.1 140 11:56 22.09.2019
1507 Clear 18 1028 40 10000 3.1 140 11:38 22.09.2019
1508 Clear 19 1028 40 10000 3.1 140 11:19 22.09.2019
1509 Clear 19 1028 40 10000 3.1 140 11:19 22.09.2019
1510 Clear 20 1028 40 10000 3.1 120 10:44 22.09.2019
1511 Clear 20 1028 42 10000 3.6 110 10:20 22.09.2019
1512 Clear 20 1028 42 10000 3.6 110 09:57 22.09.2019
1513 Clear 20 1028 40 10000 3.1 170 09:38 22.09.2019
1514 Clear 20 1028 40 10000 3.1 170 09:19 22.09.2019
1515 Clouds 20 1029 45 10000 2.6 100 08:44 22.09.2019
1516 Clouds 20 1029 45 10000 2.6 100 08:24 22.09.2019
1517 Clouds 20 1029 42 10000 2.6 340 07:54 22.09.2019
1518 Clouds 20 1030 42 10000 4.1 120 07:36 22.09.2019
1519 Clouds 19 1030 45 10000 3.6 130 07:18 22.09.2019
1520 Clouds 19 1031 48 10000 5.7 110 06:46 22.09.2019
1521 Clouds 17 1031 55 10000 5.1 100 05:23 22.09.2019
1522 Clouds 14 1032 66 10000 7.2 70 02:59 22.09.2019
1523 Clouds 13 1032 76 10000 6.2 70 02:36 22.09.2019
1524 Clouds 13 1032 76 10000 6.2 70 02:18 22.09.2019
1525 Clear 9 1031 81 10000 3.1 50 00:57 22.09.2019
1526 Clear 8 1031 87 10000 3.1 50 00:33 22.09.2019
1527 Clear 8 1031 81 10000 2.6 20 23:57 21.09.2019
1528 Clear 8 1030 81 10000 3.1 20 23:39 21.09.2019
1529 Clear 9 1030 81 10000 2.1 10 22:57 21.09.2019
1530 Clear 9 1030 81 10000 2.6 360 22:38 21.09.2019
1531 Clear 9 1030 81 10000 2.6 360 22:20 21.09.2019
1532 Clear 9 1030 81 10000 2.6 360 22:20 21.09.2019
1533 Clear 9 1030 81 10000 2.6 140 21:41 21.09.2019
1534 Clear 9 1030 81 10000 2.6 140 21:20 21.09.2019
1535 Clear 9 1030 81 10000 2.6 150 20:58 21.09.2019
1536 Clear 9 1030 76 10000 4.6 130 20:38 21.09.2019
1537 Clear 9 1030 76 10000 4.6 130 20:19 21.09.2019
1538 Clear 8 1030 75 10000 3.1 200 19:46 21.09.2019
1539 Clear 8 1030 75 10000 3.1 200 19:22 21.09.2019
1540 Clear 9 1031 81 10000 4.6 190 18:42 21.09.2019
1541 Clear 9 1031 76 10000 3.1 180 18:22 21.09.2019
1542 Clear 10 1030 76 10000 3.6 170 17:44 21.09.2019
1543 Clear 10 1030 76 10000 3.6 170 17:24 21.09.2019
1544 Clear 10 1030 75 10000 3.6 180 16:58 21.09.2019
1545 Clear 10 1030 75 10000 2.6 210 16:40 21.09.2019
1546 Clear 10 1030 71 10000 3.6 170 16:20 21.09.2019
1547 Clear 11 1030 62 10000 3.1 150 15:45 21.09.2019
1548 Clear 11 1030 62 10000 3.1 150 15:45 21.09.2019
1549 Clear 12 1030 62 10000 3.1 150 15:23 21.09.2019
1550 Clear 12 1030 58 10000 3.1 160 14:49 21.09.2019
1551 Clear 13 1029 50 10000 4.1 120 14:31 21.09.2019
1552 Clear 14 1029 54 10000 3.6 150 13:55 21.09.2019
1553 Clear 14 1028 54 10000 4.6 170 13:36 21.09.2019
1554 Clear 15 1028 48 10000 6.2 190 13:18 21.09.2019
1555 Clear 15 1028 48 10000 6.7 190 12:42 21.09.2019
1556 Clear 16 1027 45 10000 6.2 190 12:22 21.09.2019
1557 Clear 16 1027 45 10000 6.2 190 11:59 21.09.2019
1558 Clear 17 1027 42 10000 5.7 200 11:41 21.09.2019
1559 Clear 17 1027 42 10000 5.7 200 11:22 21.09.2019
1560 Clear 18 1027 39 10000 5.1 190 10:42 21.09.2019
1561 Clear 18 1027 39 10000 5.1 190 10:23 21.09.2019
1562 Clear 18 1027 39 10000 3.6 190 09:57 21.09.2019
1563 Clear 19 1027 42 10000 6.7 220 09:38 21.09.2019
1564 Clear 19 1028 39 10000 4.6 210 09:20 21.09.2019
1565 Clear 18 1028 42 10000 4.6 190 08:51 21.09.2019
1566 Clear 18 1028 42 10000 4.6 190 08:27 21.09.2019
1567 Clear 18 1028 39 10000 4.1 210 07:41 21.09.2019
1568 Clear 18 1028 39 10000 4.1 200 07:22 21.09.2019
1569 Clear 17 1029 42 10000 3.6 220 06:49 21.09.2019
1570 Clear 17 1029 42 10000 3.6 220 06:49 21.09.2019
1571 Clear 17 1029 42 10000 3.6 220 06:30 21.09.2019
1572 Clouds 17 1030 48 10000 5.1 170 04:50 21.09.2019
1573 Clouds 17 1030 48 10000 5.1 170 04:50 21.09.2019
1574 Clouds 17 1030 48 10000 4.6 100 04:32 21.09.2019
1575 Clear 13 1030 71 10000 4.1 80 02:30 21.09.2019
1576 Clear 11 1030 81 10000 2.6 50 01:53 21.09.2019
1577 Clear 10 1030 81 10000 2.6 50 01:34 21.09.2019
1578 Clear 8 1029 87 10000 2.1 10 00:39 21.09.2019
1579 Clear 8 1029 81 10000 2.1 10 00:18 21.09.2019
1580 Clear 8 1029 81 10000 2.1 10 00:18 21.09.2019
1581 Clear 8 1029 81 10000 1 300 23:41 20.09.2019
1582 Clear 8 1029 81 10000 1 300 23:21 20.09.2019
1583 Clear 8 1028 93 10000 1.5 20 22:41 20.09.2019
1584 Clear 8 1028 93 10000 1.5 20 22:22 20.09.2019
1585 Clear 8 1028 93 10000 2.1 350 21:56 20.09.2019
1586 Clear 8 1028 93 10000 2.1 350 21:56 20.09.2019
1587 Clear 8 1028 93 10000 3.1 360 21:37 20.09.2019
1588 Clear 8 1028 93 10000 2.1 350 21:18 20.09.2019
1589 Clear 8 1028 87 10000 2.1 320 20:42 20.09.2019
1590 Clear 8 1028 87 10000 2.1 320 20:42 20.09.2019
1591 Clear 8 1028 87 10000 2.1 320 20:21 20.09.2019
1592 Clear 8 1028 87 10000 2.1 320 20:21 20.09.2019
1593 Clear 8 1028 87 10000 1.5 40 19:59 20.09.2019
1594 Clear 8 1028 93 10000 3.1 120 19:40 20.09.2019
1595 Clouds 8 1028 81 10000 1 250 19:20 20.09.2019
1596 Clear 9 1028 87 10000 3.1 190 18:40 20.09.2019
1597 Clear 9 1028 81 10000 2.6 190 18:21 20.09.2019
1598 Clear 9 1028 81 10000 2.6 190 17:59 20.09.2019
1599 Clear 9 1028 87 10000 2.6 190 17:41 20.09.2019
1600 Clear 9 1028 87 10000 2.6 190 17:23 20.09.2019
1601 Clear 10 1028 87 10000 2.6 180 16:43 20.09.2019
1602 Clear 10 1028 87 10000 2.6 180 16:19 20.09.2019
1603 Clear 11 1028 76 10000 3.6 210 15:56 20.09.2019
1604 Clear 11 1028 66 10000 3.6 210 15:37 20.09.2019
1605 Clear 11 1028 66 10000 3.6 210 15:19 20.09.2019
1606 Clouds 12 1028 62 10000 5.7 190 14:42 20.09.2019
1607 Clear 12 1026 71 0 2.24 222 14:19 20.09.2019
1608 Clouds 13 1027 58 10000 6.2 200 13:48 20.09.2019
1609 Clouds 14 1027 58 10000 6.2 200 13:28 20.09.2019
1610 Clouds 14 1027 58 10000 6.2 200 12:57 20.09.2019
1611 Clouds 14 1027 51 10000 8.2 200 12:37 20.09.2019
1612 Clear 15 1026 48 10000 6.7 230 12:18 20.09.2019
1613 Clear 16 1026 48 10000 5.1 210 11:48 20.09.2019
1614 Clear 16 1026 48 10000 5.1 210 11:21 20.09.2019
1615 Clear 17 1026 51 10000 6.2 190 10:43 20.09.2019
1616 Clear 17 1026 39 10000 5.1 190 10:24 20.09.2019
1617 Clear 17 1026 39 10000 5.1 190 09:55 20.09.2019
1618 Clear 17 1026 42 10000 4.6 150 09:36 20.09.2019
1619 Clear 17 1026 42 10000 4.6 150 09:18 20.09.2019
1620 Clear 17 1026 42 10000 5.1 200 08:41 20.09.2019
1621 Clear 17 1026 42 10000 5.1 200 08:22 20.09.2019
1622 Clear 17 1026 42 10000 5.1 170 07:45 20.09.2019
1623 Clear 17 1027 45 10000 3.6 160 07:26 20.09.2019
1624 Clear 16 1027 44 10000 4.6 180 06:44 20.09.2019
1625 Clear 16 1027 44 10000 4.6 180 06:44 20.09.2019
1626 Clouds 16 1027 41 10000 3.1 140 06:21 20.09.2019
1627 Clouds 16 1028 48 10000 4.6 200 05:43 20.09.2019
1628 Clouds 13 1028 58 10000 6.7 150 03:31 20.09.2019
1629 Clouds 13 1028 58 10000 6.7 150 03:31 20.09.2019
1630 Clouds 12 1028 66 10000 2.1 60 02:51 20.09.2019
1631 Clear 7 1028 100 10000 5.74 128.672 01:44 20.09.2019
1632 Fog 3 1027 100 10000 1 20 00:48 20.09.2019
1633 Clear 4 1027 93 10000 2.1 80 00:21 20.09.2019
1634 Clear 4 1027 93 10000 2.1 80 00:21 20.09.2019
1635 Clear 4 1027 93 10000 2.1 10 23:41 19.09.2019
1636 Clear 4 1027 93 10000 2.1 10 23:19 19.09.2019
1637 Clear 4 1027 93 10000 5.86 133.555 22:54 19.09.2019
1638 Clear 4 1026 100 10000 5.86 133.555 22:36 19.09.2019
1639 Clear 4 1026 100 10000 5.86 133.555 22:18 19.09.2019
1640 Clear 5 1026 93 10000 2.1 70 21:55 19.09.2019
1641 Clear 5 1026 93 10000 1.5 30 21:36 19.09.2019
1642 Clear 5 1026 93 10000 2.1 330 21:18 19.09.2019
1643 Clear 5 1026 93 10000 2.1 330 21:18 19.09.2019
1644 Clear 5 1026 93 10000 7.1 149.709 20:43 19.09.2019
1645 Clear 5 1026 93 10000 7.1 149.709 20:20 19.09.2019
1646 Clear 6 1026 93 10000 2.6 200 19:55 19.09.2019
1647 Clear 6 1026 86 10000 3.1 170 19:37 19.09.2019
1648 Clouds 6 1026 86 10000 7.1 149.709 19:18 19.09.2019
1649 Clear 6 1026 81 10000 3.1 180 18:42 19.09.2019
1650 Clear 6 1026 81 10000 3.1 180 18:42 19.09.2019
1651 Clouds 7 1026 80 10000 8.14 162.092 18:23 19.09.2019
1652 Clear 7 1026 75 10000 4.1 180 17:44 19.09.2019
1653 Clear 8 1026 75 10000 4.1 180 17:25 19.09.2019
1654 Clear 8 1026 75 10000 4.1 180 17:25 19.09.2019
1655 Clear 8 1026 81 10000 3.6 180 16:59 19.09.2019
1656 Clear 8 1026 70 10000 4.1 190 16:40 19.09.2019
1657 Clear 9 1026 70 10000 3.6 200 16:20 19.09.2019
1658 Clear 9 1026 70 10000 3.6 200 16:20 19.09.2019
1659 Clear 10 1026 70 10000 4.1 170 15:41 19.09.2019
1660 Clear 9 1026 70 10000 4.1 170 15:22 19.09.2019
1661 Clear 10 1026 66 10000 4.6 180 14:58 19.09.2019
1662 Clear 11 1025 62 10000 4.6 200 14:39 19.09.2019
1663 Clear 11 1025 62 10000 4.6 200 14:39 19.09.2019
1664 Clear 11 1025 62 10000 4.6 200 14:20 19.09.2019
1665 Clear 12 1025 58 10000 5.1 200 13:55 19.09.2019
1666 Clouds 12 1024 54 10000 4.6 210 13:36 19.09.2019
1667 Clouds 12 1024 50 10000 4.6 210 13:18 19.09.2019
1668 Clouds 12 1023 50 10000 7.7 210 12:36 19.09.2019
1669 Clouds 13 1023 50 10000 6.7 220 12:18 19.09.2019
1670 Clouds 14 1023 47 10000 7.7 210 11:41 19.09.2019
1671 Clouds 14 1023 47 10000 7.7 210 11:22 19.09.2019
1672 Clouds 15 1022 47 10000 8.7 210 10:58 19.09.2019
1673 Clouds 15 1022 47 10000 8.7 210 10:39 19.09.2019
1674 Clouds 15 1022 47 10000 8.7 210 10:21 19.09.2019
1675 Clouds 15 1022 51 10000 9.3 210 09:55 19.09.2019
1676 Clouds 14 1022 50 10000 9.8 210 09:37 19.09.2019
1677 Clouds 14 1022 50 10000 9.8 210 09:18 19.09.2019
1678 Clouds 15 1021 47 10000 10.3 200 08:48 19.09.2019
1679 Clouds 15 1021 47 10000 10.3 200 08:22 19.09.2019
1680 Clouds 15 1021 51 10000 9.3 220 07:43 19.09.2019
1681 Clouds 14 1021 50 10000 9.8 190 07:22 19.09.2019
1682 Rain 14 1021 54 10000 8.2 200 06:49 19.09.2019
1683 Rain 14 1021 54 10000 8.2 200 06:29 19.09.2019
1684 Rain 13 1021 71 10000 7.2 220 05:53 19.09.2019
1685 Rain 13 1021 71 10000 7.2 220 05:31 19.09.2019
1686 Rain 12 1020 71 10000 7.2 170 03:54 19.09.2019
1687 Rain 12 1020 76 10000 9.3 190 02:47 19.09.2019
1688 Rain 11 1018 87 10000 6.2 200 01:32 19.09.2019
1689 Rain 11 1017 87 10000 9.3 200 00:50 19.09.2019
1690 Rain 10 1017 87 10000 9.3 200 00:26 19.09.2019
1691 Rain 11 1016 76 10000 7.7 210 23:42 18.09.2019
1692 Rain 11 1016 76 10000 7.7 210 23:22 18.09.2019
1693 Rain 12 1016 66 10000 7.7 220 22:55 18.09.2019
1694 Rain 12 1015 81 10000 5.7 230 22:36 18.09.2019
1695 Rain 11 1015 81 10000 5.7 230 22:18 18.09.2019
1696 Rain 12 1015 81 10000 5.1 230 21:54 18.09.2019
1697 Rain 12 1015 81 10000 5.1 230 21:54 18.09.2019
1698 Rain 12 1015 71 10000 10.8 240 21:36 18.09.2019
1699 Rain 12 1014 66 10000 7.2 230 21:18 18.09.2019
1700 Rain 13 1014 66 10000 7.2 230 20:55 18.09.2019
1701 Clouds 13 1014 66 10000 8.2 230 20:37 18.09.2019
1702 Rain 13 1015 76 10000 7.7 220 20:18 18.09.2019
1703 Rain 13 1014 71 10000 7.7 230 19:41 18.09.2019
1704 Rain 13 1014 67 10000 9.3 230 19:20 18.09.2019
1705 Rain 14 1014 67 10000 9.3 230 18:56 18.09.2019
1706 Rain 14 1013 76 10000 8.7 220 18:38 18.09.2019
1707 Rain 14 1013 76 10000 8.7 220 18:19 18.09.2019
1708 Rain 14 1013 93 9000 7.2 230 17:58 18.09.2019
1709 Rain 14 1013 87 4000 5.1 230 17:39 18.09.2019
1710 Rain 14 1013 93 8000 9.3 230 17:19 18.09.2019
1711 Rain 14 1013 93 8000 9.3 230 16:56 18.09.2019
1712 Rain 14 1013 93 10000 8.2 220 16:38 18.09.2019
1713 Rain 14 1013 93 10000 8.2 220 16:19 18.09.2019
1714 Rain 15 1012 93 10000 9.3 240 15:55 18.09.2019
1715 Rain 15 1012 93 4500 10.3 240 15:37 18.09.2019
1716 Rain 16 1012 93 6000 8.7 270 15:18 18.09.2019
1717 Rain 16 1012 93 6000 8.7 270 14:57 18.09.2019
1718 Rain 16 1012 100 3600 9.8 260 14:38 18.09.2019
1719 Rain 16 1012 100 3600 9.8 260 14:20 18.09.2019
1720 Rain 16 1012 87 5000 9.8 290 13:43 18.09.2019
1721 Rain 16 1012 93 10000 7.7 290 13:19 18.09.2019
1722 Rain 16 1012 93 10000 7.7 290 13:19 18.09.2019
1723 Rain 17 1012 93 10000 7.7 290 12:55 18.09.2019
1724 Rain 17 1012 88 6000 6.2 290 12:37 18.09.2019
1725 Rain 17 1012 77 10000 7.7 290 12:18 18.09.2019
1726 Rain 18 1012 82 10000 5.7 290 11:39 18.09.2019
1727 Rain 18 1012 93 5000 6.2 300 11:19 18.09.2019
1728 Rain 18 1012 88 5000 6.7 320 10:41 18.09.2019
1729 Rain 17 1012 88 5000 6.7 320 10:21 18.09.2019
1730 Rain 17 1012 100 5000 8.2 310 09:58 18.09.2019
1731 Rain 17 1012 93 10000 7.7 320 09:40 18.09.2019
1732 Rain 17 1012 93 10000 7.7 320 09:40 18.09.2019
1733 Rain 18 1012 93 10000 7.7 320 09:22 18.09.2019
1734 Rain 19 1013 68 10000 9.3 300 08:46 18.09.2019
1735 Rain 20 1013 68 10000 9.3 300 08:26 18.09.2019
1736 Rain 19 1013 60 10000 7.7 300 07:59 18.09.2019
1737 Clouds 20 1014 56 10000 8.7 290 07:41 18.09.2019
1738 Rain 19 1014 56 10000 8.7 310 07:22 18.09.2019
1739 Clouds 20 1014 68 10000 7.7 300 06:41 18.09.2019
1740 Rain 20 1015 63 10000 8.2 310 05:51 18.09.2019
1741 Rain 19 1015 63 10000 8.2 310 05:21 18.09.2019
1742 Clouds 19 1015 56 10000 6.2 300 03:21 18.09.2019
1743 Clouds 17 1016 87 10000 3.1 20 02:39 18.09.2019
1744 Clouds 15 1016 100 10000 2.6 40 01:25 18.09.2019
1745 Fog 14 1016 100 4500 2.6 10 00:49 18.09.2019
1746 Fog 14 1016 100 8000 3.6 20 00:22 18.09.2019
1747 Clouds 13 1016 100 10000 2.6 50 23:46 17.09.2019
1748 Clouds 13 1016 100 10000 2.6 50 23:46 17.09.2019
1749 Clouds 13 1016 100 10000 2.6 50 23:23 17.09.2019
1750 Clouds 13 1016 100 10000 2.1 30 22:43 17.09.2019
1751 Clouds 13 1016 100 10000 2.1 30 22:24 17.09.2019
1752 Clouds 13 1016 93 10000 2.6 50 21:55 17.09.2019
1753 Clouds 13 1016 100 5000 2.6 20 21:37 17.09.2019
1754 Clouds 13 1016 100 5000 2.6 20 21:19 17.09.2019
1755 Clouds 13 1016 100 5000 2.6 20 21:19 17.09.2019
1756 Clouds 14 1016 93 10000 2.6 20 20:58 17.09.2019
1757 Clouds 14 1016 93 10000 2.6 30 20:40 17.09.2019
1758 Clouds 14 1016 93 10000 2.6 30 20:22 17.09.2019
1759 Drizzle 14 1017 100 10000 2.6 10 19:58 17.09.2019
1760 Drizzle 14 1017 100 10000 2.6 10 19:58 17.09.2019
1761 Clouds 14 1017 93 10000 1.5 50 19:39 17.09.2019
1762 Clouds 14 1017 93 10000 5.12 265.708 19:19 17.09.2019
1763 Clouds 13 1017 93 10000 2.1 50 18:57 17.09.2019
1764 Clouds 13 1017 93 10000 2.1 50 18:38 17.09.2019
1765 Clouds 14 1017 93 10000 2.1 50 18:20 17.09.2019
1766 Clouds 14 1018 93 10000 1.5 240 17:46 17.09.2019
1767 Clouds 15 1018 93 10000 1.5 240 17:20 17.09.2019
1768 Clouds 14 1018 100 4900 3.98 258.3 16:57 17.09.2019
1769 Clouds 15 1018 100 3900 3.98 258.3 16:39 17.09.2019
1770 Clouds 15 1018 100 3900 3.98 258.3 16:21 17.09.2019
1771 Clouds 15 1018 100 3900 3.98 258.3 16:21 17.09.2019
1772 Clouds 15 1018 100 3900 3.98 258.3 16:21 17.09.2019
1773 Clouds 16 1018 82 10000 2.6 250 15:40 17.09.2019
1774 Clouds 16 1018 82 10000 2.6 250 15:20 17.09.2019
1775 Clouds 17 1018 77 10000 2.6 250 14:57 17.09.2019
1776 Clouds 17 1018 77 10000 3.6 230 14:39 17.09.2019
1777 Clouds 17 1018 77 10000 3.6 230 14:19 17.09.2019
1778 Clouds 17 1018 72 10000 4.1 230 13:57 17.09.2019
1779 Clouds 17 1017 72 10000 4.1 230 13:38 17.09.2019
1780 Clouds 18 1017 72 10000 4.1 230 13:20 17.09.2019
1781 Clouds 18 1017 68 10000 5.7 250 12:42 17.09.2019
1782 Clouds 19 1017 68 10000 5.1 250 12:19 17.09.2019
1783 Clouds 19 1017 64 10000 5.7 250 11:45 17.09.2019
1784 Clouds 19 1017 64 10000 5.7 250 11:26 17.09.2019
1785 Clouds 20 1016 64 10000 6.2 250 10:59 17.09.2019
1786 Clouds 20 1016 60 10000 6.2 250 10:40 17.09.2019
1787 Clouds 20 1016 60 10000 6.2 250 10:20 17.09.2019
1788 Clouds 20 1016 64 10000 6.7 250 09:43 17.09.2019
1789 Clouds 20 1016 64 10000 6.7 250 09:43 17.09.2019
1790 -273 0 0 0 0 0 09:25 17.09.2019
1791 Clouds 21 1016 64 10000 6.2 240 08:57 17.09.2019
1792 Clouds 21 1016 64 10000 5.1 250 08:39 17.09.2019
1793 Clouds 21 1016 64 10000 5.1 250 08:39 17.09.2019
1794 Clouds 21 1016 64 10000 5.1 250 08:20 17.09.2019
1795 Clouds 21 1016 60 10000 5.7 290 07:42 17.09.2019
1796 Clouds 21 1016 60 10000 5.7 290 07:42 17.09.2019
1797 Clouds 21 1016 60 10000 5.7 290 07:24 17.09.2019
1798 Clouds 21 1016 60 10000 5.7 290 07:24 17.09.2019
1799 Clouds 21 1016 60 10000 4.6 270 06:52 17.09.2019
1800 Clouds 21 1016 64 10000 7.2 250 06:29 17.09.2019
1801 Clouds 21 1017 64 10000 7.2 250 05:53 17.09.2019
1802 Clouds 20 1017 77 10000 1.5 310 04:46 17.09.2019
1803 Clouds 19 1017 88 10000 2.1 10 03:40 17.09.2019
1804 Fog 17 1017 100 600 3.6 50 02:39 17.09.2019
1805 Fog 17 1017 100 600 3.6 50 02:39 17.09.2019
1806 Fog 15 1017 100 300 2.6 360 01:49 17.09.2019
1807 Fog 14 1016 100 350 2.6 350 00:45 17.09.2019
1808 Fog 13 1016 100 200 3.6 50 23:41 16.09.2019
1809 Fog 13 1016 100 200 3.6 50 23:19 16.09.2019
1810 Fog 13 1015 100 3800 2.1 60 22:57 16.09.2019
1811 Fog 13 1015 100 500 3.6 50 22:39 16.09.2019
1812 Fog 13 1015 100 5000 1.81 245.735 22:21 16.09.2019
1813 Fog 13 1015 100 5000 1.81 245.735 21:55 16.09.2019
1814 Clouds 13 1015 93 10000 2.6 10 21:37 16.09.2019
1815 Clouds 13 1015 100 10000 2.6 10 21:18 16.09.2019
1816 Clouds 14 1016 93 10000 2.6 10 20:40 16.09.2019
1817 Clouds 14 1016 93 10000 2.6 10 20:22 16.09.2019
1818 Clear 14 1016 93 10000 0.5 80 19:57 16.09.2019
1819 Clear 15 1016 93 10000 0.5 280 19:39 16.09.2019
1820 Clear 15 1016 93 10000 1 250 19:19 16.09.2019
1821 Clear 15 1016 93 10000 2.1 320 18:47 16.09.2019
1822 Clear 16 1016 93 10000 2.1 320 18:29 16.09.2019
1823 Clear 16 1016 93 10000 5.45 213.611 17:58 16.09.2019
1824 Clear 16 1016 82 10000 5.45 213.611 17:39 16.09.2019
1825 Clear 16 1016 82 10000 5.45 213.611 17:21 16.09.2019
1826 Clear 16 1016 82 10000 5.45 213.611 17:21 16.09.2019
1827 Clear 17 1017 82 10000 5.45 213.611 16:55 16.09.2019
1828 Clear 17 1017 82 10000 1 250 16:37 16.09.2019
1829 Clear 18 1017 72 10000 2.6 220 16:18 16.09.2019
1830 Clear 18 1017 72 10000 2.6 220 15:54 16.09.2019
1831 Clear 18 1017 72 10000 2.6 220 15:54 16.09.2019
1832 Clear 18 1017 68 10000 2.6 210 15:36 16.09.2019
1833 Rain 19 1018 77 10000 2.1 180 15:18 16.09.2019
1834 Clear 19 1017 64 10000 4.1 210 14:40 16.09.2019
1835 Clear 19 1017 64 10000 4.1 210 14:22 16.09.2019
1836 Rain 20 1017 68 10000 3.6 180 13:55 16.09.2019
1837 Clear 20 1017 56 10000 4.6 190 13:37 16.09.2019
1838 Clouds 20 1017 64 10000 3.6 180 13:18 16.09.2019
1839 Clouds 20 1017 64 10000 3.6 180 13:18 16.09.2019
1840 Clear 20 1017 53 10000 5.1 220 12:40 16.09.2019
1841 Clear 22 1017 47 10000 4.6 250 12:22 16.09.2019
1842 Clear 22 1016 44 10000 5.1 230 11:46 16.09.2019
1843 Clear 23 1016 44 10000 5.1 230 11:23 16.09.2019
1844 Clear 24 1016 44 10000 5.1 230 10:58 16.09.2019
1845 Clear 24 1017 44 10000 5.1 250 10:38 16.09.2019
1846 Clear 25 1017 44 10000 5.1 250 10:19 16.09.2019
1847 Clear 25 1017 41 10000 5.1 250 09:57 16.09.2019
1848 Clear 25 1017 41 10000 5.1 250 09:38 16.09.2019
1849 Clear 25 1017 44 10000 3.6 50 09:18 16.09.2019
1850 Clear 24 1018 47 10000 3.6 60 08:42 16.09.2019
1851 Clear 25 1018 47 10000 3.6 60 08:24 16.09.2019
1852 Clear 25 1018 47 10000 3.1 50 07:43 16.09.2019
1853 Clear 24 1019 44 10000 4.6 50 07:24 16.09.2019
1854 Clear 24 1019 44 10000 4.6 50 06:58 16.09.2019
1855 Clear 23 1019 49 10000 5.7 70 06:39 16.09.2019
1856 Clear 22 1020 46 10000 5.1 90 06:21 16.09.2019
1857 Clear 22 1020 49 10000 5.1 90 05:43 16.09.2019
1858 Clear 22 1020 49 10000 5.7 70 05:21 16.09.2019
1859 Clear 19 1020 52 10000 9.3 80 03:46 16.09.2019
1860 Clear 15 1021 67 10000 9.3 60 01:31 16.09.2019
1861 Clear 14 1021 67 10000 9.3 80 00:38 16.09.2019
1862 Clear 14 1021 71 10000 9.8 80 00:20 16.09.2019
1863 Clear 14 1021 76 10000 9.3 80 23:39 15.09.2019
1864 Clear 14 1021 76 10000 9.3 80 23:20 15.09.2019
1865 Clouds 14 1021 72 10000 4.6 110 22:40 15.09.2019
1866 Clouds 14 1021 72 10000 4.6 110 22:21 15.09.2019
1867 Clouds 15 1021 72 10000 9.8 100 21:58 15.09.2019
1868 Clouds 15 1021 77 10000 9.3 100 21:39 15.09.2019
1869 Clouds 15 1021 77 10000 9.3 100 21:39 15.09.2019
1870 Clouds 15 1021 77 10000 9.3 100 21:39 15.09.2019
1871 Clouds 15 1021 77 10000 9.3 100 21:39 15.09.2019
1872 Clouds 15 1021 72 10000 10.8 100 21:21 15.09.2019
1873 Clouds 15 1021 72 10000 10.8 100 20:57 15.09.2019
1874 Clouds 15 1021 72 10000 10.8 100 20:57 15.09.2019
1875 Clouds 15 1021 77 10000 7.7 100 20:38 15.09.2019
1876 Clouds 15 1021 77 10000 7.7 90 20:20 15.09.2019
1877 Clouds 15 1021 77 10000 7.7 100 19:42 15.09.2019
1878 Clouds 16 1021 77 10000 7.7 100 19:22 15.09.2019
1879 Clear 15 1021 63 10000 7.2 90 18:42 15.09.2019
1880 Clear 15 1021 67 10000 7.2 90 18:24 15.09.2019
1881 Clear 16 1021 67 10000 7.2 90 17:56 15.09.2019
1882 Clear 16 1021 67 10000 7.2 90 17:56 15.09.2019
1883 Clear 15 1021 93 10000 7.2 90 17:37 15.09.2019
1884 Clear 15 1021 82 10000 7.2 90 17:19 15.09.2019
1885 Clear 15 1021 82 10000 7.2 90 17:19 15.09.2019
1886 Clear 15 1022 82 10000 7.2 90 16:42 15.09.2019
1887 Clear 15 1022 82 10000 7.2 90 16:24 15.09.2019
1888 Clear 16 1022 77 10000 7.2 90 15:58 15.09.2019
1889 Clear 16 1022 72 10000 3.6 190 15:39 15.09.2019
1890 Clear 16 1022 72 10000 3.6 190 15:20 15.09.2019
1891 Clear 16 1022 67 10000 7.2 90 14:56 15.09.2019
1892 Clear 17 1022 63 10000 7.2 90 14:38 15.09.2019
1893 Clear 17 1022 63 10000 7.2 90 14:20 15.09.2019
1894 Clear 17 1021 68 10000 5.1 120 13:45 15.09.2019
1895 Clouds 17 1021 68 10000 5.1 120 13:23 15.09.2019
1896 Clouds 18 1021 63 10000 5.1 120 12:44 15.09.2019
1897 Clouds 18 1021 63 10000 5.1 120 12:25 15.09.2019
1898 Clouds 19 1021 60 10000 5.1 120 11:59 15.09.2019
1899 Clouds 19 1021 56 10000 4.1 250 11:41 15.09.2019
1900 Clouds 20 1021 56 10000 4.1 250 11:22 15.09.2019
1901 Clouds 20 1021 60 10000 5.1 250 10:55 15.09.2019
1902 Clouds 20 1021 60 10000 5.1 260 10:37 15.09.2019
1903 Clouds 20 1021 60 10000 5.1 260 10:18 15.09.2019
1904 Clouds 21 1021 60 10000 5.7 250 09:39 15.09.2019
1905 Clouds 21 1021 60 10000 5.7 250 09:19 15.09.2019
1906 Clouds 21 1022 56 10000 4.6 250 08:46 15.09.2019
1907 Clouds 21 1022 56 10000 4.6 250 08:27 15.09.2019
1908 Clouds 22 1022 53 10000 5.1 230 07:49 15.09.2019
1909 Clouds 22 1022 53 10000 5.1 230 07:28 15.09.2019
1910 Clouds 22 1023 56 10000 2.6 100 06:43 15.09.2019
1911 Clouds 17 1024 72 10000 1 170 03:31 15.09.2019
1912 Clear 16 1024 72 10000 3.6 200 02:41 15.09.2019
1913 Clouds 13 1024 87 10000 4.1 150 01:41 15.09.2019
1914 Clouds 12 1024 93 10000 4.1 150 01:19 15.09.2019
1915 Clouds 12 1023 93 10000 2.6 150 00:43 15.09.2019
1916 Clouds 12 1023 93 10000 2.6 150 00:22 15.09.2019
1917 Clouds 12 1023 93 10000 2.6 150 23:58 14.09.2019
1918 Clouds 12 1023 93 10000 2.6 150 23:39 14.09.2019
1919 Clouds 12 1023 93 10000 2.6 150 23:39 14.09.2019
1920 Clouds 12 1023 93 10000 2.6 150 23:39 14.09.2019
1921 Clouds 13 1023 93 10000 2.6 150 23:21 14.09.2019
1922 Clouds 13 1023 93 10000 2.6 150 22:59 14.09.2019
1923 Clear 13 1023 87 10000 4.1 180 22:40 14.09.2019
1924 Clear 13 1023 87 10000 4.1 180 22:19 14.09.2019
1925 Clear 14 1023 87 10000 5.7 190 21:55 14.09.2019
1926 Clear 14 1023 82 10000 4.6 200 21:36 14.09.2019
1927 Clear 15 1022 82 10000 6.2 190 21:18 14.09.2019
1928 Clear 15 1023 82 10000 5.1 200 20:40 14.09.2019
1929 Clear 15 1023 82 10000 5.1 200 20:22 14.09.2019
1930 Clear 15 1023 82 10000 6.2 190 19:53 14.09.2019
1931 Clear 16 1023 82 10000 6.2 200 19:23 14.09.2019
1932 Clouds 16 1023 82 10000 5.7 200 18:59 14.09.2019
1933 Clear 16 1023 87 10000 5.1 210 18:40 14.09.2019
1934 Clear 16 1022 87 10000 5.1 210 18:21 14.09.2019
1935 Clear 16 1022 87 10000 5.1 210 17:58 14.09.2019
1936 Clear 16 1022 87 10000 5.1 180 17:39 14.09.2019
1937 Clear 16 1022 87 10000 5.1 180 17:21 14.09.2019
1938 Clouds 17 1023 82 10000 5.1 190 16:43 14.09.2019
1939 Clouds 17 1023 82 10000 5.1 190 16:21 14.09.2019
1940 Clouds 17 1023 82 10000 6.2 200 15:43 14.09.2019
1941 Clouds 17 1023 82 10000 6.2 200 15:24 14.09.2019
1942 Clouds 17 1023 82 10000 5.1 210 14:59 14.09.2019
1943 Clear 17 1023 82 10000 4.6 210 14:40 14.09.2019
1944 Clear 18 1022 77 10000 4.6 220 14:18 14.09.2019
1945 Clear 18 1022 77 10000 4.6 230 13:47 14.09.2019
1946 Clear 18 1022 77 10000 4.6 230 13:47 14.09.2019
1947 Clear 18 1022 77 10000 4.6 230 13:22 14.09.2019
1948 Clear 18 1022 77 10000 4.6 230 13:22 14.09.2019
1949 Clouds 19 1021 72 10000 4.6 210 12:48 14.09.2019
1950 Clouds 19 1021 72 10000 4.6 210 12:26 14.09.2019
1951 Clouds 20 1021 68 10000 5.7 240 11:42 14.09.2019
1952 Clouds 20 1021 68 10000 5.7 240 11:42 14.09.2019
1953 Clouds 21 1021 68 10000 5.7 240 11:21 14.09.2019
1954 Clouds 21 1021 64 10000 6.7 220 10:57 14.09.2019
1955 Clouds 21 1021 64 10000 5.7 260 10:36 14.09.2019
1956 Clouds 21 1021 64 10000 5.7 260 10:36 14.09.2019
1957 Clouds 22 1021 64 10000 4.1 240 10:18 14.09.2019
1958 Clouds 22 1021 64 10000 4.1 240 09:55 14.09.2019
1959 Clouds 23 1021 64 10000 4.6 250 09:37 14.09.2019
1960 Clouds 23 1021 60 10000 5.7 260 09:18 14.09.2019
1961 Clouds 23 1021 64 10000 5.7 270 08:41 14.09.2019
1962 Clouds 23 1021 64 10000 5.7 270 08:22 14.09.2019
1963 Clouds 24 1021 60 10000 4.6 260 07:43 14.09.2019
1964 Clouds 24 1021 60 10000 4.6 260 07:23 14.09.2019
1965 Clouds 24 1022 64 10000 4.1 250 06:38 14.09.2019
1966 Clouds 23 1022 64 10000 2.6 230 05:55 14.09.2019
1967 Clouds 22 1023 68 10000 3.6 250 04:43 14.09.2019
1968 Clouds 20 1023 72 10000 1 190 03:32 14.09.2019
1969 Clear 19 1023 77 10000 2.6 40 02:48 14.09.2019
1970 Clear 19 1023 77 10000 2.6 40 02:48 14.09.2019
1971 Clouds 16 1022 93 10000 2.1 10 01:45 14.09.2019
1972 Clouds 15 1022 100 10000 2.6 70 01:20 14.09.2019
1973 Clouds 15 1022 93 10000 1.5 60 00:40 14.09.2019
1974 Clouds 15 1022 87 10000 2.1 30 00:22 14.09.2019
1975 Clouds 15 1022 87 10000 2.1 30 23:56 13.09.2019
1976 Clouds 15 1022 93 10000 3.6 20 23:37 13.09.2019
1977 Clear 15 1021 100 10000 1.5 110 23:18 13.09.2019
1978 Clear 15 1021 100 10000 1.5 110 22:55 13.09.2019
1979 Drizzle 15 1021 87 10000 2.6 30 22:36 13.09.2019
1980 Drizzle 15 1021 87 10000 2.6 30 22:18 13.09.2019
1981 Clear 16 1021 87 10000 1.5 310 21:39 13.09.2019
1982 Drizzle 16 1021 87 10000 2.6 30 21:19 13.09.2019
1983 Drizzle 16 1021 87 10000 2.6 30 20:58 13.09.2019
1984 Clear 16 1020 87 10000 2.1 10 20:37 13.09.2019
1985 Clear 16 1020 87 10000 2.1 10 20:19 13.09.2019
1986 Clear 16 1021 82 10000 2.1 330 19:54 13.09.2019
1987 Clear 16 1021 82 10000 2.6 10 19:36 13.09.2019
1988 Clear 16 1021 100 10000 1.71 237.642 19:18 13.09.2019
1989 Clear 16 1021 93 10000 1.5 50 18:38 13.09.2019
1990 Clear 16 1022 88 10000 2.6 180 18:19 13.09.2019
1991 Clear 16 1022 88 10000 2.6 180 18:19 13.09.2019
1992 Clear 17 1022 88 10000 2.6 180 18:19 13.09.2019
1993 Clear 17 1022 82 10000 3.1 190 17:44 13.09.2019
1994 Clear 17 1022 82 10000 3.1 190 17:22 13.09.2019
1995 Clear 17 1022 82 10000 3.6 210 16:59 13.09.2019
1996 Clear 17 1022 82 10000 3.6 210 16:59 13.09.2019
1997 Clear 18 1022 77 10000 3.6 200 16:40 13.09.2019
1998 Clear 18 1022 77 10000 3.6 200 16:19 13.09.2019
1999 Clear 18 1022 82 10000 3.6 200 15:42 13.09.2019
2000 Clear 18 1022 82 10000 3.6 200 15:23 13.09.2019
2001 Clear 18 1022 82 10000 3.6 190 14:56 13.09.2019
2002 Clear 18 1022 77 10000 3.6 200 14:37 13.09.2019
2003 Clear 18 1022 77 10000 3.6 200 14:18 13.09.2019
2004 Clouds 19 1021 88 10000 3.1 220 13:41 13.09.2019
2005 Clouds 19 1021 88 10000 3.1 230 13:22 13.09.2019
2006 Clouds 20 1021 82 10000 3.6 230 12:45 13.09.2019
2007 -273 0 0 0 0 0 12:25 13.09.2019
2008 -273 0 0 0 0 0 12:25 13.09.2019
2009 Clear 22 1020 53 10000 4.1 240 11:57 13.09.2019
2010 Clear 22 1020 56 10000 4.6 250 11:20 13.09.2019
2011 Clear 23 1020 53 10000 3.6 250 10:54 13.09.2019
2012 Clear 23 1020 53 10000 3.1 270 10:36 13.09.2019
2013 Clear 23 1020 53 10000 4.6 250 10:18 13.09.2019
2014 Clear 23 1020 47 10000 4.6 250 09:42 13.09.2019
2015 Clear 24 1020 47 10000 4.6 250 09:19 13.09.2019
2016 Clear 26 1021 44 10000 4.1 280 08:42 13.09.2019
2017 Clear 26 1021 44 10000 4.1 280 08:21 13.09.2019
2018 Clear 25 1021 44 10000 4.6 260 07:59 13.09.2019
2019 Clear 24 1021 44 10000 4.6 260 07:40 13.09.2019
2020 Clear 26 1022 47 10000 2.6 330 06:54 13.09.2019
2021 Clear 26 1022 47 10000 2.6 330 06:34 13.09.2019
2022 Clear 24 1022 57 10000 1.5 10 05:30 13.09.2019
2023 Clear 20 1023 72 10000 2.1 180 03:44 13.09.2019
2024 Clear 19 1023 72 10000 2.1 180 03:24 13.09.2019
2025 Clear 17 1023 82 10000 3.1 190 02:19 13.09.2019
2026 Fog 14 1023 100 10000 3.1 200 01:35 13.09.2019
2027 Fog 13 1023 100 10000 2.6 170 00:59 13.09.2019
2028 Fog 13 1023 93 10000 2.1 50 00:33 13.09.2019
2029 Clear 13 1022 93 10000 1.5 70 23:46 12.09.2019
2030 Clear 13 1022 93 10000 1.5 70 23:23 12.09.2019
2031 Fog 13 1022 93 10000 1.5 30 22:56 12.09.2019
2032 Clear 13 1022 100 4500 3.37 24.9 22:38 12.09.2019
2033 Clear 13 1022 100 4500 3.37 24.9 22:18 12.09.2019
2034 Fog 13 1022 100 5000 1 10 21:54 12.09.2019
2035 Clear 13 1022 93 10000 2.1 360 21:36 12.09.2019
2036 Clear 13 1022 93 10000 2.1 360 21:18 12.09.2019
2037 Fog 14 1022 100 4000 3.29 29.803 20:41 12.09.2019
2038 Fog 14 1023 100 10000 3.29 29.803 20:21 12.09.2019
2039 Fog 14 1023 100 10000 3.29 29.803 19:56 12.09.2019
2040 Fog 15 1023 100 4000 3.29 29.803 19:37 12.09.2019
2041 Fog 15 1023 93 10000 1.5 0 19:19 12.09.2019
2042 Fog 15 1023 93 10000 1.5 0 19:19 12.09.2019
2043 Clear 15 1024 93 10000 2.6 70 18:38 12.09.2019
2044 Fog 16 1024 93 10000 1.5 0 18:20 12.09.2019
2045 Fog 16 1024 93 10000 1.5 0 17:59 12.09.2019
2046 Fog 16 1024 100 10000 0.5 160 17:39 12.09.2019
2047 Fog 16 1024 100 10000 0.5 160 17:19 12.09.2019
2048 Clear 16 1024 82 10000 2.1 190 16:42 12.09.2019
2049 Clear 16 1024 82 10000 2.1 190 16:22 12.09.2019
2050 Clear 17 1024 82 10000 3.1 180 15:58 12.09.2019
2051 Clear 17 1024 77 10000 4.1 190 15:38 12.09.2019
2052 Clear 17 1024 77 10000 4.1 190 15:20 12.09.2019
2053 Clear 18 1024 82 10000 4.1 240 14:44 12.09.2019
2054 Clear 18 1024 82 10000 4.1 240 14:21 12.09.2019
2055 Clouds 18 1023 82 10000 0.5 260 13:42 12.09.2019
2056 Clouds 18 1023 82 10000 0.5 260 13:42 12.09.2019
2057 Clear 19 1023 68 10000 3.6 250 13:23 12.09.2019
2058 Clear 19 1023 68 10000 2.6 280 12:57 12.09.2019
2059 Clouds 20 1023 72 10000 0.82 238.218 12:38 12.09.2019
2060 Clear 20 1023 60 10000 4.1 250 12:18 12.09.2019
2061 Clear 21 1023 56 10000 3.6 240 11:43 12.09.2019
2062 Clear 22 1023 56 10000 4.1 250 11:22 12.09.2019
2063 Clear 21 1023 56 10000 4.1 250 10:57 12.09.2019
2064 Clear 21 1023 56 10000 4.1 250 10:57 12.09.2019
2065 Clouds 21 1023 56 10000 6.2 250 10:39 12.09.2019
2066 Clouds 22 1023 53 10000 6.7 250 10:20 12.09.2019
2067 Clouds 23 1023 53 10000 6.7 250 09:43 12.09.2019
2068 Clouds 23 1023 53 10000 6.7 250 09:20 12.09.2019
2069 Clouds 24 1022 53 10000 4.6 260 08:45 12.09.2019
2070 Clouds 24 1022 53 10000 4.6 250 08:25 12.09.2019
2071 Clouds 25 1022 53 10000 4.6 250 07:56 12.09.2019
2072 Clouds 24 1022 47 10000 4.1 250 07:38 12.09.2019
2073 Clouds 25 1022 47 10000 4.6 260 07:18 12.09.2019
2074 Clouds 25 1022 50 10000 3.1 300 06:46 12.09.2019
2075 Clear 24 1023 50 10000 2.6 280 06:19 12.09.2019
2076 Clear 24 1023 53 10000 1.5 10 05:43 12.09.2019
2077 Clear 22 1023 56 10000 2.6 270 05:19 12.09.2019
2078 Clear 21 1024 68 10000 2.6 320 03:59 12.09.2019
2079 Mist 14 1023 100 10000 1.5 0 01:45 12.09.2019
2080 Mist 13 1023 100 10000 1.5 0 01:27 12.09.2019
2081 Fog 13 1022 100 10000 1.5 40 00:50 12.09.2019
2082 Fog 12 1022 100 10000 1.5 40 00:31 12.09.2019
2083 Fog 12 1022 93 10000 1.5 30 23:49 11.09.2019
2084 Rain 12 1022 93 10000 1.5 30 23:27 11.09.2019
2085 Rain 13 1022 100 5000 3.39 347.878 22:58 11.09.2019
2086 Clear 13 1022 100 10000 3.39 347.878 22:38 11.09.2019
2087 Clear 13 1022 100 10000 3.39 347.878 22:20 11.09.2019
2088 Clear 13 1022 100 10000 3.39 347.878 22:20 11.09.2019
2089 Clear 13 1022 100 10000 3.39 347.878 22:20 11.09.2019
2090 Fog 13 1021 93 10000 1.5 30 21:59 11.09.2019
2091 Clear 13 1022 93 10000 3.6 30 21:41 11.09.2019
2092 Clear 13 1022 93 10000 3.6 30 21:22 11.09.2019
2093 Fog 14 1022 93 10000 1.5 30 20:56 11.09.2019
2094 Fog 14 1022 93 10000 1.5 30 20:38 11.09.2019
2095 Fog 14 1022 93 10000 1.5 30 20:19 11.09.2019
2096 Fog 14 1022 100 4300 1.5 250 19:56 11.09.2019
2097 Haze 14 1023 100 4900 2.6 250 19:37 11.09.2019
2098 Haze 14 1023 100 4900 2.6 250 19:37 11.09.2019
2099 Clear 14 1023 100 2100 1 250 19:19 11.09.2019
2100 Clear 15 1023 93 10000 0.5 70 18:43 11.09.2019
2101 Clear 14 1023 93 10000 0.5 70 18:24 11.09.2019
2102 Haze 15 1023 100 10000 1.5 60 17:59 11.09.2019
2103 Clear 15 1023 93 10000 1.5 60 17:41 11.09.2019
2104 Clear 15 1023 93 10000 1.5 60 17:21 11.09.2019
2105 Haze 15 1024 93 10000 1.5 0 16:56 11.09.2019
2106 Haze 15 1024 93 10000 1.5 0 16:56 11.09.2019
2107 Haze 15 1024 93 10000 1.5 0 16:56 11.09.2019
2108 Clear 16 1024 100 10000 1.5 50 16:37 11.09.2019
2109 Clear 16 1024 100 10000 1.5 50 16:19 11.09.2019
2110 Clear 16 1024 93 10000 2.1 230 15:46 11.09.2019
2111 Clear 16 1024 93 10000 2.1 230 15:23 11.09.2019
2112 Clear 17 1024 88 10000 2.6 210 14:58 11.09.2019
2113 Clear 17 1023 82 10000 2.6 230 14:38 11.09.2019
2114 Clear 17 1023 82 10000 2.6 230 14:20 11.09.2019
2115 Clear 18 1023 82 10000 3.1 230 13:57 11.09.2019
2116 Clear 18 1023 77 10000 3.1 240 13:36 11.09.2019
2117 Clear 18 1023 72 10000 3.6 260 13:18 11.09.2019
2118 Clear 19 1022 72 10000 3.6 270 12:41 11.09.2019
2119 Clouds 20 1022 64 10000 3.6 280 12:21 11.09.2019
2120 Clouds 21 1022 60 10000 3.6 270 11:55 11.09.2019
2121 Clouds 21 1022 60 10000 3.6 270 11:36 11.09.2019
2122 Clouds 21 1022 60 10000 3.6 270 11:36 11.09.2019
2123 Clouds 21 1022 60 10000 3.6 270 11:18 11.09.2019
2124 Clouds 21 1022 56 10000 3.6 260 10:40 11.09.2019
2125 Clouds 21 1022 56 10000 3.6 260 10:21 11.09.2019
2126 Clouds 22 1022 56 10000 4.1 270 09:40 11.09.2019
2127 Clouds 22 1022 56 10000 4.1 270 09:20 11.09.2019
2128 Clouds 22 1022 56 10000 4.1 270 09:20 11.09.2019
2129 Clouds 22 1022 60 10000 4.1 270 08:59 11.09.2019
2130 Clouds 22 1022 56 10000 4.6 260 08:39 11.09.2019
2131 Clouds 22 1022 56 10000 4.1 280 08:20 11.09.2019
2132 Clouds 22 1022 53 10000 4.6 260 07:43 11.09.2019
2133 Clouds 22 1022 53 10000 4.6 290 07:23 11.09.2019
2134 Clouds 22 1022 56 10000 4.6 310 06:52 11.09.2019
2135 Clouds 22 1022 56 10000 4.6 310 06:33 11.09.2019
2136 Clouds 22 1022 60 10000 4.6 290 05:46 11.09.2019
2137 Clouds 22 1022 60 10000 4.6 290 05:28 11.09.2019
2138 Clouds 21 1022 77 10000 3.6 20 04:46 11.09.2019
2139 Mist 19 1022 93 10000 3.6 30 03:33 11.09.2019
2140 Fog 17 1022 100 900 3.1 20 02:49 11.09.2019
2141 Fog 16 1022 100 900 3.1 20 02:20 11.09.2019
2142 Fog 14 1020 100 400 2.6 40 00:52 11.09.2019
2143 Fog 14 1020 100 400 2.6 40 00:26 11.09.2019
2144 Fog 14 1020 100 8000 2.6 20 23:56 10.09.2019
2145 Fog 14 1020 100 400 2.6 10 23:37 10.09.2019
2146 Fog 14 1020 100 10000 5.28 293.972 23:19 10.09.2019
2147 Fog 14 1020 100 10000 5.28 293.972 23:19 10.09.2019
2148 Fog 14 1019 100 10000 2.1 30 22:41 10.09.2019
2149 Fog 14 1019 100 10000 2.1 30 22:20 10.09.2019
2150 Fog 14 1019 93 200 3.1 30 21:56 10.09.2019
2151 Fog 14 1019 93 300 2.6 50 21:38 10.09.2019
2152 Fog 15 1019 93 10000 2.6 20 21:20 10.09.2019
2153 Fog 15 1019 93 10000 2.6 20 20:58 10.09.2019
2154 Fog 15 1019 100 10000 2.6 20 20:38 10.09.2019
2155 Fog 16 1019 100 10000 2.6 10 20:20 10.09.2019
2156 Fog 16 1019 100 10000 2.6 10 19:56 10.09.2019
2157 Fog 16 1019 100 10000 2.6 10 19:56 10.09.2019
2158 Fog 16 1019 100 9000 2.6 360 19:37 10.09.2019
2159 Fog 16 1020 93 10000 2.6 360 19:19 10.09.2019
2160 Fog 16 1020 93 10000 2.6 360 18:55 10.09.2019
2161 Fog 16 1019 93 10000 2.6 360 18:37 10.09.2019
2162 Clouds 16 1019 93 10000 3.6 20 18:18 10.09.2019
2163 Clouds 17 1019 88 10000 2.6 340 17:42 10.09.2019
2164 Clouds 17 1019 88 10000 2.6 340 17:22 10.09.2019
2165 Clouds 17 1019 88 10000 3.1 340 16:58 10.09.2019
2166 Clouds 17 1019 88 10000 2.6 300 16:39 10.09.2019
2167 Clouds 17 1019 82 10000 3.1 280 16:20 10.09.2019
2168 Clouds 18 1019 82 10000 3.1 280 15:57 10.09.2019
2169 Clouds 18 1019 88 10000 3.6 280 15:39 10.09.2019
2170 Clouds 18 1019 88 10000 3.6 280 15:20 10.09.2019
2171 Clouds 18 1018 82 10000 3.1 290 14:41 10.09.2019
2172 Clouds 18 1018 82 10000 3.1 290 14:22 10.09.2019
2173 Clouds 19 1017 82 10000 3.1 300 13:50 10.09.2019
2174 Clouds 19 1017 82 10000 3.1 300 13:24 10.09.2019
2175 Clouds 19 1017 72 10000 3.1 290 12:58 10.09.2019
2176 Clouds 19 1017 72 10000 5.1 290 12:40 10.09.2019
2177 Clouds 20 1017 72 10000 4.6 290 12:22 10.09.2019
2178 Clouds 20 1016 68 10000 4.6 290 11:43 10.09.2019
2179 Clouds 20 1016 68 10000 4.6 290 11:23 10.09.2019
2180 Clouds 21 1015 64 10000 3.6 280 10:59 10.09.2019
2181 Clouds 21 1015 60 10000 3.6 260 10:38 10.09.2019
2182 Clouds 22 1015 60 10000 4.6 270 10:18 10.09.2019
2183 Clouds 23 1015 53 10000 5.7 280 09:47 10.09.2019
2184 Clear 23 1014 44 10000 7.2 290 09:20 10.09.2019
2185 Clear 24 1014 44 10000 7.2 290 08:59 10.09.2019
2186 Clear 25 1014 39 10000 6.2 300 08:41 10.09.2019
2187 Clear 25 1014 34 10000 7.2 300 08:21 10.09.2019
2188 Clear 25 1014 26 10000 5.1 300 07:44 10.09.2019
2189 Clear 27 1014 26 10000 5.1 300 07:25 10.09.2019
2190 Clear 28 1015 34 10000 3.6 270 06:48 10.09.2019
2191 Clear 27 1015 39 10000 6.2 280 06:29 10.09.2019
2192 Clear 24 1016 40 10000 3.6 230 04:41 10.09.2019
2193 Clear 19 1015 48 10000 3.6 30 02:44 10.09.2019
2194 Clear 18 1015 48 10000 5.7 70 02:22 10.09.2019
2195 Clear 16 1015 58 10000 7.2 70 01:52 10.09.2019
2196 Clear 14 1015 62 10000 7.2 70 01:24 10.09.2019
2197 Clear 13 1016 66 10000 5.7 70 00:44 10.09.2019
2198 Fog 12 1016 66 10000 4.1 50 00:23 10.09.2019
2199 Clear 12 1015 71 10000 3.6 50 23:41 09.09.2019
2200 Clear 12 1015 76 10000 4.6 40 23:19 09.09.2019
2201 Clear 12 1015 76 10000 4.6 40 22:55 09.09.2019
2202 Clear 12 1015 76 10000 4.1 30 22:37 09.09.2019
2203 Clear 12 1015 81 10000 3.6 10 22:19 09.09.2019
2204 Clear 12 1015 81 10000 3.6 10 21:56 09.09.2019
2205 Clear 12 1015 81 10000 3.1 20 21:37 09.09.2019
2206 Clear 12 1015 81 10000 3.1 20 21:37 09.09.2019
2207 Clear 13 1015 93 10000 2.1 100 21:19 09.09.2019
2208 Clear 13 1015 93 10000 2.1 100 20:55 09.09.2019
2209 Clear 13 1015 87 10000 3.6 180 20:37 09.09.2019
2210 Clear 14 1015 82 10000 4.6 200 20:18 09.09.2019
2211 Clear 15 1015 82 10000 4.6 200 19:56 09.09.2019
2212 Clear 15 1016 82 10000 4.6 210 19:37 09.09.2019
2213 Clear 15 1015 77 10000 4.6 180 19:19 09.09.2019
2214 Clear 15 1015 77 10000 4.6 180 19:19 09.09.2019
2215 Clear 16 1016 72 10000 5.1 200 18:55 09.09.2019
2216 Clear 16 1016 72 10000 5.1 200 18:37 09.09.2019
2217 Clear 16 1016 72 10000 5.1 200 18:18 09.09.2019
2218 -273 0 0 0 0 0 17:56 09.09.2019
2219 Clear 17 1016 67 10000 4.6 220 17:38 09.09.2019
2220 Clouds 16 1016 72 10000 6.2 200 17:20 09.09.2019
2221 Clear 16 1016 71 10000 5.4 175.508 16:41 09.09.2019
2222 Clear 17 1016 67 10000 0.5 40 16:21 09.09.2019
2223 Clear 17 1016 67 10000 0.5 40 15:57 09.09.2019
2224 Clear 17 1016 67 10000 1.5 40 15:39 09.09.2019
2225 Clear 17 1016 63 10000 3.98 187.391 15:21 09.09.2019
2226 Clear 18 1016 63 10000 3.98 187.391 14:57 09.09.2019
2227 Clear 19 1016 55 10000 2.6 170 14:39 09.09.2019
2228 Clear 19 1016 45 10000 3.6 210 14:21 09.09.2019
2229 Clear 19 1016 45 10000 3.6 210 13:54 09.09.2019
2230 Clear 20 1015 40 10000 4.1 190 13:36 09.09.2019
2231 Clear 21 1015 43 10000 3.6 200 13:18 09.09.2019
2232 Clear 22 1015 33 10000 6.2 250 12:41 09.09.2019
2233 Clear 24 1014 17 10000 4.1 240 12:21 09.09.2019
2234 Clear 26 1014 65 10000 4.1 240 11:57 09.09.2019
2235 Clear 27 1014 65 10000 4.1 240 11:39 09.09.2019
2236 Clear 27 1014 65 10000 4.1 240 11:18 09.09.2019
2237 Clear 28 1014 13 10000 4.1 240 10:42 09.09.2019
2238 Clear 29 1014 16 10000 7.7 330 10:23 09.09.2019
2239 Clear 31 1014 16 10000 7.7 330 09:58 09.09.2019
2240 Clear 31 1014 15 10000 4.1 10 09:39 09.09.2019
2241 Clear 31 1014 19 10000 4.6 30 09:21 09.09.2019
2242 Clear 31 1014 19 10000 4.6 30 08:39 09.09.2019
2243 Clear 31 1014 19 10000 4.6 30 08:39 09.09.2019
2244 Clear 30 1015 19 10000 4.6 10 08:20 09.09.2019
2245 Clear 31 1015 22 10000 5.1 20 07:48 09.09.2019
2246 Clear 31 1016 25 10000 5.7 30 07:28 09.09.2019
2247 Clear 30 1016 25 10000 5.7 30 06:59 09.09.2019
2248 Clear 30 1016 25 10000 5.1 30 06:40 09.09.2019
2249 Clear 27 1017 22 10000 6.7 30 04:56 09.09.2019
2250 Clear 21 1018 42 10000 4.1 70 02:59 09.09.2019
2251 Clear 19 1019 45 10000 4.6 60 02:39 09.09.2019
2252 Clear 16 1019 58 10000 5.7 70 00:46 09.09.2019
2253 Clear 16 1018 54 10000 4.6 60 00:22 09.09.2019
2254 Clear 15 1018 58 10000 4.6 60 23:46 08.09.2019
2255 Clear 15 1018 58 10000 4.6 60 23:24 08.09.2019
2256 Clear 14 1018 58 10000 4.6 60 22:57 08.09.2019
2257 Clear 14 1018 62 10000 4.6 60 22:38 08.09.2019
2258 Clear 14 1018 62 10000 5.1 50 22:19 08.09.2019
2259 Clear 13 1019 62 10000 5.1 50 21:42 08.09.2019
2260 Clear 13 1019 67 10000 4.6 60 21:23 08.09.2019
2261 Clear 13 1019 67 10000 4.6 60 20:58 08.09.2019
2262 Clear 12 1019 71 10000 2.1 30 20:39 08.09.2019
2263 Clear 11 1019 93 10000 0.5 30 20:20 08.09.2019
2264 Clear 11 1019 93 10000 0.5 30 19:59 08.09.2019
2265 Clear 11 1020 87 10000 4.47 59.749 19:38 08.09.2019
2266 Clear 12 1020 59 10000 4.1 70 19:19 08.09.2019
2267 Clear 12 1020 59 10000 4.1 70 18:57 08.09.2019
2268 Clear 11 1020 93 10000 0.5 30 18:38 08.09.2019
2269 Clear 12 1021 100 10000 2.6 220 18:18 08.09.2019
2270 Clear 12 1021 87 10000 1.5 340 17:54 08.09.2019
2271 Clear 12 1021 87 10000 1.5 340 17:36 08.09.2019
2272 Clear 13 1021 93 10000 2.1 360 17:18 08.09.2019
2273 Clear 14 1021 93 10000 2.6 180 16:42 08.09.2019
2274 Clear 14 1022 93 10000 2.1 220 16:21 08.09.2019
2275 Clear 15 1022 87 10000 2.1 160 15:58 08.09.2019
2276 Clear 15 1022 87 10000 2.6 180 15:39 08.09.2019
2277 Clear 15 1022 87 10000 3.1 160 15:21 08.09.2019
2278 Clear 16 1022 82 10000 3.1 210 14:54 08.09.2019
2279 Clear 16 1022 82 10000 3.1 210 14:36 08.09.2019
2280 Clear 16 1022 72 10000 3.1 200 14:18 08.09.2019
2281 Clear 17 1021 68 10000 3.1 210 13:54 08.09.2019
2282 Clear 17 1021 68 10000 3.1 210 13:36 08.09.2019
2283 Clear 17 1021 68 10000 3.1 210 13:36 08.09.2019
2284 Clear 17 1021 63 10000 3.1 240 13:18 08.09.2019
2285 Clear 19 1021 56 10000 3.6 230 12:41 08.09.2019
2286 Clear 20 1021 49 10000 4.6 230 12:23 08.09.2019
2287 Clear 20 1021 49 10000 4.6 230 11:58 08.09.2019
2288 Clear 21 1021 46 10000 4.1 240 11:38 08.09.2019
2289 Clear 22 1021 44 10000 4.6 250 11:19 08.09.2019
2290 Clear 22 1021 44 10000 4.6 250 10:55 08.09.2019
2291 Clear 23 1021 38 10000 4.6 260 10:36 08.09.2019
2292 Clear 23 1021 36 10000 4.1 270 10:18 08.09.2019
2293 Clear 23 1021 27 10000 2.1 250 09:38 08.09.2019
2294 Clear 23 1021 27 10000 3.1 210 09:19 08.09.2019
2295 Clear 23 1021 33 10000 3.6 230 08:40 08.09.2019
2296 Clear 23 1022 31 10000 2.1 90 08:19 08.09.2019
2297 Clear 23 1022 31 10000 2.1 90 07:59 08.09.2019
2298 Clear 24 1022 33 10000 2.6 110 07:37 08.09.2019
2299 Clear 23 1023 35 10000 2.1 60 07:19 08.09.2019
2300 Clear 23 1023 40 10000 2.6 80 06:44 08.09.2019
2301 Clear 21 1024 46 10000 5.1 90 05:45 08.09.2019
2302 Clear 21 1024 46 10000 5.1 90 05:27 08.09.2019
2303 Clear 16 1026 63 10000 5.7 80 03:30 08.09.2019
2304 Clear 14 1025 76 10000 4.6 70 02:51 08.09.2019
2305 Clouds 12 1025 87 10000 5.7 70 01:54 08.09.2019
2306 Clouds 11 1025 87 10000 5.7 70 01:33 08.09.2019
2307 Clouds 11 1025 87 10000 5.7 70 01:33 08.09.2019
2308 Clouds 10 1025 81 10000 6.7 70 00:49 08.09.2019
2309 Clouds 10 1025 81 10000 6.7 70 00:31 08.09.2019
2310 Clear 10 1025 81 10000 5.7 60 23:58 07.09.2019
2311 Clear 10 1025 93 10000 3.1 110 23:37 07.09.2019
2312 Clear 10 1025 93 10000 1.5 340 23:19 07.09.2019
2313 Clear 9 1025 93 10000 2.1 340 22:44 07.09.2019
2314 Rain 9 1024 93 10000 1.5 350 22:25 07.09.2019
2315 Clear 8 1024 100 10000 4.87 99.863 21:56 07.09.2019
2316 Clear 8 1024 100 10000 4.87 99.863 21:38 07.09.2019
2317 Clear 8 1025 100 10000 1.5 190 21:20 07.09.2019
2318 Clear 8 1025 100 10000 1.5 190 21:20 07.09.2019
2319 Clear 9 1025 100 10000 5.19 130.006 20:40 07.09.2019
2320 Clear 9 1025 93 10000 5.19 130.006 20:21 07.09.2019
2321 Clear 10 1025 93 10000 5.19 130.006 19:57 07.09.2019
2322 Clear 10 1025 93 10000 0.5 200 19:38 07.09.2019
2323 Clear 10 1025 100 10000 2.1 210 19:19 07.09.2019
2324 Clear 10 1025 100 10000 2.1 210 18:58 07.09.2019
2325 Clear 10 1025 100 10000 2.1 210 18:58 07.09.2019
2326 Clear 10 1025 93 10000 2.1 210 18:39 07.09.2019
2327 Clear 11 1025 93 10000 2.6 190 18:20 07.09.2019
2328 Clear 12 1025 87 10000 2.1 190 17:58 07.09.2019
2329 Clear 12 1025 87 10000 2.1 190 17:39 07.09.2019
2330 Clear 12 1025 87 10000 3.1 210 17:18 07.09.2019
2331 Clear 12 1025 87 10000 3.1 210 16:56 07.09.2019
2332 Clear 13 1025 82 10000 3.6 200 16:37 07.09.2019
2333 Clear 13 1025 76 10000 3.6 210 16:18 07.09.2019
2334 Clear 13 1025 76 10000 4.6 200 15:44 07.09.2019
2335 Clear 14 1025 72 10000 5.7 190 15:25 07.09.2019
2336 Clear 14 1025 72 10000 5.7 190 14:56 07.09.2019
2337 Clear 15 1024 77 10000 5.1 190 14:36 07.09.2019
2338 Clear 15 1024 72 10000 5.1 200 14:18 07.09.2019
2339 Clear 15 1024 72 10000 5.1 210 13:44 07.09.2019
2340 Clear 16 1024 72 10000 5.1 210 13:25 07.09.2019
2341 Clear 16 1023 67 10000 5.1 210 12:54 07.09.2019
2342 Clear 16 1023 67 10000 6.7 220 12:36 07.09.2019
2343 Clear 16 1023 67 10000 6.7 220 12:36 07.09.2019
2344 Clear 17 1023 63 10000 6.7 220 12:18 07.09.2019
2345 Clear 18 1023 59 10000 7.2 220 11:40 07.09.2019
2346 Clear 18 1022 56 10000 4.6 200 11:21 07.09.2019
2347 Clear 19 1022 52 10000 7.2 240 10:41 07.09.2019
2348 Clear 20 1022 37 10000 3.6 240 10:23 07.09.2019
2349 Clear 20 1022 37 10000 3.6 240 09:59 07.09.2019
2350 Clear 19 1022 35 10000 3.6 190 09:40 07.09.2019
2351 Clear 19 1022 35 10000 3.6 190 09:40 07.09.2019
2352 Clear 20 1022 32 10000 3.6 180 09:21 07.09.2019
2353 Clear 20 1022 30 10000 5.1 180 08:49 07.09.2019
2354 Clear 20 1022 30 10000 5.1 180 08:30 07.09.2019
2355 Clear 20 1023 32 10000 4.6 190 07:49 07.09.2019
2356 Clear 20 1023 32 10000 4.6 190 07:29 07.09.2019
2357 Clear 19 1023 34 10000 5.7 210 06:57 07.09.2019
2358 Clear 19 1023 34 10000 5.7 210 06:39 07.09.2019
2359 Clear 17 1024 34 10000 3.6 200 05:38 07.09.2019
2360 Clear 17 1024 50 10000 1 320 04:26 07.09.2019
2361 Clear 15 1024 58 10000 1.5 320 03:27 07.09.2019
2362 Clear 9 1024 100 10000 4.29 121.946 02:21 07.09.2019
2363 Clear 5 1023 93 10000 4.43 125.753 01:27 07.09.2019
2364 Clear 5 1023 93 10000 1.5 50 00:48 07.09.2019
2365 Clear 4 1022 93 10000 0.5 40 00:21 07.09.2019
2366 Clear 4 1022 100 10000 5.29 150.893 23:55 06.09.2019
2367 Clear 5 1022 100 10000 5.29 150.893 23:37 06.09.2019
2368 Clear 5 1022 100 10000 5.29 150.893 23:18 06.09.2019
2369 Clear 5 1022 93 10000 5.29 150.893 22:42 06.09.2019
2370 Clear 5 1022 93 10000 5.29 150.893 22:20 06.09.2019
2371 Clear 5 1022 93 10000 5.29 150.893 21:59 06.09.2019
2372 Clear 5 1022 93 10000 5.29 150.893 21:40 06.09.2019
2373 Clear 6 1022 100 10000 5.53 165.288 21:22 06.09.2019
2374 Clear 6 1022 100 10000 5.53 165.288 20:59 06.09.2019
2375 Clear 6 1022 93 10000 5.51 160.5 20:40 06.09.2019
2376 Clear 6 1022 93 10000 5.51 160.5 20:21 06.09.2019
2377 Clear 6 1022 93 10000 5.51 160.5 19:57 06.09.2019
2378 Clear 6 1022 93 10000 5.51 160.5 19:39 06.09.2019
2379 Clear 6 1022 86 10000 2.1 220 19:20 06.09.2019
2380 Clear 7 1023 93 10000 2.6 210 18:47 06.09.2019
2381 Clear 8 1022 75 10000 5.76 156.16 18:27 06.09.2019
2382 Clear 8 1022 75 10000 5.76 156.16 17:59 06.09.2019
2383 Clear 9 1023 81 10000 3.1 190 17:38 06.09.2019
2384 Clear 10 1023 71 10000 4.1 200 17:19 06.09.2019
2385 Clear 10 1023 71 10000 3.6 200 16:41 06.09.2019
2386 Clear 10 1023 76 10000 3.1 200 16:19 06.09.2019
2387 Clear 11 1023 76 10000 3.1 210 15:45 06.09.2019
2388 Clear 11 1023 76 10000 3.1 210 15:27 06.09.2019
2389 Clear 12 1022 66 10000 3.1 190 14:59 06.09.2019
2390 Clear 12 1022 58 10000 3.6 200 14:39 06.09.2019
2391 Clear 12 1022 54 10000 4.1 200 14:18 06.09.2019
2392 Clear 13 1021 50 10000 4.6 200 13:43 06.09.2019
2393 Clear 14 1021 41 10000 5.1 200 13:22 06.09.2019
2394 Clear 15 1021 44 10000 5.7 210 12:38 06.09.2019
2395 Clear 16 1021 39 10000 6.2 230 12:20 06.09.2019
2396 -273 0 0 0 0 0 11:55 06.09.2019
2397 Clear 17 1020 36 10000 5.1 240 11:55 06.09.2019
2398 Clear 17 1020 36 10000 5.1 240 11:55 06.09.2019
2399 Clear 17 1020 36 10000 5.1 240 11:55 06.09.2019
2400 Clear 17 1020 36 10000 5.1 240 11:37 06.09.2019
2401 Clear 18 1020 29 10000 5.1 270 11:18 06.09.2019
2402 Clear 19 1020 28 10000 3.1 200 10:41 06.09.2019
2403 Clear 19 1020 30 10000 2.1 190 10:22 06.09.2019
2404 Clear 19 1020 30 10000 2.1 190 09:58 06.09.2019
2405 Clear 19 1020 30 10000 2.6 40 09:37 06.09.2019
2406 Clear 18 1020 29 10000 2.6 300 09:18 06.09.2019
2407 Clear 19 1021 29 10000 2.6 50 08:44 06.09.2019
2408 Clear 19 1021 29 10000 2.6 50 08:26 06.09.2019
2409 Clear 20 1021 47 10000 2.6 70 07:49 06.09.2019
2410 Clear 20 1021 47 10000 2.6 70 07:28 06.09.2019
2411 Clear 20 1022 29 10000 3.1 360 06:58 06.09.2019
2412 Clear 19 1022 34 10000 3.6 20 06:28 06.09.2019
2413 Clear 17 1023 36 10000 4.6 30 05:43 06.09.2019
2414 Clear 16 1024 38 10000 4.6 30 04:52 06.09.2019
2415 Clear 15 1024 47 10000 5.1 60 04:19 06.09.2019
2416 Clear 10 1024 57 10000 4.6 60 02:23 06.09.2019
2417 Clear 7 1023 65 10000 5.7 60 00:45 06.09.2019
2418 Clear 7 1023 65 10000 7.2 70 23:56 05.09.2019
2419 Clear 6 1023 75 10000 7.2 50 23:38 05.09.2019
2420 Clear 6 1023 75 10000 7.2 60 23:19 05.09.2019
2421 Clear 6 1023 70 10000 4.6 60 22:43 05.09.2019
2422 Clear 6 1023 70 10000 3.6 70 22:24 05.09.2019
2423 Clear 6 1023 70 10000 3.6 70 21:56 05.09.2019
2424 Clear 5 1023 75 10000 3.1 60 21:38 05.09.2019
2425 Clear 5 1023 75 10000 3.1 60 21:38 05.09.2019
2426 Clear 6 1023 81 10000 3.1 60 21:19 05.09.2019
2427 Clear 6 1023 81 10000 3.1 60 20:57 05.09.2019
2428 Clear 5 1023 81 10000 2.6 60 20:37 05.09.2019
2429 Clear 5 1023 93 10000 1.5 30 20:19 05.09.2019
2430 Clear 5 1023 93 10000 1.5 30 19:55 05.09.2019
2431 Clear 5 1024 93 10000 2.1 50 19:36 05.09.2019
2432 Clear 5 1024 93 10000 1.5 80 19:18 05.09.2019
2433 Clear 6 1024 93 10000 1.5 70 18:40 05.09.2019
2434 Clear 6 1024 81 10000 4.07 97.491 18:20 05.09.2019
2435 Clear 6 1024 86 10000 3.1 190 17:56 05.09.2019
2436 Clear 7 1024 86 10000 3.1 190 17:37 05.09.2019
2437 Clear 7 1024 81 10000 4.1 170 17:19 05.09.2019
2438 Clear 8 1025 81 10000 3.1 180 16:41 05.09.2019
2439 Clear 8 1025 81 10000 2.6 140 16:20 05.09.2019
2440 Clear 9 1025 75 10000 2.1 170 15:58 05.09.2019
2441 Clear 9 1025 75 10000 2.1 170 15:39 05.09.2019
2442 Clear 9 1025 75 10000 2.1 130 15:19 05.09.2019
2443 Clear 9 1025 75 10000 2.1 130 15:19 05.09.2019
2444 Clear 10 1024 66 10000 2.6 120 14:43 05.09.2019
2445 Clear 10 1024 61 10000 3.6 110 14:22 05.09.2019
2446 Clear 12 1024 57 10000 3.6 120 13:44 05.09.2019
2447 Clear 12 1024 54 10000 3.6 110 13:24 05.09.2019
2448 Clear 12 1024 54 10000 3.6 110 12:59 05.09.2019
2449 Clear 14 1024 50 10000 4.6 120 12:41 05.09.2019
2450 Clear 14 1023 41 10000 4.1 100 12:23 05.09.2019
2451 Clear 16 1023 38 10000 4.6 110 11:44 05.09.2019
2452 Clear 16 1023 38 10000 5.7 100 11:20 05.09.2019
2453 Clear 16 1023 38 10000 5.7 100 10:57 05.09.2019
2454 Clear 16 1023 36 10000 5.1 90 10:36 05.09.2019
2455 Clear 17 1023 39 10000 4.1 110 10:18 05.09.2019
2456 Clear 17 1023 39 10000 4.6 120 09:40 05.09.2019
2457 Clear 17 1024 36 10000 4.6 80 09:21 05.09.2019
2458 Clear 16 1024 36 10000 4.6 80 08:56 05.09.2019
2459 Clear 16 1024 36 10000 3.6 110 08:37 05.09.2019
2460 Clear 16 1024 36 10000 3.6 110 08:37 05.09.2019
2461 Clouds 16 1024 41 10000 3.6 100 08:19 05.09.2019
2462 Clear 16 1025 38 10000 4.1 60 07:43 05.09.2019
2463 Clouds 16 1025 44 10000 4.1 110 07:24 05.09.2019
2464 Clouds 16 1026 44 10000 4.1 120 06:46 05.09.2019
2465 Clouds 14 1026 41 10000 3.6 120 06:26 05.09.2019
2466 Clouds 14 1026 47 10000 5.1 90 05:43 05.09.2019
2467 Clouds 14 1026 47 10000 5.1 90 05:43 05.09.2019
2468 Clouds 14 1026 47 10000 5.1 90 05:25 05.09.2019
2469 Clouds 13 1026 54 10000 6.2 80 04:30 05.09.2019
2470 Clear 11 1026 61 10000 4.1 70 03:52 05.09.2019
2471 Clear 10 1026 57 10000 2.6 110 02:58 05.09.2019
2472 Clear 9 1026 66 10000 2.6 120 02:29 05.09.2019
2473 Clear 7 1026 81 10000 1.5 360 01:57 05.09.2019
2474 Clear 4 1026 93 10000 2.1 190 00:56 05.09.2019
2475 Clear 4 1026 93 10000 2.1 190 00:37 05.09.2019
2476 Clear 4 1025 86 10000 2.6 160 00:18 05.09.2019
2477 Clear 5 1025 93 10000 3.6 180 23:40 04.09.2019
2478 Clear 5 1025 86 10000 4.1 190 23:22 04.09.2019
2479 Clear 5 1025 86 10000 3.6 200 22:47 04.09.2019
2480 Clear 6 1025 87 10000 2.6 200 22:20 04.09.2019
2481 Clear 7 1025 87 10000 2.6 200 21:56 04.09.2019
2482 Clouds 7 1025 87 10000 1.5 20 21:38 04.09.2019
2483 Clear 8 1025 75 10000 3.6 160 21:19 04.09.2019
2484 Clear 8 1025 75 10000 3.6 160 20:55 04.09.2019
2485 Clear 8 1025 66 10000 4.1 160 20:36 04.09.2019
2486 Clear 8 1025 66 10000 4.1 160 20:36 04.09.2019
2487 Clear 9 1025 66 10000 4.1 170 20:18 04.09.2019
2488 Clear 9 1025 66 10000 4.1 160 19:40 04.09.2019
2489 Clouds 10 1024 71 10000 2.6 180 19:21 04.09.2019
2490 Clear 10 1024 66 10000 5.7 170 18:42 04.09.2019
2491 Clouds 10 1024 71 10000 3.6 160 18:24 04.09.2019
2492 Clouds 10 1024 71 10000 3.6 160 18:24 04.09.2019
2493 Clear 11 1024 66 10000 4.1 160 17:58 04.09.2019
2494 Clear 11 1024 66 10000 4.1 160 17:40 04.09.2019
2495 Clear 11 1024 71 10000 4.6 180 17:21 04.09.2019
2496 Clouds 11 1024 71 10000 3.6 180 16:48 04.09.2019
2497 Clouds 11 1024 71 10000 3.6 180 16:28 04.09.2019
2498 Clouds 11 1024 76 10000 3.1 170 15:59 04.09.2019
2499 Clear 11 1024 76 10000 3.6 180 15:39 04.09.2019
2500 Clear 11 1024 76 10000 3.6 170 15:21 04.09.2019
2501 Clear 11 1024 76 10000 3.6 170 14:58 04.09.2019
2502 Clear 11 1024 76 10000 3.1 180 14:37 04.09.2019
2503 Clear 12 1023 71 10000 4.1 190 14:19 04.09.2019
2504 -273 0 0 0 0 0 13:55 04.09.2019
2505 -273 0 0 0 0 0 13:36 04.09.2019
2506 Clouds 12 1023 66 10000 6.2 210 13:18 04.09.2019
2507 Clouds 13 1022 66 10000 7.2 210 12:40 04.09.2019
2508 Clouds 13 1022 58 10000 5.1 210 12:22 04.09.2019
2509 Clouds 14 1022 58 10000 6.2 220 11:55 04.09.2019
2510 Clouds 14 1022 58 10000 6.2 220 11:37 04.09.2019
2511 Clouds 15 1022 51 10000 7.2 240 11:18 04.09.2019
2512 Clouds 15 1022 51 10000 6.7 210 10:44 04.09.2019
2513 Clouds 15 1021 54 10000 7.2 220 10:25 04.09.2019
2514 Clouds 15 1021 54 10000 7.2 220 09:57 04.09.2019
2515 Clouds 16 1021 54 10000 7.7 210 09:39 04.09.2019
2516 Clouds 16 1021 55 10000 6.2 260 09:18 04.09.2019
2517 Drizzle 16 1021 62 10000 5.1 260 08:41 04.09.2019
2518 Drizzle 16 1022 58 10000 7.7 250 08:23 04.09.2019
2519 Drizzle 16 1021 51 10000 7.2 240 07:50 04.09.2019
2520 Drizzle 16 1021 51 10000 7.2 240 07:32 04.09.2019
2521 Drizzle 16 1021 51 10000 7.2 240 07:32 04.09.2019
2522 Rain 16 1021 48 10000 7.2 240 06:42 04.09.2019
2523 Clouds 16 1021 51 10000 8.2 230 06:20 04.09.2019
2524 Rain 15 1021 62 10000 6.7 230 04:52 04.09.2019
2525 Rain 15 1021 67 10000 4.6 260 04:18 04.09.2019
2526 Rain 13 1020 81 10000 4.6 210 01:39 04.09.2019
2527 Rain 12 1019 81 10000 6.7 250 00:54 04.09.2019
2528 Rain 12 1019 71 10000 3.1 220 00:32 04.09.2019
2529 Rain 12 1019 76 10000 5.1 230 23:55 03.09.2019
2530 Rain 12 1019 76 10000 5.1 230 23:28 03.09.2019
2531 Rain 13 1019 71 10000 4.6 240 22:59 03.09.2019
2532 Clouds 12 1018 71 10000 5.7 240 22:40 03.09.2019
2533 Rain 12 1018 71 10000 3.6 250 22:21 03.09.2019
2534 Rain 12 1018 71 10000 3.6 250 21:56 03.09.2019
2535 Rain 12 1018 71 10000 3.6 250 21:56 03.09.2019
2536 Rain 12 1018 71 10000 3.6 250 21:56 03.09.2019
2537 Rain 13 1018 66 10000 4.6 270 21:37 03.09.2019
2538 Rain 13 1018 66 10000 4.6 270 21:37 03.09.2019
2539 Rain 13 1018 71 10000 3.6 290 21:19 03.09.2019
2540 Rain 13 1019 66 10000 3.6 270 20:42 03.09.2019
2541 Rain 13 1019 66 10000 3.6 270 20:42 03.09.2019
2542 Rain 13 1019 66 10000 3.6 270 20:24 03.09.2019
2543 Rain 13 1019 66 10000 3.6 270 20:24 03.09.2019
2544 Rain 13 1019 66 10000 3.6 270 20:24 03.09.2019
2545 Rain 13 1019 66 10000 4.6 270 19:56 03.09.2019
2546 Rain 13 1019 66 10000 4.6 270 19:38 03.09.2019
2547 Rain 13 1019 87 10000 3.1 320 19:19 03.09.2019
2548 Rain 13 1019 87 10000 0.5 290 18:47 03.09.2019
2549 Rain 13 1019 81 10000 2.6 280 18:27 03.09.2019
2550 Rain 13 1020 87 6000 4.1 290 17:59 03.09.2019
2551 Rain 13 1020 87 6000 4.1 290 17:40 03.09.2019
2552 Rain 12 1019 71 10000 4.1 270 17:20 03.09.2019
2553 Rain 12 1019 71 10000 4.1 270 16:58 03.09.2019
2554 Rain 12 1019 66 10000 4.6 250 16:38 03.09.2019
2555 Rain 13 1019 71 10000 5.1 260 16:19 03.09.2019
2556 Rain 14 1019 62 10000 4.1 270 15:41 03.09.2019
2557 Rain 14 1019 76 10000 2.6 290 15:21 03.09.2019
2558 Clouds 14 1019 76 10000 2.6 290 14:58 03.09.2019
2559 Clouds 14 1019 71 10000 2.6 290 14:40 03.09.2019
2560 Rain 14 1018 67 10000 3.6 270 14:20 03.09.2019
2561 Clouds 14 1018 67 10000 5.7 250 13:56 03.09.2019
2562 Clouds 14 1018 67 10000 5.7 250 13:37 03.09.2019
2563 Rain 14 1018 71 10000 2.6 270 13:19 03.09.2019
2564 Rain 14 1018 71 10000 2.6 270 13:19 03.09.2019
2565 Rain 14 1018 67 10000 3.1 290 12:49 03.09.2019
2566 Rain 14 1018 67 10000 3.1 290 12:30 03.09.2019
2567 Rain 15 1018 62 10000 4.1 280 11:59 03.09.2019
2568 Rain 15 1018 55 10000 5.1 290 11:39 03.09.2019
2569 Clouds 15 1017 55 10000 5.1 280 11:19 03.09.2019
2570 Clouds 17 1017 48 10000 5.1 290 10:55 03.09.2019
2571 Clouds 17 1017 48 10000 5.1 290 10:36 03.09.2019
2572 Clouds 17 1017 51 10000 6.2 250 10:18 03.09.2019
2573 Clouds 17 1017 48 10000 6.2 260 09:42 03.09.2019
2574 Clouds 17 1017 51 10000 5.7 270 09:24 03.09.2019
2575 Clouds 17 1017 51 10000 4.6 270 08:41 03.09.2019
2576 Clouds 17 1018 55 10000 5.7 260 08:22 03.09.2019
2577 Clouds 17 1018 55 10000 5.7 260 07:57 03.09.2019
2578 Clouds 17 1018 55 10000 6.2 240 07:37 03.09.2019
2579 Clouds 17 1018 55 10000 6.2 240 07:37 03.09.2019
2580 Rain 17 1018 51 10000 5.1 250 07:18 03.09.2019
2581 Rain 17 1018 59 10000 6.2 250 06:41 03.09.2019
2582 Rain 16 1018 67 10000 6.2 250 03:57 03.09.2019
2583 Rain 16 1018 67 10000 5.7 250 03:33 03.09.2019
2584 Clouds 15 1017 87 10000 2.1 10 02:40 03.09.2019
2585 Rain 14 1017 100 10000 1.5 340 02:21 03.09.2019
2586 Rain 13 1017 93 10000 0.5 230 01:45 03.09.2019
2587 Rain 13 1017 93 10000 0.5 230 01:45 03.09.2019
2588 Rain 13 1017 100 10000 2.1 110 01:25 03.09.2019
2589 Rain 12 1017 93 10000 2.1 10 00:33 03.09.2019
2590 Rain 13 1016 93 10000 2.1 10 23:58 02.09.2019
2591 Rain 13 1016 100 10000 2.6 20 23:37 02.09.2019
2592 Rain 13 1016 93 10000 2.1 20 23:19 02.09.2019
2593 Rain 13 1016 93 10000 2.1 40 22:55 02.09.2019
2594 Rain 13 1016 93 10000 2.1 40 22:36 02.09.2019
2595 Rain 13 1016 93 10000 1.5 70 22:18 02.09.2019
2596 Rain 13 1016 93 10000 1.5 70 21:55 02.09.2019
2597 Rain 13 1016 93 10000 1.5 50 21:36 02.09.2019
2598 Rain 14 1016 93 10000 2.1 70 21:18 02.09.2019
2599 Rain 14 1016 93 10000 2.1 40 20:41 02.09.2019
2600 Rain 13 1016 93 10000 2.6 360 20:23 02.09.2019
2601 Rain 13 1016 93 10000 2.6 360 20:23 02.09.2019
2602 Rain 13 1016 93 10000 2.6 360 19:58 02.09.2019
2603 Rain 13 1016 93 8000 2.6 340 19:40 02.09.2019
2604 Rain 13 1017 93 10000 2.6 350 19:21 02.09.2019
2605 Rain 13 1017 93 10000 2.6 250 18:56 02.09.2019
2606 Rain 13 1017 93 10000 2.6 250 18:36 02.09.2019
2607 Rain 14 1017 93 10000 4.1 360 18:18 02.09.2019
2608 Rain 14 1016 82 10000 2.6 340 17:40 02.09.2019
2609 Rain 14 1017 77 10000 2.6 300 17:21 02.09.2019
2610 Rain 14 1017 77 10000 2.6 300 16:59 02.09.2019
2611 Rain 14 1017 77 10000 4.6 270 16:39 02.09.2019
2612 Rain 15 1018 87 10000 4.1 290 16:20 02.09.2019
2613 Rain 15 1018 87 10000 4.1 290 16:20 02.09.2019
2614 Rain 15 1017 93 10000 5.7 290 15:46 02.09.2019
2615 Rain 15 1017 93 10000 5.7 290 15:27 02.09.2019
2616 Rain 15 1017 93 10000 4.6 280 15:27 02.09.2019
2617 Rain 15 1018 87 5000 9.3 320 14:57 02.09.2019
2618 Rain 15 1017 67 10000 5.1 290 14:39 02.09.2019
2619 Rain 15 1016 77 10000 5.1 280 14:21 02.09.2019
2620 Rain 16 1016 77 10000 5.1 280 13:56 02.09.2019
2621 Rain 15 1016 93 10000 6.2 290 13:36 02.09.2019
2622 Rain 16 1016 63 10000 5.1 300 13:18 02.09.2019
2623 Rain 16 1016 77 10000 5.1 300 12:43 02.09.2019
2624 Rain 16 1016 82 10000 6.2 280 12:24 02.09.2019
2625 Rain 16 1016 82 10000 6.2 280 11:58 02.09.2019
2626 Rain 16 1016 82 10000 7.2 280 11:38 02.09.2019
2627 Rain 16 1015 82 10000 8.7 330 11:20 02.09.2019
2628 Rain 16 1015 82 10000 8.7 330 11:20 02.09.2019
2629 Rain 16 1016 87 4000 9.3 310 10:56 02.09.2019
2630 Rain 16 1016 87 4000 9.3 310 10:37 02.09.2019
2631 Rain 17 1015 63 10000 8.7 300 10:18 02.09.2019
2632 Rain 18 1015 59 10000 10.3 320 09:43 02.09.2019
2633 Rain 18 1015 63 10000 7.7 300 09:21 02.09.2019
2634 Rain 18 1015 63 10000 6.7 270 08:44 02.09.2019
2635 Rain 18 1015 72 10000 12.3 310 08:22 02.09.2019
2636 Rain 19 1015 63 10000 10.8 310 07:57 02.09.2019
2637 Clouds 19 1015 63 10000 10.8 310 07:39 02.09.2019
2638 Rain 19 1015 68 10000 8.7 300 07:20 02.09.2019
2639 Rain 19 1015 68 10000 10.3 330 06:43 02.09.2019
2640 Rain 18 1016 55 10000 9.3 330 05:54 02.09.2019
2641 Rain 18 1016 55 10000 9.3 330 05:54 02.09.2019
2642 Rain 18 1016 55 10000 9.3 330 05:26 02.09.2019
2643 Rain 18 1016 59 10000 7.7 310 04:50 02.09.2019
2644 Rain 14 1016 93 10000 4.6 20 02:30 02.09.2019
2645 Rain 13 1016 87 10000 3.6 30 01:41 02.09.2019
2646 Clouds 13 1016 87 10000 4.1 20 00:42 02.09.2019
2647 Clouds 12 1016 87 10000 4.1 20 00:21 02.09.2019
2648 Clouds 12 1015 87 10000 3.1 20 23:39 01.09.2019
2649 Rain 12 1015 93 10000 3.6 30 23:19 01.09.2019
2650 Rain 12 1015 93 10000 3.6 30 23:19 01.09.2019
2651 Rain 12 1015 93 10000 3.6 30 22:57 01.09.2019
2652 Clouds 12 1015 87 10000 3.6 30 22:38 01.09.2019
2653 Clouds 12 1015 81 10000 3.6 10 22:18 01.09.2019
2654 Clouds 12 1015 81 10000 3.6 10 22:18 01.09.2019
2655 Clouds 12 1015 81 10000 4.6 10 21:54 01.09.2019
2656 Clouds 12 1015 81 10000 4.6 10 21:36 01.09.2019
2657 Clouds 12 1015 81 10000 4.6 10 21:36 01.09.2019
2658 Clear 12 1015 87 10000 3.6 30 21:18 01.09.2019
2659 Clouds 11 1015 87 10000 2.6 20 20:54 01.09.2019
2660 Clouds 11 1015 87 10000 2.6 20 20:36 01.09.2019
2661 Clouds 12 1016 87 10000 2.6 350 20:18 01.09.2019
2662 Clear 12 1015 87 10000 2.6 50 19:40 01.09.2019
2663 Clear 12 1015 87 10000 2.6 50 19:21 01.09.2019
2664 Clear 12 1015 87 10000 2.6 50 19:21 01.09.2019
2665 Clear 11 1016 93 10000 2.6 40 18:49 01.09.2019
2666 Clouds 12 1016 87 10000 2.6 50 18:30 01.09.2019
2667 Clouds 11 1015 93 10000 2.6 40 17:59 01.09.2019
2668 Clouds 11 1015 93 10000 2.6 40 17:39 01.09.2019
2669 Clouds 11 1016 93 10000 3.1 50 17:21 01.09.2019
2670 Clear 11 1016 87 10000 2.6 350 16:41 01.09.2019
2671 Clouds 12 1016 81 10000 3.1 10 16:22 01.09.2019
2672 Clouds 12 1016 81 10000 3.1 10 15:59 01.09.2019
2673 Clouds 12 1016 81 10000 3.1 300 15:41 01.09.2019
2674 Clear 13 1016 71 10000 3.1 310 15:23 01.09.2019
2675 Clouds 14 1016 76 10000 2.6 300 14:44 01.09.2019
2676 Clouds 14 1016 76 10000 2.6 300 14:26 01.09.2019
2677 Clouds 14 1015 62 10000 3.1 290 13:59 01.09.2019
2678 Clouds 15 1015 67 10000 3.1 280 13:40 01.09.2019
2679 Clouds 15 1015 67 10000 3.1 280 13:40 01.09.2019
2680 Clouds 15 1014 62 10000 4.6 260 13:22 01.09.2019
2681 Clouds 16 1014 63 10000 4.6 260 12:44 01.09.2019
2682 Clouds 16 1013 59 10000 7.2 250 12:26 01.09.2019
2683 Clouds 16 1013 59 10000 7.2 250 12:26 01.09.2019
2684 Clouds 16 1013 59 10000 7.2 250 11:58 01.09.2019
2685 Clouds 16 1013 67 10000 6.7 260 11:38 01.09.2019
2686 Rain 17 1012 67 10000 6.7 260 11:18 01.09.2019
2687 Rain 17 1012 67 10000 7.7 260 10:44 01.09.2019
2688 Rain 17 1012 67 10000 7.7 260 10:44 01.09.2019
2689 Rain 17 1011 72 10000 9.3 260 10:23 01.09.2019
2690 Rain 16 1011 82 10000 7.7 270 09:47 01.09.2019
2691 Rain 16 1011 82 10000 7.7 270 09:26 01.09.2019
2692 Rain 16 1011 87 2500 8.2 290 08:56 01.09.2019
2693 Rain 16 1011 87 2500 8.2 290 08:56 01.09.2019
2694 Rain 16 1010 93 10000 9.3 270 08:37 01.09.2019
2695 Rain 16 1009 100 9000 8.2 300 08:19 01.09.2019
2696 Rain 17 1009 82 10000 9.3 310 07:41 01.09.2019
2697 Rain 17 1009 88 10000 8.2 320 07:19 01.09.2019
2698 Rain 16 1010 93 10000 7.7 320 06:38 01.09.2019
2699 Rain 17 1010 82 10000 10.3 290 05:58 01.09.2019
2700 Rain 15 1011 93 10000 7.2 360 04:36 01.09.2019
2701 Rain 16 1011 77 10000 8.2 10 03:44 01.09.2019
2702 Rain 16 1011 82 10000 9.3 340 02:59 01.09.2019
2703 Rain 15 1011 77 10000 9.3 340 02:30 01.09.2019
2704 Rain 14 1011 82 10000 9.3 340 01:52 01.09.2019
2705 Clouds 13 1012 87 10000 5.7 20 01:25 01.09.2019
2706 Rain 13 1012 82 10000 5.1 10 00:47 01.09.2019
2707 Rain 12 1012 82 10000 5.7 360 00:23 01.09.2019
2708 Rain 12 1012 82 7000 6.2 10 23:56 31.08.2019
2709 Rain 13 1012 82 7000 6.2 10 23:38 31.08.2019
2710 Rain 12 1012 81 10000 4.6 10 23:18 31.08.2019
2711 Clear 12 1012 81 10000 4.6 20 22:44 31.08.2019
2712 Clear 12 1012 81 10000 4.6 20 22:26 31.08.2019
2713 Clear 12 1012 81 10000 5.1 10 21:58 31.08.2019
2714 Clear 12 1012 76 10000 5.1 10 21:39 31.08.2019
2715 Clear 13 1013 76 10000 5.1 10 21:20 31.08.2019
2716 Clouds 13 1013 76 10000 4.1 10 20:47 31.08.2019
2717 Clouds 13 1013 76 10000 4.1 10 20:29 31.08.2019
2718 Clouds 13 1014 76 10000 4.6 20 19:57 31.08.2019
2719 Clouds 13 1014 76 10000 4.6 20 19:38 31.08.2019
2720 Clouds 13 1014 76 10000 4.6 20 19:20 31.08.2019
2721 Clouds 13 1014 81 10000 4.1 30 18:40 31.08.2019
2722 Clouds 13 1015 81 10000 3.6 20 18:20 31.08.2019
2723 Clouds 13 1015 87 10000 3.6 10 17:57 31.08.2019
2724 Clouds 13 1015 87 10000 3.6 10 17:37 31.08.2019
2725 Clouds 13 1015 81 10000 4.1 20 17:18 31.08.2019
2726 Clouds 13 1015 81 10000 4.1 20 16:57 31.08.2019
2727 Clouds 13 1014 87 10000 3.1 20 16:39 31.08.2019
2728 Clouds 13 1015 81 10000 3.6 30 16:20 31.08.2019
2729 Clouds 13 1015 81 10000 3.6 30 15:42 31.08.2019
2730 Clouds 13 1015 81 10000 3.6 30 15:19 31.08.2019
2731 Clouds 13 1015 81 10000 3.6 30 14:57 31.08.2019
2732 Clouds 13 1015 81 10000 3.6 20 14:39 31.08.2019
2733 Clouds 13 1015 81 10000 3.6 20 14:39 31.08.2019
2734 Clear 13 1015 76 10000 2.6 360 14:19 31.08.2019
2735 Clear 14 1015 71 10000 3.1 340 13:41 31.08.2019
2736 Clear 14 1015 62 10000 3.1 330 13:23 31.08.2019
2737 Clear 14 1015 62 10000 3.1 330 13:23 31.08.2019
2738 Clear 15 1015 62 10000 3.1 330 12:58 31.08.2019
2739 Clouds 16 1015 55 10000 4.6 310 12:38 31.08.2019
2740 Clouds 16 1015 51 10000 6.2 310 12:19 31.08.2019
2741 Clouds 16 1015 51 10000 6.2 310 12:19 31.08.2019
2742 Clouds 17 1015 45 10000 5.7 310 11:48 31.08.2019
2743 Clouds 17 1015 45 10000 5.7 310 11:29 31.08.2019
2744 Clouds 18 1015 45 10000 4.6 290 10:58 31.08.2019
2745 Clouds 18 1015 45 10000 5.1 290 10:40 31.08.2019
2746 Clouds 18 1015 45 10000 5.1 280 10:19 31.08.2019
2747 Clouds 18 1015 42 10000 6.2 290 09:55 31.08.2019
2748 Clouds 18 1015 42 10000 6.2 290 09:36 31.08.2019
2749 Clouds 18 1015 48 10000 6.2 280 09:18 31.08.2019
2750 Clouds 18 1015 55 10000 7.7 290 08:41 31.08.2019
2751 Clouds 18 1015 55 10000 7.7 290 08:41 31.08.2019
2752 Clouds 18 1015 52 10000 7.7 290 08:22 31.08.2019
2753 Clouds 18 1015 52 10000 6.7 290 07:40 31.08.2019
2754 Clouds 18 1015 48 10000 6.7 300 07:20 31.08.2019
2755 Clouds 18 1015 52 10000 6.7 270 06:28 31.08.2019
2756 Clouds 18 1015 48 10000 6.7 270 05:55 31.08.2019
2757 Clouds 18 1015 48 10000 6.7 270 05:30 31.08.2019
2758 Clouds 18 1014 48 10000 7.2 280 04:30 31.08.2019
2759 Rain 17 1014 51 10000 6.7 280 03:44 31.08.2019
2760 Clouds 15 1013 51 10000 5.1 270 02:29 31.08.2019
2761 Clouds 15 1012 58 10000 5.7 260 01:51 31.08.2019
2762 Clouds 15 1012 58 10000 5.7 260 01:31 31.08.2019
2763 Clouds 15 1012 58 10000 8.2 270 00:48 31.08.2019
2764 Clouds 15 1012 58 10000 8.2 270 00:48 31.08.2019
2765 Rain 15 1011 58 10000 6.2 270 00:28 31.08.2019
2766 Rain 15 1011 62 10000 6.7 260 23:51 30.08.2019
2767 Clouds 15 1010 67 10000 7.2 250 23:20 30.08.2019
2768 Clouds 14 1010 67 10000 7.2 250 22:59 30.08.2019
2769 Rain 14 1010 72 10000 8.2 250 22:39 30.08.2019
2770 Rain 14 1010 82 10000 4.6 280 22:21 30.08.2019
2771 Rain 15 1010 82 10000 4.6 280 21:57 30.08.2019
2772 Rain 14 1009 67 10000 9.3 270 21:37 30.08.2019
2773 Rain 14 1010 87 8000 6.7 260 21:18 30.08.2019
2774 Rain 13 1010 87 8000 6.7 260 20:57 30.08.2019
2775 Rain 13 1010 93 10000 7.7 260 20:38 30.08.2019
2776 Rain 13 1010 87 3000 3.6 290 20:19 30.08.2019
2777 Rain 13 1009 93 10000 5.1 290 19:55 30.08.2019
2778 Rain 13 1009 93 10000 5.1 290 19:55 30.08.2019
2779 Rain 13 1009 93 10000 5.1 290 19:36 30.08.2019
2780 Rain 14 1010 93 3000 5.1 290 19:18 30.08.2019
2781 Rain 13 1010 93 3000 5.1 290 19:18 30.08.2019
2782 Rain 13 1009 87 10000 4.6 330 18:44 30.08.2019
2783 Rain 14 1009 87 4100 9.8 310 18:24 30.08.2019
2784 Rain 14 1009 87 4100 9.8 310 18:24 30.08.2019
2785 Clear 14 1010 82 10000 6.2 10 17:57 30.08.2019
2786 Clear 14 1010 82 10000 6.2 10 17:57 30.08.2019
2787 Rain 14 1010 82 10000 6.2 10 17:39 30.08.2019
2788 Rain 14 1010 82 10000 6.7 350 17:19 30.08.2019
2789 Rain 14 1010 82 10000 6.7 350 17:19 30.08.2019
2790 Rain 14 1010 76 10000 8.2 310 16:49 30.08.2019
2791 Rain 14 1010 76 10000 8.2 310 16:29 30.08.2019
2792 Rain 15 1011 76 10000 8.2 310 15:59 30.08.2019
2793 Rain 15 1011 71 10000 6.2 340 15:39 30.08.2019
2794 Clear 15 1011 71 10000 6.7 360 15:19 30.08.2019
2795 Clear 15 1011 71 10000 6.7 360 15:19 30.08.2019
2796 Clouds 16 1011 67 10000 5.7 360 14:44 30.08.2019
2797 Clouds 16 1011 67 10000 5.7 360 14:25 30.08.2019
2798 Clouds 15 1011 67 10000 4.6 360 13:56 30.08.2019
2799 Clouds 16 1011 67 10000 4.6 360 13:37 30.08.2019
2800 Clouds 16 1011 62 10000 5.1 350 13:19 30.08.2019
2801 Clouds 16 1011 59 10000 6.2 330 12:42 30.08.2019
2802 Clouds 16 1011 59 10000 6.2 330 12:42 30.08.2019
2803 Clouds 17 1011 55 10000 6.7 330 12:23 30.08.2019
2804 Clouds 17 1011 55 10000 7.2 320 11:43 30.08.2019
2805 Clouds 17 1011 55 10000 7.2 320 11:25 30.08.2019
2806 Clouds 18 1011 48 10000 7.7 310 10:59 30.08.2019
2807 Clouds 18 1011 48 10000 8.2 300 10:37 30.08.2019
2808 Clouds 18 1011 48 10000 6.7 310 10:18 30.08.2019
2809 Clouds 18 1011 51 10000 7.7 310 09:42 30.08.2019
2810 Clouds 18 1011 52 10000 7.2 270 09:20 30.08.2019
2811 Clouds 18 1011 52 10000 7.2 270 08:59 30.08.2019
2812 Clouds 18 1011 52 10000 7.7 280 08:40 30.08.2019
2813 Clouds 18 1011 42 10000 8.7 310 08:21 30.08.2019
2814 Clouds 18 1011 55 10000 7.2 280 07:44 30.08.2019
2815 Clouds 18 1011 59 10000 7.7 260 07:23 30.08.2019
2816 Rain 18 1011 48 10000 8.2 280 06:49 30.08.2019
2817 Rain 18 1011 48 10000 8.2 280 06:30 30.08.2019
2818 Clouds 17 1011 55 10000 9.8 270 05:55 30.08.2019
2819 Clouds 16 1011 59 10000 10.8 250 04:27 30.08.2019
2820 Rain 16 1010 67 10000 4.6 280 03:46 30.08.2019
2821 Rain 16 1010 67 10000 4.6 280 03:27 30.08.2019
2822 Rain 15 1009 72 10000 6.7 260 02:32 30.08.2019
2823 Rain 14 1008 93 10000 6.7 260 01:38 30.08.2019
2824 Rain 14 1007 82 10000 5.7 260 00:46 30.08.2019
2825 Rain 14 1007 82 10000 4.6 300 00:18 30.08.2019
2826 Rain 15 1007 72 10000 5.1 300 23:41 29.08.2019
2827 Rain 15 1007 82 5000 6.7 280 23:21 29.08.2019
2828 Clouds 15 1007 77 10000 4.6 280 22:44 29.08.2019
2829 Clouds 16 1007 77 10000 4.6 280 22:26 29.08.2019
2830 Rain 16 1007 72 10000 4.1 300 21:58 29.08.2019
2831 Rain 16 1007 87 10000 3.6 290 21:39 29.08.2019
2832 Rain 16 1007 93 10000 3.6 300 21:21 29.08.2019
2833 Rain 16 1007 93 10000 3.6 300 21:21 29.08.2019
2834 Rain 16 1007 93 10000 3.6 300 21:21 29.08.2019
2835 Rain 16 1007 93 10000 3.6 300 20:56 29.08.2019
2836 Rain 15 1008 93 3100 4.1 300 20:37 29.08.2019
2837 Rain 15 1008 93 10000 4.6 350 20:18 29.08.2019
2838 Rain 15 1007 100 10000 6.7 290 19:46 29.08.2019
2839 Rain 15 1007 93 9000 5.1 330 19:25 29.08.2019
2840 Rain 15 1007 100 2500 6.2 10 18:45 29.08.2019
2841 Rain 15 1007 93 5000 6.7 350 18:22 29.08.2019
2842 Rain 15 1007 93 5000 6.7 350 17:58 29.08.2019
2843 Rain 15 1008 93 10000 4.6 360 17:39 29.08.2019
2844 Rain 15 1009 93 10000 7.2 340 17:20 29.08.2019
2845 Rain 15 1009 93 10000 7.2 340 16:59 29.08.2019
2846 Rain 15 1009 93 10000 7.7 320 16:41 29.08.2019
2847 Rain 15 1009 93 10000 7.7 320 16:22 29.08.2019
2848 Rain 15 1009 93 5000 5.7 300 15:40 29.08.2019
2849 Rain 15 1008 93 10000 7.7 300 15:21 29.08.2019
2850 Rain 15 1008 93 10000 7.7 300 14:57 29.08.2019
2851 Rain 15 1008 100 6000 8.2 280 14:37 29.08.2019
2852 Rain 15 1008 100 6000 8.2 280 14:37 29.08.2019
2853 Rain 15 1007 93 4500 9.8 340 14:19 29.08.2019
2854 Rain 17 1008 93 6000 12.9 290 13:55 29.08.2019
2855 Rain 18 1008 93 6000 12.9 290 13:37 29.08.2019
2856 Rain 18 1007 93 5000 11.8 350 13:18 29.08.2019
2857 Rain 19 1007 64 10000 10.3 350 12:55 29.08.2019
2858 Rain 20 1007 64 10000 10.3 350 12:36 29.08.2019
2859 Rain 20 1008 72 10000 9.3 330 12:18 29.08.2019
2860 Clouds 20 1007 72 10000 9.8 340 11:41 29.08.2019
2861 Rain 20 1008 56 10000 11.3 330 11:20 29.08.2019
2862 Rain 20 1008 52 10000 11.8 320 10:57 29.08.2019
2863 Rain 20 1008 52 10000 11.8 320 10:38 29.08.2019
2864 Clouds 20 1008 60 10000 10.3 330 10:19 29.08.2019
2865 Clouds 21 1008 72 10000 8.7 330 09:41 29.08.2019
2866 Clouds 21 1008 88 10000 8.7 330 09:19 29.08.2019
2867 Clouds 21 1008 60 10000 13.4 330 08:45 29.08.2019
2868 Rain 20 1008 68 10000 13.9 330 08:25 29.08.2019
2869 Rain 21 1008 68 10000 13.9 330 07:54 29.08.2019
2870 Rain 21 1008 68 10000 11.3 340 07:34 29.08.2019
2871 Rain 19 1009 72 10000 8.7 340 06:59 29.08.2019
2872 Rain 19 1009 77 10000 11.3 340 06:38 29.08.2019
2873 Rain 19 1009 88 10000 8.7 350 05:52 29.08.2019
2874 Rain 19 1009 88 10000 8.7 350 05:29 29.08.2019
2875 Rain 19 1009 72 10000 8.7 350 04:48 29.08.2019
2876 Rain 20 1009 72 10000 8.7 350 04:28 29.08.2019
2877 Clouds 17 1010 88 10000 5.7 20 01:54 29.08.2019
2878 Clouds 17 1010 88 10000 5.7 20 01:35 29.08.2019
2879 Clouds 16 1010 82 10000 5.7 360 00:47 29.08.2019
2880 Clouds 15 1009 82 10000 5.1 20 00:23 29.08.2019
2881 Clouds 15 1009 82 10000 5.1 20 23:58 28.08.2019
2882 Clouds 16 1010 72 10000 5.7 20 23:38 28.08.2019
2883 Clouds 15 1010 67 10000 4.1 360 23:20 28.08.2019
2884 Clouds 15 1010 67 10000 4.1 360 22:56 28.08.2019
2885 Clear 14 1010 62 10000 4.1 40 22:37 28.08.2019
2886 Clear 15 1010 62 10000 3.6 30 22:18 28.08.2019
2887 Clouds 14 1010 66 10000 4.1 350 21:41 28.08.2019
2888 Clouds 14 1010 58 10000 4.1 350 21:22 28.08.2019
2889 Clouds 15 1010 58 10000 4.1 350 20:56 28.08.2019
2890 Clouds 15 1011 51 10000 4.1 350 20:38 28.08.2019
2891 Clouds 16 1011 45 10000 4.1 350 20:19 28.08.2019
2892 Clear 17 1011 48 10000 7.7 340 19:42 28.08.2019
2893 Clear 18 1010 39 10000 4.6 60 19:21 28.08.2019
2894 Clear 18 1011 39 10000 3.1 30 18:57 28.08.2019
2895 Clear 18 1011 39 10000 3.1 30 18:37 28.08.2019
2896 Clear 16 1011 37 10000 3.6 30 18:18 28.08.2019
2897 Clear 15 1012 54 10000 2.6 360 17:37 28.08.2019
2898 Clear 15 1012 54 10000 2.6 360 17:37 28.08.2019
2899 Clear 15 1012 58 10000 3.1 40 17:19 28.08.2019
2900 Clear 15 1012 67 10000 3.1 40 16:43 28.08.2019
2901 Clear 15 1013 71 10000 2.1 350 16:21 28.08.2019
2902 Clear 15 1013 71 10000 2.1 350 15:59 28.08.2019
2903 Clear 15 1013 82 10000 2.1 360 15:37 28.08.2019
2904 Clear 16 1014 76 10000 1 70 15:19 28.08.2019
2905 Clear 16 1014 72 10000 2.1 190 14:56 28.08.2019
2906 Clear 17 1014 72 10000 2.1 190 14:37 28.08.2019
2907 Clear 17 1014 72 10000 2.1 190 14:37 28.08.2019
2908 Clear 17 1014 67 10000 2.6 240 14:19 28.08.2019
2909 Clear 18 1014 67 10000 2.6 240 13:57 28.08.2019
2910 Clear 18 1014 63 10000 1.5 270 13:37 28.08.2019
2911 Clear 19 1014 49 10000 2.6 260 13:18 28.08.2019
2912 Clear 20 1014 49 10000 3.6 240 12:41 28.08.2019
2913 Clear 22 1014 44 10000 3.6 250 12:23 28.08.2019
2914 Clear 22 1014 44 10000 3.6 250 12:23 28.08.2019
2915 Clear 24 1014 39 10000 3.1 270 11:42 28.08.2019
2916 Clear 24 1014 39 10000 3.1 270 11:42 28.08.2019
2917 Clear 25 1014 39 10000 3.1 270 11:23 28.08.2019
2918 Clear 25 1014 32 10000 2.6 270 10:59 28.08.2019
2919 Clear 27 1014 30 10000 3.6 270 10:41 28.08.2019
2920 Clear 27 1014 21 10000 3.6 290 10:21 28.08.2019
2921 Clear 26 1014 17 10000 4.6 20 09:58 28.08.2019
2922 Clear 27 1014 17 10000 4.6 20 09:39 28.08.2019
2923 Clear 27 1014 21 10000 6.2 10 09:18 28.08.2019
2924 Clear 28 1014 21 10000 6.7 20 08:39 28.08.2019
2925 Clear 28 1015 20 10000 7.2 30 08:20 28.08.2019
2926 Clear 29 1015 23 10000 7.7 10 07:40 28.08.2019
2927 Clear 28 1016 25 10000 7.7 20 07:20 28.08.2019
2928 Clear 28 1016 26 10000 6.7 30 06:51 28.08.2019
2929 Clear 28 1016 26 10000 6.7 30 06:31 28.08.2019
2930 Clear 26 1017 27 10000 6.7 30 05:29 28.08.2019
2931 Clear 18 1018 34 10000 3.6 40 02:24 28.08.2019
2932 Clear 16 1017 36 10000 4.6 50 01:31 28.08.2019
2933 Clear 15 1017 51 10000 3.6 50 00:54 28.08.2019
2934 Clear 14 1017 51 10000 3.6 50 00:34 28.08.2019
2935 Clear 15 1017 38 10000 4.6 70 23:58 27.08.2019
2936 Clear 16 1017 38 10000 4.6 60 23:38 27.08.2019
2937 Clear 16 1017 38 10000 5.7 60 23:20 27.08.2019
2938 Clear 16 1017 36 10000 5.7 60 22:42 27.08.2019
2939 Clear 15 1017 36 10000 5.7 50 22:23 27.08.2019
2940 Clear 15 1017 36 10000 5.7 50 21:57 27.08.2019
2941 Clear 16 1017 38 10000 5.1 50 21:38 27.08.2019
2942 Clear 16 1017 38 10000 5.1 50 21:38 27.08.2019
2943 Clouds 16 1017 38 10000 4.6 50 21:20 27.08.2019
2944 Clouds 16 1017 38 10000 4.6 50 20:59 27.08.2019
2945 Clear 16 1017 38 10000 5.1 50 20:40 27.08.2019
2946 Clear 16 1018 41 10000 6.2 60 20:19 27.08.2019
2947 Clear 16 1018 41 10000 4.6 50 19:45 27.08.2019
2948 Clear 16 1018 41 10000 4.6 50 19:27 27.08.2019
2949 Clear 16 1018 42 10000 5.1 60 18:58 27.08.2019
2950 Clear 16 1018 42 10000 5.1 60 18:39 27.08.2019
2951 Clear 16 1019 42 10000 6.7 80 18:18 27.08.2019
2952 Clear 16 1019 42 10000 6.2 80 17:55 27.08.2019
2953 Clear 16 1019 42 10000 6.2 80 17:37 27.08.2019
2954 Clear 16 1019 42 10000 6.7 80 17:18 27.08.2019
2955 Clear 16 1020 45 10000 5.7 80 16:42 27.08.2019
2956 Clear 16 1020 45 10000 4.6 70 16:23 27.08.2019
2957 Clear 17 1020 45 10000 4.6 70 15:55 27.08.2019
2958 Clear 17 1020 48 10000 4.1 70 15:37 27.08.2019
2959 Clear 17 1020 48 10000 3.1 80 15:19 27.08.2019
2960 Clear 16 1020 58 10000 2.6 80 14:42 27.08.2019
2961 Clear 16 1020 62 10000 2.1 90 14:23 27.08.2019
2962 Clear 17 1020 55 10000 2.6 110 13:43 27.08.2019
2963 Clear 18 1020 59 10000 3.6 120 13:24 27.08.2019
2964 Clear 19 1020 48 10000 2.6 110 12:58 27.08.2019
2965 Clear 19 1020 48 10000 2.6 110 12:39 27.08.2019
2966 Clouds 19 1020 45 10000 2.1 90 12:19 27.08.2019
2967 Clear 21 1019 37 10000 2.6 100 11:46 27.08.2019
2968 Clear 21 1019 37 10000 2.6 100 11:26 27.08.2019
2969 Clear 22 1019 33 10000 2.6 30 10:46 27.08.2019
2970 Clear 22 1019 33 10000 2.6 30 10:27 27.08.2019
2971 Clear 22 1019 31 10000 3.1 20 09:59 27.08.2019
2972 Clear 22 1019 31 10000 3.1 20 09:59 27.08.2019
2973 Clear 22 1019 28 10000 3.6 30 09:39 27.08.2019
2974 Clear 22 1019 28 10000 4.1 20 09:21 27.08.2019
2975 Clear 22 1019 28 10000 4.6 40 08:56 27.08.2019
2976 Clear 23 1019 28 10000 4.6 40 08:37 27.08.2019
2977 Clear 23 1019 28 10000 4.6 40 08:37 27.08.2019
2978 Clear 23 1020 31 10000 3.6 40 08:18 27.08.2019
2979 Clear 23 1020 30 10000 3.6 20 07:40 27.08.2019
2980 Clear 23 1021 30 10000 4.6 10 07:19 27.08.2019
2981 Clear 23 1021 30 10000 5.1 10 06:54 27.08.2019
2982 Clouds 21 1021 33 10000 5.1 20 06:25 27.08.2019
2983 Clear 20 1022 34 10000 4.6 60 05:42 27.08.2019
2984 Clear 19 1022 37 10000 4.6 60 04:37 27.08.2019
2985 Clear 17 1023 41 10000 5.1 70 03:34 27.08.2019
2986 Clear 13 1023 57 10000 6.2 70 02:23 27.08.2019
2987 Clear 12 1023 61 10000 5.7 70 01:40 27.08.2019
2988 Clear 10 1023 61 10000 5.7 70 00:58 27.08.2019
2989 Clear 10 1023 61 10000 5.7 70 00:39 27.08.2019
2990 Clear 10 1023 66 10000 2.1 50 00:19 27.08.2019
2991 Clear 10 1022 61 10000 4.6 60 23:37 26.08.2019
2992 Clear 10 1022 62 10000 6.2 70 23:19 26.08.2019
2993 Clear 10 1022 62 10000 7.7 70 22:39 26.08.2019
2994 Clear 11 1022 62 10000 7.7 70 22:19 26.08.2019
2995 Clear 11 1023 58 10000 5.7 80 21:57 26.08.2019
2996 Clear 11 1023 58 10000 6.2 80 21:37 26.08.2019
2997 Clear 10 1023 58 10000 6.2 80 21:19 26.08.2019
2998 Clear 10 1023 62 10000 3.1 60 20:54 26.08.2019
2999 Clear 10 1023 71 10000 3.1 40 20:36 26.08.2019
3000 Clear 9 1024 81 10000 2.6 20 20:18 26.08.2019
3001 Clear 9 1024 76 10000 2.6 20 19:42 26.08.2019
3002 Clear 9 1024 87 10000 2.6 20 19:19 26.08.2019
3003 Clear 9 1024 87 10000 2.6 20 18:58 26.08.2019
3004 Clear 10 1024 76 10000 1.5 130 18:37 26.08.2019
3005 Clear 10 1024 76 10000 1.5 130 18:37 26.08.2019
3006 Clear 9 1025 87 10000 2.6 120 18:19 26.08.2019
3007 Clear 10 1024 71 10000 0.5 120 17:44 26.08.2019
3008 Clear 10 1024 71 10000 0.5 120 17:19 26.08.2019
3009 Clear 10 1025 87 10000 2.6 70 16:57 26.08.2019
3010 Clear 10 1025 81 10000 1.5 130 16:39 26.08.2019
3011 Clear 11 1025 81 10000 2.1 110 16:18 26.08.2019
3012 Clear 11 1025 87 10000 2.6 110 15:44 26.08.2019
3013 Clear 11 1025 87 10000 2.6 110 15:22 26.08.2019
3014 Clear 12 1024 76 10000 2.1 120 14:58 26.08.2019
3015 Clear 13 1024 66 10000 3.1 110 14:39 26.08.2019
3016 Clear 13 1024 62 10000 3.1 110 14:21 26.08.2019
3017 Clear 14 1024 58 10000 3.1 100 13:43 26.08.2019
3018 Clear 15 1024 58 10000 3.1 100 13:23 26.08.2019
3019 Clear 16 1024 54 10000 3.6 120 12:56 26.08.2019
3020 Clear 17 1024 48 10000 3.1 110 12:37 26.08.2019
3021 Clear 18 1023 42 10000 5.1 100 12:19 26.08.2019
3022 Clear 19 1023 39 10000 4.6 90 11:38 26.08.2019
3023 Clear 19 1023 39 10000 4.6 90 11:20 26.08.2019
3024 Clear 20 1023 34 10000 5.7 100 10:57 26.08.2019
3025 Clear 20 1023 34 10000 5.7 80 10:39 26.08.2019
3026 Clear 19 1023 32 10000 5.1 90 10:18 26.08.2019
3027 Clear 20 1024 34 10000 5.1 120 09:41 26.08.2019
3028 Clear 20 1024 34 10000 5.1 120 09:23 26.08.2019
3029 Clear 20 1024 34 10000 3.1 80 08:56 26.08.2019
3030 Clear 21 1024 37 10000 4.1 90 08:37 26.08.2019
3031 Clear 20 1024 34 10000 4.6 90 08:19 26.08.2019
3032 Clear 21 1025 37 10000 4.1 100 07:42 26.08.2019
3033 Clear 20 1025 37 10000 4.1 100 07:24 26.08.2019
3034 Clear 20 1026 42 10000 4.1 70 06:50 26.08.2019
3035 Clear 19 1026 42 10000 4.1 70 06:26 26.08.2019
3036 Clear 19 1026 45 10000 5.7 80 05:58 26.08.2019
3037 Clear 17 1027 54 10000 4.6 80 04:35 26.08.2019
3038 Clear 15 1027 58 10000 5.1 70 03:48 26.08.2019
3039 Clear 9 1026 71 10000 7.7 90 01:41 26.08.2019
3040 Clear 9 1026 70 10000 1 190 01:21 26.08.2019
3041 Clear 9 1025 66 10000 2.1 30 00:42 26.08.2019
3042 Clear 9 1025 66 10000 1.5 10 00:24 26.08.2019
3043 Clear 9 1025 66 10000 3.1 310 23:43 25.08.2019
3044 Clear 9 1026 76 10000 3.6 110 23:20 25.08.2019
3045 Clear 9 1025 66 10000 1.5 110 22:58 25.08.2019
3046 Clear 9 1025 76 10000 2.1 90 22:39 25.08.2019
3047 Clear 9 1025 76 10000 2.1 90 22:20 25.08.2019
3048 Clear 10 1025 76 10000 2.6 160 21:57 25.08.2019
3049 Clear 10 1025 71 10000 3.6 110 21:38 25.08.2019
3050 Clear 10 1025 66 10000 7.2 110 21:18 25.08.2019
3051 Clear 10 1026 66 10000 2.1 170 20:40 25.08.2019
3052 Clear 10 1026 76 10000 3.1 200 20:20 25.08.2019
3053 Clear 10 1026 62 10000 2.6 120 19:58 25.08.2019
3054 Clear 10 1025 66 10000 4.1 100 19:39 25.08.2019
3055 Clear 10 1025 66 10000 4.1 100 19:20 25.08.2019
3056 Clear 10 1025 71 10000 5.7 110 18:58 25.08.2019
3057 Clear 11 1025 71 10000 5.7 110 18:39 25.08.2019
3058 Clear 10 1026 81 10000 3.1 110 18:21 25.08.2019
3059 Clear 10 1026 81 10000 0.5 180 17:43 25.08.2019
3060 Clear 10 1026 81 10000 0.5 180 17:25 25.08.2019
3061 Clear 10 1026 81 10000 3.1 110 16:56 25.08.2019
3062 Clear 11 1026 87 10000 2.1 170 16:36 25.08.2019
3063 Clear 11 1026 76 10000 2.6 100 16:18 25.08.2019
3064 Clear 11 1026 76 10000 2.6 100 15:42 25.08.2019
3065 Clear 11 1026 76 10000 2.6 100 15:24 25.08.2019
3066 Clear 12 1025 71 10000 3.1 120 14:43 25.08.2019
3067 Clear 13 1025 71 10000 3.1 120 14:24 25.08.2019
3068 Clear 14 1025 62 10000 3.6 130 13:56 25.08.2019
3069 Clear 14 1025 62 10000 3.6 130 13:37 25.08.2019
3070 Clear 15 1024 58 10000 4.6 140 13:18 25.08.2019
3071 Clear 15 1024 51 10000 3.6 110 12:44 25.08.2019
3072 Clear 16 1024 51 10000 3.6 110 12:25 25.08.2019
3073 Clear 17 1024 45 10000 5.1 110 11:59 25.08.2019
3074 Clear 18 1023 42 10000 4.6 110 11:38 25.08.2019
3075 Clear 18 1023 42 10000 4.1 100 11:20 25.08.2019
3076 Clear 18 1023 42 10000 4.1 100 10:56 25.08.2019
3077 Clear 18 1023 39 10000 5.7 120 10:37 25.08.2019
3078 Clear 19 1023 34 10000 5.1 120 10:19 25.08.2019
3079 Clear 18 1023 34 10000 5.1 120 09:43 25.08.2019
3080 Clear 18 1023 34 10000 5.1 120 09:24 25.08.2019
3081 Clear 19 1023 34 10000 4.6 70 08:47 25.08.2019
3082 Clear 19 1023 34 10000 4.6 70 08:29 25.08.2019
3083 Clear 19 1023 42 10000 3.1 30 07:54 25.08.2019
3084 Clouds 20 1024 42 10000 3.1 40 07:32 25.08.2019
3085 Clouds 20 1024 42 10000 3.1 40 07:32 25.08.2019
3086 Clear 19 1025 45 10000 4.6 50 06:39 25.08.2019
3087 Clear 17 1026 51 10000 3.6 70 05:27 25.08.2019
3088 Clear 14 1026 71 10000 7.2 80 03:45 25.08.2019
3089 Clear 11 1026 76 10000 4.6 70 02:43 25.08.2019
3090 Clear 10 1026 76 10000 3.6 70 01:54 25.08.2019
3091 Clear 9 1025 81 10000 3.1 50 00:54 25.08.2019
3092 Clear 9 1024 76 10000 2.6 70 00:23 25.08.2019
3093 Clear 9 1024 76 10000 2.6 70 23:58 24.08.2019
3094 Clear 9 1024 81 10000 2.6 110 23:39 24.08.2019
3095 Clear 9 1024 81 10000 5.1 110 23:21 24.08.2019
3096 Clear 9 1024 87 10000 5.7 110 22:42 24.08.2019
3097 Clear 9 1024 87 10000 5.1 100 22:19 24.08.2019
3098 Clear 9 1024 87 10000 5.1 100 21:59 24.08.2019
3099 Clear 9 1024 81 10000 3.6 110 21:39 24.08.2019
3100 Clear 9 1024 81 10000 2.1 90 21:21 24.08.2019
3101 Clear 9 1024 81 10000 2.1 90 20:57 24.08.2019
3102 Clear 9 1024 87 10000 2.6 150 20:38 24.08.2019
3103 Clear 8 1025 93 10000 2.6 330 20:19 24.08.2019
3104 Clear 8 1025 93 10000 2.6 330 19:57 24.08.2019
3105 Clear 8 1025 93 10000 2.1 230 19:38 24.08.2019
3106 Clouds 8 1026 93 10000 2.1 170 19:19 24.08.2019
3107 Clear 8 1026 93 10000 6.85 102.32 18:46 24.08.2019
3108 Clear 8 1026 93 10000 5.34 125.861 18:24 24.08.2019
3109 Clear 8 1026 93 10000 0.5 160 17:46 24.08.2019
3110 Clear 8 1026 93 10000 0.5 160 17:27 24.08.2019
3111 Clear 8 1026 93 10000 2.6 190 16:56 24.08.2019
3112 Clear 8 1027 93 10000 2.1 190 16:36 24.08.2019
3113 Clear 8 1027 87 10000 1.5 190 16:18 24.08.2019
3114 Clear 9 1027 87 10000 1.5 140 15:43 24.08.2019
3115 Clear 9 1027 87 10000 1.5 140 15:25 24.08.2019
3116 Clear 10 1027 87 10000 2.6 120 14:56 24.08.2019
3117 Clouds 10 1026 87 10000 2.6 110 14:37 24.08.2019
3118 Clouds 11 1026 81 10000 2.6 100 14:18 24.08.2019
3119 Clouds 11 1026 76 10000 3.6 140 13:42 24.08.2019
3120 Clouds 12 1026 76 10000 3.6 140 13:22 24.08.2019
3121 Clouds 12 1026 71 10000 3.6 130 12:58 24.08.2019
3122 Clouds 13 1025 62 10000 4.1 130 12:39 24.08.2019
3123 Clouds 13 1025 62 10000 4.1 130 12:39 24.08.2019
3124 Clouds 13 1025 62 10000 4.1 130 12:39 24.08.2019
3125 Clouds 14 1025 58 10000 4.6 120 12:21 24.08.2019
3126 Clouds 15 1025 54 10000 4.6 110 11:46 24.08.2019
3127 Clouds 15 1025 54 10000 4.6 110 11:24 24.08.2019
3128 Clouds 16 1024 51 10000 4.6 110 10:57 24.08.2019
3129 Clouds 16 1024 51 10000 4.6 100 10:38 24.08.2019
3130 Clouds 16 1024 51 10000 4.6 100 10:19 24.08.2019
3131 Clouds 16 1025 55 10000 3.1 100 09:40 24.08.2019
3132 Clouds 17 1025 55 10000 4.1 90 09:18 24.08.2019
3133 Clouds 17 1025 51 10000 5.7 100 08:41 24.08.2019
3134 Clouds 17 1025 51 10000 5.7 100 08:23 24.08.2019
3135 Clouds 17 1025 51 10000 5.7 100 08:23 24.08.2019
3136 Clouds 17 1026 54 10000 5.7 90 07:50 24.08.2019
3137 Clouds 16 1026 54 10000 5.7 90 07:28 24.08.2019
3138 Clouds 16 1027 54 10000 3.1 80 06:31 24.08.2019
3139 Clouds 14 1028 66 10000 3.6 110 05:47 24.08.2019
3140 Clouds 14 1028 66 10000 3.6 110 05:29 24.08.2019
3141 Clouds 12 1028 76 10000 5.1 70 03:39 24.08.2019
3142 Clear 9 1028 81 10000 3.6 40 02:33 24.08.2019
3143 Clouds 6 1027 93 10000 2.6 320 01:47 24.08.2019
3144 Clouds 6 1027 93 10000 2.6 320 01:22 24.08.2019
3145 Clear 5 1027 93 10000 1.5 330 00:43 24.08.2019
3146 Clear 5 1027 93 10000 1.5 340 00:18 24.08.2019
3147 Clear 6 1026 93 10000 0.5 280 23:43 23.08.2019
3148 Clear 6 1026 93 10000 0.5 310 23:19 23.08.2019
3149 Clear 6 1026 93 10000 5.36 108.418 22:43 23.08.2019
3150 Clear 6 1026 93 10000 5.36 108.418 22:24 23.08.2019
3151 Clear 6 1026 93 10000 2.1 240 21:54 23.08.2019
3152 Clear 6 1026 93 10000 2.1 320 21:36 23.08.2019
3153 Clear 6 1026 93 10000 1.5 310 21:18 23.08.2019
3154 Clear 6 1026 93 10000 2.6 160 20:40 23.08.2019
3155 Clear 6 1026 93 10000 2.6 160 20:22 23.08.2019
3156 Clear 7 1026 81 10000 3.6 180 19:45 23.08.2019
3157 Clear 7 1026 87 10000 3.6 190 19:19 23.08.2019
3158 Clear 7 1026 93 10000 3.1 190 18:49 23.08.2019
3159 Clear 7 1026 93 10000 3.1 190 18:31 23.08.2019
3160 Clear 8 1026 93 10000 2.6 220 17:58 23.08.2019
3161 Clear 7 1025 93 10000 2.1 160 17:39 23.08.2019
3162 Clear 7 1025 93 10000 1 170 17:20 23.08.2019
3163 Clear 8 1025 93 10000 2.6 180 16:48 23.08.2019
3164 Clear 8 1025 93 10000 2.6 180 16:29 23.08.2019
3165 Clear 9 1025 81 10000 3.6 170 15:57 23.08.2019
3166 Clear 9 1025 81 10000 4.1 180 15:37 23.08.2019
3167 Clear 9 1025 81 10000 3.1 170 15:19 23.08.2019
3168 Clear 10 1024 76 10000 3.6 180 14:42 23.08.2019
3169 Clear 11 1024 66 10000 3.6 200 14:21 23.08.2019
3170 Clear 11 1024 66 10000 3.6 200 13:58 23.08.2019
3171 Clear 11 1024 66 10000 3.6 200 13:58 23.08.2019
3172 Clear 12 1024 62 10000 4.1 210 13:40 23.08.2019
3173 Clear 12 1023 62 10000 4.6 210 13:22 23.08.2019
3174 Clouds 13 1023 62 10000 5.1 210 12:58 23.08.2019
3175 Clouds 12 1023 62 10000 5.1 210 12:40 23.08.2019
3176 Clouds 13 1023 58 10000 5.1 200 12:21 23.08.2019
3177 Clouds 13 1023 58 10000 5.1 200 11:56 23.08.2019
3178 Clouds 13 1023 58 10000 4.6 190 11:37 23.08.2019
3179 Clouds 14 1022 58 10000 7.7 200 11:18 23.08.2019
3180 Clouds 14 1022 51 10000 7.7 190 10:44 23.08.2019
3181 Clouds 14 1022 51 10000 7.7 190 10:22 23.08.2019
3182 Clouds 14 1022 58 10000 6.2 190 09:57 23.08.2019
3183 Clouds 14 1021 62 10000 6.7 190 09:39 23.08.2019
3184 Clouds 14 1021 67 10000 7.2 170 09:20 23.08.2019
3185 Rain 14 1021 62 10000 6.7 200 08:43 23.08.2019
3186 Rain 14 1021 62 10000 6.7 200 08:19 23.08.2019
3187 Rain 15 1021 67 10000 7.2 230 07:43 23.08.2019
3188 Rain 15 1021 67 10000 7.2 230 07:24 23.08.2019
3189 Rain 15 1021 67 10000 7.7 200 07:24 23.08.2019
3190 Rain 15 1021 67 10000 7.2 230 07:24 23.08.2019
3191 Rain 15 1021 58 10000 8.7 210 06:58 23.08.2019
3192 Rain 14 1021 81 10000 5.1 250 06:39 23.08.2019
3193 Rain 14 1021 81 10000 5.1 250 06:39 23.08.2019
3194 Rain 14 1021 76 10000 9.3 250 06:20 23.08.2019
3195 Rain 15 1021 62 10000 7.7 210 05:34 23.08.2019
3196 Rain 15 1020 67 10000 4.6 230 04:52 23.08.2019
3197 Rain 13 1020 87 10000 2.6 200 03:21 23.08.2019
3198 Rain 12 1020 87 10000 3.6 230 02:23 23.08.2019
3199 Rain 11 1019 87 10000 3.1 270 01:40 23.08.2019
3200 Rain 11 1018 76 10000 5.1 250 00:45 23.08.2019
3201 Drizzle 11 1018 81 10000 9.8 230 00:20 23.08.2019
3202 Clouds 12 1017 81 10000 4.6 230 23:49 22.08.2019
3203 Clouds 11 1017 81 10000 4.6 230 23:31 22.08.2019
3204 Rain 12 1017 93 10000 5.1 210 22:58 22.08.2019
3205 Rain 12 1017 93 10000 5.1 210 22:40 22.08.2019
3206 Rain 12 1016 100 6000 2.6 290 22:21 22.08.2019
3207 Rain 12 1016 100 6000 2.6 290 21:55 22.08.2019
3208 Rain 12 1016 100 5000 2.1 290 21:37 22.08.2019
3209 Rain 12 1016 100 8000 5.1 210 21:19 22.08.2019
3210 Rain 12 1016 93 6000 1.5 10 20:56 22.08.2019
3211 Rain 12 1016 93 6000 1.5 10 20:38 22.08.2019
3212 Rain 12 1016 100 5000 2.1 30 20:18 22.08.2019
3213 Rain 12 1016 93 5000 4.6 190 19:40 22.08.2019
3214 Rain 13 1016 93 5000 4.6 190 19:22 22.08.2019
3215 Rain 13 1016 93 5000 4.6 190 19:22 22.08.2019
3216 Rain 13 1017 87 6000 4.1 230 18:59 22.08.2019
3217 Rain 13 1016 93 6000 5.7 220 18:41 22.08.2019
3218 Rain 13 1016 87 10000 7.7 230 18:20 22.08.2019
3219 Rain 13 1016 87 10000 7.7 230 17:58 22.08.2019
3220 Rain 13 1016 87 10000 7.7 230 17:58 22.08.2019
3221 Rain 13 1016 93 8000 6.2 230 17:39 22.08.2019
3222 Rain 13 1016 93 8000 6.2 230 17:20 22.08.2019
3223 Rain 14 1015 100 7000 5.1 240 16:56 22.08.2019
3224 Rain 14 1015 100 7000 5.1 240 16:38 22.08.2019
3225 Rain 14 1016 100 7000 9.8 240 16:20 22.08.2019
3226 Rain 14 1016 100 7000 9.8 240 16:19 22.08.2019
3227 Rain 14 1016 100 7000 9.8 240 16:19 22.08.2019
3228 Rain 15 1015 93 10000 4.1 250 15:43 22.08.2019
3229 Rain 15 1015 93 10000 4.1 250 15:43 22.08.2019
3230 Rain 15 1015 93 10000 4.1 250 15:43 22.08.2019
3231 Rain 15 1015 93 10000 4.1 250 15:24 22.08.2019
3232 Rain 15 1015 93 10000 4.1 250 15:24 22.08.2019
3233 Rain 16 1015 93 8000 2.6 330 14:59 22.08.2019
3234 Rain 16 1015 93 10000 6.2 240 14:41 22.08.2019
3235 Rain 16 1015 93 10000 6.2 240 14:22 22.08.2019
3236 Rain 16 1015 100 10000 3.6 260 13:59 22.08.2019
3237 Rain 17 1014 93 5000 5.1 340 13:40 22.08.2019
3238 Rain 17 1014 93 10000 6.2 330 13:20 22.08.2019
3239 Rain 17 1014 93 10000 6.2 330 13:20 22.08.2019
3240 Rain 17 1014 93 10000 6.2 330 12:56 22.08.2019
3241 Rain 17 1014 88 5000 9.3 320 12:38 22.08.2019
3242 Rain 18 1014 77 10000 7.2 340 12:19 22.08.2019
3243 Rain 20 1014 68 10000 8.7 330 11:42 22.08.2019
3244 Rain 20 1014 64 10000 8.7 330 11:20 22.08.2019
3245 Rain 21 1014 40 10000 9.3 340 10:58 22.08.2019
3246 Clear 21 1014 46 10000 10.3 340 10:40 22.08.2019
3247 Clear 21 1014 46 10000 10.3 340 10:22 22.08.2019
3248 Clear 22 1014 46 10000 9.3 330 09:57 22.08.2019
3249 Clear 22 1014 40 10000 9.3 320 09:39 22.08.2019
3250 Clear 22 1014 40 10000 9.3 320 09:39 22.08.2019
3251 Clear 22 1014 40 10000 9.3 320 09:20 22.08.2019
3252 Clear 22 1014 22 10000 9.8 310 08:54 22.08.2019
3253 Clear 23 1014 22 10000 9.8 310 08:36 22.08.2019
3254 Clear 23 1014 16 10000 9.3 350 08:18 22.08.2019
3255 Clear 25 1014 16 10000 9.3 350 07:39 22.08.2019
3256 Clear 25 1015 20 10000 7.2 10 07:19 22.08.2019
3257 Clear 24 1015 25 10000 7.7 350 06:47 22.08.2019
3258 Clear 23 1015 23 10000 7.7 350 06:22 22.08.2019
3259 Clear 22 1016 25 10000 7.7 350 05:30 22.08.2019
3260 Clear 21 1017 29 10000 7.7 350 04:19 22.08.2019
3261 Clear 15 1017 47 10000 3.1 20 02:37 22.08.2019
3262 Clear 13 1017 54 10000 5.1 10 01:40 22.08.2019
3263 Clear 11 1017 65 10000 3.6 40 01:20 22.08.2019
3264 Clear 12 1017 53 10000 4.6 10 00:41 22.08.2019
3265 Clear 11 1017 48 10000 5.7 10 00:22 22.08.2019
3266 Clear 11 1018 48 10000 4.6 360 23:44 21.08.2019
3267 Clear 11 1018 48 10000 4.6 360 23:25 21.08.2019
3268 Clear 12 1017 50 10000 4.1 360 22:58 21.08.2019
3269 Clear 10 1017 75 10000 2.6 20 22:40 21.08.2019
3270 Clear 11 1017 53 10000 4.1 360 22:21 21.08.2019
3271 Clear 11 1017 53 10000 4.1 360 21:56 21.08.2019
3272 Clear 11 1017 75 10000 3.1 40 21:38 21.08.2019
3273 Clear 11 1017 75 10000 3.1 40 21:38 21.08.2019
3274 Clear 11 1018 65 10000 3.1 10 21:19 21.08.2019
3275 Clear 11 1018 65 10000 3.1 10 20:56 21.08.2019
3276 Clear 11 1018 65 10000 3.1 10 20:38 21.08.2019
3277 Clear 11 1018 57 10000 3.1 30 20:20 21.08.2019
3278 Clear 12 1019 43 10000 3.6 60 19:43 21.08.2019
3279 Clear 13 1019 43 10000 4.6 60 19:24 21.08.2019
3280 Clear 13 1019 41 10000 3.6 50 18:58 21.08.2019
3281 Clear 13 1019 41 10000 3.6 50 18:39 21.08.2019
3282 Clear 13 1020 44 10000 3.1 50 18:20 21.08.2019
3283 Clear 13 1020 47 10000 4.6 70 17:45 21.08.2019
3284 Clear 13 1020 47 10000 4.6 70 17:23 21.08.2019
3285 Clear 13 1020 44 10000 4.6 70 16:58 21.08.2019
3286 Clear 13 1021 47 10000 4.1 70 16:39 21.08.2019
3287 Clear 13 1021 47 10000 3.6 60 16:20 21.08.2019
3288 Clear 14 1021 47 10000 3.6 60 15:57 21.08.2019
3289 Clear 14 1021 47 10000 3.6 60 15:57 21.08.2019
3290 Clear 14 1021 47 10000 3.6 70 15:38 21.08.2019
3291 Clear 14 1021 47 10000 2.6 50 15:19 21.08.2019
3292 Clear 14 1021 47 10000 2.6 50 15:19 21.08.2019
3293 Clear 14 1021 47 10000 2.6 50 14:55 21.08.2019
3294 Clear 15 1021 47 10000 4.6 60 14:37 21.08.2019
3295 Clear 15 1021 50 10000 4.1 80 14:18 21.08.2019
3296 Clear 16 1021 54 10000 4.6 80 13:43 21.08.2019
3297 Clear 17 1021 42 10000 3.6 80 13:20 21.08.2019
3298 Clear 18 1021 42 10000 3.1 30 12:58 21.08.2019
3299 Clear 18 1021 45 10000 2.1 60 12:40 21.08.2019
3300 Clear 18 1021 45 10000 2.1 60 12:40 21.08.2019
3301 Clear 19 1021 34 10000 3.1 10 12:20 21.08.2019
3302 Clear 21 1021 34 10000 3.1 10 11:54 21.08.2019
3303 Clear 22 1021 30 10000 4.1 20 11:36 21.08.2019
3304 Clear 22 1021 27 10000 4.1 10 11:18 21.08.2019
3305 Clear 23 1021 27 10000 4.1 10 10:55 21.08.2019
3306 Clear 23 1022 27 10000 4.6 10 10:37 21.08.2019
3307 Clear 23 1022 27 10000 4.6 10 10:18 21.08.2019
3308 Clear 23 1022 25 10000 5.1 10 09:41 21.08.2019
3309 Clear 23 1022 25 10000 5.1 10 09:22 21.08.2019
3310 Clear 23 1023 27 10000 4.6 20 08:55 21.08.2019
3311 Clear 23 1023 23 10000 5.7 10 08:37 21.08.2019
3312 Clear 23 1023 25 10000 6.2 20 08:18 21.08.2019
3313 Clear 23 1024 24 10000 6.7 10 07:38 21.08.2019
3314 Clear 23 1024 23 10000 7.2 10 07:19 21.08.2019
3315 Clear 23 1025 24 10000 8.7 20 06:46 21.08.2019
3316 Clear 21 1025 26 10000 7.7 30 06:20 21.08.2019
3317 Clear 21 1026 30 10000 5.1 20 05:30 21.08.2019
3318 Clear 20 1026 30 10000 6.7 20 04:58 21.08.2019
3319 Clear 16 1027 44 10000 3.6 50 02:45 21.08.2019
3320 Clear 13 1026 46 10000 4.6 60 01:38 21.08.2019
3321 Clear 12 1026 53 10000 6.7 80 00:43 21.08.2019
3322 Clear 12 1026 53 10000 6.7 80 00:43 21.08.2019
3323 Clear 12 1026 53 10000 6.2 70 00:22 21.08.2019
3324 Clear 11 1026 53 10000 5.1 60 23:46 20.08.2019
3325 Clear 12 1026 53 10000 5.1 60 23:21 20.08.2019
3326 Clear 12 1026 57 10000 5.1 60 22:59 20.08.2019
3327 Clear 12 1026 54 10000 6.2 60 22:41 20.08.2019
3328 Clear 12 1026 54 10000 6.2 60 22:22 20.08.2019
3329 Clear 12 1026 54 10000 7.2 70 21:58 20.08.2019
3330 Clear 13 1027 54 10000 5.7 80 21:39 20.08.2019
3331 Clear 13 1027 54 10000 5.7 80 21:39 20.08.2019
3332 Clear 13 1027 58 10000 4.6 60 21:20 20.08.2019
3333 Clear 12 1027 58 10000 4.6 60 20:59 20.08.2019
3334 Clear 12 1027 58 10000 4.6 60 20:59 20.08.2019
3335 Clear 12 1027 58 10000 3.1 50 20:41 20.08.2019
3336 Clear 12 1027 58 10000 4.1 70 20:23 20.08.2019
3337 Clear 12 1028 58 10000 6.7 80 19:40 20.08.2019
3338 Clear 12 1028 58 10000 5.7 80 19:22 20.08.2019
3339 Clear 11 1028 58 10000 5.7 80 18:58 20.08.2019
3340 Clear 11 1028 62 10000 1.5 50 18:40 20.08.2019
3341 Clear 11 1028 62 10000 1.5 50 18:19 20.08.2019
3342 Clear 11 1028 62 10000 1.5 50 18:19 20.08.2019
3343 Clear 11 1029 66 10000 3.1 40 17:57 20.08.2019
3344 Clear 11 1029 66 10000 3.1 40 17:57 20.08.2019
3345 Clear 11 1029 66 10000 3.1 40 17:38 20.08.2019
3346 Clear 11 1029 66 10000 3.6 40 17:19 20.08.2019
3347 Clear 12 1029 62 10000 4.1 70 16:45 20.08.2019
3348 Clear 11 1029 76 10000 2.1 50 16:26 20.08.2019
3349 Clear 12 1029 76 10000 2.1 50 15:56 20.08.2019
3350 Clear 12 1030 66 10000 2.1 90 15:38 20.08.2019
3351 Clear 13 1030 58 10000 3.1 80 15:18 20.08.2019
3352 Clear 14 1030 58 10000 3.6 90 14:43 20.08.2019
3353 Clear 14 1030 58 10000 3.6 80 14:22 20.08.2019
3354 Clear 15 1030 58 10000 3.6 80 13:57 20.08.2019
3355 Clear 15 1030 58 10000 3.6 80 13:38 20.08.2019
3356 Clear 16 1029 54 10000 3.1 90 13:20 20.08.2019
3357 Clear 17 1029 48 10000 3.1 80 12:51 20.08.2019
3358 Clear 18 1029 48 10000 3.1 80 12:30 20.08.2019
3359 Clear 19 1029 37 10000 3.6 80 11:58 20.08.2019
3360 Clear 21 1029 32 10000 3.6 60 11:38 20.08.2019
3361 Clear 21 1030 28 10000 4.6 60 11:19 20.08.2019
3362 Clear 21 1030 28 10000 4.6 60 11:19 20.08.2019
3363 Clear 21 1030 28 10000 4.6 60 11:19 20.08.2019
3364 Clear 21 1030 28 10000 4.6 60 10:57 20.08.2019
3365 Clear 21 1030 28 10000 4.6 60 10:57 20.08.2019
3366 Clear 21 1030 28 10000 4.6 60 10:57 20.08.2019
3367 Clear 22 1030 28 10000 2.6 60 10:38 20.08.2019
3368 Clear 21 1030 27 10000 3.1 40 10:19 20.08.2019
3369 Clear 21 1030 28 10000 3.1 60 09:43 20.08.2019
3370 Clear 21 1030 28 10000 3.1 60 09:25 20.08.2019
3371 Clear 22 1030 28 10000 2.6 10 08:57 20.08.2019
3372 Clear 22 1030 26 10000 3.6 20 08:39 20.08.2019
3373 Clear 22 1031 30 10000 3.6 20 08:20 20.08.2019
3374 Clear 22 1031 32 10000 3.1 20 07:55 20.08.2019
3375 Clear 22 1031 32 10000 3.1 20 07:37 20.08.2019
3376 Clear 22 1032 32 10000 3.1 40 07:18 20.08.2019
3377 Clear 20 1033 37 10000 4.6 40 06:25 20.08.2019
3378 Clear 19 1033 42 10000 5.7 40 05:49 20.08.2019
3379 Clear 18 1034 45 10000 3.6 70 05:18 20.08.2019
3380 Clear 17 1035 58 10000 3.6 60 03:52 20.08.2019
3381 Clear 13 1035 66 10000 7.7 70 02:44 20.08.2019
3382 Clear 10 1034 76 10000 4.1 50 01:39 20.08.2019
3383 Clear 9 1034 76 10000 4.1 60 00:57 20.08.2019
3384 Clear 9 1034 76 10000 4.1 60 00:39 20.08.2019
3385 Clear 9 1034 76 10000 4.1 60 00:39 20.08.2019
3386 Clear 9 1033 76 10000 4.1 60 00:19 20.08.2019
3387 Clear 8 1033 76 10000 3.6 50 23:39 19.08.2019
3388 Clear 8 1033 76 10000 4.6 60 23:18 19.08.2019
3389 Clear 8 1033 71 10000 5.7 50 22:54 19.08.2019
3390 Clear 8 1033 71 10000 5.7 50 22:36 19.08.2019
3391 Clear 8 1033 71 10000 5.7 50 22:36 19.08.2019
3392 Clear 8 1033 71 10000 4.1 40 22:18 19.08.2019
3393 Clear 8 1033 71 10000 4.1 40 21:55 19.08.2019
3394 Clear 8 1033 81 10000 3.6 40 21:36 19.08.2019
3395 Clear 7 1034 93 10000 2.6 20 21:18 19.08.2019
3396 Clear 7 1034 93 10000 2.1 350 20:39 19.08.2019
3397 Clear 7 1034 93 10000 2.1 360 20:20 19.08.2019
3398 Clear 7 1034 93 10000 2.1 360 19:58 19.08.2019
3399 Clear 8 1034 93 10000 2.1 320 19:39 19.08.2019
3400 Clear 8 1034 93 10000 2.1 320 19:19 19.08.2019
3401 Clear 9 1034 93 10000 2.1 90 18:45 19.08.2019
3402 Clear 8 1035 87 10000 0.5 90 18:27 19.08.2019
3403 Clear 8 1035 87 10000 0.5 90 17:59 19.08.2019
3404 Clear 9 1035 87 10000 3.1 70 17:41 19.08.2019
3405 Clear 9 1035 93 10000 2.1 50 17:20 19.08.2019
3406 Clear 10 1035 93 10000 2.1 50 16:58 19.08.2019
3407 Clear 11 1035 87 10000 2.1 160 16:37 19.08.2019
3408 Clear 11 1035 81 10000 1.5 150 16:19 19.08.2019
3409 Clear 11 1035 81 10000 1.5 150 15:55 19.08.2019
3410 Clear 12 1035 87 10000 0.5 80 15:36 19.08.2019
3411 Clear 12 1035 76 10000 3.1 180 15:18 19.08.2019
3412 Clear 13 1035 71 10000 4.1 170 14:40 19.08.2019
3413 Clear 13 1035 71 10000 4.1 170 14:21 19.08.2019
3414 Clear 13 1034 66 10000 4.6 190 13:57 19.08.2019
3415 Clear 14 1034 76 10000 3.1 180 13:37 19.08.2019
3416 Clear 14 1034 76 10000 3.1 180 13:37 19.08.2019
3417 Clear 14 1034 71 10000 3.1 200 13:19 19.08.2019
3418 Clear 15 1033 54 10000 3.1 90 12:44 19.08.2019
3419 Clear 16 1033 48 10000 3.1 90 12:24 19.08.2019
3420 Clear 17 1033 48 10000 3.1 90 11:57 19.08.2019
3421 Clear 18 1033 45 10000 3.1 90 11:37 19.08.2019
3422 Clear 18 1033 45 10000 3.1 90 11:18 19.08.2019
3423 Clear 19 1033 39 10000 3.1 10 10:40 19.08.2019
3424 Clear 19 1033 37 10000 3.6 70 10:19 19.08.2019
3425 Clear 19 1033 37 10000 3.6 70 09:57 19.08.2019
3426 Clear 19 1033 37 10000 3.1 60 09:39 19.08.2019
3427 Clear 19 1033 37 10000 3.1 60 09:39 19.08.2019
3428 Clear 19 1033 37 10000 3.1 60 09:21 19.08.2019
3429 Clear 19 1033 37 10000 3.6 80 08:46 19.08.2019
3430 Clear 19 1033 37 10000 3.6 80 08:25 19.08.2019
3431 Clear 20 1034 32 10000 3.6 10 07:58 19.08.2019
3432 Clear 20 1034 36 10000 5.1 20 07:39 19.08.2019
3433 Clouds 19 1034 39 10000 4.1 70 07:19 19.08.2019
3434 Clouds 19 1034 39 10000 4.1 70 07:19 19.08.2019
3435 Clouds 19 1035 39 10000 5.7 20 06:36 19.08.2019
3436 Clear 17 1036 48 10000 5.1 70 05:28 19.08.2019
3437 Clear 16 1036 62 10000 3.1 80 04:34 19.08.2019
3438 Clear 13 1037 71 10000 2.1 10 03:28 19.08.2019
3439 Clear 10 1037 81 10000 2.1 50 02:53 19.08.2019
3440 Fog 5 1036 93 10000 2.1 50 01:37 19.08.2019
3441 Fog 5 1035 93 10000 4.95 61.104 00:49 19.08.2019
3442 Fog 5 1035 93 10000 4.29 56.162 00:25 19.08.2019
3443 Fog 5 1035 100 10000 2.6 210 23:57 18.08.2019
3444 Clear 5 1034 93 10000 0.5 20 23:37 18.08.2019
3445 Clear 5 1034 93 10000 0.5 20 23:19 18.08.2019
3446 Clear 6 1034 100 10000 4.29 56.162 22:40 18.08.2019
3447 Clear 6 1034 100 10000 4.29 56.162 22:21 18.08.2019
3448 Clear 6 1034 93 10000 4.29 56.162 21:57 18.08.2019
3449 Clear 5 1035 93 10000 4.29 56.162 21:39 18.08.2019
3450 Clear 5 1035 93 10000 2.05 110.68 21:20 18.08.2019
3451 Clear 6 1035 93 10000 2.05 110.68 20:46 18.08.2019
3452 Clear 6 1035 93 10000 2.05 110.68 20:27 18.08.2019
3453 Clouds 6 1034 93 10000 2.05 110.68 19:59 18.08.2019
3454 Clear 6 1034 93 10000 2.05 110.68 19:41 18.08.2019
3455 Clear 6 1034 93 10000 2.05 110.68 19:23 18.08.2019
3456 Clear 6 1034 100 10000 1.5 10 18:56 18.08.2019
3457 Clear 7 1034 100 10000 1.5 20 18:38 18.08.2019
3458 Clear 7 1034 100 10000 1.5 20 18:38 18.08.2019
3459 Clear 9 1035 93 10000 1.5 300 18:20 18.08.2019
3460 Clear 9 1034 93 10000 2.1 360 17:44 18.08.2019
3461 Clear 9 1034 93 10000 2.1 360 17:20 18.08.2019
3462 Clear 9 1034 87 10000 1.5 360 16:59 18.08.2019
3463 Clear 10 1034 87 10000 1.5 180 16:41 18.08.2019
3464 Clear 10 1034 87 10000 1.5 180 16:23 18.08.2019
3465 Clear 10 1034 81 10000 1.5 330 15:59 18.08.2019
3466 Clear 10 1034 81 10000 2.1 360 15:39 18.08.2019
3467 Clear 11 1034 71 10000 2.6 30 15:20 18.08.2019
3468 Clear 10 1034 81 10000 2.1 360 15:20 18.08.2019
3469 Clear 11 1034 71 10000 2.6 30 14:56 18.08.2019
3470 Clear 11 1033 66 10000 3.6 50 14:38 18.08.2019
3471 Clear 12 1033 66 10000 3.6 50 14:19 18.08.2019
3472 Clear 12 1033 71 10000 3.6 50 13:55 18.08.2019
3473 Clear 12 1033 76 10000 2.6 70 13:36 18.08.2019
3474 Clear 13 1033 66 10000 3.1 90 13:18 18.08.2019
3475 Clear 14 1032 66 10000 3.6 100 12:40 18.08.2019
3476 Clouds 16 1032 58 10000 3.6 90 12:22 18.08.2019
3477 Clouds 16 1032 58 10000 3.6 90 11:54 18.08.2019
3478 Clouds 16 1032 55 10000 3.1 80 11:36 18.08.2019
3479 Clouds 17 1032 51 10000 3.1 130 11:18 18.08.2019
3480 Clear 18 1032 45 10000 2.6 170 10:41 18.08.2019
3481 Clear 18 1032 42 10000 2.1 130 10:19 18.08.2019
3482 Clear 17 1032 42 10000 2.6 180 09:45 18.08.2019
3483 Clear 18 1032 45 10000 3.6 170 09:21 18.08.2019
3484 Clear 17 1032 48 10000 3.1 200 08:45 18.08.2019
3485 Clear 17 1032 48 10000 3.1 200 08:25 18.08.2019
3486 Clear 17 1032 45 10000 2.6 90 07:59 18.08.2019
3487 Clouds 17 1032 51 10000 3.6 200 07:41 18.08.2019
3488 Clouds 17 1033 48 10000 3.6 170 07:22 18.08.2019
3489 Clouds 15 1033 62 10000 1.5 140 05:45 18.08.2019
3490 Clouds 13 1034 66 10000 1 360 04:44 18.08.2019
3491 Clouds 8 1033 87 10000 1.5 350 03:20 18.08.2019
3492 Clouds 7 1033 93 10000 1 40 02:43 18.08.2019
3493 Clear 4 1032 93 10000 4.45 119.655 02:18 18.08.2019
3494 Clear 3 1032 100 10000 4.42 122.781 01:29 18.08.2019
3495 Clouds 2 1031 100 4800 4.42 122.781 00:43 18.08.2019
3496 Rain 2 1031 100 4800 4.21 127.134 00:24 18.08.2019
3497 Clear 4 1031 93 10000 1.5 10 23:58 17.08.2019
3498 Clear 3 1030 100 10000 4.21 127.134 23:38 17.08.2019
3499 Clear 3 1030 93 10000 4.21 127.134 23:20 17.08.2019
3500 Clear 3 1030 93 10000 4.21 127.134 22:58 17.08.2019
3501 Clear 4 1031 93 10000 4.21 127.134 22:40 17.08.2019
3502 Clear 4 1030 100 10000 2.1 20 22:21 17.08.2019
3503 Clear 4 1030 100 10000 2.1 20 21:55 17.08.2019
3504 Clear 4 1030 100 10000 2.1 20 21:55 17.08.2019
3505 Clear 4 1030 100 10000 2.1 20 21:37 17.08.2019
3506 Clear 4 1030 100 10000 3.68 131.869 21:19 17.08.2019
3507 Clear 6 1030 93 10000 3.68 131.869 20:39 17.08.2019
3508 Clear 7 1030 100 10000 2.6 30 20:20 17.08.2019
3509 Clear 7 1030 100 10000 2.6 30 19:56 17.08.2019
3510 Clear 7 1030 93 10000 2.1 30 19:37 17.08.2019
3511 Clear 7 1030 100 10000 2.1 20 19:19 17.08.2019
3512 Clear 7 1030 93 10000 2.1 10 18:39 17.08.2019
3513 Clear 7 1030 93 10000 2.1 50 18:19 17.08.2019
3514 Clear 8 1030 93 10000 2.1 50 17:55 17.08.2019
3515 Clear 8 1030 93 10000 2.1 30 17:37 17.08.2019
3516 Clear 8 1030 93 10000 2.1 10 17:18 17.08.2019
3517 Clear 9 1030 93 10000 6.64 170.58 16:43 17.08.2019
3518 Clear 9 1030 93 10000 6.64 170.58 16:25 17.08.2019
3519 Clear 10 1030 87 10000 2.6 70 15:57 17.08.2019
3520 Clear 10 1029 87 10000 2.6 100 15:38 17.08.2019
3521 Clear 10 1029 87 10000 2.6 100 15:20 17.08.2019
3522 Clear 10 1029 87 10000 2.6 100 15:20 17.08.2019
3523 Clear 11 1029 76 10000 3.1 230 14:41 17.08.2019
3524 Clear 11 1029 76 10000 3.1 230 14:22 17.08.2019
3525 Clouds 12 1028 66 10000 3.6 210 13:47 17.08.2019
3526 Clouds 12 1028 62 10000 3.6 210 13:22 17.08.2019
3527 Clouds 12 1028 62 10000 3.6 210 12:57 17.08.2019
3528 Clouds 13 1028 62 10000 4.1 210 12:39 17.08.2019
3529 Clouds 13 1027 50 10000 5.7 210 12:18 17.08.2019
3530 Clouds 14 1027 62 10000 6.2 200 11:43 17.08.2019
3531 Clouds 14 1027 58 10000 6.7 210 11:21 17.08.2019
3532 Clouds 14 1027 58 10000 6.7 210 10:55 17.08.2019
3533 Clouds 15 1027 58 10000 6.2 200 10:37 17.08.2019
3534 Clouds 15 1026 62 10000 5.7 230 10:18 17.08.2019
3535 Drizzle 15 1026 71 10000 6.7 230 09:43 17.08.2019
3536 Drizzle 14 1026 71 10000 6.7 230 09:25 17.08.2019
3537 Rain 14 1026 51 10000 5.7 230 08:53 17.08.2019
3538 Rain 15 1026 51 10000 5.7 230 08:25 17.08.2019
3539 Clouds 15 1025 51 10000 7.2 190 07:46 17.08.2019
3540 Clouds 15 1025 51 10000 7.2 190 07:21 17.08.2019
3541 Clouds 15 1025 54 10000 6.2 190 06:41 17.08.2019
3542 Drizzle 14 1025 58 10000 6.2 200 05:30 17.08.2019
3543 Clouds 13 1025 62 10000 5.7 190 04:28 17.08.2019
3544 Rain 10 1024 100 10000 2.6 330 02:53 17.08.2019
3545 Rain 8 1022 100 10000 2.6 80 01:40 17.08.2019
3546 Rain 7 1022 100 10000 2.6 80 01:22 17.08.2019
3547 Rain 8 1021 100 10000 2.1 340 00:48 17.08.2019
3548 Rain 8 1021 100 10000 2.1 340 00:26 17.08.2019
3549 Clouds 8 1020 93 10000 2.1 210 23:47 16.08.2019
3550 Clouds 8 1020 93 10000 2.1 210 23:25 16.08.2019
3551 Rain 9 1020 100 10000 2.1 230 22:44 16.08.2019
3552 Rain 9 1020 93 10000 3.6 200 22:20 16.08.2019
3553 Rain 9 1020 93 10000 3.6 200 21:59 16.08.2019
3554 Rain 9 1020 87 10000 4.6 190 21:39 16.08.2019
3555 Rain 9 1019 87 10000 3.1 200 21:19 16.08.2019
3556 Rain 10 1019 93 10000 2.6 250 20:43 16.08.2019
3557 Rain 10 1019 93 10000 2.6 250 20:22 16.08.2019
3558 Rain 9 1019 87 10000 4.6 180 19:59 16.08.2019
3559 Rain 9 1019 87 10000 7.7 170 19:40 16.08.2019
3560 Rain 10 1019 76 10000 9.8 210 19:22 16.08.2019
3561 Rain 11 1018 81 10000 11.3 200 18:42 16.08.2019
3562 Rain 11 1017 71 10000 7.7 240 18:23 16.08.2019
3563 Rain 11 1017 81 10000 6.2 220 17:51 16.08.2019
3564 Rain 11 1017 81 10000 6.2 220 17:33 16.08.2019
3565 Rain 11 1017 81 10000 6.2 220 17:33 16.08.2019
3566 Rain 11 1017 76 10000 9.3 230 16:59 16.08.2019
3567 Rain 11 1016 87 10000 7.7 240 16:41 16.08.2019
3568 Rain 11 1016 81 10000 9.3 250 16:21 16.08.2019
3569 Rain 12 1016 81 10000 9.3 250 15:57 16.08.2019
3570 Rain 12 1015 76 10000 14.9 240 15:38 16.08.2019
3571 Rain 12 1014 81 1800 7.7 260 15:20 16.08.2019
3572 Rain 11 1014 81 1800 7.7 260 14:57 16.08.2019
3573 Rain 11 1015 87 6000 7.2 250 14:38 16.08.2019
3574 Rain 11 1015 93 5000 10.3 240 14:18 16.08.2019
3575 Rain 12 1014 93 7000 10.3 240 13:41 16.08.2019
3576 Rain 12 1014 93 7000 10.3 240 13:22 16.08.2019
3577 Rain 12 1014 93 7000 9.8 240 13:22 16.08.2019
3578 Rain 12 1014 93 7000 9.8 240 12:55 16.08.2019
3579 Rain 12 1013 93 1000 12.3 250 12:37 16.08.2019
3580 Rain 14 1012 93 5000 14.4 290 12:18 16.08.2019
3581 Rain 16 1013 77 10000 9.3 330 11:41 16.08.2019
3582 Rain 16 1013 77 10000 9.3 330 11:23 16.08.2019
3583 Rain 16 1013 77 10000 11.3 330 10:43 16.08.2019
3584 Rain 16 1014 72 10000 12.3 320 10:22 16.08.2019
3585 Rain 16 1014 72 10000 12.3 320 09:55 16.08.2019
3586 Rain 17 1015 72 10000 8.2 330 09:36 16.08.2019
3587 Rain 17 1015 82 10000 5.1 330 09:18 16.08.2019
3588 Rain 17 1015 77 10000 7.7 340 08:39 16.08.2019
3589 Rain 17 1015 77 10000 7.7 340 08:20 16.08.2019
3590 Rain 17 1016 72 10000 8.2 340 07:52 16.08.2019
3591 Rain 17 1016 72 10000 8.2 340 07:29 16.08.2019
3592 Rain 17 1017 63 9000 9.3 350 06:55 16.08.2019
3593 Clouds 16 1019 62 10000 7.2 10 06:19 16.08.2019
3594 Clouds 15 1019 62 10000 7.2 10 05:34 16.08.2019
3595 Clouds 13 1020 71 10000 5.7 10 03:21 16.08.2019
3596 Clouds 11 1020 76 10000 4.1 10 01:54 16.08.2019
3597 Clouds 10 1020 76 10000 4.6 10 01:28 16.08.2019
3598 Clouds 10 1020 87 10000 3.6 10 00:55 16.08.2019
3599 Clouds 10 1020 87 10000 3.6 10 00:55 16.08.2019
3600 Clear 10 1020 87 10000 3.6 20 00:36 16.08.2019
3601 Clear 10 1020 87 10000 3.6 30 00:18 16.08.2019
3602 Clear 10 1020 87 10000 3.1 40 23:42 15.08.2019
3603 Clear 10 1020 87 10000 3.1 40 23:19 15.08.2019
3604 Clouds 9 1020 87 10000 2.6 30 22:55 15.08.2019
3605 Clouds 9 1021 87 10000 2.6 20 22:36 15.08.2019
3606 Clear 9 1021 87 10000 3.1 30 22:18 15.08.2019
3607 Clouds 9 1021 87 10000 3.1 30 21:40 15.08.2019
3608 Clouds 9 1021 87 10000 3.1 30 21:20 15.08.2019
3609 Clouds 9 1021 93 10000 3.1 20 20:59 15.08.2019
3610 Clouds 9 1022 93 10000 2.6 10 20:40 15.08.2019
3611 -273 0 0 0 0 0 20:21 15.08.2019
3612 Clear 9 1022 93 10000 3.1 30 19:54 15.08.2019
3613 Clouds 9 1022 93 10000 3.6 20 19:36 15.08.2019
3614 Clouds 9 1022 93 10000 3.1 10 19:18 15.08.2019
3615 Clouds 9 1022 93 10000 3.1 30 18:41 15.08.2019
3616 Clouds 9 1022 93 10000 3.1 30 18:21 15.08.2019
3617 Clouds 9 1023 93 10000 3.1 10 17:55 15.08.2019
3618 Clouds 9 1023 87 10000 2.6 30 17:37 15.08.2019
3619 Clouds 9 1023 93 10000 2.6 30 17:19 15.08.2019
3620 Clouds 9 1023 87 10000 2.1 30 16:47 15.08.2019
3621 Clouds 9 1023 87 10000 2.1 30 16:25 15.08.2019
3622 Clouds 10 1023 93 10000 2.6 40 15:56 15.08.2019
3623 Clear 10 1024 87 10000 2.1 40 15:38 15.08.2019
3624 Clear 10 1023 87 10000 2.6 60 15:18 15.08.2019
3625 Clear 11 1023 81 10000 2.1 80 14:42 15.08.2019
3626 Clear 11 1023 81 10000 2.1 80 14:23 15.08.2019
3627 Clear 12 1023 76 10000 2.1 280 13:57 15.08.2019
3628 Clouds 12 1023 71 10000 2.1 280 13:39 15.08.2019
3629 Clouds 12 1023 71 10000 2.1 280 13:20 15.08.2019
3630 Clouds 13 1023 62 10000 3.1 260 12:56 15.08.2019
3631 Clear 14 1023 54 10000 4.1 250 12:37 15.08.2019
3632 Clear 15 1023 54 10000 4.1 250 12:18 15.08.2019
3633 Clear 15 1022 51 10000 5.1 260 11:40 15.08.2019
3634 Clear 16 1022 48 10000 5.7 270 11:21 15.08.2019
3635 Clear 16 1022 48 10000 5.7 270 10:59 15.08.2019
3636 Clear 17 1022 42 10000 3.6 260 10:38 15.08.2019
3637 Clear 17 1022 42 10000 3.6 260 10:38 15.08.2019
3638 Clear 17 1022 42 10000 3.6 260 10:20 15.08.2019
3639 Clear 17 1022 39 10000 3.6 220 09:45 15.08.2019
3640 Clear 17 1022 39 10000 3.6 220 09:24 15.08.2019
3641 Clouds 17 1022 45 10000 4.6 210 08:56 15.08.2019
3642 Clouds 17 1022 45 10000 4.1 200 08:36 15.08.2019
3643 Clouds 17 1023 39 10000 3.1 190 08:18 15.08.2019
3644 Clouds 17 1023 45 10000 2.6 180 07:42 15.08.2019
3645 Clouds 17 1023 45 10000 2.6 180 07:23 15.08.2019
3646 Clouds 17 1023 45 10000 2.6 180 07:23 15.08.2019
3647 Clouds 16 1024 48 10000 3.6 200 06:53 15.08.2019
3648 Clouds 17 1024 48 10000 3.6 200 06:32 15.08.2019
3649 Clouds 15 1024 54 10000 2.1 80 05:44 15.08.2019
3650 Clouds 15 1024 54 10000 2.1 80 05:25 15.08.2019
3651 Clear 15 1024 67 10000 1.5 30 04:32 15.08.2019
3652 Clear 12 1024 81 10000 2.1 320 03:37 15.08.2019
3653 Rain 9 1023 100 10000 2.1 30 02:37 15.08.2019
3654 Fog 6 1023 100 4700 0.5 80 01:50 15.08.2019
3655 Fog 6 1023 100 4700 0.5 80 01:27 15.08.2019
3656 Fog 6 1022 100 10000 1.5 50 00:39 15.08.2019
3657 Fog 6 1022 93 10000 1.5 20 00:20 15.08.2019
3658 Fog 7 1022 93 10000 1.5 20 23:57 14.08.2019
3659 Fog 7 1022 93 10000 1.5 30 23:37 14.08.2019
3660 Clouds 7 1021 100 7000 1.5 10 23:19 14.08.2019
3661 Mist 8 1021 100 5000 2.1 130 22:42 14.08.2019
3662 Mist 8 1021 100 5000 2.1 130 22:23 14.08.2019
3663 Mist 8 1021 93 4000 2.1 190 21:58 14.08.2019
3664 Fog 8 1021 100 10000 2.1 250 21:40 14.08.2019
3665 Fog 8 1021 100 10000 2.1 250 21:21 14.08.2019
3666 Fog 8 1020 93 10000 1 140 20:59 14.08.2019
3667 Fog 9 1020 93 10000 1.5 0 20:41 14.08.2019
3668 Fog 9 1021 93 6000 2.1 150 20:20 14.08.2019
3669 Clouds 9 1020 93 10000 3.6 180 19:55 14.08.2019
3670 Clouds 9 1020 93 10000 3.6 180 19:37 14.08.2019
3671 Clouds 9 1020 93 10000 3.6 180 19:37 14.08.2019
3672 Clouds 9 1020 93 10000 3.6 180 19:37 14.08.2019
3673 Clouds 9 1020 93 10000 4.1 160 19:18 14.08.2019
3674 Clouds 9 1020 93 10000 4.1 160 18:56 14.08.2019
3675 Clouds 9 1020 93 10000 4.1 160 18:37 14.08.2019
3676 Clouds 10 1019 93 10000 4.1 160 18:18 14.08.2019
3677 Clouds 10 1019 93 10000 4.1 160 17:54 14.08.2019
3678 Clear 9 1019 93 10000 4.6 190 17:36 14.08.2019
3679 Clear 10 1019 93 10000 3.6 210 17:18 14.08.2019
3680 Clear 10 1019 93 10000 3.1 210 16:39 14.08.2019
3681 Clear 10 1018 87 10000 3.6 190 16:20 14.08.2019
3682 Clear 10 1018 87 10000 3.6 190 16:20 14.08.2019
3683 Clear 11 1018 87 10000 4.1 180 15:44 14.08.2019
3684 Clear 11 1018 87 10000 4.1 180 15:20 14.08.2019
3685 Rain 11 1018 93 10000 3.1 200 14:58 14.08.2019
3686 Rain 11 1017 87 10000 3.1 240 14:39 14.08.2019
3687 Rain 12 1016 87 10000 3.1 220 14:19 14.08.2019
3688 Rain 12 1016 81 7000 3.6 210 13:44 14.08.2019
3689 Rain 12 1016 81 7000 3.6 210 13:44 14.08.2019
3690 Rain 12 1016 81 7000 3.6 210 13:25 14.08.2019
3691 Rain 12 1016 76 10000 3.6 240 12:59 14.08.2019
3692 Clouds 12 1015 76 10000 4.6 210 12:40 14.08.2019
3693 Clouds 13 1014 76 10000 4.1 210 12:22 14.08.2019
3694 Clouds 13 1014 76 10000 4.1 210 11:57 14.08.2019
3695 Rain 13 1014 76 10000 6.7 200 11:38 14.08.2019
3696 Rain 13 1013 82 10000 6.2 190 11:20 14.08.2019
3697 Rain 14 1013 82 10000 8.2 210 10:45 14.08.2019
3698 Rain 14 1013 82 10000 8.2 210 10:24 14.08.2019
3699 Rain 14 1013 82 10000 8.7 230 09:57 14.08.2019
3700 Rain 15 1012 77 9000 8.2 240 09:38 14.08.2019
3701 Rain 15 1012 87 10000 8.2 230 09:19 14.08.2019
3702 Rain 15 1012 72 10000 6.7 270 08:40 14.08.2019
3703 Rain 15 1012 87 6000 8.2 250 08:21 14.08.2019
3704 Rain 15 1012 87 5000 9.8 270 07:51 14.08.2019
3705 Rain 15 1012 87 5000 9.8 270 07:32 14.08.2019
3706 Rain 17 1012 72 10000 2.1 290 06:46 14.08.2019
3707 Rain 17 1012 72 10000 3.1 260 05:54 14.08.2019
3708 Rain 17 1013 77 10000 2.1 240 05:25 14.08.2019
3709 Rain 15 1013 87 10000 2.6 30 03:38 14.08.2019
3710 Rain 13 1013 100 10000 1.5 50 02:34 14.08.2019
3711 Rain 13 1013 100 10000 2.1 190 01:49 14.08.2019
3712 Rain 13 1013 100 4500 2.6 360 01:18 14.08.2019
3713 Rain 12 1012 100 5000 3.6 70 23:51 13.08.2019
3714 Rain 12 1013 100 10000 6.25 313.549 23:27 13.08.2019
3715 Rain 12 1012 93 3000 3.6 40 23:00 13.08.2019
3716 Rain 12 1013 93 6000 3.6 20 22:40 13.08.2019
3717 Rain 12 1013 93 6000 3.6 20 22:40 13.08.2019
3718 Rain 12 1013 93 10000 3.6 70 22:21 13.08.2019
3719 Rain 12 1013 93 10000 3.6 70 21:58 13.08.2019
3720 Rain 12 1013 93 10000 2.1 50 21:38 13.08.2019
3721 Rain 12 1013 93 10000 2.1 50 21:19 13.08.2019
3722 Clear 12 1013 87 10000 2.1 40 20:56 13.08.2019
3723 Clear 13 1014 93 10000 2.6 60 20:37 13.08.2019
3724 Clouds 12 1014 93 10000 3.1 50 20:18 13.08.2019
3725 Clouds 12 1014 93 10000 2.1 50 19:43 13.08.2019
3726 Clouds 12 1015 87 10000 2.6 60 19:22 13.08.2019
3727 Clouds 12 1015 87 10000 2.6 60 18:57 13.08.2019
3728 Clear 12 1015 93 10000 2.6 50 18:38 13.08.2019
3729 Clear 12 1015 93 10000 2.6 50 18:19 13.08.2019
3730 Clear 12 1015 93 10000 3.1 60 17:42 13.08.2019
3731 Clear 13 1015 93 10000 3.1 60 17:21 13.08.2019
3732 Clear 13 1016 93 10000 3.1 70 16:57 13.08.2019
3733 Clear 13 1016 93 10000 3.1 70 16:57 13.08.2019
3734 Clear 13 1016 87 10000 3.1 70 16:38 13.08.2019
3735 Clouds 13 1016 93 10000 0.5 50 16:20 13.08.2019
3736 Clouds 14 1016 87 10000 3.86 272.956 15:40 13.08.2019
3737 Clouds 14 1016 87 10000 1 270 15:21 13.08.2019
3738 Clouds 14 1016 87 10000 1 270 14:59 13.08.2019
3739 Clouds 14 1016 87 10000 1.5 300 14:40 13.08.2019
3740 Clouds 15 1016 76 10000 2.1 270 14:19 13.08.2019
3741 Rain 16 1016 72 10000 3.1 230 13:42 13.08.2019
3742 Rain 16 1016 72 10000 3.1 230 13:23 13.08.2019
3743 Rain 16 1016 67 10000 4.1 250 12:59 13.08.2019
3744 Rain 16 1016 67 10000 4.1 250 12:41 13.08.2019
3745 Rain 17 1015 67 10000 5.1 250 12:22 13.08.2019
3746 Rain 17 1016 67 10000 4.1 250 12:22 13.08.2019
3747 Rain 17 1015 67 10000 5.1 250 11:59 13.08.2019
3748 Rain 17 1015 63 10000 5.1 250 11:38 13.08.2019
3749 Clouds 18 1015 68 10000 6.2 250 11:20 13.08.2019
3750 Clouds 18 1015 68 10000 6.2 250 10:56 13.08.2019
3751 Rain 19 1015 68 10000 5.7 240 10:37 13.08.2019
3752 Clouds 18 1015 59 10000 6.2 240 10:18 13.08.2019
3753 Rain 19 1015 63 10000 7.2 250 09:43 13.08.2019
3754 Rain 19 1015 63 10000 7.2 250 09:23 13.08.2019
3755 Clouds 19 1014 64 10000 6.2 270 08:44 13.08.2019
3756 Clouds 19 1014 64 10000 6.2 270 08:23 13.08.2019
3757 Clouds 19 1014 63 10000 6.2 280 07:57 13.08.2019
3758 Clouds 19 1014 63 10000 6.2 290 07:34 13.08.2019
3759 Rain 19 1015 72 10000 3.1 270 06:56 13.08.2019
3760 Rain 19 1015 72 10000 6.7 290 06:36 13.08.2019
3761 Rain 18 1015 72 10000 5.1 250 05:35 13.08.2019
3762 Rain 16 1015 100 10000 6.2 270 02:52 13.08.2019
3763 Rain 15 1015 93 8000 3.1 360 02:19 13.08.2019
3764 Rain 14 1015 100 5000 4.1 350 00:59 13.08.2019
3765 Rain 15 1014 100 5000 4.6 10 00:40 13.08.2019
3766 Rain 14 1014 93 9000 4.6 30 23:56 12.08.2019
3767 Rain 14 1014 100 10000 4.6 50 23:36 12.08.2019
3768 Rain 14 1015 93 10000 2.6 20 23:18 12.08.2019
3769 Rain 14 1015 100 6000 4.1 360 22:40 12.08.2019
3770 Rain 14 1015 100 5000 3.6 350 22:19 12.08.2019
3771 Rain 14 1015 100 5000 3.6 350 21:55 12.08.2019
3772 Clouds 13 1015 93 10000 2.6 40 21:37 12.08.2019
3773 Clear 13 1015 93 10000 3.1 30 21:18 12.08.2019
3774 Clear 13 1015 93 10000 3.1 30 20:56 12.08.2019
3775 Clear 13 1015 93 10000 3.1 30 20:56 12.08.2019
3776 Clear 13 1015 93 10000 3.1 30 20:56 12.08.2019
3777 Clouds 12 1015 87 10000 3.6 50 20:36 12.08.2019
3778 Clouds 12 1016 87 10000 2.1 40 20:18 12.08.2019
3779 Clouds 13 1016 87 10000 2.1 40 19:55 12.08.2019
3780 Clouds 13 1016 81 10000 2.6 30 19:36 12.08.2019
3781 Clouds 13 1016 81 10000 3.1 60 19:18 12.08.2019
3782 Clouds 13 1016 76 10000 3.1 30 18:54 12.08.2019
3783 Clouds 13 1016 76 10000 3.1 30 18:36 12.08.2019
3784 Clouds 13 1016 76 10000 2.1 50 18:18 12.08.2019
3785 Clouds 14 1017 76 10000 2.6 40 17:40 12.08.2019
3786 Clouds 13 1017 76 10000 2.6 40 17:21 12.08.2019
3787 Clouds 13 1017 76 10000 2.6 30 16:56 12.08.2019
3788 Clouds 13 1017 76 10000 2.6 30 16:56 12.08.2019
3789 Clear 13 1017 71 10000 2.6 40 16:37 12.08.2019
3790 Clear 14 1017 76 10000 2.6 20 16:19 12.08.2019
3791 Clear 15 1017 76 10000 2.6 20 15:54 12.08.2019
3792 Clear 15 1017 76 10000 2.1 30 15:36 12.08.2019
3793 Clear 15 1017 76 10000 2.6 40 15:18 12.08.2019
3794 Clear 16 1017 62 10000 4.77 326.437 14:42 12.08.2019
3795 Clear 17 1017 54 10000 2.6 30 14:23 12.08.2019
3796 Clear 17 1017 55 10000 2.6 310 13:58 12.08.2019
3797 Clear 17 1017 55 10000 2.6 310 13:58 12.08.2019
3798 Clear 18 1017 45 10000 2.6 320 13:40 12.08.2019
3799 Clear 19 1017 45 10000 5.1 340 13:21 12.08.2019
3800 Clear 20 1017 39 10000 3.1 60 12:43 12.08.2019
3801 Clouds 21 1017 32 10000 3.1 60 12:21 12.08.2019
3802 Clear 22 1017 31 10000 4.1 30 11:45 12.08.2019
3803 Clear 22 1017 31 10000 4.1 30 11:44 12.08.2019
3804 Clear 23 1017 31 10000 4.1 30 11:26 12.08.2019
3805 Clear 23 1017 29 10000 5.1 20 10:56 12.08.2019
3806 Clear 23 1017 29 10000 5.1 20 10:56 12.08.2019
3807 Clear 23 1017 27 10000 6.2 30 10:37 12.08.2019
3808 Clear 24 1017 27 10000 6.2 30 10:19 12.08.2019
3809 Clear 24 1017 27 10000 6.7 30 09:42 12.08.2019
3810 Clear 25 1017 27 10000 6.7 30 09:21 12.08.2019
3811 Clear 24 1018 27 10000 7.7 20 08:59 12.08.2019
3812 Clear 24 1018 27 10000 7.7 20 08:58 12.08.2019
3813 Clear 24 1018 29 10000 6.2 20 08:39 12.08.2019
3814 Clear 24 1018 31 10000 6.2 30 08:21 12.08.2019
3815 Clear 24 1018 31 10000 6.2 30 07:53 12.08.2019
3816 Clear 24 1019 33 10000 7.2 20 07:33 12.08.2019
3817 Clear 24 1020 35 10000 8.2 30 06:52 12.08.2019
3818 Clear 22 1021 35 10000 6.7 20 05:41 12.08.2019
3819 Clear 15 1022 54 10000 6.2 70 02:45 12.08.2019
3820 Clear 13 1022 62 10000 6.7 70 01:55 12.08.2019
3821 Clear 13 1021 62 10000 5.7 70 01:22 12.08.2019
3822 Clear 13 1021 62 10000 5.7 70 00:58 12.08.2019
3823 Clear 13 1021 62 10000 5.1 70 00:39 12.08.2019
3824 Clear 13 1021 62 10000 6.2 60 00:20 12.08.2019
3825 Clear 13 1021 62 10000 6.2 60 23:56 11.08.2019
3826 Clear 13 1021 62 10000 4.6 60 23:37 11.08.2019
3827 Clear 13 1021 58 10000 5.1 60 23:18 11.08.2019
3828 Clear 13 1021 58 10000 6.7 60 22:40 11.08.2019
3829 Clear 13 1021 58 10000 6.7 60 22:20 11.08.2019
3830 Clear 13 1021 58 10000 6.7 60 22:20 11.08.2019
3831 Clear 13 1021 58 10000 7.7 60 21:59 11.08.2019
3832 Clear 14 1021 54 10000 8.2 70 21:41 11.08.2019
3833 Clear 14 1021 54 10000 7.7 60 21:22 11.08.2019
3834 Clear 14 1021 54 10000 7.7 60 20:57 11.08.2019
3835 Clear 14 1021 54 10000 8.2 60 20:39 11.08.2019
3836 Clear 14 1022 58 10000 8.7 70 20:20 11.08.2019
3837 Clear 14 1022 58 10000 7.7 70 19:44 11.08.2019
3838 Clear 14 1022 58 10000 7.7 70 19:19 11.08.2019
3839 Clear 15 1022 54 10000 8.7 80 18:42 11.08.2019
3840 Clear 15 1022 54 10000 8.7 80 18:23 11.08.2019
3841 Clear 15 1022 54 10000 9.3 80 17:59 11.08.2019
3842 Clear 15 1022 54 10000 8.7 80 17:41 11.08.2019
3843 Clear 15 1022 55 10000 9.3 80 17:20 11.08.2019
3844 Clear 15 1022 55 10000 9.3 80 16:56 11.08.2019
3845 Clear 16 1023 55 10000 8.2 80 16:38 11.08.2019
3846 Clear 16 1023 55 10000 5.1 50 16:19 11.08.2019
3847 Clear 16 1023 55 10000 6.7 90 15:44 11.08.2019
3848 Clear 16 1023 55 10000 6.7 90 15:24 11.08.2019
3849 Clear 16 1022 51 10000 6.7 90 14:59 11.08.2019
3850 Clear 16 1022 55 10000 6.2 90 14:39 11.08.2019
3851 Clear 17 1022 55 10000 5.1 90 14:20 11.08.2019
3852 Clear 17 1022 59 10000 4.1 80 13:44 11.08.2019
3853 Clear 17 1022 59 10000 4.1 80 13:25 11.08.2019
3854 Clear 17 1022 59 10000 4.1 80 13:25 11.08.2019
3855 Clear 18 1022 55 10000 3.6 90 12:56 11.08.2019
3856 Clear 18 1021 59 10000 4.1 90 12:36 11.08.2019
3857 Clear 19 1021 48 10000 3.6 90 12:18 11.08.2019
3858 Clear 21 1021 43 10000 5.7 70 11:39 11.08.2019
3859 Clear 21 1021 40 10000 4.6 80 11:20 11.08.2019
3860 Clear 22 1021 40 10000 4.6 80 10:55 11.08.2019
3861 Clear 22 1021 40 10000 5.1 80 10:37 11.08.2019
3862 Clear 22 1021 37 10000 5.1 60 10:18 11.08.2019
3863 Clear 22 1021 40 10000 4.6 70 09:40 11.08.2019
3864 Clear 22 1021 40 10000 4.6 70 09:22 11.08.2019
3865 Clear 22 1022 43 10000 5.7 80 08:48 11.08.2019
3866 Clear 22 1022 43 10000 5.7 80 08:29 11.08.2019
3867 -273 0 0 0 0 0 07:56 11.08.2019
3868 Clear 22 1022 46 10000 4.6 80 07:27 11.08.2019
3869 Clear 21 1024 42 10000 5.7 50 06:45 11.08.2019
3870 Clear 20 1024 45 10000 6.7 20 06:21 11.08.2019
3871 Clear 18 1025 51 10000 5.1 70 04:37 11.08.2019
3872 Clear 14 1024 62 10000 8.2 60 02:49 11.08.2019
3873 Clear 12 1025 66 10000 5.1 70 01:51 11.08.2019
3874 Clear 11 1025 76 10000 7.2 60 01:20 11.08.2019
3875 Clear 11 1025 76 10000 7.2 60 00:53 11.08.2019
3876 Clear 12 1025 71 10000 8.7 70 00:33 11.08.2019
3877 Clear 12 1024 71 10000 9.8 70 23:47 10.08.2019
3878 Clear 12 1024 71 10000 9.8 70 23:28 10.08.2019
3879 Clear 12 1025 71 10000 9.8 70 22:44 10.08.2019
3880 Clear 12 1025 71 10000 9.8 70 22:44 10.08.2019
3881 Clear 12 1025 71 10000 9.8 70 22:26 10.08.2019
3882 Clear 12 1025 71 10000 8.2 60 21:58 10.08.2019
3883 Clear 12 1025 62 10000 7.7 70 21:39 10.08.2019
3884 Clear 12 1025 62 10000 7.7 70 21:20 10.08.2019
3885 Clear 12 1025 71 10000 8.2 50 20:56 10.08.2019
3886 Clear 12 1025 71 10000 9.3 70 20:37 10.08.2019
3887 Clear 12 1025 71 10000 9.8 80 20:18 10.08.2019
3888 Clear 12 1025 71 10000 8.7 70 19:39 10.08.2019
3889 Clear 12 1025 71 10000 8.2 70 19:21 10.08.2019
3890 Clear 13 1025 76 10000 6.7 60 18:41 10.08.2019
3891 Clear 13 1025 76 10000 4.6 50 18:23 10.08.2019
3892 Clear 13 1026 71 10000 5.7 90 17:46 10.08.2019
3893 Clear 13 1026 71 10000 5.7 90 17:25 10.08.2019
3894 Clear 13 1026 71 10000 6.7 80 16:48 10.08.2019
3895 Clear 13 1026 71 10000 6.7 80 16:29 10.08.2019
3896 Clear 14 1026 71 10000 4.6 90 15:59 10.08.2019
3897 Clear 13 1026 71 10000 4.6 70 15:40 10.08.2019
3898 Clear 13 1026 71 10000 4.6 70 15:21 10.08.2019
3899 Clear 14 1026 71 10000 6.2 90 14:43 10.08.2019
3900 Clear 14 1026 71 10000 3.6 100 14:19 10.08.2019
3901 Clear 14 1026 71 10000 4.6 100 13:40 10.08.2019
3902 Clear 14 1026 71 10000 4.1 100 13:19 10.08.2019
3903 Clear 15 1026 67 10000 3.1 110 12:42 10.08.2019
3904 Clouds 15 1026 63 10000 5.7 120 12:23 10.08.2019
3905 Clouds 16 1026 63 10000 5.7 120 11:57 10.08.2019
3906 Clouds 17 1026 59 10000 5.1 110 11:39 10.08.2019
3907 Clouds 18 1026 55 10000 5.7 110 11:20 10.08.2019
3908 Clouds 18 1027 59 10000 5.7 100 10:39 10.08.2019
3909 Clouds 18 1027 59 10000 5.7 100 10:20 10.08.2019
3910 Clouds 19 1026 55 10000 4.1 50 09:59 10.08.2019
3911 Clouds 19 1027 55 10000 4.6 40 09:38 10.08.2019
3912 Clouds 18 1027 55 10000 5.7 120 09:20 10.08.2019
3913 Clouds 19 1027 59 10000 5.7 110 08:38 10.08.2019
3914 Clouds 18 1027 59 10000 6.2 100 08:19 10.08.2019
3915 Clouds 18 1028 63 10000 5.7 60 07:51 10.08.2019
3916 Clouds 18 1028 63 10000 5.7 60 07:27 10.08.2019
3917 Clouds 17 1029 63 10000 6.2 50 06:48 10.08.2019
3918 Clouds 17 1029 63 10000 6.2 70 06:21 10.08.2019
3919 Clouds 16 1030 72 10000 6.2 100 05:24 10.08.2019
3920 Clouds 15 1030 82 10000 6.7 80 04:21 10.08.2019
3921 Clouds 10 1030 93 10000 5.1 90 02:53 10.08.2019
3922 Clouds 9 1030 93 10000 5.7 80 01:57 10.08.2019
3923 Clouds 8 1030 93 10000 7.2 70 01:38 10.08.2019
3924 Clouds 8 1029 87 10000 4.6 70 01:19 10.08.2019
3925 Clear 8 1028 87 10000 3.6 70 00:43 10.08.2019
3926 Clear 7 1028 93 10000 2.1 30 00:21 10.08.2019
3927 Clear 8 1028 93 10000 5.69 92.136 23:42 09.08.2019
3928 Clear 7 1029 100 10000 5.69 92.136 23:22 09.08.2019
3929 Clear 7 1029 100 10000 5.69 92.136 22:56 09.08.2019
3930 Clear 7 1028 100 4800 5.69 92.136 22:38 09.08.2019
3931 Clear 8 1029 100 10000 2.6 130 22:19 09.08.2019
3932 Clear 8 1029 100 10000 3.1 150 21:41 09.08.2019
3933 Clear 7 1029 100 10000 3.1 150 21:22 09.08.2019
3934 Clear 7 1029 100 10000 1.5 140 20:58 09.08.2019
3935 Clear 7 1029 93 10000 0.5 30 20:39 09.08.2019
3936 Clear 8 1029 87 10000 2.1 340 20:20 09.08.2019
3937 Clear 8 1029 100 10000 3.1 120 19:45 09.08.2019
3938 Clear 8 1029 93 10000 1.5 360 19:23 09.08.2019
3939 Clear 8 1029 93 10000 1.5 360 18:59 09.08.2019
3940 Clear 8 1029 100 10000 1.5 350 18:39 09.08.2019
3941 Clear 9 1029 93 10000 2.6 50 18:21 09.08.2019
3942 Clear 8 1029 100 10000 1.5 350 18:21 09.08.2019
3943 Clear 9 1030 93 10000 2.1 50 17:45 09.08.2019
3944 Clear 9 1030 93 10000 2.1 50 17:25 09.08.2019
3945 Clear 10 1030 93 10000 2.6 50 16:58 09.08.2019
3946 Clouds 10 1030 87 10000 2.6 50 16:38 09.08.2019
3947 Clouds 10 1030 87 10000 2.6 50 16:20 09.08.2019
3948 Clouds 11 1030 87 10000 3.1 50 15:55 09.08.2019
3949 Clouds 11 1030 87 10000 3.6 70 15:36 09.08.2019
3950 Clouds 11 1029 87 10000 3.1 80 15:18 09.08.2019
3951 Clouds 12 1029 81 10000 3.1 80 14:42 09.08.2019
3952 -273 0 0 0 0 0 14:21 09.08.2019
3953 Clear 13 1029 87 10000 2.6 180 13:55 09.08.2019
3954 Clouds 13 1029 87 10000 3.6 180 13:37 09.08.2019
3955 Clear 13 1029 87 10000 3.6 190 13:18 09.08.2019
3956 Clouds 14 1028 72 10000 4.1 210 12:41 09.08.2019
3957 Clouds 14 1028 72 10000 4.1 210 12:22 09.08.2019
3958 Clouds 15 1028 67 10000 4.1 170 11:42 09.08.2019
3959 Clouds 16 1028 67 10000 4.1 170 11:21 09.08.2019
3960 Clouds 17 1028 59 10000 3.1 210 10:57 09.08.2019
3961 Clouds 17 1027 63 10000 3.6 200 10:38 09.08.2019
3962 Clouds 17 1027 63 10000 3.6 200 10:38 09.08.2019
3963 Clouds 17 1027 63 10000 3.6 200 10:20 09.08.2019
3964 Clouds 17 1027 59 10000 3.1 190 09:41 09.08.2019
3965 Clouds 17 1028 59 10000 1.5 10 09:19 09.08.2019
3966 Clouds 17 1028 63 10000 2.24 209.913 08:45 09.08.2019
3967 Clouds 17 1028 63 10000 2.24 209.913 08:25 09.08.2019
3968 Clouds 17 1028 63 10000 1.5 160 07:58 09.08.2019
3969 Clouds 17 1028 67 10000 2.6 80 07:40 09.08.2019
3970 Clouds 17 1028 67 10000 2.6 80 07:40 09.08.2019
3971 Clouds 17 1029 67 10000 2.6 90 07:20 09.08.2019
3972 Clouds 16 1029 72 10000 3.6 360 06:44 09.08.2019
3973 Clouds 16 1030 71 10000 4.1 90 06:21 09.08.2019
3974 Clouds 14 1030 76 10000 4.1 110 05:31 09.08.2019
3975 Rain 9 1030 100 10000 3.99 90.388 02:28 09.08.2019
3976 Fog 7 1029 100 10000 1.5 170 01:24 09.08.2019
3977 Clear 7 1028 100 1400 2.1 150 00:42 09.08.2019
3978 Clouds 7 1028 100 10000 4.51 124.677 00:23 09.08.2019
3979 Clouds 7 1028 100 10000 4.51 124.677 23:57 08.08.2019
3980 Fog 6 1028 100 3000 2.1 30 23:37 08.08.2019
3981 Clear 7 1028 100 450 4.51 124.677 23:18 08.08.2019
3982 Clear 7 1028 100 450 4.51 124.677 22:54 08.08.2019
3983 Clear 7 1028 100 800 4.51 124.677 22:36 08.08.2019
3984 Fog 7 1028 93 200 1.5 270 22:18 08.08.2019
3985 Fog 7 1028 93 1500 4.51 124.677 21:42 08.08.2019
3986 Fog 7 1028 100 600 0.5 210 21:23 08.08.2019
3987 Fog 7 1028 100 600 0.5 210 20:57 08.08.2019
3988 Fog 7 1028 100 10000 6.08 149.07 20:39 08.08.2019
3989 Fog 7 1028 93 10000 0.5 360 20:19 08.08.2019
3990 Clouds 8 1028 100 10000 0.5 50 19:48 08.08.2019
3991 Clouds 8 1028 100 10000 0.5 50 19:28 08.08.2019
3992 Rain 8 1028 100 3600 1.5 40 18:54 08.08.2019
3993 Fog 9 1028 93 10000 2.1 10 18:36 08.08.2019
3994 Mist 9 1028 100 10000 1.5 0 18:18 08.08.2019
3995 Clouds 9 1028 93 10000 2.6 20 17:41 08.08.2019
3996 Clouds 9 1028 93 10000 2.6 20 17:23 08.08.2019
3997 Clouds 9 1028 93 10000 2.6 20 17:23 08.08.2019
3998 Mist 9 1028 100 10000 1.5 0 16:56 08.08.2019
3999 Fog 9 1028 100 4900 6.09 151.967 16:37 08.08.2019
4000 Fog 10 1028 100 4900 6.09 151.967 16:19 08.08.2019
4001 Fog 10 1027 100 10000 1.5 0 15:56 08.08.2019
4002 Clouds 11 1027 93 10000 1 30 15:36 08.08.2019
4003 Clouds 11 1027 93 10000 2.6 100 15:18 08.08.2019
4004 Clouds 12 1027 87 10000 3.1 190 14:37 08.08.2019
4005 Clouds 12 1027 100 7000 2.6 240 14:18 08.08.2019
4006 Rain 13 1027 100 5000 2.1 260 13:40 08.08.2019
4007 Rain 13 1027 87 10000 2.6 190 13:22 08.08.2019
4008 Clouds 14 1027 87 10000 3.1 240 12:43 08.08.2019
4009 Clouds 14 1027 87 10000 3.1 240 12:23 08.08.2019
4010 Clouds 14 1027 93 10000 1.5 80 11:59 08.08.2019
4011 Rain 15 1027 93 10000 2.1 100 11:39 08.08.2019
4012 Clouds 15 1027 87 10000 2.6 130 11:21 08.08.2019
4013 Rain 15 1026 82 10000 5.1 200 10:41 08.08.2019
4014 Rain 15 1026 77 10000 3.6 260 10:22 08.08.2019
4015 Rain 15 1026 77 10000 3.6 260 09:53 08.08.2019
4016 Rain 15 1027 93 10000 5.7 170 09:31 08.08.2019
4017 Rain 16 1026 87 10000 2.6 290 08:59 08.08.2019
4018 Rain 16 1027 72 10000 2.6 320 08:39 08.08.2019
4019 Rain 15 1027 72 10000 1.5 330 08:19 08.08.2019
4020 Rain 15 1027 87 5000 2.6 340 07:41 08.08.2019
4021 Rain 16 1027 67 10000 2.6 210 07:20 08.08.2019
4022 Rain 15 1028 67 10000 1.5 150 06:49 08.08.2019
4023 Drizzle 15 1028 67 10000 1.5 150 06:30 08.08.2019
4024 Clouds 15 1028 67 10000 2.1 80 05:53 08.08.2019
4025 Clouds 15 1029 67 10000 2.6 20 05:18 08.08.2019
4026 Clouds 12 1028 71 10000 3.6 10 03:53 08.08.2019
4027 Clouds 10 1028 87 10000 2.6 30 02:30 08.08.2019
4028 Clouds 8 1027 93 10000 3.1 30 01:37 08.08.2019
4029 Rain 8 1027 100 10000 2.1 10 00:26 08.08.2019
4030 Clouds 7 1027 100 10000 1.22 35.74 23:51 07.08.2019
4031 Clouds 7 1027 100 10000 1.22 35.74 23:20 07.08.2019
4032 Clouds 7 1027 100 10000 2.1 10 22:56 07.08.2019
4033 Clouds 7 1027 93 10000 2.1 320 22:38 07.08.2019
4034 Clouds 7 1027 93 10000 2.1 320 22:19 07.08.2019
4035 Clouds 7 1027 93 10000 1.5 320 21:56 07.08.2019
4036 Clouds 7 1027 93 10000 2.1 60 21:37 07.08.2019
4037 Clouds 7 1027 93 10000 2.6 80 21:18 07.08.2019
4038 Clouds 7 1027 93 10000 2.1 20 20:42 07.08.2019
4039 Clouds 7 1027 93 10000 2.1 20 20:23 07.08.2019
4040 Clouds 7 1027 100 10000 3.48 141.649 19:57 07.08.2019
4041 Clouds 7 1027 100 10000 2.6 20 19:39 07.08.2019
4042 Clouds 7 1027 93 10000 3.48 141.649 19:21 07.08.2019
4043 Clear 8 1027 93 10000 3.48 141.649 18:43 07.08.2019
4044 Clear 7 1027 93 10000 1.5 10 18:21 07.08.2019
4045 Clear 7 1027 93 10000 1.5 10 17:59 07.08.2019
4046 Clear 8 1027 93 10000 2.1 30 17:40 07.08.2019
4047 Clear 8 1027 93 10000 2.1 30 17:40 07.08.2019
4048 Clear 8 1027 93 10000 1.5 80 17:21 07.08.2019
4049 Clouds 8 1028 93 10000 6.79 190.113 17:21 07.08.2019
4050 Clear 8 1027 93 10000 1.5 80 16:57 07.08.2019
4051 Clear 9 1027 93 10000 1.5 40 16:39 07.08.2019
4052 Clear 9 1027 93 10000 2.1 190 16:20 07.08.2019
4053 Clear 9 1027 93 10000 2.1 190 15:56 07.08.2019
4054 Clear 9 1027 93 10000 2.6 170 15:37 07.08.2019
4055 Clear 9 1027 93 10000 2.6 170 15:19 07.08.2019
4056 Clear 10 1027 81 10000 2.6 190 14:46 07.08.2019
4057 Clear 10 1027 81 10000 2.6 190 14:27 07.08.2019
4058 Clouds 11 1027 76 10000 2.6 200 13:54 07.08.2019
4059 Clouds 12 1027 66 10000 3.6 210 13:36 07.08.2019
4060 Clouds 12 1027 62 10000 4.1 210 13:18 07.08.2019
4061 Clouds 13 1027 62 10000 4.1 210 12:55 07.08.2019
4062 Clouds 13 1026 62 10000 5.7 190 12:36 07.08.2019
4063 Clouds 13 1026 62 10000 5.7 190 12:36 07.08.2019
4064 Clouds 13 1026 58 10000 6.2 180 12:18 07.08.2019
4065 Clouds 14 1026 62 10000 5.1 190 11:42 07.08.2019
4066 Clouds 15 1026 62 10000 5.7 190 11:20 07.08.2019
4067 Clouds 15 1026 62 10000 5.7 190 10:56 07.08.2019
4068 Clouds 15 1026 58 10000 5.1 210 10:38 07.08.2019
4069 Clouds 15 1025 58 10000 5.1 210 10:18 07.08.2019
4070 Clouds 16 1025 58 10000 4.6 210 09:44 07.08.2019
4071 Clouds 15 1025 58 10000 4.6 210 09:22 07.08.2019
4072 Clouds 16 1025 54 10000 5.1 190 08:55 07.08.2019
4073 Clouds 15 1025 58 10000 4.6 210 08:37 07.08.2019
4074 Clouds 15 1026 54 10000 5.1 210 08:19 07.08.2019
4075 Clouds 16 1026 51 10000 5.7 200 07:39 07.08.2019
4076 Clouds 16 1026 54 10000 5.7 190 07:20 07.08.2019
4077 Clouds 16 1026 51 10000 4.6 170 06:29 07.08.2019
4078 Clouds 15 1027 54 10000 3.6 170 05:49 07.08.2019
4079 Clouds 14 1027 58 10000 2.1 170 04:51 07.08.2019
4080 Fog 10 1027 93 10000 2.6 50 03:21 07.08.2019
4081 Rain 8 1027 100 700 1.5 80 02:44 07.08.2019
4082 Rain 6 1027 93 8000 1.5 40 01:58 07.08.2019
4083 Fog 6 1026 100 1500 1.5 160 01:31 07.08.2019
4084 Fog 6 1026 100 4500 7.34 154.084 00:38 07.08.2019
4085 Mist 7 1025 93 10000 3.1 150 00:19 07.08.2019
4086 Clear 7 1025 93 10000 10.7 155.739 23:41 06.08.2019
4087 Clouds 8 1025 100 5000 10.7 155.739 23:21 06.08.2019
4088 Clouds 8 1025 100 5000 10.7 155.739 22:56 06.08.2019
4089 Clouds 8 1024 100 9000 10.7 155.739 22:37 06.08.2019
4090 Drizzle 8 1024 93 10000 2.1 70 22:18 06.08.2019
4091 Rain 9 1024 93 10000 2.6 50 21:40 06.08.2019
4092 Rain 9 1024 93 10000 2.6 50 21:21 06.08.2019
4093 Rain 9 1023 100 6000 2.6 90 20:48 06.08.2019
4094 Rain 9 1023 100 6000 2.6 90 20:29 06.08.2019
4095 Rain 9 1024 93 5000 4.1 180 19:59 06.08.2019
4096 Rain 9 1023 87 10000 2.6 40 19:41 06.08.2019
4097 Clear 9 1023 87 10000 3.6 20 19:22 06.08.2019
4098 Clouds 9 1023 93 10000 2.1 30 18:45 06.08.2019
4099 Clouds 9 1023 93 10000 2.1 30 18:26 06.08.2019
4100 Clouds 9 1023 93 10000 2.1 40 17:58 06.08.2019
4101 Clouds 9 1023 93 10000 1.5 60 17:38 06.08.2019
4102 Clouds 9 1023 93 10000 1.5 60 17:20 06.08.2019
4103 Rain 9 1023 93 10000 1.5 270 16:54 06.08.2019
4104 Clear 9 1023 93 10000 1.5 140 16:36 06.08.2019
4105 Rain 9 1023 87 10000 2.6 180 16:18 06.08.2019
4106 Clear 10 1023 81 10000 3.1 180 15:56 06.08.2019
4107 Clear 10 1023 81 10000 3.1 180 15:56 06.08.2019
4108 Clear 10 1023 81 10000 3.1 180 15:37 06.08.2019
4109 Clear 11 1023 76 10000 4.6 190 15:18 06.08.2019
4110 Clouds 11 1023 76 10000 4.6 180 14:40 06.08.2019
4111 Clouds 11 1023 76 10000 4.6 180 14:22 06.08.2019
4112 Clouds 12 1023 71 10000 4.1 200 13:57 06.08.2019
4113 Clouds 12 1022 66 10000 5.1 210 13:38 06.08.2019
4114 Clouds 13 1022 66 10000 5.1 210 13:19 06.08.2019
4115 Clouds 13 1022 66 10000 6.2 210 12:42 06.08.2019
4116 Clouds 13 1022 66 10000 6.2 210 12:24 06.08.2019
4117 Clouds 14 1021 62 10000 6.2 210 11:59 06.08.2019
4118 Clouds 14 1021 62 10000 6.2 210 11:59 06.08.2019
4119 Clouds 14 1021 58 10000 6.7 200 11:40 06.08.2019
4120 Clouds 15 1021 58 10000 8.2 200 11:18 06.08.2019
4121 Clouds 15 1020 59 10000 7.7 190 10:41 06.08.2019
4122 Clouds 15 1020 59 10000 7.7 190 10:22 06.08.2019
4123 Clouds 16 1020 63 10000 7.2 210 09:47 06.08.2019
4124 Clouds 16 1020 63 10000 7.2 210 09:23 06.08.2019
4125 Clouds 16 1020 63 10000 6.2 200 08:55 06.08.2019
4126 Clouds 16 1020 67 10000 6.7 210 08:36 06.08.2019
4127 Clouds 16 1020 63 10000 7.2 190 08:18 06.08.2019
4128 Rain 16 1020 67 10000 6.7 200 07:31 06.08.2019
4129 Clouds 15 1020 72 10000 4.6 200 06:45 06.08.2019
4130 Clouds 15 1020 72 10000 4.6 200 06:24 06.08.2019
4131 Clouds 15 1020 77 10000 4.6 200 05:46 06.08.2019
4132 Clouds 11 1019 87 10000 2.6 50 02:58 06.08.2019
4133 Fog 9 1018 100 10000 2.6 130 01:26 06.08.2019
4134 Fog 9 1018 100 10000 0.5 250 00:55 06.08.2019
4135 Fog 9 1017 93 10000 2.1 80 00:23 06.08.2019
4136 Rain 9 1016 93 10000 2.1 0 23:21 05.08.2019
4137 Rain 9 1016 93 10000 2.1 0 22:58 05.08.2019
4138 Rain 9 1017 100 10000 2.1 0 22:39 05.08.2019
4139 Fog 9 1017 100 10000 2.1 0 22:20 05.08.2019
4140 Clear 10 1017 93 10000 2.6 30 21:42 05.08.2019
4141 Clear 10 1017 93 10000 2.6 30 21:21 05.08.2019
4142 Fog 11 1017 93 10000 2.1 0 20:57 05.08.2019
4143 Rain 11 1017 93 10000 3.6 50 20:39 05.08.2019
4144 Rain 11 1018 93 5000 2.6 140 20:21 05.08.2019
4145 -273 0 0 0 0 0 19:56 05.08.2019
4146 Rain 12 1018 93 3000 6.7 180 19:37 05.08.2019
4147 Rain 12 1017 100 10000 5.7 170 19:18 05.08.2019
4148 Rain 12 1017 100 10000 4.6 170 18:41 05.08.2019
4149 Rain 12 1017 100 10000 1.5 0 18:20 05.08.2019
4150 Rain 12 1018 100 10000 4.1 210 17:47 05.08.2019
4151 Rain 12 1018 100 10000 4.1 210 17:29 05.08.2019
4152 Rain 12 1017 93 10000 1.5 0 16:58 05.08.2019
4153 Fog 12 1017 93 10000 1.5 0 16:40 05.08.2019
4154 Fog 12 1017 93 10000 1.5 0 16:22 05.08.2019
4155 Rain 12 1017 100 10000 3.1 20 15:40 05.08.2019
4156 Fog 12 1017 93 10000 1.5 0 15:20 05.08.2019
4157 Clear 13 1017 93 10000 3.1 20 14:42 05.08.2019
4158 Clear 13 1017 93 10000 3.1 20 14:21 05.08.2019
4159 Clear 13 1017 93 10000 2.6 50 13:48 05.08.2019
4160 Clear 13 1017 93 10000 2.6 50 13:24 05.08.2019
4161 Rain 13 1017 93 10000 4.1 40 12:50 05.08.2019
4162 Rain 13 1016 93 10000 3.6 70 12:22 05.08.2019
4163 Rain 14 1016 93 10000 3.6 70 11:55 05.08.2019
4164 Rain 14 1016 93 10000 3.6 60 11:37 05.08.2019
4165 Rain 15 1016 100 10000 4.1 70 11:18 05.08.2019
4166 Rain 15 1017 93 6000 3.1 40 10:43 05.08.2019
4167 Rain 15 1017 93 6000 3.1 40 10:25 05.08.2019
4168 Rain 15 1016 93 10000 5.7 10 09:44 05.08.2019
4169 Rain 15 1016 93 10000 5.7 10 09:44 05.08.2019
4170 Rain 15 1016 93 10000 5.7 10 09:26 05.08.2019
4171 Rain 16 1016 87 10000 3.1 150 08:59 05.08.2019
4172 Rain 16 1016 82 10000 5.1 260 08:41 05.08.2019
4173 Rain 16 1016 82 10000 5.1 260 08:41 05.08.2019
4174 Rain 16 1016 82 10000 5.1 260 08:20 05.08.2019
4175 Rain 16 1016 88 10000 4.6 10 07:45 05.08.2019
4176 Rain 16 1016 88 10000 4.6 10 07:26 05.08.2019
4177 Rain 15 1017 100 10000 2.1 190 06:35 05.08.2019
4178 Rain 15 1017 82 8000 4.6 360 05:52 05.08.2019
4179 Rain 17 1018 77 10000 5.1 300 05:19 05.08.2019
4180 Clouds 16 1018 77 10000 4.6 10 04:25 05.08.2019
4181 Rain 14 1018 77 10000 5.1 300 03:30 05.08.2019
4182 Rain 13 1017 93 10000 5.1 300 02:36 05.08.2019
4183 Rain 13 1017 93 10000 5.1 300 01:34 05.08.2019
4184 Clear 13 1017 93 10000 3.6 20 00:42 05.08.2019
4185 Rain 13 1017 93 10000 3.6 30 00:21 05.08.2019
4186 Rain 13 1017 93 10000 3.6 30 23:57 04.08.2019
4187 Rain 13 1017 100 5000 3.1 20 23:39 04.08.2019
4188 Rain 13 1017 93 10000 2.6 10 23:19 04.08.2019
4189 Rain 14 1017 93 10000 2.6 10 22:55 04.08.2019
4190 Rain 14 1017 93 10000 2.6 10 22:55 04.08.2019
4191 Rain 14 1017 93 10000 2.6 10 22:36 04.08.2019
4192 Rain 14 1017 93 10000 2.6 10 22:36 04.08.2019
4193 Rain 14 1017 87 10000 2.6 10 22:18 04.08.2019
4194 Rain 14 1017 87 10000 3.6 20 21:42 04.08.2019
4195 Clouds 14 1017 87 10000 2.6 20 21:20 04.08.2019
4196 Clear 14 1018 87 10000 2.6 10 20:45 04.08.2019
4197 Clear 14 1018 87 10000 2.6 10 20:20 04.08.2019
4198 Clear 14 1018 87 10000 3.1 10 19:58 04.08.2019
4199 Clear 15 1018 82 10000 3.6 30 19:38 04.08.2019
4200 Clear 15 1019 82 10000 3.1 30 19:19 04.08.2019
4201 Clear 15 1019 87 10000 2.6 30 18:42 04.08.2019
4202 Clear 15 1019 93 10000 2.6 30 18:20 04.08.2019
4203 Clear 16 1020 93 10000 2.1 10 17:45 04.08.2019
4204 Clear 16 1020 93 10000 2.1 10 17:25 04.08.2019
4205 Clear 16 1020 87 10000 2.1 30 16:59 04.08.2019
4206 Clear 16 1020 82 10000 5.74 272.228 16:38 04.08.2019
4207 Clear 16 1020 77 10000 2.1 230 16:19 04.08.2019
4208 Clear 16 1021 77 10000 2.1 310 15:42 04.08.2019
4209 Clear 16 1021 77 10000 2.1 310 15:21 04.08.2019
4210 Clouds 17 1021 82 10000 2.1 310 14:45 04.08.2019
4211 Clouds 17 1021 82 10000 2.1 310 14:45 04.08.2019
4212 Clouds 17 1021 82 10000 2.1 310 14:26 04.08.2019
4213 Clouds 17 1020 72 10000 2.6 280 13:47 04.08.2019
4214 Clouds 17 1020 72 10000 2.6 280 13:28 04.08.2019
4215 Clear 17 1020 77 10000 2.1 290 12:59 04.08.2019
4216 Clouds 17 1020 77 10000 2.6 280 12:40 04.08.2019
4217 Clouds 17 1020 67 10000 1.5 320 12:22 04.08.2019
4218 Clouds 17 1020 72 10000 4.6 300 11:50 04.08.2019
4219 Clouds 18 1020 68 10000 4.6 300 11:23 04.08.2019
4220 Clouds 18 1020 68 10000 4.1 280 10:54 04.08.2019
4221 Clouds 18 1020 68 10000 4.1 290 10:36 04.08.2019
4222 Clouds 19 1020 72 10000 5.7 310 10:18 04.08.2019
4223 Clouds 19 1020 72 10000 3.1 290 09:41 04.08.2019
4224 Clouds 19 1020 72 10000 3.1 290 09:20 04.08.2019
4225 Rain 19 1020 63 10000 4.1 290 08:41 04.08.2019
4226 Rain 19 1020 63 10000 4.1 290 08:20 04.08.2019
4227 Clouds 19 1020 82 10000 4.6 360 07:45 04.08.2019
4228 Clouds 18 1021 77 10000 3.1 240 06:47 04.08.2019
4229 Clouds 18 1021 77 10000 3.1 240 06:24 04.08.2019
4230 Clouds 18 1021 77 10000 3.1 240 06:24 04.08.2019
4231 Drizzle 16 1023 93 7000 2.6 350 03:44 04.08.2019
4232 Clouds 14 1022 100 9000 2.6 20 02:20 04.08.2019
4233 Clouds 14 1021 93 9000 2.1 60 01:33 04.08.2019
4234 Clouds 14 1021 100 9000 1.5 80 00:43 04.08.2019
4235 Clouds 14 1021 100 9000 2.1 30 00:25 04.08.2019
4236 Clouds 14 1021 100 9000 2.1 30 23:56 03.08.2019
4237 Clouds 14 1021 100 9000 2.1 50 23:37 03.08.2019
4238 Clouds 14 1021 100 9000 3.92 267.251 23:18 03.08.2019
4239 Clouds 14 1021 100 9000 2.6 70 22:41 03.08.2019
4240 Clouds 14 1021 100 9000 2.6 70 22:19 03.08.2019
4241 Clouds 14 1021 100 9000 1.5 40 21:39 03.08.2019
4242 Clouds 15 1021 100 9000 2.1 40 21:21 03.08.2019
4243 Clouds 15 1021 100 9000 2.1 40 21:21 03.08.2019
4244 Clouds 15 1021 100 10000 2.1 30 20:45 03.08.2019
4245 Clouds 15 1021 100 10000 2.1 30 20:24 03.08.2019
4246 Clouds 15 1021 93 10000 1.5 220 19:55 03.08.2019
4247 Clouds 15 1021 93 10000 0.5 10 19:37 03.08.2019
4248 Clouds 15 1021 93 10000 2.1 220 19:19 03.08.2019
4249 Clouds 15 1021 100 10000 4 246.305 18:40 03.08.2019
4250 Clouds 15 1021 93 10000 7.34 245.767 18:22 03.08.2019
4251 Clouds 15 1021 93 10000 1.5 210 17:42 03.08.2019
4252 Clouds 15 1021 93 10000 1.5 210 17:20 03.08.2019
4253 Rain 16 1021 93 10000 1.5 260 16:39 03.08.2019
4254 Rain 16 1021 93 10000 1.5 260 16:21 03.08.2019
4255 Rain 16 1021 93 10000 2.1 220 15:46 03.08.2019
4256 Rain 16 1021 93 10000 2.1 220 15:26 03.08.2019
4257 Rain 16 1020 88 10000 3.6 240 14:50 03.08.2019
4258 Rain 17 1020 88 10000 3.6 240 14:24 03.08.2019
4259 Rain 17 1020 93 10000 2.6 240 13:57 03.08.2019
4260 Rain 17 1020 93 6000 3.1 240 13:37 03.08.2019
4261 Rain 17 1020 93 6000 3.1 240 13:37 03.08.2019
4262 Rain 17 1019 93 10000 3.1 240 13:19 03.08.2019
4263 Rain 17 1019 93 10000 5.1 230 12:42 03.08.2019
4264 Rain 17 1019 93 10000 1.5 70 12:23 03.08.2019
4265 Rain 18 1019 93 10000 1.5 70 11:55 03.08.2019
4266 Rain 18 1018 93 10000 2.6 300 11:35 03.08.2019
4267 Rain 18 1018 82 6000 2.6 300 10:47 03.08.2019
4268 Rain 18 1018 82 6000 2.6 300 10:25 03.08.2019
4269 Drizzle 20 1018 68 10000 7.7 320 09:45 03.08.2019
4270 Drizzle 21 1018 68 10000 7.7 320 09:24 03.08.2019
4271 Clouds 21 1018 68 10000 6.7 320 08:56 03.08.2019
4272 Rain 21 1018 73 10000 5.7 290 08:24 03.08.2019
4273 Clouds 21 1018 56 10000 5.7 300 07:38 03.08.2019
4274 Clear 21 1019 46 10000 4.1 350 06:47 03.08.2019
4275 Clear 21 1020 43 10000 4.1 10 05:47 03.08.2019
4276 Clear 15 1020 58 10000 3.1 40 02:43 03.08.2019
4277 Clear 15 1019 58 10000 3.6 60 01:56 03.08.2019
4278 Clear 15 1019 58 10000 3.1 290 00:57 03.08.2019
4279 Clear 15 1018 54 10000 3.1 40 00:29 03.08.2019
4280 Clouds 15 1018 48 10000 5.1 360 23:41 02.08.2019
4281 Clouds 15 1018 48 10000 5.1 360 23:20 02.08.2019
4282 Clouds 16 1018 51 10000 4.6 10 22:57 02.08.2019
4283 Clear 16 1018 54 10000 3.6 10 22:39 02.08.2019
4284 Clear 16 1018 54 10000 3.6 10 22:20 02.08.2019
4285 Clear 16 1018 54 10000 2.6 340 21:55 02.08.2019
4286 Clear 16 1018 51 10000 4.1 50 21:36 02.08.2019
4287 Clear 16 1018 48 10000 4.1 30 21:18 02.08.2019
4288 Clear 16 1019 58 10000 4.1 40 20:41 02.08.2019
4289 Clear 16 1019 58 10000 4.1 40 20:21 02.08.2019
4290 Clear 16 1019 54 10000 2.6 340 19:49 02.08.2019
4291 Clear 16 1019 54 10000 2.6 340 19:28 02.08.2019
4292 Clear 15 1019 48 10000 4.1 60 18:45 02.08.2019
4293 Clear 16 1019 48 10000 4.1 60 18:27 02.08.2019
4294 Clouds 15 1019 62 10000 2.1 10 17:48 02.08.2019
4295 Clouds 16 1019 62 10000 2.1 10 17:25 02.08.2019
4296 Clear 17 1020 51 10000 2.6 10 16:59 02.08.2019
4297 Clear 17 1020 51 10000 6.7 60 16:38 02.08.2019
4298 Clear 16 1020 51 10000 6.2 60 16:19 02.08.2019
4299 Clear 17 1020 55 10000 7.2 70 15:40 02.08.2019
4300 Clear 16 1021 55 10000 4.1 60 15:19 02.08.2019
4301 Clear 17 1021 55 10000 4.1 70 14:46 02.08.2019
4302 Clear 17 1021 62 10000 3.6 70 14:19 02.08.2019
4303 Clear 18 1021 62 10000 2.6 60 13:49 02.08.2019
4304 Clear 18 1021 62 10000 2.6 60 13:27 02.08.2019
4305 Clear 20 1020 48 10000 2.1 40 12:46 02.08.2019
4306 Clear 20 1020 48 10000 2.1 40 12:23 02.08.2019
4307 Clear 22 1020 43 10000 4.1 60 11:55 02.08.2019
4308 Clear 23 1020 38 10000 5.7 60 11:37 02.08.2019
4309 Clear 23 1020 33 10000 5.7 70 11:18 02.08.2019
4310 Clear 24 1020 36 10000 4.6 60 10:41 02.08.2019
4311 Clear 24 1020 36 10000 4.6 60 10:23 02.08.2019
4312 Clear 25 1020 31 10000 5.7 40 09:52 02.08.2019
4313 Clear 25 1020 31 10000 5.7 40 09:26 02.08.2019
4314 Clear 24 1021 36 10000 5.7 40 08:50 02.08.2019
4315 Clear 24 1021 36 10000 5.7 40 08:23 02.08.2019
4316 Clear 24 1021 33 10000 7.2 50 07:51 02.08.2019
4317 Clear 23 1021 33 10000 7.2 50 07:31 02.08.2019
4318 Clear 22 1023 37 10000 6.2 40 06:51 02.08.2019
4319 Clear 22 1023 37 10000 6.2 40 06:24 02.08.2019
4320 Clear 20 1024 37 10000 6.2 40 05:25 02.08.2019
4321 Clear 17 1025 45 10000 5.1 60 03:28 02.08.2019
4322 Clear 15 1026 47 10000 5.7 60 02:33 02.08.2019
4323 Clear 12 1025 57 10000 4.1 70 00:40 02.08.2019
4324 Clear 12 1025 47 10000 5.1 70 23:47 01.08.2019
4325 Clear 13 1025 47 10000 5.1 70 23:28 01.08.2019
4326 Clear 13 1025 47 10000 6.2 50 22:59 01.08.2019
4327 Clear 13 1025 50 10000 4.1 40 22:39 01.08.2019
4328 Clear 12 1026 57 10000 2.6 20 22:20 01.08.2019
4329 Clear 12 1026 54 10000 3.1 60 21:43 01.08.2019
4330 Clear 12 1026 54 10000 3.1 60 21:24 01.08.2019
4331 Clear 12 1025 53 10000 4.6 70 20:55 01.08.2019
4332 Clear 12 1025 50 10000 4.6 70 20:37 01.08.2019
4333 Clear 12 1025 54 10000 5.7 60 20:19 01.08.2019
4334 Clear 12 1025 54 10000 6.2 60 19:41 01.08.2019
4335 Clear 11 1026 54 10000 6.2 70 19:19 01.08.2019
4336 Clear 12 1027 58 10000 5.1 60 18:44 01.08.2019
4337 Clear 11 1027 62 10000 4.6 60 18:24 01.08.2019
4338 Clear 11 1027 62 10000 4.6 60 17:51 01.08.2019
4339 Clear 11 1028 62 10000 3.6 40 17:32 01.08.2019
4340 Clear 11 1028 62 10000 2.6 20 16:57 01.08.2019
4341 Clear 12 1028 54 10000 4.6 70 16:39 01.08.2019
4342 Clear 12 1028 54 10000 4.1 70 16:19 01.08.2019
4343 Clear 12 1028 62 10000 4.1 70 15:41 01.08.2019
4344 Clear 13 1029 66 10000 4.1 110 15:19 01.08.2019
4345 Clear 12 1029 66 10000 3.1 130 14:42 01.08.2019
4346 Clear 12 1029 66 10000 3.1 130 14:19 01.08.2019
4347 Clear 12 1029 66 10000 3.1 130 14:19 01.08.2019
4348 Clear 13 1029 62 10000 3.1 110 13:58 01.08.2019
4349 Clear 13 1028 58 10000 3.6 120 13:39 01.08.2019
4350 Clear 14 1028 58 10000 3.6 120 13:20 01.08.2019
4351 Clear 16 1028 47 10000 3.1 90 12:45 01.08.2019
4352 Clear 16 1028 47 10000 3.1 90 12:26 01.08.2019
4353 Clear 18 1028 34 10000 5.1 80 11:43 01.08.2019
4354 Clear 19 1028 34 10000 6.2 70 11:24 01.08.2019
4355 Clear 20 1028 34 10000 6.2 70 10:56 01.08.2019
4356 Clear 20 1028 34 10000 6.2 70 10:56 01.08.2019
4357 Clear 20 1028 32 10000 5.7 90 10:38 01.08.2019
4358 Clear 20 1028 32 10000 5.7 90 10:20 01.08.2019
4359 Clear 21 1028 34 10000 7.2 90 09:43 01.08.2019
4360 Clear 21 1028 34 10000 7.2 90 09:23 01.08.2019
4361 Clear 21 1028 32 10000 6.7 40 08:46 01.08.2019
4362 Clear 21 1028 32 10000 6.7 40 08:21 01.08.2019
4363 Clear 20 1029 37 10000 6.2 60 07:50 01.08.2019
4364 Clear 20 1029 37 10000 6.2 60 07:26 01.08.2019
4365 Clear 19 1030 34 10000 7.2 60 06:49 01.08.2019
4366 Clear 19 1030 34 10000 7.2 60 06:27 01.08.2019
4367 Clear 17 1032 48 10000 4.6 60 04:53 01.08.2019
4368 Clear 11 1032 61 10000 5.7 70 02:35 01.08.2019
4369 Clear 9 1031 66 10000 4.6 60 00:49 01.08.2019
4370 Clear 9 1031 66 10000 4.6 60 00:25 01.08.2019
4371 Clear 9 1031 66 10000 3.6 80 23:43 31.07.2019
4372 Clear 9 1031 70 10000 4.1 90 23:21 31.07.2019
4373 Clear 9 1031 70 10000 4.1 90 22:58 31.07.2019
4374 Clear 9 1031 70 10000 4.1 90 22:40 31.07.2019
4375 Clear 9 1031 70 10000 4.1 90 22:21 31.07.2019
4376 Clear 9 1031 66 10000 4.1 80 21:39 31.07.2019
4377 Clear 9 1031 66 10000 4.1 80 21:39 31.07.2019
4378 Clear 10 1031 71 10000 4.1 90 21:19 31.07.2019
4379 Clear 9 1031 76 10000 4.1 80 20:43 31.07.2019
4380 Clear 9 1031 76 10000 4.1 80 20:22 31.07.2019
4381 Clear 10 1031 76 10000 2.1 60 19:43 31.07.2019
4382 Clear 10 1031 76 10000 2.6 70 19:24 31.07.2019
4383 Clear 10 1031 76 10000 2.6 70 18:53 31.07.2019
4384 Clear 10 1031 76 10000 2.6 70 18:29 31.07.2019
4385 Clear 10 1031 76 10000 3.1 70 17:59 31.07.2019
4386 Clear 11 1031 76 10000 3.1 80 17:40 31.07.2019
4387 Clear 11 1031 76 10000 3.1 80 17:19 31.07.2019
4388 Clear 11 1031 66 10000 3.6 90 16:46 31.07.2019
4389 Clear 12 1031 66 10000 3.6 90 16:20 31.07.2019
4390 Clear 12 1031 66 10000 3.1 80 15:45 31.07.2019
4391 Clear 13 1031 66 10000 3.1 80 15:26 31.07.2019
4392 Clear 13 1031 66 10000 3.1 80 15:26 31.07.2019
4393 Clear 13 1031 76 10000 5.06 137.033 14:54 31.07.2019
4394 Clear 13 1031 71 10000 5.06 137.033 14:36 31.07.2019
4395 Clear 14 1031 66 10000 1.5 160 14:18 31.07.2019
4396 Clear 15 1030 66 10000 3.1 80 13:42 31.07.2019
4397 Clear 15 1030 66 10000 3.1 80 13:23 31.07.2019
4398 Clear 16 1030 54 10000 3.6 80 12:45 31.07.2019
4399 Clear 17 1030 67 10000 3.1 180 12:27 31.07.2019
4400 Clear 18 1030 59 10000 3.6 190 11:59 31.07.2019
4401 Clear 19 1029 51 10000 3.6 80 11:38 31.07.2019
4402 Clear 19 1029 51 10000 3.6 80 11:19 31.07.2019
4403 Clear 20 1029 37 10000 4.1 100 10:41 31.07.2019
4404 Clear 20 1029 32 10000 3.1 70 10:20 31.07.2019
4405 Clear 20 1029 35 10000 3.1 70 09:44 31.07.2019
4406 Clear 21 1029 35 10000 3.1 70 09:24 31.07.2019
4407 Clear 22 1028 30 10000 3.6 90 08:56 31.07.2019
4408 Clear 22 1028 35 10000 2.1 40 08:37 31.07.2019
4409 Clear 22 1029 35 10000 1.5 20 08:19 31.07.2019
4410 Clear 23 1029 35 10000 3.1 20 07:34 31.07.2019
4411 Clear 21 1030 40 10000 3.6 20 06:31 31.07.2019
4412 Clear 19 1030 42 10000 4.6 20 04:49 31.07.2019
4413 Clear 9 1029 93 10000 2.6 60 01:21 31.07.2019
4414 Clear 9 1028 100 10000 2.32 103.371 23:57 30.07.2019
4415 Clear 10 1028 93 10000 2.6 210 23:39 30.07.2019
4416 Clear 10 1028 93 10000 2.32 103.371 23:18 30.07.2019
4417 Clear 10 1027 93 10000 2.32 103.371 22:42 30.07.2019
4418 Clear 10 1027 93 10000 2.32 103.371 22:23 30.07.2019
4419 Clear 11 1027 93 10000 1.5 110 21:38 30.07.2019
4420 Clear 11 1027 93 10000 1.5 110 21:20 30.07.2019
4421 Clear 11 1027 87 10000 0.5 110 20:58 30.07.2019
4422 Clear 11 1027 100 10000 3.73 127.759 20:39 30.07.2019
4423 Clear 11 1028 100 10000 1 200 20:20 30.07.2019
4424 Clear 12 1027 93 10000 0.5 290 19:49 30.07.2019
4425 Clear 12 1027 93 10000 0.5 290 19:29 30.07.2019
4426 Clear 12 1027 93 10000 1.5 290 18:48 30.07.2019
4427 Clear 12 1027 93 10000 1.5 290 18:27 30.07.2019
4428 Clear 12 1027 93 10000 2.6 350 17:59 30.07.2019
4429 Clouds 12 1027 93 10000 1.5 170 17:40 30.07.2019
4430 Clear 12 1027 93 10000 1.5 240 17:18 30.07.2019
4431 Clear 13 1027 93 10000 2.1 190 16:46 30.07.2019
4432 Clear 13 1027 93 10000 2.1 190 16:19 30.07.2019
4433 Clear 14 1027 82 10000 2.6 210 15:41 30.07.2019
4434 Clear 14 1027 82 10000 2.6 210 15:22 30.07.2019
4435 Clear 15 1027 77 10000 4.1 190 14:46 30.07.2019
4436 Clear 15 1027 77 10000 4.1 190 14:26 30.07.2019
4437 Clear 15 1026 72 10000 4.6 190 13:59 30.07.2019
4438 Clear 16 1026 72 10000 4.6 190 13:38 30.07.2019
4439 Clear 16 1026 67 10000 4.1 180 13:20 30.07.2019
4440 Clear 17 1025 63 10000 3.6 240 12:46 30.07.2019
4441 Clear 17 1025 63 10000 3.6 240 12:27 30.07.2019
4442 Clouds 18 1025 59 10000 5.1 250 11:47 30.07.2019
4443 Clear 19 1025 56 10000 4.1 250 11:29 30.07.2019
4444 Clear 20 1024 46 10000 4.1 250 10:57 30.07.2019
4445 Clear 20 1024 40 10000 2.6 290 10:38 30.07.2019
4446 Clear 20 1024 40 10000 2.6 290 10:38 30.07.2019
4447 Clear 20 1024 40 10000 2.6 120 10:20 30.07.2019
4448 Clear 20 1024 40 10000 2.6 120 10:20 30.07.2019
4449 Clear 21 1024 43 10000 2.6 360 09:48 30.07.2019
4450 Clear 21 1024 43 10000 2.6 360 09:28 30.07.2019
4451 Clouds 21 1024 46 10000 2.6 30 08:39 30.07.2019
4452 Clouds 21 1024 49 10000 1.5 290 08:18 30.07.2019
4453 Clear 22 1025 49 10000 3.6 30 07:40 30.07.2019
4454 Clear 22 1025 49 10000 3.6 30 07:22 30.07.2019
4455 Clear 21 1026 49 10000 5.1 10 06:43 30.07.2019
4456 Clear 19 1027 55 10000 4.1 20 05:35 30.07.2019
4457 Clear 18 1026 67 10000 4.6 70 04:29 30.07.2019
4458 Clear 11 1026 87 10000 4.6 70 01:23 30.07.2019
4459 Clear 10 1025 81 10000 4.1 60 00:27 30.07.2019
4460 Clear 10 1025 81 10000 4.1 60 00:27 30.07.2019
4461 Clear 10 1025 81 10000 4.6 70 23:59 29.07.2019
4462 Clear 10 1025 81 10000 4.1 70 23:39 29.07.2019
4463 Clear 10 1025 81 10000 5.7 70 23:20 29.07.2019
4464 Clear 10 1025 81 10000 5.7 70 22:55 29.07.2019
4465 Clear 10 1026 81 10000 4.1 80 22:37 29.07.2019
4466 Clear 11 1026 81 10000 4.1 60 22:18 29.07.2019
4467 Clear 10 1026 81 10000 5.1 70 21:41 29.07.2019
4468 Clear 10 1026 81 10000 5.1 70 21:23 29.07.2019
4469 Clear 10 1026 81 10000 4.1 50 20:57 29.07.2019
4470 Clear 10 1026 81 10000 6.2 70 20:38 29.07.2019
4471 Clear 11 1026 81 10000 6.2 70 20:19 29.07.2019
4472 Clear 11 1026 81 10000 6.2 70 19:43 29.07.2019
4473 Clear 11 1026 81 10000 6.2 70 19:23 29.07.2019
4474 Clear 11 1026 76 10000 5.7 70 18:55 29.07.2019
4475 Clear 11 1026 81 10000 3.6 70 18:37 29.07.2019
4476 Clear 10 1026 87 10000 2.6 10 18:18 29.07.2019
4477 Clear 10 1027 93 10000 2.1 50 17:47 29.07.2019
4478 Clear 10 1027 93 10000 2.1 50 17:47 29.07.2019
4479 Clear 10 1027 93 10000 2.1 50 17:27 29.07.2019
4480 Clear 10 1027 93 10000 3.6 100 16:46 29.07.2019
4481 Clear 10 1027 93 10000 3.6 100 16:27 29.07.2019
4482 Clear 11 1027 93 10000 3.1 90 15:54 29.07.2019
4483 Clear 11 1028 87 10000 4.6 100 15:36 29.07.2019
4484 Clear 11 1027 93 10000 1.5 220 14:57 29.07.2019
4485 Clear 11 1027 87 10000 2.6 160 14:39 29.07.2019
4486 Clear 11 1027 87 10000 2.6 160 14:21 29.07.2019
4487 Clear 12 1027 81 10000 2.6 110 13:44 29.07.2019
4488 Clear 13 1027 81 10000 2.6 110 13:23 29.07.2019
4489 Clear 14 1026 76 10000 4.1 90 12:45 29.07.2019
4490 Clear 14 1026 71 10000 5.1 90 12:26 29.07.2019
4491 Clear 14 1026 76 10000 4.1 90 12:26 29.07.2019
4492 Clear 16 1025 67 10000 4.6 80 11:45 29.07.2019
4493 Clear 16 1025 67 10000 4.6 80 11:24 29.07.2019
4494 -273 0 0 0 0 0 10:57 29.07.2019
4495 Clouds 17 1025 67 10000 4.6 90 10:39 29.07.2019
4496 Clouds 18 1025 63 10000 4.6 80 10:20 29.07.2019
4497 Clouds 18 1025 67 10000 5.7 90 09:41 29.07.2019
4498 Clouds 18 1025 67 10000 6.2 110 09:19 29.07.2019
4499 Clouds 18 1025 67 10000 5.7 100 08:41 29.07.2019
4500 Clouds 18 1026 67 10000 6.7 110 08:20 29.07.2019
4501 Clouds 17 1026 67 10000 6.2 90 07:45 29.07.2019
4502 Clouds 17 1026 67 10000 6.2 90 07:23 29.07.2019
4503 Clouds 15 1028 71 10000 6.7 100 05:50 29.07.2019
4504 Clouds 15 1028 71 10000 7.2 90 04:54 29.07.2019
4505 Clear 11 1027 76 10000 5.1 50 02:27 29.07.2019
4506 Clear 10 1027 81 10000 3.1 30 01:45 29.07.2019
4507 Clear 10 1027 81 10000 3.1 30 01:23 29.07.2019
4508 Clouds 10 1026 81 10000 3.1 30 00:43 29.07.2019
4509 Clear 10 1026 81 10000 2.6 30 00:20 29.07.2019
4510 Clear 10 1026 76 10000 2.6 50 23:41 28.07.2019
4511 Clear 10 1026 76 10000 4.1 60 23:18 28.07.2019
4512 Clear 10 1026 76 10000 3.6 60 22:40 28.07.2019
4513 Clear 10 1026 76 10000 5.1 70 22:22 28.07.2019
4514 Clear 11 1026 76 10000 5.1 60 21:48 28.07.2019
4515 Clear 10 1026 76 10000 4.6 60 21:19 28.07.2019
4516 Clear 10 1026 76 10000 4.6 70 20:48 28.07.2019
4517 Clear 10 1026 76 10000 4.6 70 20:29 28.07.2019
4518 Clear 10 1026 81 10000 2.6 20 19:42 28.07.2019
4519 Clear 10 1026 81 10000 2.6 20 19:42 28.07.2019
4520 Clear 10 1026 81 10000 2.6 20 19:22 28.07.2019
4521 Clear 10 1026 81 10000 1.5 30 18:58 28.07.2019
4522 Clear 10 1026 76 10000 3.6 100 18:38 28.07.2019
4523 Clear 10 1026 76 10000 3.6 100 18:38 28.07.2019
4524 Clear 10 1026 71 10000 4.6 110 18:18 28.07.2019
4525 Clear 11 1026 66 10000 2.6 210 17:41 28.07.2019
4526 Clear 11 1026 66 10000 2.6 210 17:22 28.07.2019
4527 Clear 11 1026 71 10000 3.6 120 16:57 28.07.2019
4528 Clear 11 1026 71 10000 3.6 150 16:38 28.07.2019
4529 Clear 11 1026 81 10000 3.6 140 16:19 28.07.2019
4530 Clear 12 1026 66 10000 3.6 130 15:42 28.07.2019
4531 Clear 12 1026 66 10000 3.6 130 15:21 28.07.2019
4532 Clear 13 1026 66 10000 3.6 140 14:37 28.07.2019
4533 Clear 12 1026 66 10000 3.6 140 14:37 28.07.2019
4534 Clear 12 1026 66 10000 3.6 140 14:37 28.07.2019
4535 Clear 13 1026 66 10000 3.6 140 14:37 28.07.2019
4536 Clear 12 1025 76 10000 3.1 160 14:19 28.07.2019
4537 Clear 13 1025 76 10000 3.6 150 13:44 28.07.2019
4538 Clear 14 1025 71 10000 4.1 140 13:23 28.07.2019
4539 Clear 14 1025 71 10000 4.1 140 12:59 28.07.2019
4540 Clear 15 1025 67 10000 4.1 150 12:40 28.07.2019
4541 Clear 15 1024 59 10000 4.1 140 12:22 28.07.2019
4542 Clear 17 1024 52 10000 4.1 130 11:47 28.07.2019
4543 Clear 17 1024 52 10000 4.1 130 11:27 28.07.2019
4544 Clear 17 1024 52 10000 4.1 130 11:27 28.07.2019
4545 Clouds 18 1023 45 10000 4.6 170 10:40 28.07.2019
4546 Clouds 18 1023 45 10000 4.6 170 10:21 28.07.2019
4547 Clouds 18 1023 52 10000 4.1 190 09:45 28.07.2019
4548 Clouds 18 1023 52 10000 4.1 190 09:27 28.07.2019
4549 Clouds 18 1023 52 10000 3.6 180 08:51 28.07.2019
4550 Clouds 18 1023 52 10000 3.6 180 08:28 28.07.2019
4551 Clouds 19 1023 55 10000 4.6 130 07:53 28.07.2019
4552 Clouds 19 1023 59 10000 5.1 190 07:35 28.07.2019
4553 Clouds 17 1024 63 10000 3.6 150 06:41 28.07.2019
4554 Clouds 17 1024 59 10000 3.6 180 05:26 28.07.2019
4555 Clouds 13 1024 82 10000 3.6 210 03:27 28.07.2019
4556 Clouds 10 1023 93 10000 2.6 220 02:19 28.07.2019
4557 Clouds 9 1022 93 10000 3.1 210 01:19 28.07.2019
4558 Clouds 10 1022 93 10000 3.6 200 00:44 28.07.2019
4559 Clouds 10 1022 87 10000 4.1 210 00:18 28.07.2019
4560 Clouds 10 1021 93 10000 4.6 190 23:44 27.07.2019
4561 Clouds 11 1021 87 10000 4.1 200 23:19 27.07.2019
4562 Clouds 11 1021 93 10000 2.6 170 22:40 27.07.2019
4563 Clouds 11 1021 93 10000 3.1 190 22:19 27.07.2019
4564 Clouds 12 1021 93 10000 3.6 190 21:39 27.07.2019
4565 Clear 12 1021 82 10000 5.7 190 21:20 27.07.2019
4566 Clear 12 1020 87 10000 2.6 240 20:50 27.07.2019
4567 Clear 12 1020 87 10000 2.6 240 20:23 27.07.2019
4568 Clear 13 1020 87 10000 2.6 140 19:46 27.07.2019
4569 Rain 13 1021 93 6000 1.5 140 19:26 27.07.2019
4570 Rain 13 1021 93 6000 1.5 140 18:51 27.07.2019
4571 Clouds 13 1020 87 10000 3.6 190 18:32 27.07.2019
4572 Rain 13 1020 87 10000 4.1 210 17:52 27.07.2019
4573 Clear 13 1020 93 10000 3.1 210 17:33 27.07.2019
4574 Rain 14 1020 93 10000 3.1 210 16:59 27.07.2019
4575 Rain 14 1020 87 10000 3.6 140 16:39 27.07.2019
4576 Rain 14 1020 87 10000 3.6 140 16:20 27.07.2019
4577 Rain 14 1020 87 10000 3.6 140 15:46 27.07.2019
4578 Rain 14 1020 87 10000 3.6 140 15:20 27.07.2019
4579 Clear 14 1020 82 10000 3.6 140 14:49 27.07.2019
4580 Clear 14 1019 82 10000 3.6 140 14:31 27.07.2019
4581 Drizzle 15 1019 82 10000 3.6 140 13:52 27.07.2019
4582 Clear 15 1019 77 10000 5.7 190 13:25 27.07.2019
4583 Clear 15 1019 77 10000 5.1 190 12:57 27.07.2019
4584 Clear 16 1019 77 10000 6.2 190 12:37 27.07.2019
4585 Clear 16 1018 67 10000 6.7 190 12:19 27.07.2019
4586 Clear 17 1018 63 10000 4.6 210 11:41 27.07.2019
4587 Clear 17 1018 63 10000 4.6 210 11:23 27.07.2019
4588 Clouds 17 1017 55 10000 5.7 240 10:41 27.07.2019
4589 Clouds 18 1017 55 10000 5.7 240 10:23 27.07.2019
4590 Clouds 18 1017 49 10000 3.6 220 09:42 27.07.2019
4591 Clouds 19 1017 49 10000 3.6 220 09:23 27.07.2019
4592 Clouds 18 1017 52 10000 3.1 180 08:50 27.07.2019
4593 Clouds 19 1017 52 10000 3.1 180 08:50 27.07.2019
4594 Clouds 19 1017 52 10000 3.1 180 08:31 27.07.2019
4595 Clouds 19 1017 52 10000 3.1 220 07:56 27.07.2019
4596 Clouds 19 1017 52 10000 3.1 220 07:56 27.07.2019
4597 Clouds 19 1018 55 10000 2.1 200 07:33 27.07.2019
4598 Clouds 19 1018 63 10000 2.1 180 06:57 27.07.2019
4599 Clouds 19 1018 63 10000 2.1 180 06:57 27.07.2019
4600 Clear 17 1019 63 10000 2.6 60 06:32 27.07.2019
4601 Clear 18 1019 67 10000 2.6 50 05:53 27.07.2019
4602 Rain 17 1019 72 10000 2.6 130 05:28 27.07.2019
4603 Clear 15 1020 87 10000 3.6 200 04:33 27.07.2019
4604 Clear 13 1020 87 10000 2.1 120 03:28 27.07.2019
4605 Rain 12 1019 93 10000 1.19 26.242 02:40 27.07.2019
4606 Rain 11 1019 93 10000 2.6 130 01:48 27.07.2019
4607 Rain 11 1018 93 10000 4.6 90 01:21 27.07.2019
4608 Rain 11 1018 93 9000 4.1 90 00:32 27.07.2019
4609 Rain 11 1018 93 8000 3.1 70 23:55 26.07.2019
4610 Rain 11 1018 93 10000 3.1 90 23:33 26.07.2019
4611 Rain 11 1018 93 10000 3.1 90 23:33 26.07.2019
4612 Rain 12 1018 93 5000 5.7 80 22:57 26.07.2019
4613 Rain 12 1019 93 7000 2.6 50 22:38 26.07.2019
4614 Rain 12 1019 93 3000 2.6 360 22:20 26.07.2019
4615 Rain 12 1019 93 8000 2.1 240 21:49 26.07.2019
4616 Rain 12 1019 93 8000 2.1 240 21:20 26.07.2019
4617 Rain 12 1019 93 10000 2.1 130 20:43 26.07.2019
4618 Rain 12 1019 93 10000 2.1 130 20:24 26.07.2019
4619 Rain 12 1019 82 10000 2.6 70 19:44 26.07.2019
4620 Rain 12 1019 82 10000 2.6 70 19:25 26.07.2019
4621 Rain 13 1019 82 10000 3.1 50 18:58 26.07.2019
4622 Drizzle 13 1019 82 10000 2.6 70 18:38 26.07.2019
4623 Drizzle 13 1019 82 10000 2.6 70 18:19 26.07.2019
4624 Rain 13 1019 82 10000 2.6 50 17:46 26.07.2019
4625 Clear 13 1019 82 10000 3.6 50 17:19 26.07.2019
4626 Clear 13 1019 82 10000 3.6 50 16:57 26.07.2019
4627 Clear 13 1019 82 10000 3.6 50 16:57 26.07.2019
4628 Rain 13 1019 82 10000 3.6 80 16:38 26.07.2019
4629 Clear 13 1020 82 10000 3.6 70 16:20 26.07.2019
4630 Clear 13 1020 82 10000 3.6 70 15:56 26.07.2019
4631 Rain 13 1020 82 10000 4.1 70 15:38 26.07.2019
4632 Clear 13 1020 76 10000 3.1 70 15:18 26.07.2019
4633 Clear 14 1020 76 10000 3.6 70 14:42 26.07.2019
4634 Clear 14 1020 76 10000 3.6 70 14:22 26.07.2019
4635 Clear 14 1019 76 10000 3.6 50 13:42 26.07.2019
4636 Clear 14 1019 76 10000 3.6 50 13:24 26.07.2019
4637 Clear 14 1019 76 10000 3.1 70 12:49 26.07.2019
4638 Clear 15 1018 72 10000 3.1 80 12:20 26.07.2019
4639 Clear 15 1018 72 10000 2.6 70 11:47 26.07.2019
4640 Clear 16 1018 67 10000 3.1 70 11:22 26.07.2019
4641 Clear 16 1018 67 10000 3.1 70 10:58 26.07.2019
4642 Clear 16 1018 67 10000 3.1 40 10:38 26.07.2019
4643 Clear 16 1018 67 10000 3.1 50 09:59 26.07.2019
4644 Clear 16 1018 67 10000 3.6 50 09:41 26.07.2019
4645 Clear 16 1018 67 10000 3.6 50 09:21 26.07.2019
4646 Clear 16 1019 63 10000 4.1 40 08:40 26.07.2019
4647 Clear 16 1019 63 10000 4.1 40 08:20 26.07.2019
4648 Clear 16 1019 63 10000 4.6 50 07:36 26.07.2019
4649 Clear 15 1019 67 10000 4.6 60 06:58 26.07.2019
4650 Clear 14 1021 71 10000 5.7 60 05:23 26.07.2019
4651 Clear 13 1022 76 10000 4.6 60 04:29 26.07.2019
4652 Clouds 12 1022 81 10000 4.6 60 03:44 26.07.2019
4653 Clear 11 1022 81 10000 7.7 70 01:45 26.07.2019
4654 Clear 11 1022 81 10000 6.2 70 00:49 26.07.2019
4655 Clear 11 1022 81 10000 5.1 60 00:23 26.07.2019
4656 Clear 12 1022 81 10000 5.7 60 23:26 25.07.2019
4657 Clear 12 1022 81 10000 5.7 60 23:26 25.07.2019
4658 Clear 12 1022 76 10000 5.7 60 22:59 25.07.2019
4659 Clear 12 1022 76 10000 5.7 60 22:59 25.07.2019
4660 Clear 12 1022 76 10000 6.7 70 22:40 25.07.2019
4661 Clear 12 1022 76 10000 7.2 70 22:21 25.07.2019
4662 Clear 12 1022 76 10000 6.7 70 21:46 25.07.2019
4663 Clear 12 1022 76 10000 6.7 70 21:22 25.07.2019
4664 Clear 12 1023 76 10000 6.7 80 20:49 25.07.2019
4665 Clear 12 1023 76 10000 6.7 80 20:30 25.07.2019
4666 Clear 12 1023 76 10000 7.2 80 19:54 25.07.2019
4667 Clear 12 1023 76 10000 7.7 90 19:36 25.07.2019
4668 Clear 12 1023 76 10000 7.2 80 19:18 25.07.2019
4669 Clear 12 1023 71 10000 7.2 90 18:39 25.07.2019
4670 Clear 12 1024 71 10000 7.2 80 18:21 25.07.2019
4671 Clear 12 1024 71 10000 7.7 90 17:45 25.07.2019
4672 Clear 12 1024 71 10000 7.7 90 17:25 25.07.2019
4673 Clear 13 1024 71 10000 7.2 90 16:47 25.07.2019
4674 Clear 13 1024 71 10000 7.2 90 16:29 25.07.2019
4675 Clear 13 1025 71 10000 5.7 90 15:58 25.07.2019
4676 Clear 13 1024 67 10000 6.2 100 15:36 25.07.2019
4677 Clear 13 1024 67 10000 6.2 100 15:18 25.07.2019
4678 Clear 13 1024 71 10000 5.7 90 14:41 25.07.2019
4679 Clear 13 1024 71 10000 6.2 90 14:22 25.07.2019
4680 Clear 14 1024 71 10000 5.7 90 13:44 25.07.2019
4681 Clear 14 1024 71 10000 5.7 90 13:25 25.07.2019
4682 Clouds 15 1024 67 10000 5.1 90 12:46 25.07.2019
4683 Clouds 15 1024 67 10000 5.1 90 12:27 25.07.2019
4684 Clouds 15 1023 63 10000 6.7 100 11:43 25.07.2019
4685 Clouds 16 1023 63 10000 6.2 100 11:23 25.07.2019
4686 Clouds 16 1023 63 10000 6.7 90 10:46 25.07.2019
4687 Clouds 16 1023 63 10000 6.7 90 10:26 25.07.2019
4688 Clouds 17 1023 59 10000 5.1 110 09:57 25.07.2019
4689 Clouds 17 1023 59 10000 5.1 100 09:39 25.07.2019
4690 Clouds 17 1023 55 10000 3.6 110 08:54 25.07.2019
4691 Clouds 17 1023 55 10000 3.6 90 08:36 25.07.2019
4692 Clouds 18 1024 63 10000 3.6 130 07:49 25.07.2019
4693 -273 0 0 0 0 0 07:26 25.07.2019
4694 Clouds 17 1024 67 10000 3.1 110 06:40 25.07.2019
4695 Clouds 16 1025 72 10000 3.1 130 05:37 25.07.2019
4696 Clouds 15 1025 82 10000 2.1 90 04:55 25.07.2019
4697 Rain 13 1025 93 10000 3.6 190 03:32 25.07.2019
4698 Fog 11 1023 100 8000 2.1 40 01:26 25.07.2019
4699 Clouds 12 1022 100 150 2.1 100 00:37 25.07.2019
4700 Clouds 12 1022 93 10000 2.6 60 00:18 25.07.2019
4701 Rain 13 1022 100 6000 1 100 23:43 24.07.2019
4702 Rain 13 1022 100 6000 1 100 23:24 24.07.2019
4703 Rain 13 1022 93 10000 5.97 200.366 22:45 24.07.2019
4704 Rain 13 1022 93 10000 5.97 200.366 22:23 24.07.2019
4705 Rain 13 1022 100 9000 5.97 200.366 21:56 24.07.2019
4706 Clouds 13 1022 100 7000 2.1 280 21:38 24.07.2019
4707 Clouds 13 1022 100 7000 2.1 280 21:38 24.07.2019
4708 Clouds 13 1022 100 7000 2.1 280 21:38 24.07.2019
4709 Rain 12 1021 100 10000 5.83 243.167 21:19 24.07.2019
4710 Clouds 12 1021 93 10000 2.1 10 20:46 24.07.2019
4711 Clouds 12 1021 93 10000 2.1 10 20:28 24.07.2019
4712 Clouds 12 1021 93 10000 2.1 30 19:58 24.07.2019
4713 Clouds 12 1022 93 10000 2.1 20 19:58 24.07.2019
4714 Clouds 13 1022 93 10000 2.1 20 19:40 24.07.2019
4715 Clouds 13 1022 93 10000 2.1 20 19:40 24.07.2019
4716 Clouds 13 1022 93 10000 2.1 20 19:20 24.07.2019
4717 Clouds 13 1022 93 10000 2.1 70 18:43 24.07.2019
4718 Clouds 13 1022 93 10000 2.1 70 18:24 24.07.2019
4719 Rain 14 1022 87 10000 4.1 240 17:47 24.07.2019
4720 Rain 14 1022 87 10000 4.1 240 17:22 24.07.2019
4721 Rain 15 1022 87 8000 3.1 300 16:44 24.07.2019
4722 Rain 15 1022 87 8000 3.1 300 16:23 24.07.2019
4723 Rain 15 1022 87 10000 2.1 240 15:59 24.07.2019
4724 Clear 16 1022 82 10000 2.6 230 15:37 24.07.2019
4725 Clouds 16 1022 77 10000 2.6 250 15:19 24.07.2019
4726 Clouds 16 1022 77 10000 3.1 240 14:44 24.07.2019
4727 Clouds 16 1022 77 10000 2.6 250 14:20 24.07.2019
4728 Clear 16 1022 77 10000 3.1 250 13:40 24.07.2019
4729 Clouds 16 1022 77 10000 4.1 240 13:19 24.07.2019
4730 Clouds 17 1022 77 10000 4.1 240 12:52 24.07.2019
4731 Rain 17 1021 77 10000 4.1 250 12:34 24.07.2019
4732 Rain 17 1021 82 10000 3.6 270 11:41 24.07.2019
4733 Rain 18 1021 72 10000 4.6 280 11:21 24.07.2019
4734 Rain 18 1021 63 10000 4.6 270 10:47 24.07.2019
4735 Rain 18 1021 63 10000 4.6 270 10:26 24.07.2019
4736 Clouds 19 1020 56 10000 5.1 300 09:52 24.07.2019
4737 Clouds 19 1020 56 10000 5.1 300 09:27 24.07.2019
4738 Clouds 19 1020 49 10000 4.6 310 08:59 24.07.2019
4739 Clouds 20 1021 49 10000 4.1 310 08:35 24.07.2019
4740 Clouds 20 1022 49 10000 3.6 320 07:52 24.07.2019
4741 Clouds 20 1022 52 10000 4.1 320 07:31 24.07.2019
4742 Clouds 19 1023 55 10000 5.1 340 06:51 24.07.2019
4743 Clouds 18 1023 55 10000 5.1 340 06:27 24.07.2019
4744 Clear 16 1025 72 10000 3.6 20 04:45 24.07.2019
4745 Clear 9 1024 100 10000 2.6 50 01:47 24.07.2019
4746 Clouds 8 1024 100 10000 4.46 8.472 00:57 24.07.2019
4747 Rain 8 1024 93 6000 2.1 30 00:30 24.07.2019
4748 Clear 9 1023 100 5000 7.04 13.373 23:46 23.07.2019
4749 Clear 9 1023 100 5000 7.04 13.373 23:25 23.07.2019
4750 Clear 9 1023 100 5000 7.04 13.373 23:25 23.07.2019
4751 Clear 9 1023 100 10000 1 40 22:56 23.07.2019
4752 Clear 9 1023 93 10000 2.1 360 22:36 23.07.2019
4753 Clear 9 1023 100 3000 7.04 13.373 22:18 23.07.2019
4754 Clear 9 1023 100 3000 7.04 13.373 22:18 23.07.2019
4755 Clouds 9 1024 100 10000 2.1 60 21:43 23.07.2019
4756 Clouds 9 1024 100 10000 2.1 60 21:25 23.07.2019
4757 Clouds 9 1024 100 10000 2.1 20 20:48 23.07.2019
4758 Clouds 9 1024 100 10000 2.1 20 20:29 23.07.2019
4759 Clouds 9 1024 100 4300 3.59 51.54 19:43 23.07.2019
4760 Clouds 10 1024 100 4300 3.59 51.54 19:24 23.07.2019
4761 Clouds 10 1025 93 10000 2.1 110 18:55 23.07.2019
4762 Clouds 10 1025 100 6000 2.6 60 18:37 23.07.2019
4763 Clouds 10 1025 100 10000 3.62 126.386 18:19 23.07.2019
4764 Clouds 11 1025 100 10000 3.62 126.386 17:41 23.07.2019
4765 Clouds 11 1025 100 10000 3.62 126.386 17:20 23.07.2019
4766 Clouds 11 1025 93 10000 3.62 126.386 16:42 23.07.2019
4767 Rain 11 1025 100 5000 0.5 130 16:24 23.07.2019
4768 Clouds 12 1025 93 10000 2.6 50 15:48 23.07.2019
4769 Clouds 12 1025 93 10000 2.6 50 15:29 23.07.2019
4770 Clouds 13 1025 93 10000 2.6 120 14:41 23.07.2019
4771 Clouds 13 1025 93 10000 2.6 120 14:23 23.07.2019
4772 Clouds 14 1025 93 10000 2.1 140 14:00 23.07.2019
4773 Clouds 14 1025 87 10000 2.1 170 13:41 23.07.2019
4774 Clouds 15 1025 82 10000 1.5 150 13:23 23.07.2019
4775 Clouds 15 1024 82 10000 3.6 210 12:49 23.07.2019
4776 Clouds 16 1024 82 10000 3.6 210 12:27 23.07.2019
4777 Clouds 16 1024 77 10000 4.1 200 11:55 23.07.2019
4778 Clouds 17 1024 72 10000 3.6 190 11:37 23.07.2019
4779 Clouds 17 1024 68 10000 3.1 200 11:18 23.07.2019
4780 Clouds 18 1024 68 10000 3.6 200 10:41 23.07.2019
4781 Clouds 18 1024 68 10000 3.6 200 10:22 23.07.2019
4782 Clouds 18 1024 63 10000 4.1 190 09:41 23.07.2019
4783 Clouds 18 1024 63 10000 2.6 200 09:20 23.07.2019
4784 Clouds 18 1024 68 10000 1 130 08:43 23.07.2019
4785 Clouds 19 1024 68 10000 1.5 40 08:20 23.07.2019
4786 Clouds 19 1024 68 10000 1.5 40 08:20 23.07.2019
4787 Clouds 19 1024 68 10000 1.5 40 08:20 23.07.2019
4788 Clouds 19 1024 68 10000 1.5 40 07:55 23.07.2019
4789 Clouds 19 1024 68 10000 2.1 20 07:36 23.07.2019
4790 Clouds 18 1025 67 10000 1.5 30 06:48 23.07.2019
4791 Clouds 18 1025 67 10000 1.5 30 06:29 23.07.2019
4792 Clouds 12 1026 87 10000 2.1 30 03:27 23.07.2019
4793 Fog 8 1024 100 10000 2.6 40 01:33 23.07.2019
4794 Fog 8 1024 100 10000 2.6 30 00:31 23.07.2019
4795 Rain 8 1024 100 5000 2.1 20 23:56 22.07.2019
4796 Clouds 8 1024 93 10000 1.5 30 23:36 22.07.2019
4797 Clear 9 1023 100 10000 2.78 39.46 23:18 22.07.2019
4798 Clear 9 1023 100 10000 2.1 10 22:42 22.07.2019
4799 Rain 9 1023 100 5000 2.78 39.46 22:21 22.07.2019
4800 Clear 9 1023 93 10000 1.5 40 21:43 22.07.2019
4801 Clear 9 1023 93 10000 1.5 40 21:23 22.07.2019
4802 Rain 10 1023 93 5000 2.45 145.311 20:49 22.07.2019
4803 Rain 10 1023 93 5000 2.45 145.311 20:31 22.07.2019
4804 Clouds 11 1023 93 10000 2.1 20 19:57 22.07.2019
4805 Clouds 11 1023 87 10000 2.6 10 19:37 22.07.2019
4806 Clouds 11 1023 87 10000 2.6 10 19:18 22.07.2019
4807 Clouds 11 1024 87 10000 2.1 40 18:44 22.07.2019
4808 Clouds 11 1024 87 10000 2.1 40 18:26 22.07.2019
4809 Clouds 11 1024 93 10000 2.6 10 17:44 22.07.2019
4810 Clouds 11 1024 93 10000 2.6 10 17:26 22.07.2019
4811 Clouds 11 1024 100 10000 2.6 70 16:54 22.07.2019
4812 Clouds 11 1023 93 10000 2.6 50 16:36 22.07.2019
4813 Clouds 11 1023 93 10000 1.5 90 16:18 22.07.2019
4814 Clouds 12 1023 87 10000 2.1 210 15:38 22.07.2019
4815 Clouds 12 1023 87 10000 2.6 170 15:19 22.07.2019
4816 Clouds 12 1023 82 10000 3.6 180 14:43 22.07.2019
4817 Clouds 13 1023 82 10000 3.6 180 14:22 22.07.2019
4818 Clouds 13 1022 87 10000 3.6 190 13:50 22.07.2019
4819 Clouds 13 1022 87 10000 3.6 190 13:30 22.07.2019
4820 Clouds 13 1022 76 10000 2.6 220 12:47 22.07.2019
4821 Clouds 13 1022 76 10000 2.6 220 12:29 22.07.2019
4822 Clouds 15 1021 67 10000 4.1 220 11:46 22.07.2019
4823 Clouds 15 1021 67 10000 4.1 220 11:26 22.07.2019
4824 Clouds 15 1021 63 10000 5.7 220 10:59 22.07.2019
4825 Clouds 16 1021 67 10000 5.7 210 10:33 22.07.2019
4826 Clouds 16 1021 67 10000 5.7 210 10:33 22.07.2019
4827 Clouds 16 1020 59 10000 4.1 220 09:45 22.07.2019
4828 Clouds 16 1020 59 10000 4.1 220 09:26 22.07.2019
4829 Clouds 16 1021 67 10000 4.1 180 08:57 22.07.2019
4830 Rain 16 1020 72 10000 5.1 180 08:36 22.07.2019
4831 Clouds 17 1020 72 10000 3.1 280 08:18 22.07.2019
4832 Rain 16 1020 67 10000 5.1 190 07:43 22.07.2019
4833 Rain 16 1020 67 10000 5.1 190 07:24 22.07.2019
4834 Drizzle 15 1021 76 10000 6.2 180 04:53 22.07.2019
4835 Clouds 13 1019 93 10000 2.1 360 02:57 22.07.2019
4836 Clear 13 1018 82 10000 2.6 210 00:58 22.07.2019
4837 Clouds 13 1018 82 10000 2.1 220 00:38 22.07.2019
4838 Clouds 12 1018 82 10000 2.1 220 00:38 22.07.2019
4839 Clouds 12 1018 82 10000 2.1 220 00:38 22.07.2019
4840 Clouds 13 1018 87 10000 2.6 200 00:18 22.07.2019
4841 Clouds 13 1017 87 10000 2.6 210 23:42 21.07.2019
4842 Clouds 13 1017 93 10000 8.05 204.757 22:56 21.07.2019
4843 Clouds 13 1017 93 10000 1.5 70 22:37 21.07.2019
4844 Clouds 13 1017 93 10000 0.5 150 22:19 21.07.2019
4845 Clouds 13 1017 93 10000 1.5 160 21:47 21.07.2019
4846 Clouds 13 1017 93 10000 1.5 160 21:25 21.07.2019
4847 Clouds 14 1017 93 10000 2.1 270 20:55 21.07.2019
4848 Rain 14 1017 87 10000 2.6 240 20:37 21.07.2019
4849 Rain 14 1017 87 10000 2.6 240 20:37 21.07.2019
4850 Rain 14 1017 87 10000 5.1 210 20:19 21.07.2019
4851 Rain 14 1017 93 10000 5.7 230 19:47 21.07.2019
4852 Rain 14 1017 93 10000 5.7 230 19:24 21.07.2019
4853 Rain 14 1017 87 10000 8.7 230 18:48 21.07.2019
4854 Rain 15 1017 87 10000 8.7 230 18:26 21.07.2019
4855 Rain 15 1017 87 10000 8.7 230 18:26 21.07.2019
4856 Rain 15 1017 93 10000 4.1 250 17:43 21.07.2019
4857 Rain 15 1017 82 10000 5.7 240 17:20 21.07.2019
4858 Rain 15 1017 82 10000 5.7 240 16:57 21.07.2019
4859 Rain 15 1017 87 10000 3.6 270 16:38 21.07.2019
4860 Rain 15 1017 87 10000 3.6 270 16:20 21.07.2019
4861 Rain 15 1017 87 10000 3.6 280 15:37 21.07.2019
4862 Rain 15 1017 87 9000 8.7 250 15:18 21.07.2019
4863 Rain 15 1017 87 7000 8.7 270 14:41 21.07.2019
4864 Clouds 16 1018 87 10000 4.1 270 14:22 21.07.2019
4865 Rain 16 1017 87 10000 4.1 280 13:51 21.07.2019
4866 Rain 16 1017 87 10000 4.1 280 13:30 21.07.2019
4867 Rain 15 1017 93 5000 10.3 270 12:44 21.07.2019
4868 Rain 16 1017 93 5000 10.3 270 12:25 21.07.2019
4869 Rain 17 1017 82 8000 7.7 270 11:51 21.07.2019
4870 Rain 16 1017 82 8000 7.7 270 11:30 21.07.2019
4871 Rain 17 1017 59 10000 6.2 270 10:58 21.07.2019
4872 Clear 18 1017 55 10000 5.1 280 10:40 21.07.2019
4873 Clear 18 1017 55 10000 5.1 280 10:22 21.07.2019
4874 Clouds 18 1017 59 10000 8.2 270 09:38 21.07.2019
4875 Clouds 18 1017 59 10000 8.2 270 09:20 21.07.2019
4876 Haze 18 1016 87 10000 5.7 260 08:43 21.07.2019
4877 Haze 18 1016 87 10000 5.7 260 08:25 21.07.2019
4878 Clouds 19 1016 52 10000 8.2 260 07:37 21.07.2019
4879 Rain 19 1018 63 10000 8.2 250 06:45 21.07.2019
4880 Clouds 18 1018 63 10000 6.7 270 05:28 21.07.2019
4881 Clouds 16 1018 67 10000 3.6 260 02:27 21.07.2019
4882 Rain 15 1017 67 10000 3.6 270 00:57 21.07.2019
4883 Rain 15 1018 87 10000 3.1 290 00:24 21.07.2019
4884 Rain 15 1018 87 10000 3.1 290 23:59 20.07.2019
4885 Rain 15 1018 93 10000 3.6 290 23:37 20.07.2019
4886 Rain 15 1018 87 10000 3.6 270 23:18 20.07.2019
4887 Clouds 15 1018 87 10000 2.6 270 22:42 20.07.2019
4888 Clouds 15 1018 87 10000 2.6 270 22:21 20.07.2019
4889 Clouds 15 1018 93 10000 2.6 300 21:45 20.07.2019
4890 Clouds 15 1018 93 10000 2.6 300 21:25 20.07.2019
4891 Rain 15 1018 93 10000 3.1 280 20:45 20.07.2019
4892 Rain 15 1018 93 10000 3.1 280 20:23 20.07.2019
4893 Rain 14 1019 93 6000 4.6 290 19:59 20.07.2019
4894 Rain 14 1019 87 10000 4.6 290 19:38 20.07.2019
4895 Rain 14 1019 87 6000 6.2 260 19:19 20.07.2019
4896 Rain 14 1019 87 10000 2.1 10 18:40 20.07.2019
4897 Rain 15 1019 93 10000 6.2 280 18:19 20.07.2019
4898 Clouds 15 1019 87 10000 3.6 30 17:48 20.07.2019
4899 Rain 15 1020 87 10000 2.1 10 17:20 20.07.2019
4900 Rain 15 1020 87 10000 2.1 10 17:20 20.07.2019
4901 Clouds 15 1020 93 10000 3.1 20 16:43 20.07.2019
4902 Clouds 15 1020 93 10000 3.1 20 16:24 20.07.2019
4903 Clouds 15 1020 87 10000 3.1 300 15:56 20.07.2019
4904 Clouds 15 1020 87 10000 2.6 320 15:37 20.07.2019
4905 Clouds 15 1020 82 10000 3.1 300 15:18 20.07.2019
4906 Clouds 15 1020 76 10000 2.6 310 14:43 20.07.2019
4907 Clouds 15 1020 82 10000 3.1 290 14:20 20.07.2019
4908 Clouds 15 1019 82 10000 2.6 330 13:38 20.07.2019
4909 Clouds 15 1019 82 10000 2.6 290 13:19 20.07.2019
4910 Clouds 15 1019 82 10000 2.6 290 12:52 20.07.2019
4911 Clouds 15 1019 82 10000 2.6 300 12:20 20.07.2019
4912 Rain 15 1019 82 10000 2.6 330 11:52 20.07.2019
4913 Rain 15 1019 82 10000 2.6 330 11:23 20.07.2019
4914 Rain 16 1019 77 10000 2.6 290 10:52 20.07.2019
4915 Rain 16 1019 77 10000 3.6 260 10:26 20.07.2019
4916 Rain 16 1019 87 10000 7.7 220 09:53 20.07.2019
4917 Rain 16 1019 87 10000 5.1 220 09:27 20.07.2019
4918 Rain 16 1018 77 10000 10.8 240 08:57 20.07.2019
4919 Rain 16 1018 87 10000 6.7 270 08:36 20.07.2019
4920 Rain 16 1018 63 10000 5.1 250 08:18 20.07.2019
4921 Rain 17 1018 77 7000 8.2 240 06:47 20.07.2019
4922 Clouds 16 1019 67 10000 8.7 240 06:21 20.07.2019
4923 Rain 14 1018 82 10000 2.1 150 04:31 20.07.2019
4924 Clouds 10 1016 93 10000 2.6 360 02:34 20.07.2019
4925 Clouds 9 1015 100 10000 2.6 70 01:20 20.07.2019
4926 Rain 10 1014 100 10000 1.5 30 00:45 20.07.2019
4927 Rain 10 1014 100 10000 1.5 140 00:18 20.07.2019
4928 Rain 10 1014 100 10000 1.5 140 00:18 20.07.2019
4929 Rain 10 1013 93 10000 2.6 350 23:43 19.07.2019
4930 Rain 10 1013 93 10000 2.6 350 23:22 19.07.2019
4931 Rain 10 1013 93 10000 4.6 170 22:43 19.07.2019
4932 Rain 10 1013 93 10000 4.6 170 22:24 19.07.2019
4933 Rain 11 1012 100 5000 2.6 360 21:46 19.07.2019
4934 Rain 11 1012 100 5000 2.6 360 21:27 19.07.2019
4935 Rain 10 1012 93 8000 7.7 200 20:50 19.07.2019
4936 Rain 10 1012 93 8000 7.7 200 20:31 19.07.2019
4937 Rain 11 1011 87 10000 5.7 200 19:55 19.07.2019
4938 Rain 11 1011 81 7000 7.7 240 19:34 19.07.2019
4939 Rain 11 1011 87 10000 10.3 220 18:42 19.07.2019
4940 Rain 11 1010 93 5000 12.9 230 18:22 19.07.2019
4941 Rain 12 1009 87 10000 5.1 220 17:55 19.07.2019
4942 Rain 12 1009 87 10000 5.1 220 17:29 19.07.2019
4943 Rain 12 1009 87 8000 8.2 240 16:49 19.07.2019
4944 Rain 12 1009 87 8000 8.2 240 16:27 19.07.2019
4945 Rain 12 1009 93 3800 11.8 240 15:53 19.07.2019
4946 Rain 13 1008 87 9000 6.2 250 15:31 19.07.2019
4947 Rain 13 1008 76 10000 8.7 250 14:58 19.07.2019
4948 Rain 13 1008 87 10000 9.8 250 14:39 19.07.2019
4949 Rain 14 1007 87 9000 7.7 250 14:21 19.07.2019
4950 Rain 14 1007 87 6000 8.2 240 13:44 19.07.2019
4951 Rain 14 1007 87 6000 8.2 240 13:44 19.07.2019
4952 Rain 14 1007 87 6000 8.2 240 13:44 19.07.2019
4953 Rain 14 1007 87 6000 8.2 240 13:44 19.07.2019
4954 Rain 14 1007 87 6000 8.2 240 13:26 19.07.2019
4955 Rain 15 1007 87 8000 7.7 260 12:55 19.07.2019
4956 Rain 15 1006 87 10000 10.3 250 12:31 19.07.2019
4957 Rain 15 1006 87 10000 10.3 250 12:31 19.07.2019
4958 Rain 15 1005 82 10000 10.3 260 11:59 19.07.2019
4959 Rain 15 1006 87 3500 7.7 280 11:41 19.07.2019
4960 Rain 15 1005 100 10000 7.7 290 11:18 19.07.2019
4961 Rain 15 1005 87 6000 9.3 330 10:47 19.07.2019
4962 Rain 15 1005 93 9000 14.4 280 10:22 19.07.2019
4963 Rain 16 1005 93 9000 14.4 280 09:58 19.07.2019
4964 Rain 17 1004 93 10000 8.7 310 09:39 19.07.2019
4965 Rain 17 1004 93 10000 8.7 310 09:21 19.07.2019
4966 Clouds 18 1006 63 10000 8.7 330 08:47 19.07.2019
4967 Clouds 19 1006 68 10000 9.3 340 07:53 19.07.2019
4968 Clouds 19 1006 68 10000 9.3 340 07:53 19.07.2019
4969 Clouds 19 1007 72 10000 8.2 360 07:29 19.07.2019
4970 Clouds 18 1009 82 10000 6.2 10 05:55 19.07.2019
4971 Rain 13 1011 93 4500 4.1 20 02:23 19.07.2019
4972 Rain 13 1011 100 3900 3.1 310 01:18 19.07.2019
4973 Rain 13 1012 93 5000 5.1 320 00:35 19.07.2019
4974 Rain 12 1012 93 7000 3.6 10 23:44 18.07.2019
4975 Rain 12 1012 93 7000 3.6 10 23:24 18.07.2019
4976 Rain 13 1012 100 8000 4.6 20 22:59 18.07.2019
4977 Mist 13 1012 100 10000 5.7 20 22:39 18.07.2019
4978 Rain 13 1012 100 4300 1 350 22:18 18.07.2019
4979 Rain 13 1013 100 9000 2.6 30 21:43 18.07.2019
4980 Rain 13 1013 93 8000 2.6 30 21:24 18.07.2019
4981 Rain 13 1013 100 9000 2.6 30 21:24 18.07.2019
4982 Drizzle 13 1013 93 7000 3.1 30 20:49 18.07.2019
4983 Drizzle 13 1013 93 7000 3.1 30 20:29 18.07.2019
4984 Drizzle 13 1013 93 7000 3.1 30 20:29 18.07.2019
4985 Clouds 13 1014 100 8000 3.1 20 19:53 18.07.2019
4986 Clouds 13 1014 100 8000 3.6 360 19:32 18.07.2019
4987 Rain 12 1015 100 10000 2.6 30 18:58 18.07.2019
4988 Clouds 12 1015 100 10000 3.1 10 18:38 18.07.2019
4989 Clouds 12 1015 100 10000 2.6 10 18:19 18.07.2019
4990 Rain 13 1015 100 5000 2.6 10 17:42 18.07.2019
4991 Rain 13 1015 100 5000 2.6 10 17:42 18.07.2019
4992 Rain 13 1016 100 5000 2.6 20 17:24 18.07.2019
4993 Rain 13 1016 100 5000 2.6 20 16:54 18.07.2019
4994 Clouds 13 1016 93 10000 2.6 30 16:29 18.07.2019
4995 Clouds 14 1016 93 10000 3.1 20 15:58 18.07.2019
4996 Clear 14 1016 93 10000 2.6 30 15:37 18.07.2019
4997 Clear 14 1016 93 10000 2.6 50 15:19 18.07.2019
4998 Clear 15 1017 93 10000 2.6 60 14:42 18.07.2019
4999 Clear 15 1017 87 10000 2.6 80 14:23 18.07.2019
5000 Clear 16 1016 87 10000 1.5 210 13:43 18.07.2019
5001 Clear 16 1016 87 10000 1.5 210 13:22 18.07.2019
5002 Clear 16 1016 82 10000 2.1 170 12:48 18.07.2019
5003 Clear 17 1016 72 10000 2.6 220 12:21 18.07.2019
5004 Clear 17 1016 72 10000 2.6 220 12:21 18.07.2019
5005 Clouds 17 1016 72 10000 2.6 230 11:52 18.07.2019
5006 Clouds 18 1016 72 10000 2.6 230 11:34 18.07.2019
5007 Clouds 18 1017 68 10000 3.1 260 10:58 18.07.2019
5008 Clouds 19 1017 68 10000 4.1 230 10:38 18.07.2019
5009 Clouds 19 1017 68 10000 2.1 30 09:48 18.07.2019
5010 Clouds 19 1017 68 10000 2.1 30 09:25 18.07.2019
5011 Clouds 19 1017 64 10000 3.1 360 08:50 18.07.2019
5012 Clouds 19 1018 63 10000 3.1 10 08:20 18.07.2019
5013 Clouds 19 1018 68 10000 3.6 360 07:45 18.07.2019
5014 Clouds 19 1018 68 10000 3.6 360 07:26 18.07.2019
5015 Clouds 18 1019 72 10000 3.6 20 06:38 18.07.2019
5016 Clouds 17 1020 67 10000 3.1 10 05:36 18.07.2019
5017 Clouds 13 1020 93 10000 2.6 10 03:23 18.07.2019
5018 Clouds 11 1020 93 10000 2.6 30 01:52 18.07.2019
5019 Clouds 11 1020 93 10000 2.6 30 01:18 18.07.2019
5020 Rain 11 1020 100 10000 2.1 80 23:54 17.07.2019
5021 Rain 11 1020 93 10000 3.22 324.795 23:20 17.07.2019
5022 Rain 11 1020 93 10000 3.22 324.795 22:56 17.07.2019
5023 Drizzle 11 1020 93 10000 2.6 30 22:38 17.07.2019
5024 Drizzle 10 1020 100 10000 2.6 30 22:19 17.07.2019
5025 Fog 11 1020 93 8000 2.6 10 21:43 17.07.2019
5026 Fog 10 1020 93 8000 2.6 10 21:25 17.07.2019
5027 Clouds 11 1020 93 10000 3.6 10 20:58 17.07.2019
5028 Clouds 11 1020 93 10000 3.6 10 20:39 17.07.2019
5029 Clouds 11 1020 93 10000 3.6 10 20:20 17.07.2019
5030 Clouds 11 1020 93 10000 3.1 10 19:44 17.07.2019
5031 Clouds 11 1020 93 10000 3.1 10 19:22 17.07.2019
5032 Clouds 10 1021 100 10000 3.1 10 18:59 17.07.2019
5033 Clouds 10 1021 100 10000 3.1 10 18:40 17.07.2019
5034 Clouds 10 1021 100 10000 3.1 10 18:40 17.07.2019
5035 Clouds 10 1021 93 10000 3.1 10 18:20 17.07.2019
5036 Clouds 10 1021 93 10000 3.1 10 17:49 17.07.2019
5037 Clouds 11 1021 93 10000 3.1 10 17:25 17.07.2019
5038 Clouds 10 1021 87 10000 2.6 10 16:45 17.07.2019
5039 Clouds 11 1021 93 10000 2.6 30 16:23 17.07.2019
5040 Clouds 11 1022 93 10000 2.6 30 15:52 17.07.2019
5041 Clouds 12 1022 93 10000 2.6 30 15:32 17.07.2019
5042 Clouds 12 1022 93 10000 2.6 30 15:32 17.07.2019
5043 Clouds 12 1021 87 10000 1 50 14:58 17.07.2019
5044 Clouds 13 1021 87 10000 2.1 350 14:40 17.07.2019
5045 Clouds 13 1021 81 10000 2.1 280 14:21 17.07.2019
5046 Clouds 13 1021 81 10000 2.1 280 13:57 17.07.2019
5047 Clear 14 1021 81 10000 2.1 320 13:37 17.07.2019
5048 Clear 15 1020 76 10000 2.1 310 13:18 17.07.2019
5049 Clear 16 1020 63 10000 2.6 290 12:39 17.07.2019
5050 Clear 16 1020 59 10000 3.6 270 12:20 17.07.2019
5051 Clear 18 1020 55 10000 4.1 280 11:44 17.07.2019
5052 Clear 19 1020 49 10000 5.7 260 11:20 17.07.2019
5053 Clear 20 1021 43 10000 5.1 270 10:50 17.07.2019
5054 Clear 20 1021 43 10000 5.1 270 10:25 17.07.2019
5055 Clear 21 1020 32 10000 5.7 310 09:46 17.07.2019
5056 Clear 21 1020 32 10000 5.7 310 09:28 17.07.2019
5057 Clear 21 1020 30 10000 6.7 310 08:58 17.07.2019
5058 Clear 21 1020 28 10000 6.2 300 08:39 17.07.2019
5059 Clear 21 1021 30 10000 5.1 330 08:21 17.07.2019
5060 Clear 21 1021 30 10000 5.1 320 07:41 17.07.2019
5061 Clear 21 1021 43 10000 3.1 20 07:22 17.07.2019
5062 Clear 21 1021 43 10000 3.1 20 07:22 17.07.2019
5063 Clear 21 1022 42 10000 3.6 10 06:46 17.07.2019
5064 Clear 21 1022 42 10000 3.6 10 06:46 17.07.2019
5065 Clear 20 1022 42 10000 3.6 10 06:28 17.07.2019
5066 Clear 18 1023 48 10000 3.6 10 05:42 17.07.2019
5067 Clear 18 1024 48 10000 2.6 20 05:20 17.07.2019
5068 Clear 16 1024 51 10000 2.6 10 04:22 17.07.2019
5069 Clear 10 1024 75 10000 3.6 30 02:45 17.07.2019
5070 Clear 8 1023 87 10000 3.1 20 01:43 17.07.2019
5071 Clear 8 1023 81 10000 3.1 30 01:23 17.07.2019
5072 Clear 8 1023 75 10000 3.1 30 00:43 17.07.2019
5073 Clear 8 1023 75 10000 3.1 30 00:23 17.07.2019
5074 Clear 8 1024 81 10000 3.1 30 23:47 16.07.2019
5075 Clear 8 1024 81 10000 3.1 30 23:28 16.07.2019
5076 Clear 8 1024 81 10000 2.6 30 22:57 16.07.2019
5077 Clear 8 1024 81 10000 3.1 10 22:39 16.07.2019
5078 Clear 8 1024 81 10000 2.6 30 22:19 16.07.2019
5079 Clear 7 1024 100 10000 2.6 40 21:43 16.07.2019
5080 Clear 7 1024 100 4600 5.22 40.976 21:20 16.07.2019
5081 Clear 7 1025 87 10000 2.6 10 20:41 16.07.2019
5082 Clear 7 1025 81 10000 2.6 30 20:23 16.07.2019
5083 Clear 8 1025 81 10000 2.6 30 19:55 16.07.2019
5084 Clear 7 1025 87 10000 2.1 40 19:37 16.07.2019
5085 Clear 8 1026 81 10000 2.1 10 19:19 16.07.2019
5086 Clear 8 1026 76 10000 1 10 18:44 16.07.2019
5087 Clear 9 1026 76 10000 3.1 70 18:21 16.07.2019
5088 Clear 9 1026 76 10000 2.6 60 17:54 16.07.2019
5089 Clear 9 1026 76 10000 2.6 60 17:36 16.07.2019
5090 Clear 9 1026 76 10000 2.6 60 17:36 16.07.2019
5091 Clear 9 1027 93 10000 2.1 20 16:53 16.07.2019
5092 Clear 9 1027 93 10000 2.1 20 16:28 16.07.2019
5093 Clear 10 1027 93 10000 3.89 74.358 15:58 16.07.2019
5094 Clear 10 1027 87 10000 2.1 30 15:39 16.07.2019
5095 Clear 11 1027 87 10000 1.5 40 15:20 16.07.2019
5096 Clear 11 1027 87 10000 1.5 40 14:55 16.07.2019
5097 Clear 11 1027 76 10000 1.5 40 14:37 16.07.2019
5098 Clear 12 1027 71 10000 2.5 111.439 14:18 16.07.2019
5099 Clear 13 1027 71 10000 2.6 160 13:43 16.07.2019
5100 Clouds 14 1026 62 10000 3.1 200 13:18 16.07.2019
5101 Clear 15 1026 58 10000 2.6 210 12:44 16.07.2019
5102 Clear 15 1026 51 10000 3.1 230 12:20 16.07.2019
5103 Clear 15 1026 51 10000 3.1 230 12:20 16.07.2019
5104 Clear 17 1026 42 10000 4.1 240 11:55 16.07.2019
5105 Clear 18 1026 42 10000 4.1 240 11:36 16.07.2019
5106 Clear 18 1026 34 10000 4.1 240 11:18 16.07.2019
5107 Clear 19 1026 34 10000 3.6 240 10:44 16.07.2019
5108 Clear 19 1026 32 10000 3.6 250 10:20 16.07.2019
5109 Clear 20 1026 35 10000 3.6 240 09:44 16.07.2019
5110 Clear 20 1026 32 10000 2.6 230 09:21 16.07.2019
5111 Clear 20 1026 32 10000 2.6 280 08:49 16.07.2019
5112 Clear 20 1026 32 10000 2.6 280 08:29 16.07.2019
5113 Clear 20 1027 35 10000 2.6 270 07:58 16.07.2019
5114 Clear 20 1027 37 10000 1.5 340 07:39 16.07.2019
5115 Clear 20 1028 42 10000 3.1 360 06:59 16.07.2019
5116 Clear 20 1028 40 10000 3.6 20 06:38 16.07.2019
5117 Clear 18 1029 45 10000 4.6 10 05:52 16.07.2019
5118 Clear 18 1029 45 10000 4.6 10 05:30 16.07.2019
5119 Clear 17 1030 54 10000 3.6 20 04:45 16.07.2019
5120 Clear 14 1030 66 10000 3.1 40 03:44 16.07.2019
5121 Clear 10 1029 76 10000 3.6 50 02:46 16.07.2019
5122 Clear 10 1029 76 10000 3.6 50 02:28 16.07.2019
5123 Clear 7 1029 75 10000 3.1 50 01:36 16.07.2019
5124 Clear 8 1028 76 10000 2.6 30 00:27 16.07.2019
5125 Clear 8 1028 76 10000 2.6 30 23:59 15.07.2019
5126 Clear 9 1028 76 10000 2.6 40 23:39 15.07.2019
5127 Clear 9 1028 76 10000 2.6 40 23:39 15.07.2019
5128 Clear 9 1028 71 10000 3.1 50 23:21 15.07.2019
5129 Clear 9 1028 76 10000 3.1 50 22:46 15.07.2019
5130 Clear 10 1028 76 10000 2.6 50 22:20 15.07.2019
5131 Clear 9 1028 76 10000 2.6 50 21:57 15.07.2019
5132 Clear 9 1028 76 10000 4.1 60 21:39 15.07.2019
5133 Clear 10 1028 81 10000 2.6 60 21:19 15.07.2019
5134 Clear 9 1028 81 10000 2.1 360 20:44 15.07.2019
5135 Clear 9 1028 76 10000 3.6 40 20:24 15.07.2019
5136 Clear 10 1028 76 10000 3.6 40 19:57 15.07.2019
5137 Clear 10 1028 81 10000 3.1 10 19:38 15.07.2019
5138 Clear 10 1028 71 10000 5.1 50 19:18 15.07.2019
5139 Clear 11 1029 71 10000 4.1 50 18:44 15.07.2019
5140 Clear 11 1029 71 10000 3.6 50 18:21 15.07.2019
5141 Clear 10 1029 71 10000 3.6 50 17:56 15.07.2019
5142 Clear 10 1029 71 10000 4.1 50 17:56 15.07.2019
5143 Clear 10 1029 71 10000 4.1 50 17:38 15.07.2019
5144 Clear 10 1029 76 10000 3.6 60 17:20 15.07.2019
5145 Clear 10 1029 76 10000 3.6 60 16:57 15.07.2019
5146 Clear 10 1029 76 10000 4.1 60 16:36 15.07.2019
5147 Clear 10 1029 76 10000 4.1 60 16:36 15.07.2019
5148 Clear 10 1029 87 10000 2.6 70 16:18 15.07.2019
5149 Clear 10 1029 81 10000 1 50 15:38 15.07.2019
5150 Clear 10 1029 81 10000 1 50 15:38 15.07.2019
5151 Clear 10 1029 87 10000 2.1 70 15:20 15.07.2019
5152 Clear 11 1029 87 10000 2.1 70 14:57 15.07.2019
5153 Clear 11 1029 87 10000 3.1 90 14:37 15.07.2019
5154 Clear 12 1029 81 10000 3.1 80 14:18 15.07.2019
5155 Clear 12 1029 76 10000 3.1 80 13:43 15.07.2019
5156 Clouds 14 1028 71 10000 2.1 70 13:18 15.07.2019
5157 Clouds 15 1028 66 10000 2.6 70 12:42 15.07.2019
5158 Clear 16 1027 55 10000 3.1 70 12:23 15.07.2019
5159 Clear 17 1027 48 10000 4.1 70 11:44 15.07.2019
5160 Clear 18 1027 48 10000 4.1 70 11:26 15.07.2019
5161 Clear 20 1027 42 10000 3.6 70 10:48 15.07.2019
5162 Clear 20 1027 42 10000 3.6 70 10:30 15.07.2019
5163 Clear 20 1027 42 10000 4.6 70 09:58 15.07.2019
5164 Clear 20 1028 42 10000 3.6 60 09:39 15.07.2019
5165 Clear 20 1028 48 10000 5.1 20 09:18 15.07.2019
5166 Clear 20 1028 40 10000 5.1 30 08:41 15.07.2019
5167 Clear 20 1028 42 10000 5.7 30 08:23 15.07.2019
5168 Clear 20 1029 42 10000 5.7 60 07:41 15.07.2019
5169 Clear 20 1029 42 10000 6.7 30 07:20 15.07.2019
5170 Clear 19 1030 45 10000 7.2 40 06:39 15.07.2019
5171 Clear 18 1031 48 10000 7.7 20 05:49 15.07.2019
5172 Clear 17 1031 48 10000 7.7 20 05:29 15.07.2019
5173 Clear 16 1031 48 10000 6.2 40 04:43 15.07.2019
5174 Clear 14 1031 54 10000 5.1 50 03:48 15.07.2019
5175 Clouds 11 1031 66 10000 4.6 70 02:45 15.07.2019
5176 Clouds 10 1031 70 10000 6.2 70 01:44 15.07.2019
5177 Clouds 10 1031 70 10000 6.2 70 01:26 15.07.2019
5178 Clear 10 1031 71 10000 3.6 50 00:51 15.07.2019
5179 Clear 10 1031 71 10000 5.1 60 00:20 15.07.2019
5180 Clear 10 1031 70 10000 4.6 60 23:55 14.07.2019
5181 Clear 10 1031 70 10000 4.6 60 23:36 14.07.2019
5182 Clear 9 1031 71 10000 4.1 60 23:18 14.07.2019
5183 Clear 10 1030 71 10000 4.6 70 22:40 14.07.2019
5184 Clear 10 1030 71 10000 4.6 70 22:40 14.07.2019
5185 Clear 10 1030 71 10000 4.6 80 22:22 14.07.2019
5186 Clear 11 1030 71 10000 4.6 80 21:58 14.07.2019
5187 Clear 11 1030 71 10000 4.1 90 21:40 14.07.2019
5188 Clear 11 1030 66 10000 3.6 70 21:18 14.07.2019
5189 Clear 11 1030 66 10000 3.6 70 21:18 14.07.2019
5190 Clear 11 1030 66 10000 3.6 70 20:54 14.07.2019
5191 Clear 11 1030 66 10000 5.1 80 20:36 14.07.2019
5192 Clear 12 1030 62 10000 4.1 70 20:18 14.07.2019
5193 Clear 12 1030 66 10000 3.6 80 19:41 14.07.2019
5194 Clear 12 1030 66 10000 4.6 90 19:23 14.07.2019
5195 Clear 12 1030 66 10000 5.7 90 18:45 14.07.2019
5196 Clear 12 1030 66 10000 5.7 90 18:27 14.07.2019
5197 Clear 11 1030 66 10000 5.7 90 17:59 14.07.2019
5198 Clear 11 1030 66 10000 5.7 80 17:39 14.07.2019
5199 Clear 12 1030 62 10000 6.7 80 17:18 14.07.2019
5200 Clear 11 1030 62 10000 8.2 70 16:46 14.07.2019
5201 Clear 12 1030 62 10000 6.2 70 16:23 14.07.2019
5202 Clear 12 1030 62 10000 6.2 70 16:23 14.07.2019
5203 Clear 12 1030 62 10000 4.1 80 15:49 14.07.2019
5204 Clear 12 1030 62 10000 4.1 80 15:27 14.07.2019
5205 Clear 12 1031 66 10000 1.5 40 14:48 14.07.2019
5206 Clear 12 1031 76 10000 2.1 110 14:21 14.07.2019
5207 Clear 12 1031 76 10000 3.6 110 13:49 14.07.2019
5208 Clear 13 1031 71 10000 3.1 100 13:25 14.07.2019
5209 Clear 13 1031 71 10000 3.1 100 12:58 14.07.2019
5210 Clear 14 1031 62 10000 2.1 60 12:40 14.07.2019
5211 Clouds 15 1030 54 10000 3.6 60 12:19 14.07.2019
5212 Clouds 16 1030 48 10000 3.6 70 11:51 14.07.2019
5213 Clouds 17 1030 42 10000 6.7 70 11:22 14.07.2019
5214 Clouds 18 1030 42 10000 5.7 60 10:49 14.07.2019
5215 Clear 19 1030 42 10000 6.7 90 10:22 14.07.2019
5216 Clear 19 1030 45 10000 6.2 70 09:50 14.07.2019
5217 Clear 19 1030 45 10000 6.2 70 09:30 14.07.2019
5218 Clear 19 1030 45 10000 6.2 70 08:57 14.07.2019
5219 Clear 18 1030 45 10000 7.2 70 08:39 14.07.2019
5220 Clear 18 1031 45 10000 6.2 60 07:46 14.07.2019
5221 Clear 18 1032 45 10000 5.7 60 07:21 14.07.2019
5222 Clear 16 1033 48 10000 5.7 50 05:47 14.07.2019
5223 Clear 14 1033 66 10000 5.1 80 03:59 14.07.2019
5224 Clear 13 1033 66 10000 5.7 70 03:41 14.07.2019
5225 Clear 12 1033 66 10000 5.7 70 03:23 14.07.2019
5226 Clear 9 1033 81 10000 4.6 70 02:24 14.07.2019
5227 Clear 9 1033 81 10000 4.6 70 02:24 14.07.2019
5228 Clear 9 1033 81 10000 4.6 70 01:54 14.07.2019
5229 Clear 8 1033 81 10000 2.6 50 01:30 14.07.2019
5230 Clear 8 1033 81 10000 3.1 90 00:41 14.07.2019
5231 Clear 9 1032 81 10000 3.6 90 00:20 14.07.2019
5232 Clear 9 1032 81 10000 3.6 90 23:58 13.07.2019
5233 Clear 9 1032 81 10000 4.6 90 23:40 13.07.2019
5234 Clear 9 1032 76 10000 3.6 90 23:20 13.07.2019
5235 Clear 9 1032 76 10000 4.6 90 22:42 13.07.2019
5236 Clear 9 1032 76 10000 5.7 90 22:22 13.07.2019
5237 Clear 10 1032 71 10000 5.1 90 21:48 13.07.2019
5238 Clear 10 1032 76 10000 5.7 90 21:21 13.07.2019
5239 Clear 11 1032 76 10000 2.6 50 20:52 13.07.2019
5240 Clear 11 1032 76 10000 2.6 50 20:33 13.07.2019
5241 Clear 10 1032 76 10000 5.1 80 19:50 13.07.2019
5242 Clear 10 1032 76 10000 5.1 80 19:30 13.07.2019
5243 Clear 10 1033 76 10000 4.6 100 18:47 13.07.2019
5244 Clear 11 1033 76 10000 4.6 100 18:28 13.07.2019
5245 Clear 11 1033 71 10000 3.6 100 17:56 13.07.2019
5246 Clear 11 1033 71 10000 3.6 100 17:56 13.07.2019
5247 Clear 11 1034 71 10000 4.6 90 17:37 13.07.2019
5248 Clear 12 1034 71 10000 6.2 90 17:18 13.07.2019
5249 Clear 11 1033 71 10000 4.1 90 16:42 13.07.2019
5250 Clear 12 1033 71 10000 4.6 100 16:23 13.07.2019
5251 Clear 12 1033 66 10000 4.6 100 15:46 13.07.2019
5252 Clear 13 1033 66 10000 4.6 100 15:23 13.07.2019
5253 Clear 13 1032 71 10000 3.6 110 14:46 13.07.2019
5254 Clear 13 1032 71 10000 3.6 110 14:26 13.07.2019
5255 Clear 13 1032 71 10000 3.6 110 13:56 13.07.2019
5256 Clear 13 1032 71 10000 3.6 110 13:37 13.07.2019
5257 Clear 13 1032 66 10000 3.1 120 13:18 13.07.2019
5258 Clouds 14 1032 62 10000 4.1 110 12:40 13.07.2019
5259 Clouds 14 1032 62 10000 4.1 110 12:40 13.07.2019
5260 Clouds 15 1032 59 10000 5.7 100 12:22 13.07.2019
5261 Clouds 15 1032 59 10000 5.7 100 12:22 13.07.2019
5262 Clouds 16 1032 59 10000 5.7 90 11:52 13.07.2019
5263 Clouds 17 1031 55 10000 5.7 90 11:19 13.07.2019
5264 Clouds 18 1031 52 10000 6.2 110 10:45 13.07.2019
5265 Clouds 18 1031 52 10000 6.2 110 10:24 13.07.2019
5266 Clouds 19 1031 52 10000 5.1 110 09:57 13.07.2019
5267 Clouds 19 1031 48 10000 6.2 80 09:38 13.07.2019
5268 Clouds 19 1031 48 10000 5.7 80 09:18 13.07.2019
5269 Clouds 18 1031 45 10000 5.1 70 08:33 13.07.2019
5270 Clouds 18 1032 48 10000 6.2 80 07:59 13.07.2019
5271 Clouds 19 1032 52 10000 5.7 70 07:30 13.07.2019
5272 Clouds 18 1033 51 10000 5.7 60 06:39 13.07.2019
5273 Clouds 17 1034 55 10000 4.6 60 05:58 13.07.2019
5274 Clear 15 1034 67 10000 4.6 70 04:49 13.07.2019
5275 Clear 15 1034 71 10000 3.6 70 04:22 13.07.2019
5276 Clear 14 1034 71 10000 3.6 70 03:55 13.07.2019
5277 Clear 13 1034 76 10000 3.6 70 03:37 13.07.2019
5278 Rain 9 1033 93 10000 4.6 70 01:55 13.07.2019
5279 Clouds 9 1033 93 10000 4.6 70 01:36 13.07.2019
5280 Clouds 10 1033 93 10000 4.6 70 01:18 13.07.2019
5281 Clouds 10 1033 93 10000 4.6 70 01:18 13.07.2019
5282 Clouds 10 1033 87 10000 4.6 70 00:46 13.07.2019
5283 Clouds 10 1033 87 10000 2.6 60 00:18 13.07.2019
5284 Clouds 10 1032 87 10000 3.1 80 23:42 12.07.2019
5285 Clouds 9 1032 87 10000 4.6 70 23:23 12.07.2019
5286 Clear 8 1032 100 10000 2.6 310 22:42 12.07.2019
5287 Clear 9 1032 100 10000 2.6 310 22:23 12.07.2019
5288 Clear 9 1032 100 10000 2.1 290 21:42 12.07.2019
5289 Clear 9 1032 93 10000 1.5 230 21:22 12.07.2019
5290 Clear 9 1032 93 10000 5.67 111.494 20:54 12.07.2019
5291 Clear 10 1032 93 10000 2.1 270 20:24 12.07.2019
5292 Clear 10 1032 87 10000 2.1 260 19:45 12.07.2019
5293 Clear 10 1032 87 10000 2.1 260 19:27 12.07.2019
5294 Clear 10 1032 93 10000 1.5 100 18:59 12.07.2019
5295 Clear 10 1032 87 10000 4.1 170 18:38 12.07.2019
5296 Clear 10 1032 87 10000 3.6 170 18:19 12.07.2019
5297 Clear 10 1032 87 10000 2.6 120 17:47 12.07.2019
5298 Clear 10 1032 87 10000 2.6 120 17:27 12.07.2019
5299 Clear 11 1032 76 10000 2.6 60 16:43 12.07.2019
5300 Clouds 13 1032 67 10000 4.6 80 16:20 12.07.2019
5301 Clouds 13 1032 67 10000 5.1 90 15:41 12.07.2019
5302 Clouds 13 1032 71 10000 3.6 90 15:21 12.07.2019
5303 Clouds 13 1032 71 10000 3.6 90 14:56 12.07.2019
5304 Clouds 13 1032 71 10000 2.6 110 14:38 12.07.2019
5305 Clouds 13 1032 76 10000 3.1 110 14:19 12.07.2019
5306 Clouds 13 1032 76 10000 3.6 110 13:39 12.07.2019
5307 Clouds 14 1032 67 10000 4.6 100 12:58 12.07.2019
5308 Clouds 14 1031 67 10000 4.1 100 12:39 12.07.2019
5309 Clouds 14 1031 67 10000 6.2 110 12:20 12.07.2019
5310 Clouds 15 1030 63 10000 7.2 110 11:44 12.07.2019
5311 Clouds 17 1030 59 10000 5.1 110 11:20 12.07.2019
5312 Clouds 17 1030 55 10000 4.6 110 10:44 12.07.2019
5313 Clouds 18 1030 52 10000 3.6 120 10:24 12.07.2019
5314 Clouds 18 1029 52 10000 4.6 110 09:54 12.07.2019
5315 Clouds 18 1029 52 10000 4.6 110 09:30 12.07.2019
5316 Clouds 18 1029 52 10000 4.6 110 09:30 12.07.2019
5317 Clouds 18 1030 55 10000 3.6 100 08:59 12.07.2019
5318 Clouds 18 1030 55 10000 2.6 130 08:39 12.07.2019
5319 Clouds 18 1030 59 10000 2.6 100 08:18 12.07.2019
5320 Clouds 18 1030 55 10000 2.6 150 07:40 12.07.2019
5321 Clouds 18 1031 59 10000 2.6 130 07:22 12.07.2019
5322 Clouds 17 1031 63 10000 4.1 80 06:29 12.07.2019
5323 Clouds 16 1032 67 10000 5.1 60 05:46 12.07.2019
5324 Clouds 11 1032 87 10000 4.1 70 03:22 12.07.2019
5325 Mist 7 1031 100 10000 1.5 360 01:41 12.07.2019
5326 Mist 7 1031 100 10000 2.1 30 00:58 12.07.2019
5327 Mist 7 1030 93 8000 1 50 00:20 12.07.2019
5328 Clear 7 1030 93 10000 7.35 136.295 23:47 11.07.2019
5329 Clear 8 1030 93 10000 7.35 136.295 23:26 11.07.2019
5330 Clear 7 1030 100 10000 7.35 136.295 22:52 11.07.2019
5331 Clear 7 1030 100 10000 7.35 136.295 22:27 11.07.2019
5332 Clouds 8 1030 100 10000 7.35 136.295 21:59 11.07.2019
5333 Clouds 7 1030 100 10000 7.35 136.295 21:40 11.07.2019
5334 Clouds 8 1030 100 3500 6.58 150.163 21:18 11.07.2019
5335 Clear 8 1030 93 10000 6.58 150.163 20:42 11.07.2019
5336 Clear 8 1030 93 10000 1 80 20:24 11.07.2019
5337 Clear 8 1030 93 10000 1 80 19:58 11.07.2019
5338 Clouds 8 1030 100 5000 6.58 150.163 19:39 11.07.2019
5339 Clouds 8 1030 100 10000 6.58 150.163 19:21 11.07.2019
5340 Clouds 8 1030 100 10000 6.58 150.163 18:43 11.07.2019
5341 Clouds 9 1030 100 4300 4.63 142.818 18:24 11.07.2019
5342 Clear 9 1030 93 10000 4.63 142.818 17:50 11.07.2019
5343 Clear 10 1030 93 10000 4.63 142.818 17:31 11.07.2019
5344 Clear 10 1030 93 10000 1.5 30 16:55 11.07.2019
5345 Clear 10 1030 93 10000 4.63 142.818 16:37 11.07.2019
5346 Clear 10 1030 93 10000 4.63 142.818 16:18 11.07.2019
5347 Clear 11 1030 93 10000 4.63 142.818 15:40 11.07.2019
5348 Clear 12 1030 87 10000 2.1 200 15:21 11.07.2019
5349 Clear 12 1029 87 10000 3.6 190 14:45 11.07.2019
5350 Clear 12 1029 82 10000 3.1 180 14:25 11.07.2019
5351 Clear 13 1029 82 10000 3.1 180 13:56 11.07.2019
5352 Clear 14 1029 76 10000 4.1 190 13:37 11.07.2019
5353 Clouds 14 1029 72 10000 4.6 200 13:18 11.07.2019
5354 Clouds 15 1028 72 10000 4.1 200 12:38 11.07.2019
5355 Clouds 15 1028 67 10000 5.1 190 12:19 11.07.2019
5356 Clouds 16 1028 63 10000 3.6 230 11:45 11.07.2019
5357 Clouds 17 1028 63 10000 3.1 190 11:24 11.07.2019
5358 Clouds 17 1028 63 10000 4.6 180 10:51 11.07.2019
5359 Clouds 17 1027 59 10000 4.1 190 10:20 11.07.2019
5360 Clouds 18 1027 55 10000 3.6 230 09:50 11.07.2019
5361 Clouds 18 1027 55 10000 3.6 230 09:31 11.07.2019
5362 Clouds 18 1027 63 10000 4.1 180 08:57 11.07.2019
5363 Clouds 18 1027 59 10000 3.6 200 08:37 11.07.2019
5364 Clouds 18 1027 63 10000 3.1 190 08:19 11.07.2019
5365 Clouds 18 1028 63 10000 3.1 170 07:42 11.07.2019
5366 Clouds 17 1028 63 10000 3.1 210 06:49 11.07.2019
5367 Clouds 17 1029 63 10000 3.1 180 06:18 11.07.2019
5368 Clouds 17 1029 77 10000 1 130 05:31 11.07.2019
5369 Clouds 16 1030 72 10000 1.5 360 04:56 11.07.2019
5370 Clouds 13 1029 100 9000 2.83 91.863 02:43 11.07.2019
5371 Rain 12 1028 93 10000 2.1 90 01:53 11.07.2019
5372 Drizzle 12 1028 100 9000 2.1 110 00:32 11.07.2019
5373 Clouds 12 1027 93 10000 2.1 10 23:49 10.07.2019
5374 Clouds 12 1027 93 10000 3.6 350 23:21 10.07.2019
5375 Clouds 12 1027 87 10000 2.6 10 22:53 10.07.2019
5376 Clouds 12 1027 87 10000 4.44 205.324 22:22 10.07.2019
5377 Clouds 11 1027 93 10000 2.6 20 21:48 10.07.2019
5378 Clouds 11 1027 93 10000 2.6 20 21:48 10.07.2019
5379 Clouds 11 1027 93 10000 2.6 20 21:29 10.07.2019
5380 Clouds 11 1027 93 10000 1 20 20:59 10.07.2019
5381 Clouds 11 1027 100 10000 3.41 225.059 20:41 10.07.2019
5382 Clouds 11 1027 100 5000 3.41 225.059 20:20 10.07.2019
5383 Clouds 11 1027 100 5000 1 350 19:54 10.07.2019
5384 Clouds 11 1027 93 10000 2.6 20 19:22 10.07.2019
5385 Clouds 11 1027 93 10000 2.6 20 19:22 10.07.2019
5386 Clouds 11 1027 93 10000 2.6 20 19:22 10.07.2019
5387 Clouds 11 1027 93 10000 2.6 20 19:22 10.07.2019
5388 Clouds 12 1027 93 10000 2.6 20 18:59 10.07.2019
5389 Clouds 12 1027 93 10000 0.5 70 18:41 10.07.2019
5390 Clouds 12 1027 100 7000 2.1 90 18:22 10.07.2019
5391 Clouds 11 1028 100 5000 2.91 214.045 17:42 10.07.2019
5392 Clouds 11 1027 93 10000 2.91 214.045 17:22 10.07.2019
5393 Clouds 11 1027 100 10000 2.91 214.045 16:38 10.07.2019
5394 Clouds 12 1027 100 10000 2.91 214.045 16:19 10.07.2019
5395 Clouds 12 1027 100 4100 2.91 214.045 15:46 10.07.2019
5396 Clouds 13 1027 82 10000 2.6 200 15:22 10.07.2019
5397 Clouds 14 1027 82 10000 3.6 180 14:43 10.07.2019
5398 Clouds 14 1027 82 10000 3.6 180 14:24 10.07.2019
5399 Clouds 15 1027 77 10000 5.7 170 13:52 10.07.2019
5400 Clouds 15 1026 67 10000 3.6 200 13:19 10.07.2019
5401 Clouds 16 1026 67 10000 3.6 200 12:58 10.07.2019
5402 Clouds 16 1026 67 10000 3.6 200 12:58 10.07.2019
5403 Clouds 16 1026 67 10000 3.6 210 12:38 10.07.2019
5404 Clouds 16 1026 67 10000 3.6 210 12:38 10.07.2019
5405 Clouds 16 1026 67 10000 3.1 210 12:19 10.07.2019
5406 Clouds 16 1026 63 10000 3.6 220 11:46 10.07.2019
5407 Clouds 17 1025 59 10000 4.6 240 11:21 10.07.2019
5408 Clouds 17 1025 63 10000 4.6 250 10:46 10.07.2019
5409 Clouds 17 1025 63 10000 4.1 220 10:21 10.07.2019
5410 Clouds 18 1025 59 10000 4.6 230 09:44 10.07.2019
5411 Clouds 18 1024 55 10000 3.1 280 09:21 10.07.2019
5412 Clouds 18 1025 59 10000 3.6 220 08:52 10.07.2019
5413 Clouds 18 1025 59 10000 3.6 220 08:29 10.07.2019
5414 Clouds 18 1025 59 10000 3.1 210 07:55 10.07.2019
5415 Clouds 18 1025 59 10000 3.1 210 07:32 10.07.2019
5416 Clouds 18 1026 63 10000 3.6 190 06:56 10.07.2019
5417 Clouds 18 1026 63 10000 4.1 210 05:59 10.07.2019
5418 Clouds 17 1026 82 10000 1.5 60 04:38 10.07.2019
5419 Clouds 15 1026 87 10000 2.6 40 03:40 10.07.2019
5420 Clouds 12 1025 100 10000 2.1 30 00:47 10.07.2019
5421 Clouds 12 1025 100 10000 2.1 30 00:26 10.07.2019
5422 Fog 12 1024 100 5000 1.5 20 23:41 09.07.2019
5423 Fog 12 1024 100 10000 1.5 20 23:21 09.07.2019
5424 Fog 12 1024 93 10000 1.5 0 22:40 09.07.2019
5425 Fog 12 1024 93 6000 1.5 360 22:22 09.07.2019
5426 Fog 12 1024 93 6000 1.5 360 21:55 09.07.2019
5427 Fog 12 1024 93 10000 1.5 0 21:36 09.07.2019
5428 Fog 12 1024 93 10000 1.5 0 21:18 09.07.2019
5429 Rain 12 1024 93 10000 2.6 10 20:42 09.07.2019
5430 Drizzle 11 1024 100 7000 2.6 20 20:24 09.07.2019
5431 Rain 11 1024 100 10000 2.1 50 19:39 09.07.2019
5432 Rain 11 1024 100 5000 2.1 50 19:20 09.07.2019
5433 Rain 12 1025 100 5000 3.1 130 18:44 09.07.2019
5434 Rain 12 1025 100 10000 2.6 70 18:23 09.07.2019
5435 Rain 11 1025 93 10000 2.6 20 17:54 09.07.2019
5436 Clouds 11 1025 93 10000 2.6 20 17:36 09.07.2019
5437 Clouds 11 1025 93 10000 2.1 30 17:18 09.07.2019
5438 Clouds 11 1025 93 10000 2.1 40 16:41 09.07.2019
5439 Clouds 12 1025 93 10000 2.6 70 16:23 09.07.2019
5440 Clouds 12 1025 93 10000 2.6 70 15:44 09.07.2019
5441 Clouds 12 1025 93 10000 2.6 70 15:26 09.07.2019
5442 Clouds 12 1025 93 10000 1.5 340 14:47 09.07.2019
5443 Clouds 13 1025 93 10000 2.1 310 14:24 09.07.2019
5444 Clouds 13 1025 93 10000 2.1 310 13:57 09.07.2019
5445 Clouds 13 1024 87 10000 2.6 300 13:39 09.07.2019
5446 Clouds 13 1024 87 10000 2.6 300 13:39 09.07.2019
5447 Clouds 14 1024 82 10000 2.6 290 13:20 09.07.2019
5448 Clouds 15 1024 77 10000 2.6 290 12:39 09.07.2019
5449 Clouds 15 1024 77 10000 3.1 220 12:19 09.07.2019
5450 Clouds 16 1024 67 10000 5.7 230 11:56 09.07.2019
5451 Clouds 16 1024 67 10000 5.7 230 11:37 09.07.2019
5452 Clouds 16 1024 63 10000 3.6 260 11:19 09.07.2019
5453 Rain 17 1023 63 10000 4.1 260 10:47 09.07.2019
5454 Rain 17 1023 63 10000 4.1 260 10:26 09.07.2019
5455 Clouds 17 1023 63 10000 3.6 270 09:39 09.07.2019
5456 Clouds 17 1023 67 10000 3.6 290 09:20 09.07.2019
5457 Clouds 17 1023 67 10000 4.1 250 08:45 09.07.2019
5458 Clouds 17 1023 67 10000 4.1 250 08:45 09.07.2019
5459 Clouds 17 1023 67 10000 4.1 250 08:45 09.07.2019
5460 Rain 17 1024 55 10000 5.1 240 08:21 09.07.2019
5461 Rain 10 1016 87 10000 0.5 120 03:52 05.07.2019
5462 Rain 10 1016 87 10000 0.5 120 03:24 05.07.2019
5463 Rain 10 1016 100 10000 3.1 180 02:53 05.07.2019
5464 Rain 9 1016 100 10000 3.1 180 02:34 05.07.2019
5465 Rain 9 1014 87 10000 4.6 170 01:37 05.07.2019
5466 Rain 9 1013 93 10000 3.6 190 00:52 05.07.2019
5467 Rain 9 1013 93 10000 3.6 190 00:32 05.07.2019
5468 Rain 9 1012 100 10000 3.1 20 23:47 04.07.2019
5469 Rain 10 1012 93 8000 10.3 200 23:19 04.07.2019
5470 Rain 10 1013 93 10000 3.1 360 22:43 04.07.2019
5471 Rain 10 1012 93 10000 2.6 280 22:24 04.07.2019
5472 Rain 10 1012 93 10000 2.6 30 21:45 04.07.2019
5473 Rain 10 1012 93 10000 2.6 30 21:26 04.07.2019
5474 Rain 10 1012 100 3500 0.5 10 20:59 04.07.2019
5475 Rain 10 1013 100 4000 0.5 30 20:38 04.07.2019
5476 Rain 10 1012 100 8000 2.6 30 20:20 04.07.2019
5477 Rain 10 1011 100 10000 3.6 60 19:42 04.07.2019
5478 Rain 10 1012 100 5000 1.5 30 19:22 04.07.2019
5479 Rain 10 1012 100 5000 1.5 30 19:22 04.07.2019
5480 Rain 10 1011 100 7000 2.6 150 18:56 04.07.2019
5481 Rain 10 1011 100 7000 2.6 150 18:37 04.07.2019
5482 Rain 10 1012 93 4000 1 300 18:18 04.07.2019
5483 Rain 10 1012 93 10000 3.6 250 17:43 04.07.2019
5484 Rain 11 1012 100 5000 4.6 290 17:19 04.07.2019
5485 Rain 11 1010 100 5000 2.1 320 15:57 04.07.2019
5486 Rain 11 1009 93 10000 1.5 360 15:39 04.07.2019
5487 Rain 12 1009 93 10000 2.6 30 15:18 04.07.2019
5488 Drizzle 12 1009 93 10000 2.1 10 14:41 04.07.2019
5489 Rain 12 1009 93 9000 2.6 40 14:22 04.07.2019
5490 Rain 12 1009 93 9000 2.6 40 13:58 04.07.2019
5491 Rain 12 1009 100 7000 3.1 190 13:39 04.07.2019
5492 Rain 12 1008 100 5000 2.1 310 13:21 04.07.2019
5493 Rain 12 1008 100 6000 2.6 270 12:40 04.07.2019
5494 Rain 12 1007 100 9000 5.1 230 12:21 04.07.2019
5495 Rain 12 1007 100 9000 5.1 230 11:57 04.07.2019
5496 Rain 12 1007 100 10000 2.1 90 11:37 04.07.2019
5497 Rain 13 1007 93 6000 4.1 30 11:18 04.07.2019
5498 Rain 13 1007 100 10000 3.1 340 10:39 04.07.2019
5499 Rain 13 1007 100 10000 1.5 90 10:19 04.07.2019
5500 Rain 13 1007 93 10000 4.1 180 09:39 04.07.2019
5501 Rain 13 1007 100 10000 4.66 210.134 09:20 04.07.2019
5502 Rain 13 1007 93 5000 2.6 160 08:55 04.07.2019
5503 Rain 13 1008 100 7000 1.5 280 08:19 04.07.2019
5504 Rain 13 1008 93 6000 5.1 250 07:43 04.07.2019
5505 Rain 13 1007 100 10000 3.6 250 07:22 04.07.2019
5506 Rain 14 1007 93 9000 7.2 220 06:39 04.07.2019
5507 Rain 14 1008 93 4000 7.7 220 05:50 04.07.2019
5508 Rain 14 1007 87 5000 2.6 330 05:31 04.07.2019
5509 Clouds 18 1007 48 10000 8.7 20 02:41 04.07.2019
5510 Clear 18 1007 42 10000 7.7 30 01:28 04.07.2019
5511 Clear 18 1007 42 10000 6.7 30 00:57 04.07.2019
5512 Clear 18 1008 34 10000 7.7 20 23:56 03.07.2019
5513 Clear 19 1008 37 10000 8.2 30 23:21 03.07.2019
5514 Clear 19 1008 37 10000 8.2 30 22:59 03.07.2019
5515 Clear 19 1009 37 10000 7.2 30 22:39 03.07.2019
5516 Clear 18 1009 37 10000 8.7 30 22:21 03.07.2019
5517 Clear 18 1009 37 10000 8.7 30 21:56 03.07.2019
5518 Clear 18 1009 39 10000 8.7 40 21:37 03.07.2019
5519 Clear 18 1010 39 10000 7.7 40 20:57 03.07.2019
5520 Clear 18 1010 39 10000 6.7 40 20:39 03.07.2019
5521 Clear 18 1011 42 10000 7.2 40 20:19 03.07.2019
5522 Clear 18 1011 42 10000 8.2 30 19:48 03.07.2019
5523 Clear 18 1011 42 10000 8.2 30 19:29 03.07.2019
5524 Clear 18 1012 42 10000 4.6 40 18:46 03.07.2019
5525 Clear 18 1013 42 10000 4.6 20 18:24 03.07.2019
5526 Clear 17 1013 48 10000 4.1 30 17:54 03.07.2019
5527 Clear 17 1013 48 10000 4.1 30 17:20 03.07.2019
5528 Clear 17 1013 48 10000 4.1 30 16:59 03.07.2019
5529 Clear 17 1014 48 10000 4.6 40 16:40 03.07.2019
5530 Clear 17 1014 48 10000 3.6 40 16:19 03.07.2019
5531 Clear 17 1014 55 10000 3.6 40 15:47 03.07.2019
5532 Clear 17 1014 55 10000 3.6 40 15:28 03.07.2019
5533 Clear 17 1015 51 10000 3.6 40 14:51 03.07.2019
5534 Clear 16 1015 55 10000 4.1 50 14:23 03.07.2019
5535 Clear 17 1014 51 10000 4.1 40 13:50 03.07.2019
5536 Clear 17 1014 51 10000 4.1 40 13:31 03.07.2019
5537 Clear 17 1014 55 10000 4.1 50 12:54 03.07.2019
5538 Clear 18 1014 48 10000 4.1 50 12:20 03.07.2019
5539 Clear 18 1014 48 10000 4.1 50 11:57 03.07.2019
5540 Clear 19 1014 42 10000 5.7 60 11:39 03.07.2019
5541 Clear 20 1014 43 10000 6.2 50 11:19 03.07.2019
5542 Clear 21 1014 40 10000 6.7 60 10:40 03.07.2019
5543 Clear 21 1014 37 10000 6.7 60 10:21 03.07.2019
5544 Clear 22 1015 37 10000 7.2 50 09:42 03.07.2019
5545 Clear 22 1015 37 10000 6.7 50 09:21 03.07.2019
5546 Clear 21 1015 40 10000 6.7 40 08:53 03.07.2019
5547 Clear 21 1015 40 10000 6.7 40 08:31 03.07.2019
5548 Clear 21 1017 49 10000 8.2 30 07:51 03.07.2019
5549 Clear 21 1017 49 10000 8.2 30 07:33 03.07.2019
5550 Clear 20 1018 42 10000 7.7 30 06:42 03.07.2019
5551 Clear 19 1019 52 10000 4.6 20 05:42 03.07.2019
5552 Clear 17 1020 62 10000 3.1 70 04:52 03.07.2019
5553 Clear 14 1021 71 10000 4.6 80 03:28 03.07.2019
5554 Clear 11 1020 87 10000 4.1 90 02:37 03.07.2019
5555 Clear 9 1020 81 10000 3.1 360 01:22 03.07.2019
5556 Clear 10 1020 87 10000 3.1 60 00:52 03.07.2019
5557 Clear 10 1019 87 10000 4.1 70 00:33 03.07.2019
5558 Clear 11 1019 87 10000 4.6 70 23:39 02.07.2019
5559 Clear 11 1019 87 10000 2.6 60 23:20 02.07.2019
5560 Clear 11 1019 87 10000 2.6 60 23:20 02.07.2019
5561 Clear 10 1019 100 4300 7.43 33.891 22:57 02.07.2019
5562 Clear 10 1019 100 4300 7.43 33.891 22:57 02.07.2019
5563 Clear 10 1019 100 4300 7.43 33.891 22:57 02.07.2019
5564 Clear 10 1019 100 4300 7.43 33.891 22:39 02.07.2019
5565 Clear 11 1019 76 10000 4.6 60 22:20 02.07.2019
5566 Clear 11 1020 87 10000 5.1 70 21:47 02.07.2019
5567 Clear 10 1020 87 10000 5.1 70 21:25 02.07.2019
5568 Clear 10 1020 87 10000 4.1 60 20:59 02.07.2019
5569 Clear 10 1020 87 10000 4.1 60 20:40 02.07.2019
5570 Clear 10 1020 87 10000 4.1 60 20:22 02.07.2019
5571 Clear 10 1020 81 10000 4.1 60 19:44 02.07.2019
5572 Clouds 10 1020 87 10000 3.6 60 19:24 02.07.2019
5573 Clouds 10 1020 87 10000 3.6 60 19:24 02.07.2019
5574 Clouds 10 1020 87 10000 3.6 60 18:58 02.07.2019
5575 Clear 9 1021 100 10000 2.6 40 18:19 02.07.2019
5576 Clear 9 1021 100 10000 3.21 115.871 17:58 02.07.2019
5577 Clear 9 1021 100 10000 3.21 115.871 17:37 02.07.2019
5578 Clouds 9 1021 93 10000 3.21 115.871 17:19 02.07.2019
5579 Clouds 9 1021 93 10000 3.21 115.871 17:19 02.07.2019
5580 Clear 10 1021 93 10000 3.21 115.871 16:43 02.07.2019
5581 Clear 10 1021 93 10000 2.1 70 16:25 02.07.2019
5582 Clear 11 1021 100 10000 2.6 80 15:40 02.07.2019
5583 Clear 10 1021 81 10000 2.39 149.652 15:22 02.07.2019
5584 Clear 12 1021 87 10000 2.6 90 14:47 02.07.2019
5585 Clear 12 1021 81 10000 2.6 170 14:27 02.07.2019
5586 Clear 13 1021 81 10000 3.1 170 13:44 02.07.2019
5587 Clear 13 1021 81 10000 3.1 170 13:20 02.07.2019
5588 Clouds 14 1020 67 10000 3.1 230 12:45 02.07.2019
5589 Clouds 15 1020 67 10000 3.1 230 12:24 02.07.2019
5590 Clouds 17 1020 55 10000 3.6 250 11:55 02.07.2019
5591 Clouds 17 1020 55 10000 3.6 250 11:37 02.07.2019
5592 Clouds 17 1019 48 10000 1.5 50 11:18 02.07.2019
5593 Clouds 19 1019 45 10000 1.5 110 10:39 02.07.2019
5594 Clouds 19 1019 45 10000 2.1 360 10:21 02.07.2019
5595 Clouds 19 1019 45 10000 2.6 10 09:42 02.07.2019
5596 Clouds 19 1019 48 10000 2.6 320 09:19 02.07.2019
5597 Clouds 19 1019 52 10000 2.6 320 08:40 02.07.2019
5598 Clouds 19 1019 49 10000 2.6 30 08:20 02.07.2019
5599 Clouds 19 1020 48 10000 2.1 350 07:50 02.07.2019
5600 Clouds 19 1020 48 10000 2.1 350 07:20 02.07.2019
5601 Clouds 19 1021 59 10000 2.1 80 06:42 02.07.2019
5602 Clear 18 1021 63 10000 3.6 60 05:58 02.07.2019
5603 Clouds 13 1021 87 10000 2.6 40 03:26 02.07.2019
5604 Clear 9 1020 93 10000 2.6 50 00:48 02.07.2019
5605 Clear 8 1020 100 10000 4.09 72.061 23:43 01.07.2019
5606 Clear 8 1020 100 10000 4.09 72.061 23:19 01.07.2019
5607 Clear 8 1020 93 10000 4.09 72.061 22:44 01.07.2019
5608 Clear 8 1020 100 10000 2.1 200 22:26 01.07.2019
5609 Rain 9 1020 93 10000 1.5 30 21:46 01.07.2019
5610 Rain 9 1020 93 10000 1.5 30 21:25 01.07.2019
5611 Clear 9 1020 93 10000 2.6 10 20:51 01.07.2019
5612 Clear 9 1020 100 10000 2.1 350 20:21 01.07.2019
5613 Clear 9 1020 93 10000 1 60 19:57 01.07.2019
5614 Clear 9 1020 93 10000 1 60 19:38 01.07.2019
5615 Clear 9 1020 93 10000 1 60 19:38 01.07.2019
5616 Clouds 9 1020 87 10000 3.56 81.736 19:20 01.07.2019
5617 Clear 10 1020 100 10000 2.6 20 18:50 01.07.2019
5618 Clear 10 1020 100 10000 2.6 20 18:28 01.07.2019
5619 Clear 10 1021 100 10000 2.1 30 17:48 01.07.2019
5620 Clear 10 1021 100 10000 2.1 30 17:27 01.07.2019
5621 Clear 10 1021 93 10000 2.1 10 16:58 01.07.2019
5622 Clear 11 1021 93 10000 2.1 20 16:40 01.07.2019
5623 Clear 11 1021 93 10000 2.1 50 16:22 01.07.2019
5624 Clear 11 1021 93 10000 2.6 70 15:44 01.07.2019
5625 Clear 11 1021 93 10000 1.5 40 15:23 01.07.2019
5626 Clear 11 1020 87 10000 2.6 150 14:44 01.07.2019
5627 Clear 12 1020 81 10000 2.6 160 14:22 01.07.2019
5628 Clear 13 1020 82 10000 3.1 190 13:48 01.07.2019
5629 Clear 14 1020 76 10000 3.6 200 13:24 01.07.2019
5630 Clear 14 1020 76 10000 3.6 200 12:58 01.07.2019
5631 Clear 15 1019 72 10000 3.1 240 12:38 01.07.2019
5632 Clear 16 1019 67 10000 2.6 260 12:19 01.07.2019
5633 Clear 16 1019 63 10000 3.6 250 11:44 01.07.2019
5634 Clear 17 1019 59 10000 4.1 270 11:22 01.07.2019
5635 Clouds 18 1019 63 10000 4.1 260 10:48 01.07.2019
5636 Clouds 18 1019 63 10000 4.1 260 10:25 01.07.2019
5637 Clouds 18 1018 59 10000 4.1 260 09:59 01.07.2019
5638 Clouds 19 1018 63 10000 4.1 250 09:40 01.07.2019
5639 Clouds 19 1018 59 10000 4.6 230 09:21 01.07.2019
5640 Clouds 19 1018 68 10000 1 210 08:38 01.07.2019
5641 Clouds 19 1018 68 10000 1 210 08:38 01.07.2019
5642 Clouds 19 1018 68 10000 2.68 310.446 08:19 01.07.2019
5643 Clouds 18 1018 68 10000 2.6 340 07:28 01.07.2019
5644 Clouds 18 1019 72 10000 2.1 10 06:30 01.07.2019
5645 Fog 13 1019 100 9000 2.6 20 02:21 01.07.2019
5646 Drizzle 13 1018 100 7000 2.6 30 00:49 01.07.2019
5647 Drizzle 13 1018 100 7000 2.6 30 00:29 01.07.2019
5648 Mist 13 1018 93 3600 2.1 340 23:56 30.06.2019
5649 Mist 13 1018 100 4000 3.6 30 23:21 30.06.2019
5650 Rain 13 1018 93 2600 0.5 360 22:49 30.06.2019
5651 Rain 13 1018 93 1000 2.1 10 22:21 30.06.2019
5652 Rain 13 1018 93 5000 2.6 30 21:42 30.06.2019
5653 Rain 13 1018 93 10000 2.6 340 21:20 30.06.2019
5654 Rain 13 1018 93 10000 2.6 340 20:56 30.06.2019
5655 Rain 13 1018 93 3800 2.6 350 20:38 30.06.2019
5656 Rain 13 1018 93 2000 1.5 70 20:19 30.06.2019
5657 Rain 13 1018 93 2000 1.5 60 19:44 30.06.2019
5658 Rain 13 1018 100 10000 3.1 30 19:25 30.06.2019
5659 Rain 13 1018 100 5000 2.1 80 18:27 30.06.2019
5660 Rain 13 1018 100 5000 7.71 248.542 17:59 30.06.2019
5661 Rain 13 1019 93 6000 4.1 340 17:39 30.06.2019
5662 Rain 13 1018 93 9000 3.1 50 17:18 30.06.2019
5663 Rain 13 1018 100 7000 2.6 50 16:49 30.06.2019
5664 Rain 13 1018 100 8000 1.5 130 16:27 30.06.2019
5665 Rain 13 1018 93 10000 3.6 20 15:38 30.06.2019
5666 Rain 14 1018 100 10000 3.1 30 15:19 30.06.2019
5667 Rain 13 1018 100 10000 3.1 30 14:54 30.06.2019
5668 Rain 13 1019 93 6000 3.1 10 14:35 30.06.2019
5669 Rain 14 1018 93 5000 4.1 40 13:49 30.06.2019
5670 Rain 14 1018 93 5000 4.1 40 13:30 30.06.2019
5671 Rain 14 1018 93 10000 2.6 0 12:57 30.06.2019
5672 Rain 14 1017 93 10000 2.6 0 12:39 30.06.2019
5673 Rain 14 1017 93 10000 5.1 280 12:19 30.06.2019
5674 Rain 14 1017 100 5000 3.1 320 11:45 30.06.2019
5675 Rain 14 1017 100 7000 5.1 290 11:21 30.06.2019
5676 Rain 15 1017 100 7000 5.1 290 10:54 30.06.2019
5677 Rain 14 1017 93 10000 4.1 30 10:36 30.06.2019
5678 Rain 15 1017 93 10000 3.6 20 10:18 30.06.2019
5679 Rain 14 1017 93 10000 3.6 10 09:42 30.06.2019
5680 Rain 14 1017 93 10000 4.6 20 09:20 30.06.2019
5681 Rain 14 1017 100 6000 4.6 360 08:40 30.06.2019
5682 Rain 14 1018 93 5000 5.1 360 08:21 30.06.2019
5683 Rain 13 1018 87 10000 3.1 50 07:47 30.06.2019
5684 Drizzle 13 1019 82 6000 3.1 10 07:24 30.06.2019
5685 Rain 13 1019 76 10000 4.6 10 06:37 30.06.2019
5686 Rain 12 1020 81 10000 6.2 320 03:33 30.06.2019
5687 Rain 11 1019 81 10000 2.1 30 01:53 30.06.2019
5688 Clouds 11 1019 87 10000 3.6 30 00:47 30.06.2019
5689 Clouds 11 1019 87 10000 3.6 30 00:24 30.06.2019
5690 Clouds 11 1019 87 10000 3.1 20 23:48 29.06.2019
5691 Clouds 11 1019 87 10000 3.1 20 23:23 29.06.2019
5692 Clouds 11 1019 93 10000 3.1 30 22:48 29.06.2019
5693 Clouds 11 1019 93 10000 4.1 30 22:24 29.06.2019
5694 Clouds 11 1019 93 10000 4.1 30 21:55 29.06.2019
5695 Rain 11 1020 93 10000 4.1 10 21:25 29.06.2019
5696 Rain 11 1020 93 10000 4.1 10 21:25 29.06.2019
5697 Rain 11 1020 93 10000 4.1 10 20:56 29.06.2019
5698 Rain 12 1020 93 10000 4.1 20 20:36 29.06.2019
5699 Rain 12 1020 93 10000 3.6 10 20:18 29.06.2019
5700 Clouds 12 1020 93 10000 3.1 30 19:41 29.06.2019
5701 Clouds 12 1021 93 10000 4.1 10 19:21 29.06.2019
5702 Clouds 12 1021 93 10000 4.1 20 18:47 29.06.2019
5703 Rain 12 1021 87 10000 3.1 10 18:24 29.06.2019
5704 Rain 13 1021 82 10000 4.6 350 17:38 29.06.2019
5705 Rain 13 1022 82 10000 4.6 350 17:19 29.06.2019
5706 Rain 13 1022 82 10000 3.6 350 16:43 29.06.2019
5707 Clouds 13 1022 82 10000 4.1 350 16:19 29.06.2019
5708 Rain 14 1022 82 10000 4.6 340 15:33 29.06.2019
5709 Rain 14 1022 82 10000 2.6 360 14:55 29.06.2019
5710 Rain 14 1022 82 10000 2.6 360 14:37 29.06.2019
5711 Rain 14 1022 82 10000 2.1 320 14:18 29.06.2019
5712 Rain 14 1022 72 10000 4.1 330 13:41 29.06.2019
5713 Rain 14 1022 72 10000 4.1 330 13:41 29.06.2019
5714 Rain 14 1022 67 10000 3.1 310 13:23 29.06.2019
5715 Rain 15 1022 55 10000 5.1 310 12:41 29.06.2019
5716 Rain 15 1022 63 10000 3.6 350 12:22 29.06.2019
5717 Rain 16 1022 72 10000 3.6 330 11:46 29.06.2019
5718 Rain 16 1022 72 10000 3.6 330 11:28 29.06.2019
5719 Rain 16 1022 72 10000 3.6 350 10:52 29.06.2019
5720 Rain 16 1022 67 10000 3.6 350 10:24 29.06.2019
5721 Rain 16 1022 67 10000 3.6 350 09:58 29.06.2019
5722 Rain 16 1022 59 10000 7.2 320 09:19 29.06.2019
5723 Rain 16 1022 59 10000 6.7 340 08:36 29.06.2019
5724 Clouds 17 1023 59 10000 7.7 350 07:46 29.06.2019
5725 Clouds 16 1023 59 10000 6.2 10 06:57 29.06.2019
5726 Clouds 16 1024 59 10000 4.6 10 06:39 29.06.2019
5727 Rain 16 1025 62 10000 5.1 340 06:19 29.06.2019
5728 Clouds 11 1025 81 10000 3.1 360 01:54 29.06.2019
5729 Clear 10 1024 87 10000 4.1 40 00:54 29.06.2019
5730 Clear 10 1024 87 10000 3.1 30 23:54 28.06.2019
5731 Clouds 10 1025 87 10000 2.6 30 23:22 28.06.2019
5732 Clear 10 1025 81 10000 2.6 40 22:47 28.06.2019
5733 Clear 10 1025 87 10000 2.6 20 22:22 28.06.2019
5734 Clear 10 1025 81 10000 2.6 40 21:45 28.06.2019
5735 Clear 10 1026 87 10000 3.1 30 21:19 28.06.2019
5736 Clear 9 1026 87 10000 2.6 10 20:42 28.06.2019
5737 Clear 9 1026 87 10000 2.1 30 20:20 28.06.2019
5738 Clear 9 1026 87 10000 3.1 40 19:42 28.06.2019
5739 Clear 9 1026 81 10000 2.6 40 19:23 28.06.2019
5740 Clear 9 1026 87 10000 2.6 70 18:42 28.06.2019
5741 Clear 9 1026 87 10000 3.6 70 18:22 28.06.2019
5742 Clear 9 1026 87 10000 4.1 60 17:46 28.06.2019
5743 Clear 9 1026 87 10000 4.1 60 17:25 28.06.2019
5744 Clear 9 1027 87 10000 2.6 10 16:46 28.06.2019
5745 Clear 10 1027 87 10000 2.1 40 16:20 28.06.2019
5746 Clear 10 1027 87 10000 3.1 20 15:45 28.06.2019
5747 Clouds 10 1027 87 10000 2.1 50 15:18 28.06.2019
5748 Clouds 11 1027 81 10000 1.5 70 14:42 28.06.2019
5749 Clouds 11 1027 81 10000 3.1 80 14:21 28.06.2019
5750 Clouds 11 1026 87 10000 2.6 90 13:49 28.06.2019
5751 Clouds 11 1026 87 10000 2.6 90 13:29 28.06.2019
5752 Clear 12 1026 76 10000 2.1 290 12:53 28.06.2019
5753 Clear 12 1026 76 10000 2.1 290 12:33 28.06.2019
5754 Clear 13 1025 66 10000 3.6 260 11:44 28.06.2019
5755 Clouds 14 1025 58 10000 4.1 230 11:19 28.06.2019
5756 Clouds 14 1025 58 10000 4.1 230 11:19 28.06.2019
5757 Clouds 14 1025 54 10000 3.6 260 10:42 28.06.2019
5758 Clouds 15 1024 54 10000 4.1 280 10:19 28.06.2019
5759 Clouds 15 1024 54 10000 3.6 270 09:47 28.06.2019
5760 Clouds 15 1024 54 10000 3.6 270 09:28 28.06.2019
5761 Clouds 15 1024 54 10000 1.5 170 08:43 28.06.2019
5762 Clouds 15 1024 54 10000 1.5 170 08:24 28.06.2019
5763 Clouds 15 1024 58 10000 3.6 190 07:43 28.06.2019
5764 Clouds 14 1024 58 10000 2.1 220 06:57 28.06.2019
5765 Rain 12 1024 76 10000 2.6 10 04:42 28.06.2019
5766 Rain 7 1020 100 10000 1.5 70 00:48 28.06.2019
5767 Rain 7 1020 93 8000 0.5 110 00:22 28.06.2019
5768 Rain 7 1019 100 10000 2.1 340 23:46 27.06.2019
5769 Rain 7 1019 100 10000 2.1 340 23:46 27.06.2019
5770 Rain 7 1019 100 10000 2.1 340 23:24 27.06.2019
5771 Rain 8 1018 93 10000 10.61 207.251 22:44 27.06.2019
5772 Rain 7 1018 93 10000 2.6 170 22:25 27.06.2019
5773 Rain 8 1018 93 10000 2.6 170 21:58 27.06.2019
5774 Rain 7 1018 93 10000 2.1 220 21:40 27.06.2019
5775 Rain 8 1017 93 10000 2.6 140 21:20 27.06.2019
5776 Rain 8 1017 87 10000 2.6 160 20:48 27.06.2019
5777 Rain 8 1017 87 10000 2.6 160 20:30 27.06.2019
5778 Rain 8 1016 93 10000 4.1 170 19:49 27.06.2019
5779 Rain 8 1016 93 10000 4.1 170 19:29 27.06.2019
5780 Rain 9 1016 87 10000 7.7 180 18:52 27.06.2019
5781 Rain 9 1016 87 10000 7.7 180 18:30 27.06.2019
5782 Rain 9 1016 87 6000 2.1 210 17:55 27.06.2019
5783 Clouds 9 1015 87 10000 4.1 180 17:36 27.06.2019
5784 Rain 10 1014 81 10000 4.1 200 17:18 27.06.2019
5785 Rain 10 1014 76 10000 10.8 210 16:38 27.06.2019
5786 Rain 11 1013 58 10000 4.1 250 16:19 27.06.2019
5787 Rain 13 1013 62 10000 4.1 240 15:45 27.06.2019
5788 Rain 12 1013 71 10000 7.7 230 15:22 27.06.2019
5789 Rain 12 1013 62 10000 6.2 240 14:46 27.06.2019
5790 Rain 12 1013 62 10000 6.2 240 14:28 27.06.2019
5791 Rain 13 1012 71 10000 3.6 260 13:49 27.06.2019
5792 Rain 13 1012 71 10000 3.6 260 13:31 27.06.2019
5793 Rain 13 1011 71 10000 5.7 230 12:55 27.06.2019
5794 Rain 13 1011 71 10000 5.7 230 12:35 27.06.2019
5795 Rain 13 1011 71 10000 7.2 240 11:59 27.06.2019
5796 Rain 13 1011 76 10000 8.7 250 11:39 27.06.2019
5797 Rain 13 1010 76 10000 7.7 250 11:20 27.06.2019
5798 Rain 13 1010 71 10000 7.7 240 10:45 27.06.2019
5799 Rain 13 1009 71 5000 6.2 270 10:22 27.06.2019
5800 Rain 13 1009 71 5000 6.2 270 09:54 27.06.2019
5801 Rain 15 1009 67 10000 7.7 250 09:22 27.06.2019
5802 Rain 14 1009 67 10000 10.8 250 08:52 27.06.2019
5803 Rain 15 1009 67 10000 10.8 250 08:31 27.06.2019
5804 Rain 16 1009 59 10000 8.2 280 07:53 27.06.2019
5805 Rain 16 1009 59 10000 8.2 280 07:29 27.06.2019
5806 Rain 14 1009 87 9000 7.7 320 06:43 27.06.2019
5807 Rain 14 1009 63 10000 7.7 290 04:24 27.06.2019
5808 Rain 14 1009 67 10000 4.6 290 02:44 27.06.2019
5809 Rain 13 1008 58 10000 6.2 260 01:48 27.06.2019
5810 Rain 14 1008 67 10000 6.2 290 00:56 27.06.2019
5811 Rain 14 1008 76 10000 4.1 300 00:36 27.06.2019
5812 Rain 14 1007 87 10000 5.7 230 00:18 27.06.2019
5813 Rain 13 1007 76 10000 3.6 300 23:24 26.06.2019
5814 Rain 13 1007 76 10000 3.6 300 22:59 26.06.2019
5815 Rain 13 1007 76 10000 4.6 280 22:41 26.06.2019
5816 Rain 13 1007 87 10000 3.6 290 22:20 26.06.2019
5817 Rain 14 1007 87 10000 3.6 280 21:43 26.06.2019
5818 Rain 14 1007 76 10000 7.7 280 21:22 26.06.2019
5819 Rain 14 1007 76 10000 7.7 280 20:58 26.06.2019
5820 Clouds 15 1007 63 10000 6.2 270 20:39 26.06.2019
5821 Clouds 15 1007 63 10000 6.2 270 20:39 26.06.2019
5822 Clouds 16 1006 59 10000 8.7 280 20:21 26.06.2019
5823 Rain 16 1007 87 10000 4.6 310 19:44 26.06.2019
5824 Rain 15 1007 87 10000 4.6 310 19:25 26.06.2019
5825 Rain 15 1006 72 10000 7.7 280 18:48 26.06.2019
5826 Rain 14 1006 87 10000 4.6 290 18:23 26.06.2019
5827 Rain 15 1006 87 10000 4.6 290 17:58 26.06.2019
5828 Rain 14 1006 82 10000 14.4 270 17:38 26.06.2019
5829 Rain 14 1006 87 10000 7.7 290 17:19 26.06.2019
5830 Rain 14 1006 93 3200 12.3 280 16:46 26.06.2019
5831 Rain 14 1005 100 9000 3.6 310 16:23 26.06.2019
5832 Rain 14 1006 93 10000 4.6 310 15:40 26.06.2019
5833 Rain 14 1006 93 10000 4.6 280 15:22 26.06.2019
5834 Rain 14 1007 100 4000 7.7 290 14:38 26.06.2019
5835 Rain 14 1007 93 6000 3.1 270 14:19 26.06.2019
5836 Rain 14 1006 93 5000 5.7 270 13:43 26.06.2019
5837 Rain 15 1006 93 10000 5.7 290 13:20 26.06.2019
5838 Rain 15 1006 93 10000 6.2 280 12:42 26.06.2019
5839 Rain 15 1005 93 5000 8.2 280 12:23 26.06.2019
5840 Rain 16 1005 93 1500 4.6 260 11:48 26.06.2019
5841 Rain 16 1005 93 9000 5.1 270 11:20 26.06.2019
5842 Rain 17 1005 72 10000 7.2 320 10:45 26.06.2019
5843 Rain 18 1005 72 10000 7.2 320 10:25 26.06.2019
5844 Clouds 19 1005 72 10000 7.7 310 09:44 26.06.2019
5845 Rain 20 1005 82 10000 7.2 300 09:19 26.06.2019
5846 Rain 20 1006 88 10000 5.7 10 08:44 26.06.2019
5847 Rain 19 1005 77 10000 9.8 340 08:20 26.06.2019
5848 Rain 19 1006 88 10000 6.7 10 07:46 26.06.2019
5849 Rain 19 1006 68 10000 8.2 330 06:40 26.06.2019
5850 Rain 18 1008 93 9000 6.7 350 06:21 26.06.2019
5851 Clear 13 1011 87 10000 4.6 10 01:25 26.06.2019
5852 Clear 13 1012 93 10000 4.1 10 00:24 26.06.2019
5853 Clear 13 1012 87 10000 4.6 20 23:45 25.06.2019
5854 Clear 12 1012 87 10000 4.6 20 23:27 25.06.2019
5855 Clouds 12 1012 87 10000 3.6 10 22:56 25.06.2019
5856 Clouds 12 1012 87 10000 4.6 30 22:37 25.06.2019
5857 Clear 13 1013 87 10000 4.6 30 22:19 25.06.2019
5858 Rain 13 1013 82 10000 3.6 20 21:41 25.06.2019
5859 Rain 13 1014 82 10000 4.1 20 21:21 25.06.2019
5860 Rain 13 1014 82 10000 4.1 30 20:44 25.06.2019
5861 Rain 13 1014 82 10000 4.1 30 20:44 25.06.2019
5862 Clouds 13 1014 82 10000 3.6 60 20:21 25.06.2019
5863 Rain 13 1015 76 10000 3.1 40 19:45 25.06.2019
5864 Drizzle 14 1015 82 10000 2.1 30 19:23 25.06.2019
5865 Drizzle 14 1016 76 10000 2.6 360 18:45 25.06.2019
5866 Drizzle 14 1016 76 10000 2.6 360 18:45 25.06.2019
5867 Clear 15 1016 76 10000 2.6 30 18:26 25.06.2019
5868 -273 0 0 0 0 0 18:01 25.06.2019
5869 -273 0 0 0 0 0 18:01 25.06.2019
5870 -273 0 0 0 0 0 18:00 25.06.2019
5871 -273 0 0 0 0 0 18:00 25.06.2019
5872 -273 0 0 0 0 0 17:30 25.06.2019
5873 Clear 14 1016 87 10000 3.1 20 16:57 25.06.2019
5874 Clear 14 1016 82 10000 2.6 30 16:39 25.06.2019
5875 Clear 15 1017 82 10000 2.6 50 16:21 25.06.2019
5876 Clear 16 1017 72 10000 1.5 10 15:42 25.06.2019
5877 Clouds 16 1017 72 10000 3.6 20 15:24 25.06.2019
5878 Clouds 16 1017 72 10000 3.6 20 15:24 25.06.2019
5879 Clouds 16 1017 72 10000 3.6 40 14:54 25.06.2019
5880 Clouds 16 1017 72 10000 3.6 40 14:35 25.06.2019
5881 Clear 17 1018 72 10000 3.1 30 13:47 25.06.2019
5882 Clear 17 1018 72 10000 3.1 30 13:28 25.06.2019
5883 Clear 17 1017 63 10000 3.1 290 12:44 25.06.2019
5884 Clear 18 1017 59 10000 3.6 290 12:25 25.06.2019
5885 Clear 18 1017 59 10000 3.6 290 11:55 25.06.2019
5886 Clear 18 1017 59 10000 4.1 300 11:37 25.06.2019
5887 Clear 19 1017 52 10000 4.1 300 11:18 25.06.2019
5888 Clear 19 1017 52 10000 4.1 350 10:42 25.06.2019
5889 Clear 19 1018 49 10000 5.1 350 10:22 25.06.2019
5890 Clear 20 1018 49 10000 4.6 10 09:55 25.06.2019
5891 Clear 20 1018 49 10000 4.6 10 09:37 25.06.2019
5892 Clear 20 1018 49 10000 5.1 20 09:18 25.06.2019
5893 Clear 20 1018 49 10000 5.7 20 08:32 25.06.2019
5894 Clear 20 1019 45 10000 5.7 20 07:58 25.06.2019
5895 Clear 20 1019 49 10000 6.7 30 07:36 25.06.2019
5896 Clear 20 1020 45 10000 8.7 20 06:52 25.06.2019
5897 Clear 19 1021 52 10000 8.2 10 06:25 25.06.2019
5898 Clear 16 1022 63 10000 4.6 40 02:45 25.06.2019
5899 Clear 15 1021 67 10000 4.1 50 01:26 25.06.2019
5900 Clouds 15 1021 62 10000 4.1 40 00:28 25.06.2019
5901 Clouds 15 1021 59 10000 4.6 20 23:53 24.06.2019
5902 Clouds 16 1021 59 10000 4.6 20 23:33 24.06.2019
5903 Clouds 15 1021 67 10000 4.1 20 22:56 24.06.2019
5904 Clouds 15 1021 67 10000 3.6 10 22:37 24.06.2019
5905 Clouds 15 1021 67 10000 3.6 30 22:18 24.06.2019
5906 Clouds 15 1021 67 10000 4.1 20 21:38 24.06.2019
5907 Clouds 15 1021 72 10000 3.1 20 21:18 24.06.2019
5908 Clouds 15 1022 72 10000 3.6 20 20:43 24.06.2019
5909 Clouds 15 1022 72 10000 2.6 10 20:23 24.06.2019
5910 Clouds 15 1022 72 10000 2.6 10 19:59 24.06.2019
5911 Clouds 15 1022 72 10000 2.6 10 19:59 24.06.2019
5912 Clouds 15 1022 77 10000 3.1 30 19:40 24.06.2019
5913 Clouds 15 1022 77 10000 2.6 10 19:21 24.06.2019
5914 Clouds 15 1022 82 10000 2.6 20 18:42 24.06.2019
5915 Clouds 15 1022 77 10000 3.1 40 18:23 24.06.2019
5916 Clouds 15 1022 77 10000 3.1 20 17:37 24.06.2019
5917 Clouds 15 1022 77 10000 3.1 20 17:37 24.06.2019
5918 Clouds 15 1022 77 10000 2.6 30 17:18 24.06.2019
5919 Clouds 15 1022 77 10000 2.1 20 16:45 24.06.2019
5920 Clouds 15 1022 82 10000 3.6 30 16:20 24.06.2019
5921 Clouds 15 1022 82 10000 3.6 30 16:20 24.06.2019
5922 Clouds 16 1022 77 10000 3.1 30 15:44 24.06.2019
5923 Clouds 16 1022 77 10000 3.1 30 15:44 24.06.2019
5924 Clouds 16 1022 77 10000 3.1 30 15:25 24.06.2019
5925 Clouds 16 1022 77 10000 2.1 60 14:39 24.06.2019
5926 Clouds 16 1022 72 10000 2.1 10 14:20 24.06.2019
5927 Clouds 16 1022 72 10000 2.1 360 13:35 24.06.2019
5928 Clouds 16 1021 67 10000 1 140 12:58 24.06.2019
5929 Clouds 17 1021 72 10000 1 300 12:39 24.06.2019
5930 Clouds 17 1021 63 10000 2.6 250 12:20 24.06.2019
5931 Clouds 17 1021 63 10000 3.1 240 11:44 24.06.2019
5932 Clouds 18 1021 55 10000 3.1 250 11:26 24.06.2019
5933 Clouds 18 1021 55 10000 2.6 250 10:52 24.06.2019
5934 Clouds 18 1021 55 10000 2.6 250 10:33 24.06.2019
5935 Clouds 18 1020 55 10000 4.1 230 09:56 24.06.2019
5936 Clouds 18 1020 55 10000 4.1 230 09:37 24.06.2019
5937 Clouds 19 1020 52 10000 3.6 280 09:18 24.06.2019
5938 Clouds 19 1020 52 10000 4.6 270 08:34 24.06.2019
5939 Clouds 19 1020 55 10000 4.1 240 07:49 24.06.2019
5940 Clouds 19 1020 59 10000 4.1 250 07:27 24.06.2019
5941 Clouds 19 1020 59 10000 4.1 250 06:56 24.06.2019
5942 Clouds 18 1020 68 10000 3.1 320 06:23 24.06.2019
5943 Rain 19 1020 68 10000 2.6 340 05:29 24.06.2019
5944 Rain 17 1020 72 10000 1 50 04:31 24.06.2019
5945 Rain 16 1020 87 10000 2.1 50 03:32 24.06.2019
5946 Rain 13 1019 93 10000 2.1 70 02:33 24.06.2019
5947 Rain 13 1019 93 10000 2.1 100 01:54 24.06.2019
5948 Rain 13 1018 93 10000 2.1 50 01:27 24.06.2019
5949 Clear 13 1017 93 10000 2.6 50 00:42 24.06.2019
5950 Clouds 13 1017 93 10000 3.1 70 00:19 24.06.2019
5951 Clouds 13 1017 93 10000 2.6 40 23:46 23.06.2019
5952 Clouds 13 1017 93 10000 2.6 40 23:27 23.06.2019
5953 Clouds 13 1017 93 10000 2.6 40 23:27 23.06.2019
5954 Clouds 13 1016 93 10000 2.6 100 22:44 23.06.2019
5955 Clouds 14 1016 81 10000 0.5 260 22:21 23.06.2019
5956 Drizzle 14 1016 71 10000 2.6 260 21:58 23.06.2019
5957 Drizzle 14 1016 71 10000 2.6 260 21:40 23.06.2019
5958 Clouds 14 1015 76 10000 3.1 240 21:21 23.06.2019
5959 Clouds 14 1015 72 10000 4.1 240 20:43 23.06.2019
5960 Clouds 14 1016 81 10000 3.1 360 20:25 23.06.2019
5961 Clouds 15 1015 77 10000 4.1 240 19:45 23.06.2019
5962 Clouds 14 1015 82 10000 2.6 260 19:21 23.06.2019
5963 Clouds 14 1015 82 10000 6.2 230 18:54 23.06.2019
5964 Rain 14 1014 63 10000 6.2 260 18:24 23.06.2019
5965 Rain 14 1015 87 5000 9.8 270 17:53 23.06.2019
5966 Rain 14 1015 87 5000 9.8 270 17:27 23.06.2019
5967 Rain 15 1014 59 10000 6.2 260 16:59 23.06.2019
5968 Rain 15 1014 63 10000 8.7 270 16:40 23.06.2019
5969 Clouds 15 1014 67 10000 5.7 250 16:21 23.06.2019
5970 Rain 16 1013 59 10000 5.7 270 15:41 23.06.2019
5971 Clouds 15 1013 72 10000 5.1 270 15:22 23.06.2019
5972 Rain 15 1012 87 10000 3.6 260 14:42 23.06.2019
5973 Rain 15 1012 93 10000 4.1 260 14:23 23.06.2019
5974 Rain 14 1012 93 10000 4.1 260 13:58 23.06.2019
5975 Rain 15 1012 82 6000 10.8 270 13:40 23.06.2019
5976 Rain 15 1011 77 8000 8.2 260 13:19 23.06.2019
5977 Rain 15 1011 77 8000 8.2 260 13:19 23.06.2019
5978 Rain 15 1011 77 8000 8.2 260 13:19 23.06.2019
5979 Rain 15 1010 67 10000 7.2 310 12:44 23.06.2019
5980 Rain 16 1010 72 10000 5.7 300 12:23 23.06.2019
5981 Rain 16 1010 67 10000 6.2 310 11:55 23.06.2019
5982 Rain 17 1010 67 10000 6.2 310 11:37 23.06.2019
5983 Rain 17 1010 63 10000 7.7 300 11:19 23.06.2019
5984 Clouds 18 1009 63 10000 5.7 300 10:43 23.06.2019
5985 Clouds 18 1009 72 10000 4.6 290 10:18 23.06.2019
5986 Rain 18 1009 72 10000 4.6 290 09:39 23.06.2019
5987 Rain 18 1009 72 10000 4.6 290 09:20 23.06.2019
5988 Clouds 18 1008 72 10000 8.2 280 08:44 23.06.2019
5989 Rain 19 1008 68 10000 6.7 310 08:26 23.06.2019
5990 Clouds 19 1008 82 10000 4.6 320 07:53 23.06.2019
5991 Rain 18 1008 82 10000 6.2 330 07:20 23.06.2019
5992 Rain 18 1009 88 10000 5.1 30 06:54 23.06.2019
5993 Clouds 18 1010 88 10000 3.1 10 05:54 23.06.2019
5994 Rain 16 1009 100 10000 3.1 40 03:41 23.06.2019
5995 Rain 14 1008 100 10000 3.6 10 01:52 23.06.2019
5996 Rain 14 1008 100 10000 3.6 10 01:33 23.06.2019
5997 Rain 14 1008 100 8000 3.1 360 00:34 23.06.2019
5998 Rain 14 1007 100 5000 4.6 10 23:53 22.06.2019
5999 Rain 14 1007 100 5000 4.6 10 23:27 22.06.2019
6000 Rain 14 1008 100 10000 5.1 20 22:49 22.06.2019
6001 Rain 14 1008 100 10000 5.1 20 22:29 22.06.2019
6002 Rain 14 1008 100 10000 4.1 20 21:59 22.06.2019
6003 Rain 14 1008 93 10000 4.1 30 21:37 22.06.2019
6004 Drizzle 14 1008 93 8000 4.6 20 21:18 22.06.2019
6005 Rain 14 1008 93 6000 3.1 30 20:48 22.06.2019
6006 Rain 14 1008 93 6000 3.1 30 20:25 22.06.2019
6007 Rain 14 1008 100 5000 3.6 20 19:46 22.06.2019
6008 Rain 14 1008 100 6000 2.6 30 19:22 22.06.2019
6009 Rain 14 1007 100 6000 4.6 50 18:48 22.06.2019
6010 Rain 14 1007 100 6000 4.6 50 18:30 22.06.2019
6011 Rain 15 1008 100 6000 3.6 70 17:56 22.06.2019
6012 Rain 15 1008 100 3500 2.6 170 17:33 22.06.2019
6013 Rain 15 1008 93 8000 8.2 230 16:50 22.06.2019
6014 Rain 15 1008 93 8000 8.2 230 16:24 22.06.2019
6015 Rain 15 1006 93 5000 5.1 10 15:54 22.06.2019
6016 Rain 16 1006 93 5000 5.1 10 15:33 22.06.2019
6017 Rain 17 1007 93 7000 5.1 10 14:53 22.06.2019
6018 Rain 17 1007 93 7000 5.1 10 14:34 22.06.2019
6019 Rain 17 1007 100 8000 7.7 360 13:58 22.06.2019
6020 Rain 17 1007 100 5000 10.8 320 13:40 22.06.2019
6021 Rain 17 1007 100 4900 9.8 350 13:19 22.06.2019
6022 Rain 17 1008 93 6000 9.3 10 12:47 22.06.2019
6023 Rain 17 1008 93 6000 9.3 10 12:29 22.06.2019
6024 Rain 17 1007 88 9000 7.7 340 11:46 22.06.2019
6025 Rain 17 1007 88 9000 7.7 340 11:27 22.06.2019
6026 Rain 17 1007 88 10000 7.7 350 10:47 22.06.2019
6027 Rain 18 1007 82 10000 7.7 350 10:19 22.06.2019
6028 Rain 18 1007 72 10000 7.7 350 09:37 22.06.2019
6029 Rain 19 1006 77 10000 7.7 350 08:56 22.06.2019
6030 Rain 19 1008 77 10000 4.1 10 08:37 22.06.2019
6031 Rain 19 1008 72 10000 7.7 350 07:53 22.06.2019
6032 Rain 19 1008 77 10000 5.1 10 07:29 22.06.2019
6033 Clouds 20 1009 72 10000 7.2 10 06:44 22.06.2019
6034 Clouds 19 1011 77 10000 6.7 10 04:37 22.06.2019
6035 Rain 16 1011 93 10000 4.6 20 02:27 22.06.2019
6036 Clear 16 1011 100 10000 2.6 30 00:57 22.06.2019
6037 Clear 16 1011 100 10000 2.6 30 00:31 22.06.2019
6038 Rain 16 1011 93 10000 3.1 30 23:50 21.06.2019
6039 Clear 16 1011 93 10000 2.6 30 23:24 21.06.2019
6040 Clear 16 1011 93 10000 2.6 30 22:58 21.06.2019
6041 Rain 16 1011 93 10000 2.6 20 22:39 21.06.2019
6042 Rain 16 1011 93 10000 3.6 20 22:20 21.06.2019
6043 Rain 16 1011 87 10000 3.6 50 21:40 21.06.2019
6044 Rain 16 1012 87 10000 3.6 30 21:20 21.06.2019
6045 Rain 16 1012 93 10000 3.6 20 20:48 21.06.2019
6046 Rain 16 1012 93 10000 3.6 20 20:26 21.06.2019
6047 Rain 16 1012 93 10000 3.6 30 19:48 21.06.2019
6048 Clear 16 1012 87 10000 3.1 20 19:22 21.06.2019
6049 Clear 16 1012 93 10000 3.6 50 18:41 21.06.2019
6050 Clear 16 1013 93 10000 2.6 20 18:22 21.06.2019
6051 Clear 16 1013 93 10000 4.1 30 17:31 21.06.2019
6052 Clear 16 1013 93 10000 3.1 30 16:56 21.06.2019
6053 Clear 16 1013 87 10000 3.1 20 16:36 21.06.2019
6054 Clear 16 1013 87 10000 4.1 30 16:18 21.06.2019
6055 Clear 16 1013 87 10000 4.1 50 15:37 21.06.2019
6056 Clouds 17 1013 77 10000 3.6 40 14:57 21.06.2019
6057 Clouds 17 1013 72 10000 3.6 40 14:38 21.06.2019
6058 Clear 17 1013 72 10000 3.1 50 14:20 21.06.2019
6059 Clear 17 1013 82 10000 3.6 80 13:39 21.06.2019
6060 Clear 17 1013 82 10000 2.1 20 13:21 21.06.2019
6061 Clear 18 1012 67 10000 2.6 310 12:44 21.06.2019
6062 Clear 18 1012 63 10000 3.1 300 12:22 21.06.2019
6063 Clear 19 1012 52 10000 4.1 290 11:48 21.06.2019
6064 Clear 19 1012 52 10000 4.1 290 11:28 21.06.2019
6065 Clear 20 1012 43 10000 3.6 280 10:58 21.06.2019
6066 Clear 21 1011 38 10000 3.1 20 10:39 21.06.2019
6067 Clear 22 1011 38 10000 4.1 30 10:20 21.06.2019
6068 Clear 22 1011 38 10000 3.1 30 09:42 21.06.2019
6069 Clear 22 1011 36 10000 3.6 350 09:21 21.06.2019
6070 Clear 22 1011 38 10000 3.1 10 08:45 21.06.2019
6071 Clear 22 1011 35 10000 3.6 360 08:27 21.06.2019
6072 Clear 23 1012 35 10000 3.6 30 07:57 21.06.2019
6073 Clear 23 1012 35 10000 3.6 30 07:38 21.06.2019
6074 Clear 22 1012 37 10000 4.6 20 06:59 21.06.2019
6075 Clear 21 1013 40 10000 5.1 30 06:24 21.06.2019
6076 Clear 21 1013 42 10000 4.1 20 05:33 21.06.2019
6077 Clear 19 1014 45 10000 5.1 70 04:35 21.06.2019
6078 Clear 17 1014 48 10000 5.7 60 03:35 21.06.2019
6079 Clear 15 1013 51 10000 6.7 70 02:58 21.06.2019
6080 Clear 13 1013 50 10000 7.2 70 01:58 21.06.2019
6081 Clear 13 1013 50 10000 6.7 70 00:58 21.06.2019
6082 Clear 14 1013 51 10000 6.2 70 00:27 21.06.2019
6083 Clear 14 1013 50 10000 5.1 70 23:53 20.06.2019
6084 Clear 14 1013 50 10000 5.1 70 23:24 20.06.2019
6085 Clear 13 1013 50 10000 5.7 70 22:58 20.06.2019
6086 Clear 14 1013 51 10000 6.2 70 22:39 20.06.2019
6087 Clear 14 1013 51 10000 5.7 70 22:21 20.06.2019
6088 Clear 14 1014 50 10000 4.6 70 21:52 20.06.2019
6089 Clear 14 1014 47 10000 4.6 60 21:19 20.06.2019
6090 Clear 14 1014 47 10000 4.6 60 20:59 20.06.2019
6091 Clear 15 1013 51 10000 6.2 80 20:40 20.06.2019
6092 Clear 15 1014 47 10000 7.2 70 20:19 20.06.2019
6093 Clear 15 1014 47 10000 8.7 80 19:40 20.06.2019
6094 Clear 16 1014 44 10000 8.2 70 19:19 20.06.2019
6095 Clear 16 1015 44 10000 6.2 60 18:44 20.06.2019
6096 Clear 16 1015 44 10000 9.3 80 18:23 20.06.2019
6097 Clear 16 1015 44 10000 9.3 80 17:59 20.06.2019
6098 Clear 16 1015 44 10000 10.3 80 17:41 20.06.2019
6099 Clear 16 1015 44 10000 7.2 70 16:58 20.06.2019
6100 Clear 16 1015 44 10000 9.8 80 16:39 20.06.2019
6101 Clear 16 1016 44 10000 7.7 70 16:19 20.06.2019
6102 Clear 15 1017 44 10000 5.7 50 15:43 20.06.2019
6103 Clear 15 1017 48 10000 4.6 40 15:23 20.06.2019
6104 Clear 15 1017 48 10000 4.6 40 15:23 20.06.2019
6105 Clear 15 1017 48 10000 4.1 40 14:52 20.06.2019
6106 Clear 15 1017 48 10000 4.1 40 14:24 20.06.2019
6107 Clear 16 1016 48 10000 6.7 80 13:56 20.06.2019
6108 Clear 16 1016 48 10000 6.2 70 13:37 20.06.2019
6109 Clear 16 1016 48 10000 4.6 60 13:18 20.06.2019
6110 Clear 16 1016 48 10000 5.7 80 12:40 20.06.2019
6111 Clear 16 1016 45 10000 6.2 80 12:19 20.06.2019
6112 Clear 16 1016 45 10000 7.2 80 11:40 20.06.2019
6113 Clear 17 1016 45 10000 5.7 70 11:22 20.06.2019
6114 Clear 17 1016 48 10000 6.2 90 10:43 20.06.2019
6115 Clear 18 1016 42 10000 7.7 80 10:23 20.06.2019
6116 Clear 18 1016 42 10000 7.2 90 09:41 20.06.2019
6117 Clear 18 1016 39 10000 6.2 70 09:23 20.06.2019
6118 Clear 19 1017 39 10000 6.2 90 08:48 20.06.2019
6119 Clear 19 1017 39 10000 6.2 90 08:28 20.06.2019
6120 Clear 19 1017 39 10000 5.7 90 07:59 20.06.2019
6121 Clear 19 1017 42 10000 4.6 80 07:31 20.06.2019
6122 Clear 18 1018 39 10000 6.2 80 06:57 20.06.2019
6123 Clear 17 1019 44 10000 6.2 70 06:18 20.06.2019
6124 Clear 11 1020 53 10000 6.7 70 03:39 20.06.2019
6125 Clear 9 1020 61 10000 5.7 60 00:44 20.06.2019
6126 Clear 8 1020 65 10000 5.7 70 00:25 20.06.2019
6127 Clear 8 1020 65 10000 5.1 70 23:42 19.06.2019
6128 Clear 8 1020 65 10000 5.1 80 23:24 19.06.2019
6129 Clear 8 1021 65 10000 4.1 80 22:48 19.06.2019
6130 Clear 9 1021 65 10000 5.7 90 22:24 19.06.2019
6131 Clear 9 1021 61 10000 5.1 80 21:55 19.06.2019
6132 Clear 8 1021 61 10000 5.1 80 21:37 19.06.2019
6133 Clear 8 1021 61 10000 5.1 80 21:37 19.06.2019
6134 Clear 8 1021 66 10000 5.7 70 21:18 19.06.2019
6135 Clear 8 1021 70 10000 5.1 70 20:39 19.06.2019
6136 Clear 8 1021 70 10000 4.6 60 20:20 19.06.2019
6137 Clear 8 1021 70 10000 3.6 80 19:42 19.06.2019
6138 Clear 8 1022 70 10000 3.1 70 19:23 19.06.2019
6139 Clear 8 1022 66 10000 3.6 70 18:55 19.06.2019
6140 Clear 9 1022 66 10000 3.6 80 18:22 19.06.2019
6141 Clear 8 1022 75 10000 3.6 70 17:42 19.06.2019
6142 Clear 8 1022 86 10000 1.5 50 17:23 19.06.2019
6143 Clear 8 1022 81 10000 2.1 70 16:43 19.06.2019
6144 Clear 8 1022 70 10000 4.1 100 16:22 19.06.2019
6145 Clear 9 1022 70 10000 4.1 100 15:58 19.06.2019
6146 Clear 9 1022 81 10000 3.6 90 15:31 19.06.2019
6147 Clear 9 1022 81 10000 2.6 70 14:59 19.06.2019
6148 Clear 10 1022 66 10000 2.1 110 14:41 19.06.2019
6149 Clear 10 1021 75 10000 3.1 140 14:21 19.06.2019
6150 Clear 11 1021 70 10000 4.6 130 13:43 19.06.2019
6151 Clear 11 1021 66 10000 3.6 120 13:25 19.06.2019
6152 Clear 13 1021 57 10000 3.6 90 12:47 19.06.2019
6153 Clear 14 1021 54 10000 3.1 100 12:22 19.06.2019
6154 Clear 14 1021 54 10000 3.1 100 11:57 19.06.2019
6155 Clear 15 1021 47 10000 3.6 70 11:38 19.06.2019
6156 Clear 16 1021 36 10000 4.6 80 11:20 19.06.2019
6157 Clear 18 1021 36 10000 3.6 30 10:45 19.06.2019
6158 Clear 18 1021 36 10000 4.1 40 10:27 19.06.2019
6159 Clear 18 1021 36 10000 4.1 50 09:50 19.06.2019
6160 Clear 18 1021 34 10000 4.1 50 09:22 19.06.2019
6161 Clear 18 1021 34 10000 3.1 60 08:51 19.06.2019
6162 Clear 18 1021 34 10000 3.1 60 08:29 19.06.2019
6163 Clear 19 1022 37 10000 4.1 20 07:52 19.06.2019
6164 Clear 19 1022 37 10000 4.1 20 07:34 19.06.2019
6165 Clear 18 1023 42 10000 4.6 40 06:55 19.06.2019
6166 Clear 17 1023 42 10000 4.6 40 06:30 19.06.2019
6167 Clear 15 1024 54 10000 2.6 60 05:50 19.06.2019
6168 Clear 14 1025 58 10000 3.6 70 04:41 19.06.2019
6169 Clear 12 1025 66 10000 3.6 60 03:37 19.06.2019
6170 Clear 7 1024 81 10000 3.6 50 02:30 19.06.2019
6171 Clear 6 1024 86 10000 2.6 30 01:27 19.06.2019
6172 Clear 7 1023 86 10000 2.6 30 00:46 19.06.2019
6173 Clear 5 1023 86 10000 2.6 30 00:27 19.06.2019
6174 Clear 5 1023 86 10000 3.6 30 23:55 18.06.2019
6175 Clear 6 1023 87 10000 4.6 60 23:28 18.06.2019
6176 Clear 5 1024 87 10000 2.1 60 22:55 18.06.2019
6177 Clear 5 1024 87 10000 2.1 60 22:37 18.06.2019
6178 Clear 5 1024 93 10000 1.5 80 22:18 18.06.2019
6179 Clear 5 1024 93 10000 6.48 68.918 21:42 18.06.2019
6180 Clear 5 1025 100 10000 2.1 90 21:21 18.06.2019
6181 Clear 5 1025 100 10000 2.1 90 21:21 18.06.2019
6182 Clear 5 1025 100 10000 2.1 90 21:21 18.06.2019
6183 Clear 5 1025 93 10000 4.58 92.668 20:44 18.06.2019
6184 Clear 5 1024 93 10000 4.58 92.668 20:25 18.06.2019
6185 Clear 5 1024 93 10000 4.58 92.668 19:55 18.06.2019
6186 Clear 5 1025 93 10000 2.1 50 19:37 18.06.2019
6187 Clear 6 1025 93 10000 2.1 60 19:19 18.06.2019
6188 Clear 6 1025 93 10000 2.6 70 18:43 18.06.2019
6189 Clear 8 1025 93 10000 2.6 70 18:24 18.06.2019
6190 Clear 7 1025 87 10000 2.6 60 17:40 18.06.2019
6191 Clear 8 1025 87 10000 2.6 60 17:20 18.06.2019
6192 Clear 8 1025 93 10000 1 50 16:47 18.06.2019
6193 Clear 8 1025 93 10000 1 50 16:27 18.06.2019
6194 Clear 8 1025 87 10000 2.1 30 15:55 18.06.2019
6195 Clear 9 1025 87 10000 2.1 30 15:36 18.06.2019
6196 Clear 9 1025 87 10000 2.1 30 15:36 18.06.2019
6197 Clear 9 1025 87 10000 2.1 70 15:18 18.06.2019
6198 Clear 9 1025 87 10000 2.1 170 14:42 18.06.2019
6199 Clear 10 1025 87 10000 2.6 170 14:22 18.06.2019
6200 Clear 11 1025 81 10000 2.1 120 13:53 18.06.2019
6201 Clear 11 1024 76 10000 3.1 130 13:32 18.06.2019
6202 Clear 12 1024 66 10000 2.6 140 12:56 18.06.2019
6203 Clear 12 1024 66 10000 2.6 140 12:36 18.06.2019
6204 Clear 12 1024 66 10000 2.6 140 12:36 18.06.2019
6205 Clouds 13 1024 58 10000 3.6 130 12:18 18.06.2019
6206 Clouds 14 1024 54 10000 3.6 140 11:42 18.06.2019
6207 Clouds 15 1024 48 10000 3.6 180 11:21 18.06.2019
6208 Clouds 16 1024 48 10000 3.6 180 10:56 18.06.2019
6209 Clouds 17 1024 48 10000 2.1 110 10:36 18.06.2019
6210 Clouds 17 1024 45 10000 2.6 210 10:18 18.06.2019
6211 Clouds 17 1024 45 10000 3.6 170 09:37 18.06.2019
6212 Clouds 17 1024 45 10000 2.6 360 09:18 18.06.2019
6213 Clouds 17 1024 42 10000 2.1 200 08:43 18.06.2019
6214 Clouds 17 1025 42 10000 1.5 220 08:21 18.06.2019
6215 Clouds 18 1025 45 10000 1.5 280 07:37 18.06.2019
6216 Clouds 17 1026 44 10000 2.6 200 07:18 18.06.2019
6217 Clear 14 1028 54 10000 1.5 180 05:39 18.06.2019
6218 Clouds 13 1028 76 10000 2.1 150 04:23 18.06.2019
6219 Clouds 8 1028 86 10000 2.1 200 02:51 18.06.2019
6220 Clear 5 1027 81 10000 2.6 60 01:52 18.06.2019
6221 Clear 5 1027 86 10000 2.6 60 01:24 18.06.2019
6222 Clear 5 1027 93 10000 2.6 40 00:41 18.06.2019
6223 Clear 5 1028 93 10000 4.52 62.692 00:23 18.06.2019
6224 Clear 5 1027 93 10000 4.52 62.692 23:40 17.06.2019
6225 Clear 5 1027 86 10000 4.52 62.692 23:19 17.06.2019
6226 Clear 5 1027 86 10000 4.52 62.692 23:19 17.06.2019
6227 Clear 5 1027 81 10000 2.6 20 22:42 17.06.2019
6228 Clear 5 1027 87 10000 2.1 40 22:22 17.06.2019
6229 Clear 5 1027 87 10000 2.1 40 21:56 17.06.2019
6230 Clear 5 1027 93 10000 3.1 20 21:38 17.06.2019
6231 Clear 6 1027 87 10000 0.5 60 21:18 17.06.2019
6232 Clear 6 1027 87 10000 2.1 60 20:36 17.06.2019
6233 Clear 6 1027 93 10000 0.5 40 20:18 17.06.2019
6234 Clear 7 1027 93 10000 0.5 20 19:41 17.06.2019
6235 Clear 6 1028 93 10000 2.1 50 19:21 17.06.2019
6236 Clear 7 1028 87 10000 2.6 90 18:55 17.06.2019
6237 Clear 7 1028 87 10000 2.6 90 18:36 17.06.2019
6238 Clear 8 1028 81 10000 1 80 18:18 17.06.2019
6239 Clear 8 1028 81 10000 1 80 17:41 17.06.2019
6240 Clear 8 1028 81 10000 1.5 90 17:23 17.06.2019
6241 Clouds 9 1029 81 10000 2.1 70 16:43 17.06.2019
6242 Clouds 9 1029 81 10000 2.6 90 16:25 17.06.2019
6243 Clouds 10 1029 81 10000 2.6 90 15:55 17.06.2019
6244 Clouds 10 1029 76 10000 2.1 100 15:37 17.06.2019
6245 Clouds 10 1029 76 10000 2.6 70 15:18 17.06.2019
6246 Clouds 11 1029 76 10000 2.1 90 14:43 17.06.2019
6247 Clouds 11 1029 81 10000 5.31 98.373 14:23 17.06.2019
6248 Clouds 12 1028 76 10000 2.6 120 13:47 17.06.2019
6249 Clouds 12 1028 76 10000 2.6 130 13:22 17.06.2019
6250 Clouds 13 1028 71 10000 3.1 160 12:48 17.06.2019
6251 Clouds 13 1028 71 10000 3.1 160 12:30 17.06.2019
6252 Clouds 14 1028 58 10000 3.6 130 11:45 17.06.2019
6253 Clouds 15 1028 58 10000 3.6 130 11:26 17.06.2019
6254 Clouds 16 1028 58 10000 3.1 70 10:58 17.06.2019
6255 Clouds 16 1028 58 10000 3.1 70 10:39 17.06.2019
6256 Clouds 17 1028 48 10000 2.6 50 10:21 17.06.2019
6257 Clouds 17 1028 58 10000 3.1 80 09:39 17.06.2019
6258 Clouds 17 1028 48 10000 3.6 70 09:21 17.06.2019
6259 Clouds 17 1028 51 10000 4.6 100 08:41 17.06.2019
6260 Clouds 17 1028 51 10000 3.6 80 08:23 17.06.2019
6261 Clouds 17 1028 55 10000 4.6 90 07:40 17.06.2019
6262 Clouds 17 1029 59 10000 4.1 100 07:21 17.06.2019
6263 Clouds 16 1029 62 10000 4.1 90 06:34 17.06.2019
6264 Clouds 15 1030 58 10000 5.7 100 05:44 17.06.2019
6265 Clouds 14 1030 66 10000 3.6 110 04:34 17.06.2019
6266 Clouds 12 1030 76 10000 3.6 120 03:35 17.06.2019
6267 Clouds 12 1030 81 10000 4.1 110 02:58 17.06.2019
6268 Clouds 12 1029 81 10000 3.1 110 02:39 17.06.2019
6269 Clouds 11 1029 93 10000 3.1 130 01:41 17.06.2019
6270 Clouds 11 1029 100 10000 2.6 70 00:59 17.06.2019
6271 Clouds 11 1028 100 10000 2.1 340 00:41 17.06.2019
6272 Fog 11 1028 100 10000 1 170 00:21 17.06.2019
6273 Fog 11 1028 93 10000 2.6 130 23:40 16.06.2019
6274 Fog 11 1027 93 10000 2.6 160 23:21 16.06.2019
6275 Clouds 11 1027 100 10000 2.1 70 22:47 16.06.2019
6276 Fog 11 1027 93 10000 2.6 160 22:21 16.06.2019
6277 Fog 11 1027 93 10000 2.6 160 21:59 16.06.2019
6278 Fog 12 1027 93 10000 1.5 0 21:40 16.06.2019
6279 Fog 12 1027 100 10000 1.5 0 21:21 16.06.2019
6280 Clouds 12 1027 100 10000 3.1 180 20:55 16.06.2019
6281 Clouds 12 1027 100 10000 3.1 180 20:37 16.06.2019
6282 Fog 12 1027 100 10000 1 210 20:18 16.06.2019
6283 Fog 12 1027 100 10000 1 210 20:18 16.06.2019
6284 Rain 12 1027 93 10000 1.5 0 19:40 16.06.2019
6285 Rain 12 1027 93 10000 1.5 0 19:22 16.06.2019
6286 Rain 12 1027 93 10000 2.6 330 18:57 16.06.2019
6287 Rain 12 1027 93 10000 2.6 330 18:57 16.06.2019
6288 Drizzle 12 1027 93 10000 2.6 330 18:38 16.06.2019
6289 Mist 12 1027 100 10000 1.5 0 18:19 16.06.2019
6290 Rain 11 1026 100 10000 2.1 20 17:42 16.06.2019
6291 Rain 11 1027 93 4500 6.45 180.462 17:22 16.06.2019
6292 Rain 11 1027 93 4500 6.45 180.462 17:22 16.06.2019
6293 Rain 11 1027 93 6000 6.45 180.462 16:56 16.06.2019
6294 Rain 11 1027 93 4500 6.45 180.462 16:56 16.06.2019
6295 Rain 11 1027 93 4500 6.45 180.462 16:56 16.06.2019
6296 Rain 11 1027 93 6000 6.45 180.462 16:38 16.06.2019
6297 Rain 11 1027 93 6000 6.45 180.462 16:19 16.06.2019
6298 Clouds 12 1027 93 10000 1.5 20 15:41 16.06.2019
6299 Clouds 12 1026 93 10000 2.1 30 15:23 16.06.2019
6300 Clouds 12 1026 93 10000 1.5 120 14:43 16.06.2019
6301 Clouds 13 1026 93 10000 1.5 120 14:23 16.06.2019
6302 Clouds 13 1026 87 10000 2.1 190 13:51 16.06.2019
6303 Clouds 14 1026 87 10000 2.1 190 13:26 16.06.2019
6304 Clouds 15 1025 77 10000 3.6 220 12:57 16.06.2019
6305 Clouds 15 1025 77 10000 3.6 220 12:57 16.06.2019
6306 Clouds 15 1025 77 10000 3.6 220 12:38 16.06.2019
6307 Clouds 15 1025 72 10000 3.6 210 12:18 16.06.2019
6308 Clouds 16 1025 67 10000 4.6 230 11:40 16.06.2019
6309 Clouds 17 1025 72 10000 4.6 210 11:19 16.06.2019
6310 Clouds 17 1025 67 10000 6.2 230 10:45 16.06.2019
6311 Rain 17 1025 68 10000 7.7 220 10:20 16.06.2019
6312 Rain 17 1025 68 10000 7.7 220 10:20 16.06.2019
6313 Rain 17 1024 68 10000 3.6 260 09:48 16.06.2019
6314 Rain 18 1025 77 10000 3.1 290 09:26 16.06.2019
6315 Rain 17 1025 72 10000 5.7 260 08:50 16.06.2019
6316 Rain 18 1025 72 10000 3.1 300 08:23 16.06.2019
6317 Clouds 18 1025 72 10000 3.6 350 07:54 16.06.2019
6318 Clouds 18 1025 72 10000 3.6 350 07:36 16.06.2019
6319 Clouds 18 1026 82 10000 3.6 330 06:57 16.06.2019
6320 Rain 17 1026 72 10000 2.6 360 06:27 16.06.2019
6321 Clouds 16 1027 77 10000 3.1 10 05:29 16.06.2019
6322 Clouds 15 1027 82 10000 3.1 30 04:36 16.06.2019
6323 Clouds 14 1027 87 10000 3.6 10 03:51 16.06.2019
6324 Clouds 13 1027 93 10000 2.6 30 03:30 16.06.2019
6325 Clouds 11 1025 93 10000 2.6 30 01:57 16.06.2019
6326 Clouds 11 1025 93 10000 2.6 30 01:37 16.06.2019
6327 Clouds 10 1025 93 10000 2.1 340 01:18 16.06.2019
6328 Clouds 11 1025 100 10000 2.6 60 00:39 16.06.2019
6329 Clouds 11 1024 100 10000 3.1 50 00:19 16.06.2019
6330 Clouds 11 1025 100 10000 3.1 10 23:40 15.06.2019
6331 Mist 11 1024 93 10000 1.5 0 23:21 15.06.2019
6332 Mist 11 1024 93 10000 1.5 0 22:49 15.06.2019
6333 Mist 11 1024 93 10000 1.5 0 22:26 15.06.2019
6334 Clear 11 1025 100 10000 2.6 40 21:45 15.06.2019
6335 Clear 11 1025 93 10000 3.1 50 21:27 15.06.2019
6336 Mist 11 1025 93 10000 1.5 0 20:46 15.06.2019
6337 Mist 12 1025 100 10000 1.5 0 20:27 15.06.2019
6338 Rain 11 1025 93 10000 1.5 30 19:54 15.06.2019
6339 Rain 12 1025 93 10000 1.5 30 19:30 15.06.2019
6340 Clear 12 1025 93 10000 2.6 40 18:59 15.06.2019
6341 Clear 12 1025 93 10000 2.6 40 18:37 15.06.2019
6342 Mist 12 1026 93 10000 1.5 0 18:19 15.06.2019
6343 Clouds 12 1025 93 10000 2.6 20 17:41 15.06.2019
6344 Mist 12 1025 93 10000 1.5 0 17:21 15.06.2019
6345 Clear 13 1026 93 10000 2.1 10 16:44 15.06.2019
6346 Clear 13 1026 87 10000 2.1 30 16:18 15.06.2019
6347 Clear 13 1026 93 10000 1.5 60 15:42 15.06.2019
6348 Clouds 13 1026 93 10000 1.67 159.56 15:22 15.06.2019
6349 Clear 14 1025 87 10000 1.67 159.56 14:39 15.06.2019
6350 Clear 14 1025 87 10000 1.5 210 14:18 15.06.2019
6351 Clear 14 1025 87 10000 2.1 220 13:44 15.06.2019
6352 Clouds 14 1025 82 10000 2.6 250 13:21 15.06.2019
6353 Clouds 15 1025 82 10000 2.6 250 12:59 15.06.2019
6354 Clouds 15 1025 72 10000 3.1 250 12:40 15.06.2019
6355 Clouds 16 1025 77 10000 3.6 240 12:21 15.06.2019
6356 Clouds 16 1024 72 10000 2.6 260 11:45 15.06.2019
6357 Clouds 16 1024 72 10000 2.6 260 11:45 15.06.2019
6358 Clouds 17 1025 67 10000 2.6 270 11:27 15.06.2019
6359 Clouds 17 1024 72 10000 3.1 270 10:43 15.06.2019
6360 Clouds 18 1024 63 10000 2.1 290 10:25 15.06.2019
6361 Clouds 18 1024 68 10000 3.1 340 09:48 15.06.2019
6362 Clouds 18 1024 68 10000 3.1 340 09:26 15.06.2019
6363 Clouds 18 1024 68 10000 3.1 340 09:26 15.06.2019
6364 Clouds 18 1024 63 10000 3.6 270 08:54 15.06.2019
6365 Clouds 17 1024 63 10000 3.6 270 08:34 15.06.2019
6366 Clouds 18 1025 63 10000 3.1 310 07:58 15.06.2019
6367 Clouds 18 1025 63 10000 1 330 07:25 15.06.2019
6368 Clouds 17 1025 77 10000 2.1 10 06:48 15.06.2019
6369 Clouds 18 1026 82 10000 1.5 10 06:21 15.06.2019
6370 Clouds 16 1026 87 10000 2.6 340 05:29 15.06.2019
6371 Clouds 15 1026 93 10000 2.6 10 04:49 15.06.2019
6372 Clouds 15 1026 93 10000 2.6 10 04:49 15.06.2019
6373 Clouds 13 1026 100 9000 3.6 30 03:49 15.06.2019
6374 Drizzle 12 1026 93 6000 0.5 360 02:58 15.06.2019
6375 Rain 11 1025 100 9000 2.1 20 02:23 15.06.2019
6376 Rain 11 1025 100 4000 2.6 340 01:50 15.06.2019
6377 Rain 11 1024 93 10000 1.5 0 00:59 15.06.2019
6378 Fog 11 1024 100 7000 2.6 360 00:39 15.06.2019
6379 Rain 10 1024 100 7000 1.5 50 23:55 14.06.2019
6380 Rain 11 1024 100 7000 1.5 50 23:27 14.06.2019
6381 Fog 10 1023 93 10000 1.5 0 22:56 14.06.2019
6382 Fog 10 1023 93 10000 1.5 0 22:37 14.06.2019
6383 Fog 10 1024 100 5000 1.5 170 22:19 14.06.2019
6384 Clouds 11 1023 100 5000 2.6 120 21:40 14.06.2019
6385 Fog 10 1023 100 10000 1.5 0 21:22 14.06.2019
6386 Clouds 10 1024 93 10000 2.1 30 20:43 14.06.2019
6387 Clouds 10 1024 93 10000 2.1 30 20:43 14.06.2019
6388 Fog 11 1023 93 10000 1.5 0 20:19 14.06.2019
6389 Fog 11 1023 93 10000 1.5 0 19:56 14.06.2019
6390 Rain 11 1023 93 10000 3.1 20 19:36 14.06.2019
6391 Fog 11 1024 93 5000 1 10 19:18 14.06.2019
6392 Rain 11 1023 100 10000 3.1 40 18:42 14.06.2019
6393 Rain 11 1024 100 7000 2.1 30 18:24 14.06.2019
6394 Rain 11 1024 100 7000 2.1 30 18:24 14.06.2019
6395 Clouds 11 1023 93 10000 3.6 30 17:55 14.06.2019
6396 Clouds 11 1023 93 10000 3.6 30 17:36 14.06.2019
6397 Fog 11 1023 100 10000 1.5 0 17:18 14.06.2019
6398 Clear 11 1023 100 10000 2.1 30 16:44 14.06.2019
6399 Fog 11 1023 100 10000 1.5 0 16:19 14.06.2019
6400 Fog 11 1023 100 10000 1.5 0 16:19 14.06.2019
6401 Fog 11 1023 100 10000 1.5 0 16:19 14.06.2019
6402 Fog 11 1023 100 10000 1.5 0 16:19 14.06.2019
6403 Clouds 12 1023 93 10000 2.1 20 15:42 14.06.2019
6404 Fog 12 1023 100 10000 1.5 0 15:23 14.06.2019
6405 Fog 12 1023 100 10000 1.5 0 14:59 14.06.2019
6406 Fog 12 1023 100 10000 1.5 0 14:59 14.06.2019
6407 Fog 12 1023 100 10000 1.5 0 14:59 14.06.2019
6408 -273 0 0 0 0 0 14:59 14.06.2019
6409 Clouds 12 1023 93 10000 0.5 230 14:39 14.06.2019
6410 Clouds 12 1023 93 10000 0.5 230 14:38 14.06.2019
6411 Clouds 13 1023 82 10000 2.6 230 14:19 14.06.2019
6412 Clouds 13 1023 82 10000 2.6 230 14:19 14.06.2019
6413 Clouds 13 1023 93 10000 3.1 240 13:42 14.06.2019
6414 Clouds 13 1022 93 10000 2.6 260 13:24 14.06.2019
6415 Rain 14 1022 82 10000 2.6 260 12:42 14.06.2019
6416 Rain 14 1022 82 10000 2.6 260 12:42 14.06.2019
6417 Clouds 14 1022 82 10000 3.6 240 12:24 14.06.2019
6418 Clouds 15 1022 82 10000 3.6 240 11:57 14.06.2019
6419 Clouds 16 1022 82 10000 2.6 240 11:38 14.06.2019
6420 Clouds 16 1022 82 10000 2.6 230 11:20 14.06.2019
6421 Clouds 16 1022 82 10000 3.1 240 10:42 14.06.2019
6422 Clouds 17 1022 77 10000 2.6 270 10:18 14.06.2019
6423 Clouds 17 1022 82 10000 2.1 270 09:43 14.06.2019
6424 Rain 17 1022 82 6000 3.6 270 09:22 14.06.2019
6425 Rain 16 1022 87 8000 2.1 190 08:46 14.06.2019
6426 Rain 16 1022 93 9000 2.6 280 08:19 14.06.2019
6427 Rain 16 1022 93 7000 4.6 330 07:50 14.06.2019
6428 Rain 15 1022 100 5000 4.1 330 07:21 14.06.2019
6429 Rain 15 1022 93 10000 3.6 330 06:34 14.06.2019
6430 Rain 15 1023 82 10000 3.1 20 05:56 14.06.2019
6431 Clouds 15 1023 87 10000 3.1 30 05:19 14.06.2019
6432 Rain 15 1024 93 10000 1.5 10 04:39 14.06.2019
6433 Rain 13 1024 100 10000 3.6 40 03:52 14.06.2019
6434 Rain 12 1024 100 10000 3.6 40 03:25 14.06.2019
6435 Rain 11 1024 93 8000 1.5 340 02:49 14.06.2019
6436 Rain 11 1024 93 8000 1.5 340 02:27 14.06.2019
6437 Clouds 10 1023 100 7000 3.6 360 00:57 14.06.2019
6438 Mist 9 1022 93 10000 1.5 30 00:23 14.06.2019
6439 Mist 9 1022 93 10000 1.5 30 23:57 13.06.2019
6440 Mist 9 1022 93 10000 1.5 30 23:39 13.06.2019
6441 Mist 9 1022 93 10000 1.5 30 23:39 13.06.2019
6442 Clear 8 1022 100 10000 2.6 10 23:20 13.06.2019
6443 Fog 9 1022 100 10000 1.5 30 22:39 13.06.2019
6444 Fog 9 1022 100 10000 1.5 30 22:39 13.06.2019
6445 Fog 9 1022 100 10000 1.5 30 22:20 13.06.2019
6446 Fog 10 1022 100 900 1.5 50 21:39 13.06.2019
6447 Fog 10 1023 100 10000 1.5 30 21:20 13.06.2019
6448 Fog 10 1023 100 10000 1.5 30 21:20 13.06.2019
6449 Fog 10 1023 100 10000 1.5 30 20:45 13.06.2019
6450 Fog 10 1023 100 10000 1.5 30 20:22 13.06.2019
6451 Fog 10 1023 100 10000 1.5 30 19:59 13.06.2019
6452 Fog 10 1023 100 10000 1.5 30 19:41 13.06.2019
6453 Clouds 11 1023 100 10000 2.1 50 19:21 13.06.2019
6454 Rain 11 1023 100 9000 3.1 40 18:55 13.06.2019
6455 Rain 11 1023 100 9000 3.1 40 18:36 13.06.2019
6456 Clouds 11 1023 100 8000 2.6 30 18:18 13.06.2019
6457 Fog 11 1023 100 10000 1.5 30 17:41 13.06.2019
6458 Clear 11 1023 100 10000 2.6 40 17:20 13.06.2019
6459 Clouds 12 1024 93 8000 2.6 30 16:46 13.06.2019
6460 Clouds 12 1024 100 10000 2.6 30 16:21 13.06.2019
6461 Clouds 12 1024 100 10000 2.6 30 15:57 13.06.2019
6462 Fog 13 1024 100 10000 1.5 30 15:38 13.06.2019
6463 Fog 13 1024 100 10000 1.5 30 15:18 13.06.2019
6464 Fog 13 1023 93 10000 1.5 30 14:44 13.06.2019
6465 Rain 13 1023 100 4900 4.69 210.731 14:23 13.06.2019
6466 Rain 14 1023 93 6000 3.6 200 13:46 13.06.2019
6467 Rain 14 1023 87 7000 3.1 200 13:21 13.06.2019
6468 Clouds 14 1023 82 10000 2.6 310 12:44 13.06.2019
6469 Clouds 14 1022 77 10000 2.6 290 12:23 13.06.2019
6470 Clouds 15 1022 77 10000 2.6 290 11:59 13.06.2019
6471 Clouds 15 1022 67 10000 3.6 290 11:39 13.06.2019
6472 Rain 16 1022 63 10000 3.6 290 11:21 13.06.2019
6473 Clouds 17 1022 63 10000 3.6 280 10:45 13.06.2019
6474 Clouds 17 1022 63 10000 3.6 280 10:26 13.06.2019
6475 Clouds 17 1022 63 10000 4.1 270 09:44 13.06.2019
6476 Clouds 17 1022 67 10000 4.6 340 09:24 13.06.2019
6477 Clouds 17 1022 67 10000 4.6 340 09:24 13.06.2019
6478 Clouds 17 1022 67 10000 4.6 340 09:24 13.06.2019
6479 Rain 17 1022 68 10000 4.6 360 08:49 13.06.2019
6480 Rain 17 1022 68 10000 4.6 360 08:28 13.06.2019
6481 Rain 17 1022 68 10000 5.7 360 07:56 13.06.2019
6482 Rain 17 1022 63 10000 4.1 310 07:27 13.06.2019
6483 Rain 17 1023 77 10000 5.1 10 06:51 13.06.2019
6484 Rain 16 1023 77 10000 4.1 10 06:24 13.06.2019
6485 Rain 16 1023 77 10000 4.1 10 05:56 13.06.2019
6486 Clouds 15 1024 87 10000 3.6 40 05:37 13.06.2019
6487 Clouds 14 1024 93 10000 4.1 20 04:58 13.06.2019
6488 Rain 11 1023 93 7000 2.6 60 02:33 13.06.2019
6489 Rain 10 1022 100 10000 2.6 50 00:55 13.06.2019
6490 Drizzle 10 1022 100 10000 2.6 30 00:22 13.06.2019
6491 Drizzle 10 1021 93 10000 2.6 30 23:24 12.06.2019
6492 Rain 10 1021 93 10000 2.6 50 22:45 12.06.2019
6493 Drizzle 10 1021 100 10000 2.6 30 22:26 12.06.2019
6494 Clouds 10 1022 93 10000 3.1 40 21:57 12.06.2019
6495 Clouds 10 1022 93 10000 3.1 40 21:38 12.06.2019
6496 Clouds 10 1022 93 10000 3.6 40 21:18 12.06.2019
6497 Clouds 10 1022 100 10000 2.6 30 20:38 12.06.2019
6498 Clear 10 1022 93 10000 3.1 30 20:20 12.06.2019
6499 Clear 11 1022 93 10000 3.6 40 19:42 12.06.2019
6500 Clouds 11 1022 93 10000 2.6 10 19:23 12.06.2019
6501 Clouds 11 1022 93 10000 2.6 10 18:57 12.06.2019
6502 Clear 11 1022 93 10000 2.6 50 18:39 12.06.2019
6503 Clouds 11 1022 87 10000 2.6 50 18:19 12.06.2019
6504 Clear 12 1022 93 10000 3.1 60 17:44 12.06.2019
6505 Clear 12 1022 87 10000 2.6 60 17:21 12.06.2019
6506 Clouds 12 1022 87 10000 2.6 30 16:42 12.06.2019
6507 Clouds 12 1023 87 10000 2.1 30 16:23 12.06.2019
6508 Clouds 12 1023 87 10000 3.1 90 15:54 12.06.2019
6509 Clouds 12 1023 87 10000 3.1 90 15:32 12.06.2019
6510 Clouds 12 1023 87 10000 3.1 50 14:49 12.06.2019
6511 Clouds 13 1023 87 10000 3.1 50 14:27 12.06.2019
6512 Clouds 13 1022 87 10000 7 257.973 13:44 12.06.2019
6513 Clouds 13 1022 81 10000 6.85 256.518 13:21 12.06.2019
6514 Clouds 13 1022 81 10000 6.85 256.518 12:59 12.06.2019
6515 Clouds 13 1022 71 10000 2.1 260 12:39 12.06.2019
6516 Clouds 13 1022 71 10000 2.1 260 12:39 12.06.2019
6517 Clouds 14 1021 58 10000 2.6 260 12:19 12.06.2019
6518 Clouds 14 1021 58 10000 3.6 250 11:47 12.06.2019
6519 Clouds 15 1021 58 10000 3.6 250 11:28 12.06.2019
6520 Rain 16 1021 51 10000 5.7 260 10:52 12.06.2019
6521 Rain 17 1021 51 10000 5.7 260 10:34 12.06.2019
6522 Clouds 17 1021 48 10000 6.2 240 09:55 12.06.2019
6523 Clouds 17 1021 51 10000 5.1 240 09:37 12.06.2019
6524 Rain 18 1021 51 10000 4.6 260 09:18 12.06.2019
6525 Clouds 18 1021 51 10000 4.6 260 08:25 12.06.2019
6526 Rain 17 1021 59 10000 3.1 290 07:52 12.06.2019
6527 Clouds 17 1022 67 10000 2.6 160 06:55 12.06.2019
6528 Rain 16 1022 72 10000 2.6 320 05:52 12.06.2019
6529 Rain 16 1022 82 10000 3.6 280 05:23 12.06.2019
6530 Rain 12 1021 100 10000 2.1 120 02:18 12.06.2019
6531 Rain 11 1019 100 10000 2.6 30 00:40 12.06.2019
6532 Rain 12 1019 100 5000 2.1 30 23:52 11.06.2019
6533 Rain 12 1019 100 5000 2.1 30 23:33 11.06.2019
6534 Rain 12 1019 100 5000 2.6 40 22:44 11.06.2019
6535 Rain 12 1019 93 8000 2.1 30 22:23 11.06.2019
6536 Rain 12 1019 93 8000 2.1 30 21:58 11.06.2019
6537 Rain 12 1019 61 4000 8.11 242.468 21:40 11.06.2019
6538 Rain 11 1018 100 10000 2.1 70 21:21 11.06.2019
6539 Rain 11 1018 100 9000 1.5 360 20:49 11.06.2019
6540 Rain 11 1018 100 8000 2.6 30 20:27 11.06.2019
6541 Rain 11 1018 100 5000 8.49 232.872 19:57 11.06.2019
6542 -273 0 0 0 0 0 19:39 11.06.2019
6543 Rain 11 1018 100 5000 8.49 232.872 19:38 11.06.2019
6544 Rain 11 1018 93 10000 2.1 50 18:59 11.06.2019
6545 Rain 11 1018 93 10000 2.1 50 18:58 11.06.2019
6546 Rain 11 1018 93 10000 2.1 50 18:23 11.06.2019
6547 Rain 11 1018 93 10000 2.1 50 18:22 11.06.2019
6548 Rain 11 1018 93 10000 2.6 40 17:42 11.06.2019
6549 Rain 11 1017 93 10000 3.6 10 17:23 11.06.2019
6550 Rain 11 1017 93 10000 3.6 10 16:58 11.06.2019
6551 Rain 11 1018 93 10000 2.6 30 16:40 11.06.2019
6552 Rain 11 1017 93 10000 3.1 10 16:22 11.06.2019
6553 Rain 11 1017 100 10000 3.1 40 15:42 11.06.2019
6554 Rain 12 1017 93 8000 3.6 10 15:23 11.06.2019
6555 Rain 12 1017 100 5000 2.6 360 14:49 11.06.2019
6556 Rain 12 1017 93 8000 3.1 330 14:22 11.06.2019
6557 Rain 12 1016 93 10000 2.6 290 13:52 11.06.2019
6558 Rain 12 1016 93 8000 2.1 270 13:24 11.06.2019
6559 Rain 12 1016 93 8000 2.1 270 13:24 11.06.2019
6560 Rain 12 1016 93 8000 2.1 270 12:58 11.06.2019
6561 Rain 12 1016 87 7000 3.1 250 12:40 11.06.2019
6562 Rain 12 1015 87 10000 3.1 270 12:19 11.06.2019
6563 Rain 13 1015 87 10000 2.1 190 11:39 11.06.2019
6564 Rain 13 1014 87 10000 4.6 230 11:19 11.06.2019
6565 Rain 14 1014 71 10000 4.1 230 10:46 11.06.2019
6566 Rain 14 1014 71 10000 4.1 230 10:46 11.06.2019
6567 Rain 14 1014 87 10000 0.5 210 10:25 11.06.2019
6568 Rain 15 1013 67 10000 3.1 240 09:49 11.06.2019
6569 Rain 15 1012 67 10000 1.5 280 09:24 11.06.2019
6570 Rain 15 1012 67 10000 1.5 280 09:24 11.06.2019
6571 Rain 16 1012 72 10000 2.6 320 08:45 11.06.2019
6572 Rain 16 1012 72 10000 2.6 350 08:25 11.06.2019
6573 Rain 15 1012 76 6000 2.1 180 07:38 11.06.2019
6574 Rain 15 1012 76 10000 3.1 320 06:56 11.06.2019
6575 Rain 14 1012 87 10000 4.1 330 06:30 11.06.2019
6576 Thunderstorm 13 1011 87 10000 1 140 04:53 11.06.2019
6577 Rain 11 1010 81 2500 10.3 240 02:54 11.06.2019
6578 Rain 12 1007 76 10000 5.7 250 01:33 11.06.2019
6579 Rain 12 1006 71 10000 4.6 270 00:46 11.06.2019
6580 Rain 12 1005 76 10000 4.6 260 23:47 10.06.2019
6581 Rain 12 1005 81 10000 7.7 240 23:22 10.06.2019
6582 Rain 12 1005 81 10000 7.7 240 22:55 10.06.2019
6583 Rain 12 1005 76 2000 13.9 270 22:36 10.06.2019
6584 Rain 12 1005 76 5000 8.7 230 22:18 10.06.2019
6585 Rain 12 1004 71 10000 8.7 270 21:40 10.06.2019
6586 Rain 12 1005 76 10000 3.6 280 21:22 10.06.2019
6587 Rain 12 1006 87 5000 3.6 350 20:46 10.06.2019
6588 Rain 12 1006 87 6000 3.1 320 20:23 10.06.2019
6589 Rain 13 1004 62 10000 10.8 270 19:54 10.06.2019
6590 Rain 12 1004 62 10000 10.8 270 19:28 10.06.2019
6591 Rain 12 1005 66 10000 5.1 270 18:59 10.06.2019
6592 Rain 13 1005 71 10000 4.1 270 18:41 10.06.2019
6593 Rain 13 1005 87 10000 3.6 290 18:21 10.06.2019
6594 Clouds 13 1005 58 10000 7.7 270 17:58 10.06.2019
6595 Rain 13 1005 93 10000 3.1 10 17:37 10.06.2019
6596 Rain 12 1005 87 10000 3.1 340 17:19 10.06.2019
6597 Rain 12 1004 62 10000 8.2 270 16:42 10.06.2019
6598 Rain 13 1004 58 10000 7.7 270 16:22 10.06.2019
6599 Rain 12 1005 81 10000 2.6 290 15:42 10.06.2019
6600 Rain 12 1005 81 10000 7.7 270 15:24 10.06.2019
6601 Rain 12 1004 62 10000 8.7 270 14:49 10.06.2019
6602 Rain 12 1004 62 10000 8.7 270 14:31 10.06.2019
6603 Rain 12 1004 62 10000 5.1 270 13:59 10.06.2019
6604 Rain 12 1004 62 10000 8.2 260 13:40 10.06.2019
6605 Rain 12 1004 62 10000 8.2 260 13:40 10.06.2019
6606 Rain 13 1004 76 10000 4.1 270 13:20 10.06.2019
6607 Rain 12 1004 81 10000 2.6 260 12:42 10.06.2019
6608 Rain 12 1004 81 7000 4.6 280 12:23 10.06.2019
6609 Rain 12 1004 71 10000 7.7 270 11:43 10.06.2019
6610 Rain 12 1003 71 5000 7.7 270 11:23 10.06.2019
6611 Rain 12 1002 58 10000 9.8 270 10:42 10.06.2019
6612 Rain 13 1002 71 10000 7.7 260 10:20 10.06.2019
6613 Rain 13 1002 71 10000 7.7 260 09:57 10.06.2019
6614 Rain 13 1003 87 10000 7.2 250 09:38 10.06.2019
6615 Rain 13 1002 76 4000 9.8 260 09:19 10.06.2019
6616 Rain 13 1001 82 9000 8.7 240 08:43 10.06.2019
6617 Rain 13 1001 87 3000 8.7 240 08:18 10.06.2019
6618 Thunderstorm 15 1000 82 2000 12.3 270 06:34 10.06.2019
6619 Rain 17 1001 72 10000 10.8 320 04:27 10.06.2019
6620 Rain 15 1002 87 10000 7.7 320 01:57 10.06.2019
6621 Rain 15 1003 93 10000 7.2 300 01:23 10.06.2019
6622 Rain 15 1003 87 4000 11.8 300 00:54 10.06.2019
6623 Rain 15 1003 87 10000 9.3 300 23:59 09.06.2019
6624 Rain 15 1003 93 5000 10.3 300 23:40 09.06.2019
6625 Rain 15 1003 87 5000 9.3 290 23:18 09.06.2019
6626 Rain 15 1003 77 10000 9.8 310 22:42 09.06.2019
6627 Rain 15 1005 93 10000 8.7 310 22:24 09.06.2019
6628 Rain 15 1005 87 2000 5.7 310 21:41 09.06.2019
6629 Rain 15 1005 87 6000 10.8 310 21:22 09.06.2019
6630 Rain 16 1005 93 5000 9.3 300 20:42 09.06.2019
6631 Rain 16 1005 93 9000 8.7 290 20:22 09.06.2019
6632 Rain 16 1006 67 10000 6.7 320 19:46 09.06.2019
6633 Rain 16 1006 77 10000 5.1 320 19:19 09.06.2019
6634 Rain 16 1006 77 10000 5.1 320 18:57 09.06.2019
6635 Rain 16 1006 72 10000 9.3 300 18:39 09.06.2019
6636 Rain 16 1007 72 10000 7.7 300 18:21 09.06.2019
6637 Clouds 16 1008 72 10000 6.2 310 17:46 09.06.2019
6638 Rain 16 1008 77 10000 6.7 280 17:26 09.06.2019
6639 Rain 15 1008 77 10000 7.7 290 16:41 09.06.2019
6640 Rain 16 1009 72 10000 6.2 300 16:21 09.06.2019
6641 Rain 15 1009 82 10000 7.7 280 15:56 09.06.2019
6642 Rain 15 1009 82 10000 7.7 280 15:38 09.06.2019
6643 Rain 15 1009 77 10000 8.2 290 15:20 09.06.2019
6644 Rain 15 1010 87 10000 4.6 310 14:42 09.06.2019
6645 Rain 15 1009 82 10000 5.7 300 14:21 09.06.2019
6646 Rain 15 1010 77 10000 5.7 300 13:50 09.06.2019
6647 Clouds 15 1010 77 10000 4.6 290 13:19 09.06.2019
6648 Rain 15 1010 77 10000 5.1 280 12:40 09.06.2019
6649 Rain 15 1011 87 6000 3.6 260 12:21 09.06.2019
6650 Rain 15 1010 82 10000 5.1 290 11:39 09.06.2019
6651 Rain 16 1010 72 10000 5.7 290 11:20 09.06.2019
6652 Rain 16 1010 67 10000 6.2 270 10:44 09.06.2019
6653 Rain 16 1009 59 10000 9.3 270 10:22 09.06.2019
6654 Rain 16 1009 59 10000 8.2 270 09:40 09.06.2019
6655 Rain 16 1010 59 10000 7.7 270 09:21 09.06.2019
6656 Rain 17 1009 63 10000 9.8 270 08:46 09.06.2019
6657 Rain 16 1009 63 10000 9.8 270 08:28 09.06.2019
6658 Rain 16 1010 63 10000 7.7 270 07:21 09.06.2019
6659 Rain 16 1011 59 10000 7.7 270 06:30 09.06.2019
6660 Clouds 16 1010 55 10000 8.7 250 04:35 09.06.2019
6661 Rain 11 1008 76 10000 7.7 260 01:38 09.06.2019
6662 Rain 12 1009 66 10000 8.2 230 01:20 09.06.2019
6663 Rain 11 1007 71 10000 7.7 250 00:58 09.06.2019
6664 Rain 11 1007 71 10000 8.2 240 23:43 08.06.2019
6665 Rain 11 1007 76 10000 7.7 240 23:24 08.06.2019
6666 Rain 11 1007 76 10000 7.7 240 22:56 08.06.2019
6667 Rain 11 1007 87 6000 9.8 270 22:38 08.06.2019
6668 Rain 11 1006 76 10000 6.2 240 22:19 08.06.2019
6669 Rain 11 1006 76 10000 6.2 240 22:19 08.06.2019
6670 Rain 11 1006 71 10000 7.7 240 21:50 08.06.2019
6671 Rain 11 1006 71 10000 7.7 240 21:26 08.06.2019
6672 Rain 11 1006 71 8000 5.7 260 20:47 08.06.2019
6673 Rain 12 1006 81 10000 7.7 250 20:26 08.06.2019
6674 Rain 12 1006 81 10000 7.7 250 19:58 08.06.2019
6675 Rain 11 1006 93 10000 3.1 360 19:39 08.06.2019
6676 Rain 11 1005 76 10000 9.8 250 19:19 08.06.2019
6677 Rain 11 1006 81 10000 7.7 240 18:51 08.06.2019
6678 Rain 11 1006 81 10000 7.7 240 18:32 08.06.2019
6679 Rain 12 1005 66 10000 7.7 240 17:48 08.06.2019
6680 Rain 12 1005 71 6000 8.7 260 17:23 08.06.2019
6681 Rain 12 1005 71 10000 5.7 240 16:54 08.06.2019
6682 Rain 13 1005 71 10000 5.7 240 16:35 08.06.2019
6683 Drizzle 13 1005 76 10000 7.7 250 15:53 08.06.2019
6684 Rain 13 1005 76 10000 7.7 250 15:33 08.06.2019
6685 Rain 12 1005 93 10000 3.1 280 14:48 08.06.2019
6686 Rain 12 1005 93 10000 3.1 280 14:29 08.06.2019
6687 Rain 13 1004 93 10000 2.1 200 13:49 08.06.2019
6688 Rain 13 1005 87 8000 9.8 240 12:54 08.06.2019
6689 Rain 13 1005 87 8000 9.8 240 12:34 08.06.2019
6690 Rain 13 1004 93 10000 7.2 240 11:51 08.06.2019